<?xml version="1.0" encoding="UTF-8" standalone="no" ?>
<gpx xmlns="http://www.topografix.com/GPX/1/1" xmlns:xsi="http://www.w3.org/2001/XMLSchema-instance" xsi:schemaLocation="http://www.topografix.com/GPX/1/1 http://www.topografix.com/GPX/1/1/gpx.xsd" version="1.1" creator="VisuGPX - https://www.visugpx.com">
  <metadata>
    <name>SucRoute20G</name>
  </metadata>
  <trk>
    <name><![CDATA[SucRoute20G]]></name>
    <extensions>
      <line xmlns="http://www.topografix.com/GPX/gpx_style/0/2">
        <color>0000FF</color>
        <width>4</width>
      </line>
    </extensions>
    <trkseg>
      <trkpt lat="45.25843" lon="4.10426">
        <ele>561.77807617188</ele>
        <time>2022-05-10T21:09:16Z</time>
      </trkpt>
      <trkpt lat="45.25845" lon="4.10421">
        <ele>561.74523925781</ele>
        <time>2022-05-10T21:09:16Z</time>
      </trkpt>
      <trkpt lat="45.25809" lon="4.10393">
        <ele>562.12005615234</ele>
        <time>2022-05-10T21:09:16Z</time>
      </trkpt>
      <trkpt lat="45.25776" lon="4.1035">
        <ele>564.41741943359</ele>
        <time>2022-05-10T21:09:17Z</time>
      </trkpt>
      <trkpt lat="45.25753" lon="4.10315">
        <ele>565.00012207031</ele>
        <time>2022-05-10T21:09:28Z</time>
      </trkpt>
      <trkpt lat="45.25743" lon="4.10295">
        <ele>565.79010009766</ele>
        <time>2022-05-10T21:09:40Z</time>
      </trkpt>
      <trkpt lat="45.25726" lon="4.10254">
        <ele>566.98419189453</ele>
        <time>2022-05-10T21:09:49Z</time>
      </trkpt>
      <trkpt lat="45.25714" lon="4.10216">
        <ele>568.05767822266</ele>
        <time>2022-05-10T21:09:54Z</time>
      </trkpt>
      <trkpt lat="45.25706" lon="4.10196">
        <ele>569.79138183594</ele>
        <time>2022-05-10T21:10:03Z</time>
      </trkpt>
      <trkpt lat="45.25695" lon="4.10175">
        <ele>570.94134521484</ele>
        <time>2022-05-10T21:10:04Z</time>
      </trkpt>
      <trkpt lat="45.2566" lon="4.10118">
        <ele>574.87719726562</ele>
        <time>2022-05-10T21:10:09Z</time>
      </trkpt>
      <trkpt lat="45.25634" lon="4.10083">
        <ele>577.421875</ele>
        <time>2022-05-10T21:10:16Z</time>
      </trkpt>
      <trkpt lat="45.25606" lon="4.10056">
        <ele>578.40270996094</ele>
        <time>2022-05-10T21:10:19Z</time>
      </trkpt>
      <trkpt lat="45.25572" lon="4.10031">
        <ele>580.07000732422</ele>
        <time>2022-05-10T21:10:21Z</time>
      </trkpt>
      <trkpt lat="45.25518" lon="4.1">
        <ele>580.19927978516</ele>
        <time>2022-05-10T21:10:26Z</time>
      </trkpt>
      <trkpt lat="45.25487" lon="4.09986">
        <ele>579.78973388672</ele>
        <time>2022-05-10T21:10:30Z</time>
      </trkpt>
      <trkpt lat="45.25468" lon="4.09978">
        <ele>579.48187255859</ele>
        <time>2022-05-10T21:10:36Z</time>
      </trkpt>
      <trkpt lat="45.25452" lon="4.09974">
        <ele>579.21673583984</ele>
        <time>2022-05-10T21:10:40Z</time>
      </trkpt>
      <trkpt lat="45.25433" lon="4.09971">
        <ele>580.13104248047</ele>
        <time>2022-05-10T21:10:58Z</time>
      </trkpt>
      <trkpt lat="45.25395" lon="4.09963">
        <ele>579.01556396484</ele>
        <time>2022-05-10T21:11:17Z</time>
      </trkpt>
      <trkpt lat="45.25351" lon="4.09945">
        <ele>577.97442626953</ele>
        <time>2022-05-10T21:11:29Z</time>
      </trkpt>
      <trkpt lat="45.2531" lon="4.09925">
        <ele>577.78082275391</ele>
        <time>2022-05-10T21:11:37Z</time>
      </trkpt>
      <trkpt lat="45.25279" lon="4.09908">
        <ele>578.86724853516</ele>
        <time>2022-05-10T21:12:11Z</time>
      </trkpt>
      <trkpt lat="45.25271" lon="4.09901">
        <ele>579.107421875</ele>
        <time>2022-05-10T21:12:32Z</time>
      </trkpt>
      <trkpt lat="45.25259" lon="4.09891">
        <ele>577.81658935547</ele>
        <time>2022-05-10T21:13:23Z</time>
      </trkpt>
      <trkpt lat="45.25258" lon="4.09875">
        <ele>577.40264892578</ele>
        <time>2022-05-10T21:13:38Z</time>
      </trkpt>
      <trkpt lat="45.25237" lon="4.09867">
        <ele>578.17797851562</ele>
        <time>2022-05-10T21:13:47Z</time>
      </trkpt>
      <trkpt lat="45.25222" lon="4.09858">
        <ele>578.28668212891</ele>
        <time>2022-05-10T21:13:51Z</time>
      </trkpt>
      <trkpt lat="45.25197" lon="4.09837">
        <ele>579.5390625</ele>
        <time>2022-05-10T21:13:55Z</time>
      </trkpt>
      <trkpt lat="45.25146" lon="4.09787">
        <ele>580.92596435547</ele>
        <time>2022-05-10T21:14:00Z</time>
      </trkpt>
      <trkpt lat="45.25069" lon="4.09714">
        <ele>584.38342285156</ele>
        <time>2022-05-10T21:14:36Z</time>
      </trkpt>
      <trkpt lat="45.25042" lon="4.0969">
        <ele>587.13732910156</ele>
        <time>2022-05-10T21:14:51Z</time>
      </trkpt>
      <trkpt lat="45.25036" lon="4.09685">
        <ele>587.58996582031</ele>
        <time>2022-05-10T21:15:00Z</time>
      </trkpt>
      <trkpt lat="45.25001" lon="4.09661">
        <ele>588.62487792969</ele>
        <time>2022-05-10T21:15:01Z</time>
      </trkpt>
      <trkpt lat="45.24972" lon="4.09646">
        <ele>589.68408203125</ele>
        <time>2022-05-10T21:15:01Z</time>
      </trkpt>
      <trkpt lat="45.24951" lon="4.09631">
        <ele>590.03430175781</ele>
        <time>2022-05-10T21:15:02Z</time>
      </trkpt>
      <trkpt lat="45.24872" lon="4.09574">
        <ele>591.84790039062</ele>
        <time>2022-05-10T21:15:13Z</time>
      </trkpt>
      <trkpt lat="45.24854" lon="4.0956">
        <ele>591.64593505859</ele>
        <time>2022-05-10T21:15:25Z</time>
      </trkpt>
      <trkpt lat="45.24805" lon="4.09514">
        <ele>589.53723144531</ele>
        <time>2022-05-10T21:15:34Z</time>
      </trkpt>
      <trkpt lat="45.24781" lon="4.09486">
        <ele>588.82348632812</ele>
        <time>2022-05-10T21:15:39Z</time>
      </trkpt>
      <trkpt lat="45.24764" lon="4.09466">
        <ele>587.83099365234</ele>
        <time>2022-05-10T21:15:48Z</time>
      </trkpt>
      <trkpt lat="45.24765" lon="4.09479">
        <ele>588.10510253906</ele>
        <time>2022-05-10T21:15:56Z</time>
      </trkpt>
      <trkpt lat="45.24763" lon="4.09491">
        <ele>587.75329589844</ele>
        <time>2022-05-10T21:16:00Z</time>
      </trkpt>
      <trkpt lat="45.24754" lon="4.0951">
        <ele>587.21020507812</ele>
        <time>2022-05-10T21:16:05Z</time>
      </trkpt>
      <trkpt lat="45.24728" lon="4.0951">
        <ele>585.96136474609</ele>
        <time>2022-05-10T21:16:19Z</time>
      </trkpt>
      <trkpt lat="45.24704" lon="4.09507">
        <ele>584.85028076172</ele>
        <time>2022-05-10T21:16:29Z</time>
      </trkpt>
      <trkpt lat="45.24674" lon="4.09503">
        <ele>583.85546875</ele>
        <time>2022-05-10T21:16:38Z</time>
      </trkpt>
      <trkpt lat="45.2461" lon="4.09509">
        <ele>580.7587890625</ele>
        <time>2022-05-10T21:16:48Z</time>
      </trkpt>
      <trkpt lat="45.24587" lon="4.09512">
        <ele>579.95147705078</ele>
        <time>2022-05-10T21:17:04Z</time>
      </trkpt>
      <trkpt lat="45.24567" lon="4.0952">
        <ele>579.08831787109</ele>
        <time>2022-05-10T21:17:13Z</time>
      </trkpt>
      <trkpt lat="45.24546" lon="4.09531">
        <ele>577.02020263672</ele>
        <time>2022-05-10T21:17:18Z</time>
      </trkpt>
      <trkpt lat="45.24533" lon="4.09534">
        <ele>575.82379150391</ele>
        <time>2022-05-10T21:17:22Z</time>
      </trkpt>
      <trkpt lat="45.24512" lon="4.09532">
        <ele>573.56494140625</ele>
        <time>2022-05-10T21:17:27Z</time>
      </trkpt>
      <trkpt lat="45.24479" lon="4.09526">
        <ele>571.61553955078</ele>
        <time>2022-05-10T21:17:27Z</time>
      </trkpt>
      <trkpt lat="45.24422" lon="4.09517">
        <ele>566.88000488281</ele>
        <time>2022-05-10T21:17:28Z</time>
      </trkpt>
      <trkpt lat="45.24372" lon="4.0951">
        <ele>563.23937988281</ele>
        <time>2022-05-10T21:17:39Z</time>
      </trkpt>
      <trkpt lat="45.24365" lon="4.09506">
        <ele>562.45025634766</ele>
        <time>2022-05-10T21:17:51Z</time>
      </trkpt>
      <trkpt lat="45.24351" lon="4.0949">
        <ele>561.0087890625</ele>
        <time>2022-05-10T21:18:00Z</time>
      </trkpt>
      <trkpt lat="45.24334" lon="4.09462">
        <ele>559.88854980469</ele>
        <time>2022-05-10T21:18:05Z</time>
      </trkpt>
      <trkpt lat="45.24332" lon="4.09449">
        <ele>558.67108154297</ele>
        <time>2022-05-10T21:18:14Z</time>
      </trkpt>
      <trkpt lat="45.24335" lon="4.09437">
        <ele>557.13159179688</ele>
        <time>2022-05-10T21:18:22Z</time>
      </trkpt>
      <trkpt lat="45.24342" lon="4.0943">
        <ele>556.06665039062</ele>
        <time>2022-05-10T21:18:26Z</time>
      </trkpt>
      <trkpt lat="45.24356" lon="4.09425">
        <ele>555.79010009766</ele>
        <time>2022-05-10T21:18:31Z</time>
      </trkpt>
      <trkpt lat="45.24372" lon="4.09423">
        <ele>555.50018310547</ele>
        <time>2022-05-10T21:18:45Z</time>
      </trkpt>
      <trkpt lat="45.24384" lon="4.09427">
        <ele>555.53997802734</ele>
        <time>2022-05-10T21:18:55Z</time>
      </trkpt>
      <trkpt lat="45.244" lon="4.09434">
        <ele>553.826171875</ele>
        <time>2022-05-10T21:19:04Z</time>
      </trkpt>
      <trkpt lat="45.24412" lon="4.09433">
        <ele>553.115234375</ele>
        <time>2022-05-10T21:19:14Z</time>
      </trkpt>
      <trkpt lat="45.24416" lon="4.09425">
        <ele>551.94006347656</ele>
        <time>2022-05-10T21:19:30Z</time>
      </trkpt>
      <trkpt lat="45.2441" lon="4.09413">
        <ele>550.60943603516</ele>
        <time>2022-05-10T21:19:39Z</time>
      </trkpt>
      <trkpt lat="45.24398" lon="4.09403">
        <ele>550.16973876953</ele>
        <time>2022-05-10T21:19:44Z</time>
      </trkpt>
      <trkpt lat="45.24378" lon="4.09391">
        <ele>547.98297119141</ele>
        <time>2022-05-10T21:19:48Z</time>
      </trkpt>
      <trkpt lat="45.2436" lon="4.09386">
        <ele>547.31744384766</ele>
        <time>2022-05-10T21:19:53Z</time>
      </trkpt>
      <trkpt lat="45.24307" lon="4.09381">
        <ele>543.15997314453</ele>
        <time>2022-05-10T21:19:53Z</time>
      </trkpt>
      <trkpt lat="45.24273" lon="4.09382">
        <ele>540.09631347656</ele>
        <time>2022-05-10T21:20:03Z</time>
      </trkpt>
      <trkpt lat="45.24235" lon="4.0938">
        <ele>534.47515869141</ele>
        <time>2022-05-10T21:20:15Z</time>
      </trkpt>
      <trkpt lat="45.2417" lon="4.09371">
        <ele>530.3408203125</ele>
        <time>2022-05-10T21:20:27Z</time>
      </trkpt>
      <trkpt lat="45.24158" lon="4.09368">
        <ele>528.32440185547</ele>
        <time>2022-05-10T21:20:36Z</time>
      </trkpt>
      <trkpt lat="45.24141" lon="4.09361">
        <ele>527.17083740234</ele>
        <time>2022-05-10T21:20:39Z</time>
      </trkpt>
      <trkpt lat="45.24128" lon="4.0936">
        <ele>527.24060058594</ele>
        <time>2022-05-10T21:20:43Z</time>
      </trkpt>
      <trkpt lat="45.24114" lon="4.09367">
        <ele>526.26861572266</ele>
        <time>2022-05-10T21:20:46Z</time>
      </trkpt>
      <trkpt lat="45.24102" lon="4.09383">
        <ele>523.85961914062</ele>
        <time>2022-05-10T21:20:52Z</time>
      </trkpt>
      <trkpt lat="45.24092" lon="4.09393">
        <ele>523.03674316406</ele>
        <time>2022-05-10T21:20:56Z</time>
      </trkpt>
      <trkpt lat="45.24083" lon="4.09399">
        <ele>522.7822265625</ele>
        <time>2022-05-10T21:21:04Z</time>
      </trkpt>
      <trkpt lat="45.24064" lon="4.094">
        <ele>520.79974365234</ele>
        <time>2022-05-10T21:21:21Z</time>
      </trkpt>
      <trkpt lat="45.24047" lon="4.09402">
        <ele>519.83068847656</ele>
        <time>2022-05-10T21:21:46Z</time>
      </trkpt>
      <trkpt lat="45.24006" lon="4.09414">
        <ele>514.37249755859</ele>
        <time>2022-05-10T21:21:55Z</time>
      </trkpt>
      <trkpt lat="45.23976" lon="4.09413">
        <ele>509.36236572266</ele>
        <time>2022-05-10T21:21:57Z</time>
      </trkpt>
      <trkpt lat="45.23961" lon="4.09412">
        <ele>507.4260559082</ele>
        <time>2022-05-10T21:21:57Z</time>
      </trkpt>
      <trkpt lat="45.23944" lon="4.09416">
        <ele>507.052734375</ele>
        <time>2022-05-10T21:21:58Z</time>
      </trkpt>
      <trkpt lat="45.23925" lon="4.09425">
        <ele>505.02291870117</ele>
        <time>2022-05-10T21:22:09Z</time>
      </trkpt>
      <trkpt lat="45.23911" lon="4.09435">
        <ele>504.12445068359</ele>
        <time>2022-05-10T21:22:21Z</time>
      </trkpt>
      <trkpt lat="45.23894" lon="4.0945">
        <ele>501.48077392578</ele>
        <time>2022-05-10T21:22:30Z</time>
      </trkpt>
      <trkpt lat="45.23878" lon="4.09461">
        <ele>500.15414428711</ele>
        <time>2022-05-10T21:22:35Z</time>
      </trkpt>
      <trkpt lat="45.23862" lon="4.09468">
        <ele>498.46292114258</ele>
        <time>2022-05-10T21:22:44Z</time>
      </trkpt>
      <trkpt lat="45.23843" lon="4.09475">
        <ele>497.76647949219</ele>
        <time>2022-05-10T21:22:52Z</time>
      </trkpt>
      <trkpt lat="45.2381" lon="4.09485">
        <ele>495.17877197266</ele>
        <time>2022-05-10T21:22:56Z</time>
      </trkpt>
      <trkpt lat="45.23795" lon="4.09483">
        <ele>495.00146484375</ele>
        <time>2022-05-10T21:23:01Z</time>
      </trkpt>
      <trkpt lat="45.23776" lon="4.09477">
        <ele>495.49237060547</ele>
        <time>2022-05-10T21:23:15Z</time>
      </trkpt>
      <trkpt lat="45.23758" lon="4.09475">
        <ele>494.14822387695</ele>
        <time>2022-05-10T21:23:25Z</time>
      </trkpt>
      <trkpt lat="45.23615" lon="4.09461">
        <ele>489.20318603516</ele>
        <time>2022-05-10T21:23:34Z</time>
      </trkpt>
      <trkpt lat="45.23498" lon="4.09446">
        <ele>482.53771972656</ele>
        <time>2022-05-10T21:23:44Z</time>
      </trkpt>
      <trkpt lat="45.23385" lon="4.09432">
        <ele>484.91241455078</ele>
        <time>2022-05-10T21:24:00Z</time>
      </trkpt>
      <trkpt lat="45.23376" lon="4.09429">
        <ele>486.9114074707</ele>
        <time>2022-05-10T21:24:09Z</time>
      </trkpt>
      <trkpt lat="45.23369" lon="4.09423">
        <ele>488.26022338867</ele>
        <time>2022-05-10T21:24:14Z</time>
      </trkpt>
      <trkpt lat="45.23351" lon="4.09399">
        <ele>490.9548034668</ele>
        <time>2022-05-10T21:24:18Z</time>
      </trkpt>
      <trkpt lat="45.23315" lon="4.09341">
        <ele>494.32855224609</ele>
        <time>2022-05-10T21:24:23Z</time>
      </trkpt>
      <trkpt lat="45.23294" lon="4.09308">
        <ele>495.1471862793</ele>
        <time>2022-05-10T21:24:23Z</time>
      </trkpt>
      <trkpt lat="45.23281" lon="4.09292">
        <ele>496.55310058594</ele>
        <time>2022-05-10T21:24:33Z</time>
      </trkpt>
      <trkpt lat="45.23267" lon="4.09285">
        <ele>497.7815246582</ele>
        <time>2022-05-10T21:24:45Z</time>
      </trkpt>
      <trkpt lat="45.23256" lon="4.09286">
        <ele>498.13076782227</ele>
        <time>2022-05-10T21:24:57Z</time>
      </trkpt>
      <trkpt lat="45.23244" lon="4.0929">
        <ele>498.57272338867</ele>
        <time>2022-05-10T21:25:06Z</time>
      </trkpt>
      <trkpt lat="45.23227" lon="4.09304">
        <ele>501.28262329102</ele>
        <time>2022-05-10T21:25:09Z</time>
      </trkpt>
      <trkpt lat="45.2321" lon="4.09309">
        <ele>502.37521362305</ele>
        <time>2022-05-10T21:25:13Z</time>
      </trkpt>
      <trkpt lat="45.23172" lon="4.09312">
        <ele>507.08926391602</ele>
        <time>2022-05-10T21:25:16Z</time>
      </trkpt>
      <trkpt lat="45.23155" lon="4.09308">
        <ele>510.56509399414</ele>
        <time>2022-05-10T21:25:22Z</time>
      </trkpt>
      <trkpt lat="45.23148" lon="4.09302">
        <ele>510.33395385742</ele>
        <time>2022-05-10T21:25:26Z</time>
      </trkpt>
      <trkpt lat="45.23131" lon="4.09271">
        <ele>509.87585449219</ele>
        <time>2022-05-10T21:25:34Z</time>
      </trkpt>
      <trkpt lat="45.23115" lon="4.09242">
        <ele>511.66885375977</ele>
        <time>2022-05-10T21:25:51Z</time>
      </trkpt>
      <trkpt lat="45.23106" lon="4.09229">
        <ele>513.32183837891</ele>
        <time>2022-05-10T21:26:16Z</time>
      </trkpt>
      <trkpt lat="45.23086" lon="4.09215">
        <ele>515.21752929688</ele>
        <time>2022-05-10T21:26:25Z</time>
      </trkpt>
      <trkpt lat="45.23064" lon="4.09203">
        <ele>516.41625976562</ele>
        <time>2022-05-10T21:26:27Z</time>
      </trkpt>
      <trkpt lat="45.23048" lon="4.09191">
        <ele>517.41271972656</ele>
        <time>2022-05-10T21:26:27Z</time>
      </trkpt>
      <trkpt lat="45.23028" lon="4.09172">
        <ele>519.45739746094</ele>
        <time>2022-05-10T21:26:37Z</time>
      </trkpt>
      <trkpt lat="45.23" lon="4.09139">
        <ele>522.70166015625</ele>
        <time>2022-05-10T21:26:45Z</time>
      </trkpt>
      <trkpt lat="45.22973" lon="4.09116">
        <ele>529.29705810547</ele>
        <time>2022-05-10T21:26:51Z</time>
      </trkpt>
      <trkpt lat="45.22954" lon="4.09099">
        <ele>529.41943359375</ele>
        <time>2022-05-10T21:27:15Z</time>
      </trkpt>
      <trkpt lat="45.22939" lon="4.09085">
        <ele>527.5068359375</ele>
        <time>2022-05-10T21:27:20Z</time>
      </trkpt>
      <trkpt lat="45.22916" lon="4.09055">
        <ele>528.39300537109</ele>
        <time>2022-05-10T21:27:36Z</time>
      </trkpt>
      <trkpt lat="45.22857" lon="4.0899">
        <ele>535.89373779297</ele>
        <time>2022-05-10T21:27:44Z</time>
      </trkpt>
      <trkpt lat="45.22837" lon="4.08974">
        <ele>532.31622314453</ele>
        <time>2022-05-10T21:27:50Z</time>
      </trkpt>
      <trkpt lat="45.22825" lon="4.08968">
        <ele>533.8984375</ele>
        <time>2022-05-10T21:27:52Z</time>
      </trkpt>
      <trkpt lat="45.22808" lon="4.0896">
        <ele>536.2412109375</ele>
        <time>2022-05-10T21:27:58Z</time>
      </trkpt>
      <trkpt lat="45.22785" lon="4.08945">
        <ele>538.47277832031</ele>
        <time>2022-05-10T21:28:05Z</time>
      </trkpt>
      <trkpt lat="45.22756" lon="4.08914">
        <ele>542.11877441406</ele>
        <time>2022-05-10T21:28:11Z</time>
      </trkpt>
      <trkpt lat="45.22746" lon="4.08894">
        <ele>545.21148681641</ele>
        <time>2022-05-10T21:28:19Z</time>
      </trkpt>
      <trkpt lat="45.22702" lon="4.08801">
        <ele>549.65344238281</ele>
        <time>2022-05-10T21:28:36Z</time>
      </trkpt>
      <trkpt lat="45.2268" lon="4.08763">
        <ele>548.37445068359</ele>
        <time>2022-05-10T21:28:42Z</time>
      </trkpt>
      <trkpt lat="45.22668" lon="4.0875">
        <ele>547.95764160156</ele>
        <time>2022-05-10T21:28:48Z</time>
      </trkpt>
      <trkpt lat="45.22653" lon="4.08747">
        <ele>550.40454101562</ele>
        <time>2022-05-10T21:28:54Z</time>
      </trkpt>
      <trkpt lat="45.22644" lon="4.08748">
        <ele>551.82989501953</ele>
        <time>2022-05-10T21:28:58Z</time>
      </trkpt>
      <trkpt lat="45.22611" lon="4.0876">
        <ele>556.08264160156</ele>
        <time>2022-05-10T21:29:04Z</time>
      </trkpt>
      <trkpt lat="45.22571" lon="4.08768">
        <ele>562.56311035156</ele>
        <time>2022-05-10T21:29:13Z</time>
      </trkpt>
      <trkpt lat="45.22524" lon="4.08777">
        <ele>562.55316162109</ele>
        <time>2022-05-10T21:29:28Z</time>
      </trkpt>
      <trkpt lat="45.22511" lon="4.0878">
        <ele>564.88238525391</ele>
        <time>2022-05-10T21:29:41Z</time>
      </trkpt>
      <trkpt lat="45.22498" lon="4.08788">
        <ele>565.34191894531</ele>
        <time>2022-05-10T21:29:43Z</time>
      </trkpt>
      <trkpt lat="45.22484" lon="4.08801">
        <ele>566.49505615234</ele>
        <time>2022-05-10T21:29:48Z</time>
      </trkpt>
      <trkpt lat="45.22472" lon="4.08815">
        <ele>566.11334228516</ele>
        <time>2022-05-10T21:29:55Z</time>
      </trkpt>
      <trkpt lat="45.22465" lon="4.08822">
        <ele>565.82135009766</ele>
        <time>2022-05-10T21:29:58Z</time>
      </trkpt>
      <trkpt lat="45.22457" lon="4.08825">
        <ele>566.33050537109</ele>
        <time>2022-05-10T21:30:00Z</time>
      </trkpt>
      <trkpt lat="45.22449" lon="4.08823">
        <ele>567.94226074219</ele>
        <time>2022-05-10T21:30:02Z</time>
      </trkpt>
      <trkpt lat="45.22442" lon="4.08815">
        <ele>568.83203125</ele>
        <time>2022-05-10T21:30:06Z</time>
      </trkpt>
      <trkpt lat="45.22439" lon="4.08802">
        <ele>569.87213134766</ele>
        <time>2022-05-10T21:30:10Z</time>
      </trkpt>
      <trkpt lat="45.22442" lon="4.08781">
        <ele>573.01593017578</ele>
        <time>2022-05-10T21:30:13Z</time>
      </trkpt>
      <trkpt lat="45.22446" lon="4.08767">
        <ele>575.24279785156</ele>
        <time>2022-05-10T21:30:17Z</time>
      </trkpt>
      <trkpt lat="45.22468" lon="4.08711">
        <ele>575.04400634766</ele>
        <time>2022-05-10T21:30:20Z</time>
      </trkpt>
      <trkpt lat="45.22493" lon="4.08656">
        <ele>574.02319335938</ele>
        <time>2022-05-10T21:30:22Z</time>
      </trkpt>
      <trkpt lat="45.22499" lon="4.08632">
        <ele>573.76470947266</ele>
        <time>2022-05-10T21:30:25Z</time>
      </trkpt>
      <trkpt lat="45.22497" lon="4.08615">
        <ele>574.20721435547</ele>
        <time>2022-05-10T21:30:29Z</time>
      </trkpt>
      <trkpt lat="45.22489" lon="4.08602">
        <ele>576.03912353516</ele>
        <time>2022-05-10T21:30:35Z</time>
      </trkpt>
      <trkpt lat="45.22485" lon="4.08597">
        <ele>576.89379882812</ele>
        <time>2022-05-10T21:30:40Z</time>
      </trkpt>
      <trkpt lat="45.22473" lon="4.0859">
        <ele>580.27258300781</ele>
        <time>2022-05-10T21:30:54Z</time>
      </trkpt>
      <trkpt lat="45.2245" lon="4.08581">
        <ele>582.53228759766</ele>
        <time>2022-05-10T21:31:03Z</time>
      </trkpt>
      <trkpt lat="45.22432" lon="4.08577">
        <ele>586.15106201172</ele>
        <time>2022-05-10T21:31:13Z</time>
      </trkpt>
      <trkpt lat="45.22412" lon="4.08581">
        <ele>591.42034912109</ele>
        <time>2022-05-10T21:31:30Z</time>
      </trkpt>
      <trkpt lat="45.22406" lon="4.08583">
        <ele>591.6630859375</ele>
        <time>2022-05-10T21:31:33Z</time>
      </trkpt>
      <trkpt lat="45.22377" lon="4.08594">
        <ele>591.57000732422</ele>
        <time>2022-05-10T21:31:38Z</time>
      </trkpt>
      <trkpt lat="45.2237" lon="4.08595">
        <ele>593.30993652344</ele>
        <time>2022-05-10T21:31:41Z</time>
      </trkpt>
      <trkpt lat="45.22356" lon="4.08589">
        <ele>599.12982177734</ele>
        <time>2022-05-10T21:31:45Z</time>
      </trkpt>
      <trkpt lat="45.22343" lon="4.08579">
        <ele>599.88610839844</ele>
        <time>2022-05-10T21:31:49Z</time>
      </trkpt>
      <trkpt lat="45.22332" lon="4.08577">
        <ele>599.13372802734</ele>
        <time>2022-05-10T21:31:52Z</time>
      </trkpt>
      <trkpt lat="45.22314" lon="4.08576">
        <ele>596.82904052734</ele>
        <time>2022-05-10T21:31:55Z</time>
      </trkpt>
      <trkpt lat="45.22305" lon="4.08572">
        <ele>595.55535888672</ele>
        <time>2022-05-10T21:32:00Z</time>
      </trkpt>
      <trkpt lat="45.2229" lon="4.08557">
        <ele>597.07934570312</ele>
        <time>2022-05-10T21:32:05Z</time>
      </trkpt>
      <trkpt lat="45.22275" lon="4.08543">
        <ele>598.75646972656</ele>
        <time>2022-05-10T21:32:16Z</time>
      </trkpt>
      <trkpt lat="45.22259" lon="4.08532">
        <ele>601.46643066406</ele>
        <time>2022-05-10T21:32:24Z</time>
      </trkpt>
      <trkpt lat="45.22232" lon="4.08515">
        <ele>604.30554199219</ele>
        <time>2022-05-10T21:32:28Z</time>
      </trkpt>
      <trkpt lat="45.22211" lon="4.08505">
        <ele>606.74768066406</ele>
        <time>2022-05-10T21:32:33Z</time>
      </trkpt>
      <trkpt lat="45.22201" lon="4.08503">
        <ele>605.32843017578</ele>
        <time>2022-05-10T21:32:38Z</time>
      </trkpt>
      <trkpt lat="45.22191" lon="4.08504">
        <ele>605.5517578125</ele>
        <time>2022-05-10T21:32:42Z</time>
      </trkpt>
      <trkpt lat="45.22169" lon="4.0851">
        <ele>609.62860107422</ele>
        <time>2022-05-10T21:32:47Z</time>
      </trkpt>
      <trkpt lat="45.22156" lon="4.08516">
        <ele>610.78259277344</ele>
        <time>2022-05-10T21:32:52Z</time>
      </trkpt>
      <trkpt lat="45.22145" lon="4.08516">
        <ele>610.18377685547</ele>
        <time>2022-05-10T21:32:56Z</time>
      </trkpt>
      <trkpt lat="45.22131" lon="4.08509">
        <ele>609.31256103516</ele>
        <time>2022-05-10T21:33:01Z</time>
      </trkpt>
      <trkpt lat="45.22118" lon="4.08494">
        <ele>610.25677490234</ele>
        <time>2022-05-10T21:33:10Z</time>
      </trkpt>
      <trkpt lat="45.22101" lon="4.08473">
        <ele>611.66009521484</ele>
        <time>2022-05-10T21:33:14Z</time>
      </trkpt>
      <trkpt lat="45.22092" lon="4.08469">
        <ele>612.35974121094</ele>
        <time>2022-05-10T21:33:19Z</time>
      </trkpt>
      <trkpt lat="45.22077" lon="4.08469">
        <ele>614.03106689453</ele>
        <time>2022-05-10T21:33:24Z</time>
      </trkpt>
      <trkpt lat="45.22055" lon="4.08486">
        <ele>615.38006591797</ele>
        <time>2022-05-10T21:34:02Z</time>
      </trkpt>
      <trkpt lat="45.22045" lon="4.08498">
        <ele>616.32769775391</ele>
        <time>2022-05-10T21:34:33Z</time>
      </trkpt>
      <trkpt lat="45.22035" lon="4.08516">
        <ele>616.06628417969</ele>
        <time>2022-05-10T21:35:03Z</time>
      </trkpt>
      <trkpt lat="45.22019" lon="4.08548">
        <ele>617.04272460938</ele>
        <time>2022-05-10T21:35:05Z</time>
      </trkpt>
      <trkpt lat="45.22014" lon="4.08562">
        <ele>617.43994140625</ele>
        <time>2022-05-10T21:35:07Z</time>
      </trkpt>
      <trkpt lat="45.21974" lon="4.08602">
        <ele>621.77734375</ele>
        <time>2022-05-10T21:35:14Z</time>
      </trkpt>
      <trkpt lat="45.21898" lon="4.08674">
        <ele>626.21502685547</ele>
        <time>2022-05-10T21:35:29Z</time>
      </trkpt>
      <trkpt lat="45.21872" lon="4.0871">
        <ele>628.64300537109</ele>
        <time>2022-05-10T21:35:37Z</time>
      </trkpt>
      <trkpt lat="45.21854" lon="4.08726">
        <ele>630.80145263672</ele>
        <time>2022-05-10T21:35:42Z</time>
      </trkpt>
      <trkpt lat="45.21839" lon="4.08731">
        <ele>631.64959716797</ele>
        <time>2022-05-10T21:35:46Z</time>
      </trkpt>
      <trkpt lat="45.21807" lon="4.08733">
        <ele>633.84893798828</ele>
        <time>2022-05-10T21:35:49Z</time>
      </trkpt>
      <trkpt lat="45.21781" lon="4.08735">
        <ele>637.15020751953</ele>
        <time>2022-05-10T21:35:52Z</time>
      </trkpt>
      <trkpt lat="45.21718" lon="4.08742">
        <ele>639.95220947266</ele>
        <time>2022-05-10T21:35:57Z</time>
      </trkpt>
      <trkpt lat="45.21672" lon="4.08741">
        <ele>643.16284179688</ele>
        <time>2022-05-10T21:36:02Z</time>
      </trkpt>
      <trkpt lat="45.21647" lon="4.08734">
        <ele>646.06823730469</ele>
        <time>2022-05-10T21:36:12Z</time>
      </trkpt>
      <trkpt lat="45.2163" lon="4.08725">
        <ele>646.78283691406</ele>
        <time>2022-05-10T21:36:17Z</time>
      </trkpt>
      <trkpt lat="45.21597" lon="4.08698">
        <ele>648.54534912109</ele>
        <time>2022-05-10T21:36:19Z</time>
      </trkpt>
      <trkpt lat="45.21582" lon="4.08689">
        <ele>648.80377197266</ele>
        <time>2022-05-10T21:36:26Z</time>
      </trkpt>
      <trkpt lat="45.21555" lon="4.08679">
        <ele>650.86431884766</ele>
        <time>2022-05-10T21:36:33Z</time>
      </trkpt>
      <trkpt lat="45.2152" lon="4.08658">
        <ele>653.26354980469</ele>
        <time>2022-05-10T21:36:36Z</time>
      </trkpt>
      <trkpt lat="45.21502" lon="4.08648">
        <ele>653.70623779297</ele>
        <time>2022-05-10T21:36:42Z</time>
      </trkpt>
      <trkpt lat="45.21484" lon="4.08644">
        <ele>655.41033935547</ele>
        <time>2022-05-10T21:36:48Z</time>
      </trkpt>
      <trkpt lat="45.21469" lon="4.08646">
        <ele>657.2607421875</ele>
        <time>2022-05-10T21:36:53Z</time>
      </trkpt>
      <trkpt lat="45.2142" lon="4.08659">
        <ele>661.1748046875</ele>
        <time>2022-05-10T21:36:59Z</time>
      </trkpt>
      <trkpt lat="45.21396" lon="4.08662">
        <ele>663.51995849609</ele>
        <time>2022-05-10T21:37:09Z</time>
      </trkpt>
      <trkpt lat="45.21349" lon="4.08647">
        <ele>665.29895019531</ele>
        <time>2022-05-10T21:37:17Z</time>
      </trkpt>
      <trkpt lat="45.21327" lon="4.08642">
        <ele>667.02075195312</ele>
        <time>2022-05-10T21:37:23Z</time>
      </trkpt>
      <trkpt lat="45.21308" lon="4.08643">
        <ele>668.02087402344</ele>
        <time>2022-05-10T21:37:28Z</time>
      </trkpt>
      <trkpt lat="45.21293" lon="4.08648">
        <ele>668.68414306641</ele>
        <time>2022-05-10T21:37:36Z</time>
      </trkpt>
      <trkpt lat="45.21275" lon="4.08658">
        <ele>669.75445556641</ele>
        <time>2022-05-10T21:37:56Z</time>
      </trkpt>
      <trkpt lat="45.21258" lon="4.08677">
        <ele>671.71569824219</ele>
        <time>2022-05-10T21:38:02Z</time>
      </trkpt>
      <trkpt lat="45.21242" lon="4.087">
        <ele>673.08856201172</ele>
        <time>2022-05-10T21:38:05Z</time>
      </trkpt>
      <trkpt lat="45.21229" lon="4.08726">
        <ele>674.85357666016</ele>
        <time>2022-05-10T21:38:05Z</time>
      </trkpt>
      <trkpt lat="45.21223" lon="4.08762">
        <ele>676.70739746094</ele>
        <time>2022-05-10T21:38:06Z</time>
      </trkpt>
      <trkpt lat="45.21224" lon="4.08784">
        <ele>677.77600097656</ele>
        <time>2022-05-10T21:38:17Z</time>
      </trkpt>
      <trkpt lat="45.21232" lon="4.08844">
        <ele>680.62017822266</ele>
        <time>2022-05-10T21:38:29Z</time>
      </trkpt>
      <trkpt lat="45.21236" lon="4.08876">
        <ele>682.04602050781</ele>
        <time>2022-05-10T21:38:38Z</time>
      </trkpt>
      <trkpt lat="45.21234" lon="4.089">
        <ele>682.86340332031</ele>
        <time>2022-05-10T21:38:43Z</time>
      </trkpt>
      <trkpt lat="45.21229" lon="4.08914">
        <ele>683.9384765625</ele>
        <time>2022-05-10T21:38:52Z</time>
      </trkpt>
      <trkpt lat="45.21222" lon="4.08925">
        <ele>684.95367431641</ele>
        <time>2022-05-10T21:39:00Z</time>
      </trkpt>
      <trkpt lat="45.21215" lon="4.08931">
        <ele>685.89892578125</ele>
        <time>2022-05-10T21:39:04Z</time>
      </trkpt>
      <trkpt lat="45.21202" lon="4.08934">
        <ele>686.77758789062</ele>
        <time>2022-05-10T21:39:09Z</time>
      </trkpt>
      <trkpt lat="45.21168" lon="4.08938">
        <ele>689.45941162109</ele>
        <time>2022-05-10T21:39:23Z</time>
      </trkpt>
      <trkpt lat="45.21156" lon="4.0894">
        <ele>690.00231933594</ele>
        <time>2022-05-10T21:39:33Z</time>
      </trkpt>
      <trkpt lat="45.21145" lon="4.08943">
        <ele>690.58703613281</ele>
        <time>2022-05-10T21:39:42Z</time>
      </trkpt>
      <trkpt lat="45.21132" lon="4.0895">
        <ele>691.11218261719</ele>
        <time>2022-05-10T21:39:52Z</time>
      </trkpt>
      <trkpt lat="45.21108" lon="4.08964">
        <ele>692.79370117188</ele>
        <time>2022-05-10T21:40:08Z</time>
      </trkpt>
      <trkpt lat="45.21071" lon="4.08977">
        <ele>693.1904296875</ele>
        <time>2022-05-10T21:40:17Z</time>
      </trkpt>
      <trkpt lat="45.21057" lon="4.08986">
        <ele>693.73291015625</ele>
        <time>2022-05-10T21:40:22Z</time>
      </trkpt>
      <trkpt lat="45.21044" lon="4.09">
        <ele>694.07305908203</ele>
        <time>2022-05-10T21:40:26Z</time>
      </trkpt>
      <trkpt lat="45.21029" lon="4.09018">
        <ele>696.19219970703</ele>
        <time>2022-05-10T21:40:31Z</time>
      </trkpt>
      <trkpt lat="45.21014" lon="4.09034">
        <ele>697.29461669922</ele>
        <time>2022-05-10T21:40:31Z</time>
      </trkpt>
      <trkpt lat="45.21004" lon="4.0904">
        <ele>698.08807373047</ele>
        <time>2022-05-10T21:40:41Z</time>
      </trkpt>
      <trkpt lat="45.20987" lon="4.09045">
        <ele>698.54437255859</ele>
        <time>2022-05-10T21:40:53Z</time>
      </trkpt>
      <trkpt lat="45.20953" lon="4.0905">
        <ele>698.76751708984</ele>
        <time>2022-05-10T21:41:05Z</time>
      </trkpt>
      <trkpt lat="45.20899" lon="4.0907">
        <ele>697.43341064453</ele>
        <time>2022-05-10T21:41:14Z</time>
      </trkpt>
      <trkpt lat="45.20882" lon="4.09079">
        <ele>696.85784912109</ele>
        <time>2022-05-10T21:41:17Z</time>
      </trkpt>
      <trkpt lat="45.20857" lon="4.09102">
        <ele>697.95477294922</ele>
        <time>2022-05-10T21:41:21Z</time>
      </trkpt>
      <trkpt lat="45.20841" lon="4.0912">
        <ele>699.78375244141</ele>
        <time>2022-05-10T21:41:24Z</time>
      </trkpt>
      <trkpt lat="45.20828" lon="4.0913">
        <ele>699.22698974609</ele>
        <time>2022-05-10T21:41:30Z</time>
      </trkpt>
      <trkpt lat="45.20805" lon="4.09148">
        <ele>699.65618896484</ele>
        <time>2022-05-10T21:41:34Z</time>
      </trkpt>
      <trkpt lat="45.20787" lon="4.09167">
        <ele>699.40368652344</ele>
        <time>2022-05-10T21:41:42Z</time>
      </trkpt>
      <trkpt lat="45.20755" lon="4.09202">
        <ele>701.38555908203</ele>
        <time>2022-05-10T21:41:59Z</time>
      </trkpt>
      <trkpt lat="45.20742" lon="4.09211">
        <ele>700.96722412109</ele>
        <time>2022-05-10T21:42:24Z</time>
      </trkpt>
      <trkpt lat="45.20711" lon="4.09218">
        <ele>699.07781982422</ele>
        <time>2022-05-10T21:42:33Z</time>
      </trkpt>
      <trkpt lat="45.20697" lon="4.09223">
        <ele>697.52154541016</ele>
        <time>2022-05-10T21:42:35Z</time>
      </trkpt>
      <trkpt lat="45.20674" lon="4.09235">
        <ele>697.76690673828</ele>
        <time>2022-05-10T21:42:35Z</time>
      </trkpt>
      <trkpt lat="45.20655" lon="4.09242">
        <ele>696.68353271484</ele>
        <time>2022-05-10T21:42:45Z</time>
      </trkpt>
      <trkpt lat="45.20614" lon="4.09247">
        <ele>695.19354248047</ele>
        <time>2022-05-10T21:42:53Z</time>
      </trkpt>
      <trkpt lat="45.20551" lon="4.09249">
        <ele>690.56231689453</ele>
        <time>2022-05-10T21:42:59Z</time>
      </trkpt>
      <trkpt lat="45.20496" lon="4.0926">
        <ele>687.27990722656</ele>
        <time>2022-05-10T21:43:23Z</time>
      </trkpt>
      <trkpt lat="45.20471" lon="4.09265">
        <ele>686.73815917969</ele>
        <time>2022-05-10T21:43:28Z</time>
      </trkpt>
      <trkpt lat="45.20435" lon="4.09275">
        <ele>686.27172851562</ele>
        <time>2022-05-10T21:43:44Z</time>
      </trkpt>
      <trkpt lat="45.20406" lon="4.09283">
        <ele>686.22186279297</ele>
        <time>2022-05-10T21:43:52Z</time>
      </trkpt>
      <trkpt lat="45.20384" lon="4.09286">
        <ele>685.55651855469</ele>
        <time>2022-05-10T21:43:58Z</time>
      </trkpt>
      <trkpt lat="45.20367" lon="4.09281">
        <ele>685.41180419922</ele>
        <time>2022-05-10T21:44:00Z</time>
      </trkpt>
      <trkpt lat="45.2036" lon="4.09276">
        <ele>685.73657226562</ele>
        <time>2022-05-10T21:44:02Z</time>
      </trkpt>
      <trkpt lat="45.20323" lon="4.0925">
        <ele>686.16400146484</ele>
        <time>2022-05-10T21:44:06Z</time>
      </trkpt>
      <trkpt lat="45.20299" lon="4.09237">
        <ele>687.11071777344</ele>
        <time>2022-05-10T21:44:13Z</time>
      </trkpt>
      <trkpt lat="45.20222" lon="4.09211">
        <ele>687.69122314453</ele>
        <time>2022-05-10T21:44:19Z</time>
      </trkpt>
      <trkpt lat="45.20199" lon="4.09202">
        <ele>688.48022460938</ele>
        <time>2022-05-10T21:44:27Z</time>
      </trkpt>
      <trkpt lat="45.20188" lon="4.09194">
        <ele>688.03771972656</ele>
        <time>2022-05-10T21:44:44Z</time>
      </trkpt>
      <trkpt lat="45.20155" lon="4.09169">
        <ele>690.09271240234</ele>
        <time>2022-05-10T21:44:50Z</time>
      </trkpt>
      <trkpt lat="45.20124" lon="4.09153">
        <ele>692.52355957031</ele>
        <time>2022-05-10T21:44:56Z</time>
      </trkpt>
      <trkpt lat="45.20076" lon="4.09144">
        <ele>696.21997070312</ele>
        <time>2022-05-10T21:45:02Z</time>
      </trkpt>
      <trkpt lat="45.20023" lon="4.09137">
        <ele>701.05725097656</ele>
        <time>2022-05-10T21:45:06Z</time>
      </trkpt>
      <trkpt lat="45.19958" lon="4.0913">
        <ele>704.26348876953</ele>
        <time>2022-05-10T21:45:12Z</time>
      </trkpt>
      <trkpt lat="45.19937" lon="4.09123">
        <ele>705.56726074219</ele>
        <time>2022-05-10T21:45:21Z</time>
      </trkpt>
      <trkpt lat="45.19899" lon="4.09098">
        <ele>707.92065429688</ele>
        <time>2022-05-10T21:45:36Z</time>
      </trkpt>
      <trkpt lat="45.19839" lon="4.09062">
        <ele>711.38653564453</ele>
        <time>2022-05-10T21:45:49Z</time>
      </trkpt>
      <trkpt lat="45.19829" lon="4.09053">
        <ele>712.53955078125</ele>
        <time>2022-05-10T21:45:51Z</time>
      </trkpt>
      <trkpt lat="45.19815" lon="4.09041">
        <ele>713.25854492188</ele>
        <time>2022-05-10T21:45:56Z</time>
      </trkpt>
      <trkpt lat="45.19799" lon="4.09012">
        <ele>715.62866210938</ele>
        <time>2022-05-10T21:46:03Z</time>
      </trkpt>
      <trkpt lat="45.19781" lon="4.08982">
        <ele>717.66882324219</ele>
        <time>2022-05-10T21:46:06Z</time>
      </trkpt>
      <trkpt lat="45.19769" lon="4.08969">
        <ele>718.43267822266</ele>
        <time>2022-05-10T21:46:08Z</time>
      </trkpt>
      <trkpt lat="45.19755" lon="4.08957">
        <ele>719.91571044922</ele>
        <time>2022-05-10T21:46:10Z</time>
      </trkpt>
      <trkpt lat="45.19723" lon="4.08934">
        <ele>721.77386474609</ele>
        <time>2022-05-10T21:46:14Z</time>
      </trkpt>
      <trkpt lat="45.19688" lon="4.08917">
        <ele>723.82720947266</ele>
        <time>2022-05-10T21:46:18Z</time>
      </trkpt>
      <trkpt lat="45.19626" lon="4.08892">
        <ele>726.57183837891</ele>
        <time>2022-05-10T21:46:21Z</time>
      </trkpt>
      <trkpt lat="45.19599" lon="4.08878">
        <ele>727.44989013672</ele>
        <time>2022-05-10T21:46:25Z</time>
      </trkpt>
      <trkpt lat="45.19555" lon="4.08862">
        <ele>729.5087890625</ele>
        <time>2022-05-10T21:46:28Z</time>
      </trkpt>
      <trkpt lat="45.19508" lon="4.08852">
        <ele>729.45123291016</ele>
        <time>2022-05-10T21:46:30Z</time>
      </trkpt>
      <trkpt lat="45.19485" lon="4.08846">
        <ele>729.25061035156</ele>
        <time>2022-05-10T21:46:33Z</time>
      </trkpt>
      <trkpt lat="45.19479" lon="4.08843">
        <ele>729.06976318359</ele>
        <time>2022-05-10T21:46:37Z</time>
      </trkpt>
      <trkpt lat="45.19431" lon="4.08814">
        <ele>727.94421386719</ele>
        <time>2022-05-10T21:46:43Z</time>
      </trkpt>
      <trkpt lat="45.19366" lon="4.08771">
        <ele>725.80615234375</ele>
        <time>2022-05-10T21:46:48Z</time>
      </trkpt>
      <trkpt lat="45.19334" lon="4.08749">
        <ele>725.57092285156</ele>
        <time>2022-05-10T21:47:02Z</time>
      </trkpt>
      <trkpt lat="45.19316" lon="4.08741">
        <ele>724.75653076172</ele>
        <time>2022-05-10T21:47:11Z</time>
      </trkpt>
      <trkpt lat="45.19292" lon="4.08739">
        <ele>724.31823730469</ele>
        <time>2022-05-10T21:47:21Z</time>
      </trkpt>
      <trkpt lat="45.19273" lon="4.0874">
        <ele>724.36676025391</ele>
        <time>2022-05-10T21:47:38Z</time>
      </trkpt>
      <trkpt lat="45.19245" lon="4.08742">
        <ele>722.74340820312</ele>
        <time>2022-05-10T21:47:41Z</time>
      </trkpt>
      <trkpt lat="45.19217" lon="4.08738">
        <ele>722.80114746094</ele>
        <time>2022-05-10T21:47:46Z</time>
      </trkpt>
      <trkpt lat="45.19152" lon="4.08728">
        <ele>719.76196289062</ele>
        <time>2022-05-10T21:47:49Z</time>
      </trkpt>
      <trkpt lat="45.19139" lon="4.08729">
        <ele>719.65814208984</ele>
        <time>2022-05-10T21:47:53Z</time>
      </trkpt>
      <trkpt lat="45.1912" lon="4.08737">
        <ele>718.83038330078</ele>
        <time>2022-05-10T21:47:57Z</time>
      </trkpt>
      <trkpt lat="45.19106" lon="4.08751">
        <ele>719.02545166016</ele>
        <time>2022-05-10T21:48:00Z</time>
      </trkpt>
      <trkpt lat="45.19089" lon="4.08781">
        <ele>719.41522216797</ele>
        <time>2022-05-10T21:48:03Z</time>
      </trkpt>
      <trkpt lat="45.19076" lon="4.08804">
        <ele>719.13275146484</ele>
        <time>2022-05-10T21:48:08Z</time>
      </trkpt>
      <trkpt lat="45.19051" lon="4.08843">
        <ele>719.3291015625</ele>
        <time>2022-05-10T21:48:13Z</time>
      </trkpt>
      <trkpt lat="45.19033" lon="4.08864">
        <ele>719.70367431641</ele>
        <time>2022-05-10T21:48:24Z</time>
      </trkpt>
      <trkpt lat="45.18989" lon="4.08895">
        <ele>719.96673583984</ele>
        <time>2022-05-10T21:48:32Z</time>
      </trkpt>
      <trkpt lat="45.18943" lon="4.08929">
        <ele>721.67718505859</ele>
        <time>2022-05-10T21:48:36Z</time>
      </trkpt>
      <trkpt lat="45.18907" lon="4.08956">
        <ele>723.19940185547</ele>
        <time>2022-05-10T21:48:41Z</time>
      </trkpt>
      <trkpt lat="45.18898" lon="4.08966">
        <ele>723.29998779297</ele>
        <time>2022-05-10T21:48:46Z</time>
      </trkpt>
      <trkpt lat="45.18872" lon="4.0901">
        <ele>724.75994873047</ele>
        <time>2022-05-10T21:48:50Z</time>
      </trkpt>
      <trkpt lat="45.18851" lon="4.09029">
        <ele>726.07501220703</ele>
        <time>2022-05-10T21:48:55Z</time>
      </trkpt>
      <trkpt lat="45.18839" lon="4.09035">
        <ele>726.88262939453</ele>
        <time>2022-05-10T21:49:00Z</time>
      </trkpt>
      <trkpt lat="45.18822" lon="4.09036">
        <ele>727.8779296875</ele>
        <time>2022-05-10T21:49:04Z</time>
      </trkpt>
      <trkpt lat="45.18794" lon="4.09032">
        <ele>729.21539306641</ele>
        <time>2022-05-10T21:49:09Z</time>
      </trkpt>
      <trkpt lat="45.18779" lon="4.09037">
        <ele>729.68444824219</ele>
        <time>2022-05-10T21:49:18Z</time>
      </trkpt>
      <trkpt lat="45.18775" lon="4.09041">
        <ele>729.63238525391</ele>
        <time>2022-05-10T21:49:22Z</time>
      </trkpt>
      <trkpt lat="45.18767" lon="4.09058">
        <ele>729.70452880859</ele>
        <time>2022-05-10T21:49:27Z</time>
      </trkpt>
      <trkpt lat="45.18765" lon="4.0907">
        <ele>730.36413574219</ele>
        <time>2022-05-10T21:49:32Z</time>
      </trkpt>
      <trkpt lat="45.18772" lon="4.09097">
        <ele>730.96160888672</ele>
        <time>2022-05-10T21:50:10Z</time>
      </trkpt>
      <trkpt lat="45.18784" lon="4.0913">
        <ele>732.66680908203</ele>
        <time>2022-05-10T21:50:41Z</time>
      </trkpt>
      <trkpt lat="45.18786" lon="4.09147">
        <ele>733.36706542969</ele>
        <time>2022-05-10T21:51:11Z</time>
      </trkpt>
      <trkpt lat="45.18786" lon="4.09179">
        <ele>734.41760253906</ele>
        <time>2022-05-10T21:51:13Z</time>
      </trkpt>
      <trkpt lat="45.18784" lon="4.09262">
        <ele>737.26831054688</ele>
        <time>2022-05-10T21:51:15Z</time>
      </trkpt>
      <trkpt lat="45.1878" lon="4.09294">
        <ele>739.08813476562</ele>
        <time>2022-05-10T21:51:22Z</time>
      </trkpt>
      <trkpt lat="45.18781" lon="4.09318">
        <ele>739.47857666016</ele>
        <time>2022-05-10T21:51:37Z</time>
      </trkpt>
      <trkpt lat="45.18785" lon="4.09352">
        <ele>740.67553710938</ele>
        <time>2022-05-10T21:51:45Z</time>
      </trkpt>
      <trkpt lat="45.18782" lon="4.0937">
        <ele>741.15649414062</ele>
        <time>2022-05-10T21:51:50Z</time>
      </trkpt>
      <trkpt lat="45.18763" lon="4.09398">
        <ele>743.10223388672</ele>
        <time>2022-05-10T21:51:54Z</time>
      </trkpt>
      <trkpt lat="45.18751" lon="4.09414">
        <ele>743.73645019531</ele>
        <time>2022-05-10T21:51:57Z</time>
      </trkpt>
      <trkpt lat="45.18737" lon="4.09427">
        <ele>744.72583007812</ele>
        <time>2022-05-10T21:52:00Z</time>
      </trkpt>
      <trkpt lat="45.1872" lon="4.09437">
        <ele>744.86596679688</ele>
        <time>2022-05-10T21:52:05Z</time>
      </trkpt>
      <trkpt lat="45.18703" lon="4.09443">
        <ele>745.17175292969</ele>
        <time>2022-05-10T21:52:10Z</time>
      </trkpt>
      <trkpt lat="45.18694" lon="4.09444">
        <ele>745.03344726562</ele>
        <time>2022-05-10T21:52:20Z</time>
      </trkpt>
      <trkpt lat="45.18684" lon="4.09448">
        <ele>744.99548339844</ele>
        <time>2022-05-10T21:52:25Z</time>
      </trkpt>
      <trkpt lat="45.18653" lon="4.09471">
        <ele>743.61572265625</ele>
        <time>2022-05-10T21:52:27Z</time>
      </trkpt>
      <trkpt lat="45.18626" lon="4.09496">
        <ele>742.72222900391</ele>
        <time>2022-05-10T21:52:34Z</time>
      </trkpt>
      <trkpt lat="45.18591" lon="4.09521">
        <ele>742.56597900391</ele>
        <time>2022-05-10T21:52:41Z</time>
      </trkpt>
      <trkpt lat="45.18575" lon="4.09532">
        <ele>742.17657470703</ele>
        <time>2022-05-10T21:52:44Z</time>
      </trkpt>
      <trkpt lat="45.18566" lon="4.09541">
        <ele>741.66815185547</ele>
        <time>2022-05-10T21:52:50Z</time>
      </trkpt>
      <trkpt lat="45.18549" lon="4.09569">
        <ele>740.56549072266</ele>
        <time>2022-05-10T21:52:56Z</time>
      </trkpt>
      <trkpt lat="45.18515" lon="4.09649">
        <ele>736.49041748047</ele>
        <time>2022-05-10T21:53:07Z</time>
      </trkpt>
      <trkpt lat="45.18501" lon="4.09681">
        <ele>734.10290527344</ele>
        <time>2022-05-10T21:53:17Z</time>
      </trkpt>
      <trkpt lat="45.18494" lon="4.09689">
        <ele>733.05871582031</ele>
        <time>2022-05-10T21:53:25Z</time>
      </trkpt>
      <trkpt lat="45.18489" lon="4.09694">
        <ele>732.0361328125</ele>
        <time>2022-05-10T21:53:31Z</time>
      </trkpt>
      <trkpt lat="45.1848" lon="4.09697">
        <ele>729.12982177734</ele>
        <time>2022-05-10T21:53:36Z</time>
      </trkpt>
      <trkpt lat="45.1847" lon="4.09696">
        <ele>725.79870605469</ele>
        <time>2022-05-10T21:53:44Z</time>
      </trkpt>
      <trkpt lat="45.18462" lon="4.09691">
        <ele>723.61773681641</ele>
        <time>2022-05-10T21:54:04Z</time>
      </trkpt>
      <trkpt lat="45.18454" lon="4.0968">
        <ele>722.18475341797</ele>
        <time>2022-05-10T21:54:10Z</time>
      </trkpt>
      <trkpt lat="45.1845" lon="4.09661">
        <ele>723.33288574219</ele>
        <time>2022-05-10T21:54:13Z</time>
      </trkpt>
      <trkpt lat="45.18446" lon="4.09624">
        <ele>725.94268798828</ele>
        <time>2022-05-10T21:54:13Z</time>
      </trkpt>
      <trkpt lat="45.18443" lon="4.0961">
        <ele>726.22357177734</ele>
        <time>2022-05-10T21:54:18Z</time>
      </trkpt>
      <trkpt lat="45.18436" lon="4.09596">
        <ele>725.2158203125</ele>
        <time>2022-05-10T21:54:25Z</time>
      </trkpt>
      <trkpt lat="45.18416" lon="4.09557">
        <ele>721.23358154297</ele>
        <time>2022-05-10T21:54:35Z</time>
      </trkpt>
      <trkpt lat="45.18409" lon="4.09531">
        <ele>718.36053466797</ele>
        <time>2022-05-10T21:54:40Z</time>
      </trkpt>
      <trkpt lat="45.18401" lon="4.09449">
        <ele>717.63739013672</ele>
        <time>2022-05-10T21:55:01Z</time>
      </trkpt>
      <trkpt lat="45.18379" lon="4.09359">
        <ele>713.00640869141</ele>
        <time>2022-05-10T21:55:10Z</time>
      </trkpt>
      <trkpt lat="45.18365" lon="4.09314">
        <ele>712.15173339844</ele>
        <time>2022-05-10T21:55:14Z</time>
      </trkpt>
      <trkpt lat="45.18359" lon="4.09302">
        <ele>712.19781494141</ele>
        <time>2022-05-10T21:55:18Z</time>
      </trkpt>
      <trkpt lat="45.18352" lon="4.09294">
        <ele>711.89117431641</ele>
        <time>2022-05-10T21:55:20Z</time>
      </trkpt>
      <trkpt lat="45.18345" lon="4.09291">
        <ele>711.68060302734</ele>
        <time>2022-05-10T21:55:29Z</time>
      </trkpt>
      <trkpt lat="45.18334" lon="4.09291">
        <ele>713.32849121094</ele>
        <time>2022-05-10T21:55:40Z</time>
      </trkpt>
      <trkpt lat="45.18325" lon="4.09294">
        <ele>712.81561279297</ele>
        <time>2022-05-10T21:55:53Z</time>
      </trkpt>
      <trkpt lat="45.18318" lon="4.09301">
        <ele>710.46685791016</ele>
        <time>2022-05-10T21:55:57Z</time>
      </trkpt>
      <trkpt lat="45.18312" lon="4.09315">
        <ele>706.59088134766</ele>
        <time>2022-05-10T21:56:01Z</time>
      </trkpt>
      <trkpt lat="45.18305" lon="4.09338">
        <ele>703.92828369141</ele>
        <time>2022-05-10T21:56:05Z</time>
      </trkpt>
      <trkpt lat="45.18296" lon="4.0937">
        <ele>702.54486083984</ele>
        <time>2022-05-10T21:56:09Z</time>
      </trkpt>
      <trkpt lat="45.18285" lon="4.0939">
        <ele>698.56475830078</ele>
        <time>2022-05-10T21:56:11Z</time>
      </trkpt>
      <trkpt lat="45.18275" lon="4.09403">
        <ele>694.09411621094</ele>
        <time>2022-05-10T21:56:13Z</time>
      </trkpt>
      <trkpt lat="45.18264" lon="4.0941">
        <ele>690.30621337891</ele>
        <time>2022-05-10T21:56:15Z</time>
      </trkpt>
      <trkpt lat="45.18255" lon="4.09417">
        <ele>686.25891113281</ele>
        <time>2022-05-10T21:56:17Z</time>
      </trkpt>
      <trkpt lat="45.18238" lon="4.09419">
        <ele>681.84124755859</ele>
        <time>2022-05-10T21:56:20Z</time>
      </trkpt>
      <trkpt lat="45.18232" lon="4.09414">
        <ele>682.21044921875</ele>
        <time>2022-05-10T21:56:24Z</time>
      </trkpt>
      <trkpt lat="45.18223" lon="4.09403">
        <ele>683.69219970703</ele>
        <time>2022-05-10T21:56:27Z</time>
      </trkpt>
      <trkpt lat="45.18196" lon="4.0937">
        <ele>686.56695556641</ele>
        <time>2022-05-10T21:56:39Z</time>
      </trkpt>
      <trkpt lat="45.18175" lon="4.09338">
        <ele>690.16741943359</ele>
        <time>2022-05-10T21:56:51Z</time>
      </trkpt>
      <trkpt lat="45.18169" lon="4.09334">
        <ele>690.16326904297</ele>
        <time>2022-05-10T21:56:56Z</time>
      </trkpt>
      <trkpt lat="45.18163" lon="4.09332">
        <ele>689.77770996094</ele>
        <time>2022-05-10T21:56:59Z</time>
      </trkpt>
      <trkpt lat="45.18153" lon="4.09336">
        <ele>687.53698730469</ele>
        <time>2022-05-10T21:57:02Z</time>
      </trkpt>
      <trkpt lat="45.18141" lon="4.09342">
        <ele>684.75384521484</ele>
        <time>2022-05-10T21:57:03Z</time>
      </trkpt>
      <trkpt lat="45.18134" lon="4.09342">
        <ele>684.23876953125</ele>
        <time>2022-05-10T21:57:06Z</time>
      </trkpt>
      <trkpt lat="45.18126" lon="4.09339">
        <ele>684.697265625</ele>
        <time>2022-05-10T21:57:12Z</time>
      </trkpt>
      <trkpt lat="45.18108" lon="4.09332">
        <ele>683.95526123047</ele>
        <time>2022-05-10T21:57:17Z</time>
      </trkpt>
      <trkpt lat="45.18093" lon="4.09333">
        <ele>681.29046630859</ele>
        <time>2022-05-10T21:57:22Z</time>
      </trkpt>
      <trkpt lat="45.18084" lon="4.09336">
        <ele>679.66760253906</ele>
        <time>2022-05-10T21:57:24Z</time>
      </trkpt>
      <trkpt lat="45.18072" lon="4.09342">
        <ele>677.67718505859</ele>
        <time>2022-05-10T21:57:32Z</time>
      </trkpt>
      <trkpt lat="45.18058" lon="4.09342">
        <ele>677.70623779297</ele>
        <time>2022-05-10T21:57:34Z</time>
      </trkpt>
      <trkpt lat="45.18048" lon="4.0934">
        <ele>677.35504150391</ele>
        <time>2022-05-10T21:57:38Z</time>
      </trkpt>
      <trkpt lat="45.18042" lon="4.09343">
        <ele>675.63696289062</ele>
        <time>2022-05-10T21:57:42Z</time>
      </trkpt>
      <trkpt lat="45.1803" lon="4.09347">
        <ele>673.298828125</ele>
        <time>2022-05-10T21:57:45Z</time>
      </trkpt>
      <trkpt lat="45.18024" lon="4.09345">
        <ele>673.84027099609</ele>
        <time>2022-05-10T21:57:50Z</time>
      </trkpt>
      <trkpt lat="45.18018" lon="4.09338">
        <ele>676.42791748047</ele>
        <time>2022-05-10T21:57:53Z</time>
      </trkpt>
      <trkpt lat="45.18012" lon="4.09331">
        <ele>678.35998535156</ele>
        <time>2022-05-10T21:57:58Z</time>
      </trkpt>
      <trkpt lat="45.18002" lon="4.09331">
        <ele>677.92407226562</ele>
        <time>2022-05-10T21:58:03Z</time>
      </trkpt>
      <trkpt lat="45.17992" lon="4.09335">
        <ele>679.35272216797</ele>
        <time>2022-05-10T21:58:08Z</time>
      </trkpt>
      <trkpt lat="45.17975" lon="4.09336">
        <ele>678.32763671875</ele>
        <time>2022-05-10T21:58:16Z</time>
      </trkpt>
      <trkpt lat="45.17964" lon="4.09343">
        <ele>674.29748535156</ele>
        <time>2022-05-10T21:58:22Z</time>
      </trkpt>
      <trkpt lat="45.17942" lon="4.09355">
        <ele>669.51177978516</ele>
        <time>2022-05-10T21:58:25Z</time>
      </trkpt>
      <trkpt lat="45.17936" lon="4.09358">
        <ele>667.759765625</ele>
        <time>2022-05-10T21:58:28Z</time>
      </trkpt>
      <trkpt lat="45.17931" lon="4.09357">
        <ele>667.43792724609</ele>
        <time>2022-05-10T21:58:34Z</time>
      </trkpt>
      <trkpt lat="45.17923" lon="4.09354">
        <ele>667.36840820312</ele>
        <time>2022-05-10T21:58:38Z</time>
      </trkpt>
      <trkpt lat="45.17913" lon="4.09347">
        <ele>666.75439453125</ele>
        <time>2022-05-10T21:58:41Z</time>
      </trkpt>
      <trkpt lat="45.17893" lon="4.09342">
        <ele>666.56744384766</ele>
        <time>2022-05-10T21:58:45Z</time>
      </trkpt>
      <trkpt lat="45.17859" lon="4.09343">
        <ele>662.66094970703</ele>
        <time>2022-05-10T21:58:49Z</time>
      </trkpt>
      <trkpt lat="45.1785" lon="4.09344">
        <ele>661.42163085938</ele>
        <time>2022-05-10T21:58:55Z</time>
      </trkpt>
      <trkpt lat="45.17845" lon="4.09349">
        <ele>660.30285644531</ele>
        <time>2022-05-10T21:58:58Z</time>
      </trkpt>
      <trkpt lat="45.17842" lon="4.09354">
        <ele>659.23101806641</ele>
        <time>2022-05-10T21:59:02Z</time>
      </trkpt>
      <trkpt lat="45.17837" lon="4.09385">
        <ele>659.76214599609</ele>
        <time>2022-05-10T21:59:09Z</time>
      </trkpt>
      <trkpt lat="45.17829" lon="4.09394">
        <ele>665.86193847656</ele>
        <time>2022-05-10T21:59:12Z</time>
      </trkpt>
      <trkpt lat="45.17821" lon="4.09397">
        <ele>670.04119873047</ele>
        <time>2022-05-10T21:59:16Z</time>
      </trkpt>
      <trkpt lat="45.17809" lon="4.09397">
        <ele>671.34594726562</ele>
        <time>2022-05-10T21:59:23Z</time>
      </trkpt>
      <trkpt lat="45.17791" lon="4.09394">
        <ele>675.52593994141</ele>
        <time>2022-05-10T21:59:26Z</time>
      </trkpt>
      <trkpt lat="45.17774" lon="4.09387">
        <ele>676.85400390625</ele>
        <time>2022-05-10T21:59:39Z</time>
      </trkpt>
      <trkpt lat="45.1776" lon="4.09378">
        <ele>675.025390625</ele>
        <time>2022-05-10T22:00:03Z</time>
      </trkpt>
      <trkpt lat="45.17752" lon="4.09369">
        <ele>672.79754638672</ele>
        <time>2022-05-10T22:00:13Z</time>
      </trkpt>
      <trkpt lat="45.17746" lon="4.09358">
        <ele>669.77856445312</ele>
        <time>2022-05-10T22:00:19Z</time>
      </trkpt>
      <trkpt lat="45.17743" lon="4.09333">
        <ele>668.47827148438</ele>
        <time>2022-05-10T22:00:23Z</time>
      </trkpt>
      <trkpt lat="45.17743" lon="4.09297">
        <ele>671.74072265625</ele>
        <time>2022-05-10T22:00:32Z</time>
      </trkpt>
      <trkpt lat="45.17742" lon="4.09282">
        <ele>676.77215576172</ele>
        <time>2022-05-10T22:00:39Z</time>
      </trkpt>
      <trkpt lat="45.17745" lon="4.09261">
        <ele>677.4208984375</ele>
        <time>2022-05-10T22:00:56Z</time>
      </trkpt>
      <trkpt lat="45.17754" lon="4.09208">
        <ele>674.59100341797</ele>
        <time>2022-05-10T22:01:08Z</time>
      </trkpt>
      <trkpt lat="45.1776" lon="4.09183">
        <ele>675.13055419922</ele>
        <time>2022-05-10T22:01:15Z</time>
      </trkpt>
      <trkpt lat="45.1777" lon="4.09163">
        <ele>674.93011474609</ele>
        <time>2022-05-10T22:01:20Z</time>
      </trkpt>
      <trkpt lat="45.1779" lon="4.09125">
        <ele>673.05212402344</ele>
        <time>2022-05-10T22:01:30Z</time>
      </trkpt>
      <trkpt lat="45.17796" lon="4.0911">
        <ele>671.65704345703</ele>
        <time>2022-05-10T22:01:34Z</time>
      </trkpt>
      <trkpt lat="45.17798" lon="4.09097">
        <ele>671.75622558594</ele>
        <time>2022-05-10T22:01:41Z</time>
      </trkpt>
      <trkpt lat="45.17795" lon="4.0908">
        <ele>673.77844238281</ele>
        <time>2022-05-10T22:01:51Z</time>
      </trkpt>
      <trkpt lat="45.17787" lon="4.09068">
        <ele>677.01086425781</ele>
        <time>2022-05-10T22:01:56Z</time>
      </trkpt>
      <trkpt lat="45.17778" lon="4.0906">
        <ele>680.44891357422</ele>
        <time>2022-05-10T22:02:01Z</time>
      </trkpt>
      <trkpt lat="45.17758" lon="4.09049">
        <ele>686.20635986328</ele>
        <time>2022-05-10T22:02:05Z</time>
      </trkpt>
      <trkpt lat="45.17745" lon="4.09043">
        <ele>689.07006835938</ele>
        <time>2022-05-10T22:02:18Z</time>
      </trkpt>
      <trkpt lat="45.17734" lon="4.09041">
        <ele>692.58178710938</ele>
        <time>2022-05-10T22:02:24Z</time>
      </trkpt>
      <trkpt lat="45.1772" lon="4.09043">
        <ele>695.57379150391</ele>
        <time>2022-05-10T22:02:37Z</time>
      </trkpt>
      <trkpt lat="45.17708" lon="4.09045">
        <ele>698.18798828125</ele>
        <time>2022-05-10T22:02:43Z</time>
      </trkpt>
      <trkpt lat="45.17702" lon="4.09044">
        <ele>699.46789550781</ele>
        <time>2022-05-10T22:02:48Z</time>
      </trkpt>
      <trkpt lat="45.17698" lon="4.09039">
        <ele>700.06231689453</ele>
        <time>2022-05-10T22:02:52Z</time>
      </trkpt>
      <trkpt lat="45.17696" lon="4.09031">
        <ele>699.31213378906</ele>
        <time>2022-05-10T22:02:57Z</time>
      </trkpt>
      <trkpt lat="45.17699" lon="4.09011">
        <ele>695.28991699219</ele>
        <time>2022-05-10T22:03:03Z</time>
      </trkpt>
      <trkpt lat="45.17717" lon="4.08984">
        <ele>692.26892089844</ele>
        <time>2022-05-10T22:03:09Z</time>
      </trkpt>
      <trkpt lat="45.17722" lon="4.08967">
        <ele>692.59802246094</ele>
        <time>2022-05-10T22:03:15Z</time>
      </trkpt>
      <trkpt lat="45.17722" lon="4.0895">
        <ele>691.90020751953</ele>
        <time>2022-05-10T22:03:22Z</time>
      </trkpt>
      <trkpt lat="45.17719" lon="4.08938">
        <ele>691.41552734375</ele>
        <time>2022-05-10T22:03:26Z</time>
      </trkpt>
      <trkpt lat="45.17702" lon="4.08912">
        <ele>692.66967773438</ele>
        <time>2022-05-10T22:03:37Z</time>
      </trkpt>
      <trkpt lat="45.17695" lon="4.08907">
        <ele>693.26605224609</ele>
        <time>2022-05-10T22:03:43Z</time>
      </trkpt>
      <trkpt lat="45.17687" lon="4.08904">
        <ele>694.02526855469</ele>
        <time>2022-05-10T22:03:48Z</time>
      </trkpt>
      <trkpt lat="45.17651" lon="4.08904">
        <ele>698.99188232422</ele>
        <time>2022-05-10T22:03:51Z</time>
      </trkpt>
      <trkpt lat="45.17621" lon="4.08903">
        <ele>703.06811523438</ele>
        <time>2022-05-10T22:03:54Z</time>
      </trkpt>
      <trkpt lat="45.17592" lon="4.08897">
        <ele>706.36492919922</ele>
        <time>2022-05-10T22:03:56Z</time>
      </trkpt>
      <trkpt lat="45.17565" lon="4.08897">
        <ele>708.02709960938</ele>
        <time>2022-05-10T22:04:00Z</time>
      </trkpt>
      <trkpt lat="45.17557" lon="4.08892">
        <ele>708.77154541016</ele>
        <time>2022-05-10T22:04:09Z</time>
      </trkpt>
      <trkpt lat="45.17549" lon="4.08877">
        <ele>710.41632080078</ele>
        <time>2022-05-10T22:04:12Z</time>
      </trkpt>
      <trkpt lat="45.17535" lon="4.08851">
        <ele>712.87994384766</ele>
        <time>2022-05-10T22:04:15Z</time>
      </trkpt>
      <trkpt lat="45.1753" lon="4.08836">
        <ele>714.51477050781</ele>
        <time>2022-05-10T22:04:19Z</time>
      </trkpt>
      <trkpt lat="45.1753" lon="4.08827">
        <ele>714.45947265625</ele>
        <time>2022-05-10T22:04:26Z</time>
      </trkpt>
      <trkpt lat="45.17541" lon="4.088">
        <ele>713.07971191406</ele>
        <time>2022-05-10T22:04:36Z</time>
      </trkpt>
      <trkpt lat="45.17543" lon="4.08781">
        <ele>711.23187255859</ele>
        <time>2022-05-10T22:04:40Z</time>
      </trkpt>
      <trkpt lat="45.17538" lon="4.08759">
        <ele>710.29150390625</ele>
        <time>2022-05-10T22:04:44Z</time>
      </trkpt>
      <trkpt lat="45.17532" lon="4.08748">
        <ele>710.8095703125</ele>
        <time>2022-05-10T22:04:49Z</time>
      </trkpt>
      <trkpt lat="45.1752" lon="4.08733">
        <ele>712.48083496094</ele>
        <time>2022-05-10T22:04:54Z</time>
      </trkpt>
      <trkpt lat="45.1751" lon="4.08724">
        <ele>714.17761230469</ele>
        <time>2022-05-10T22:04:57Z</time>
      </trkpt>
      <trkpt lat="45.17496" lon="4.08721">
        <ele>717.47723388672</ele>
        <time>2022-05-10T22:05:02Z</time>
      </trkpt>
      <trkpt lat="45.17485" lon="4.08725">
        <ele>720.41979980469</ele>
        <time>2022-05-10T22:05:11Z</time>
      </trkpt>
      <trkpt lat="45.17475" lon="4.08725">
        <ele>722.24951171875</ele>
        <time>2022-05-10T22:05:26Z</time>
      </trkpt>
      <trkpt lat="45.17458" lon="4.08717">
        <ele>722.84411621094</ele>
        <time>2022-05-10T22:05:31Z</time>
      </trkpt>
      <trkpt lat="45.1745" lon="4.08717">
        <ele>723.24084472656</ele>
        <time>2022-05-10T22:05:39Z</time>
      </trkpt>
      <trkpt lat="45.1744" lon="4.08721">
        <ele>723.96759033203</ele>
        <time>2022-05-10T22:05:44Z</time>
      </trkpt>
      <trkpt lat="45.17428" lon="4.08731">
        <ele>724.70611572266</ele>
        <time>2022-05-10T22:05:48Z</time>
      </trkpt>
      <trkpt lat="45.17423" lon="4.0874">
        <ele>725.85003662109</ele>
        <time>2022-05-10T22:05:55Z</time>
      </trkpt>
      <trkpt lat="45.17408" lon="4.0877">
        <ele>730.16564941406</ele>
        <time>2022-05-10T22:06:01Z</time>
      </trkpt>
      <trkpt lat="45.174" lon="4.08781">
        <ele>732.35485839844</ele>
        <time>2022-05-10T22:06:12Z</time>
      </trkpt>
      <trkpt lat="45.17379" lon="4.08802">
        <ele>736.99346923828</ele>
        <time>2022-05-10T22:06:16Z</time>
      </trkpt>
      <trkpt lat="45.17363" lon="4.08812">
        <ele>739.73706054688</ele>
        <time>2022-05-10T22:06:24Z</time>
      </trkpt>
      <trkpt lat="45.17334" lon="4.08819">
        <ele>743.79455566406</ele>
        <time>2022-05-10T22:06:28Z</time>
      </trkpt>
      <trkpt lat="45.17317" lon="4.0882">
        <ele>743.10528564453</ele>
        <time>2022-05-10T22:06:35Z</time>
      </trkpt>
      <trkpt lat="45.17298" lon="4.08826">
        <ele>743.57733154297</ele>
        <time>2022-05-10T22:06:40Z</time>
      </trkpt>
      <trkpt lat="45.1729" lon="4.08836">
        <ele>742.37176513672</ele>
        <time>2022-05-10T22:06:51Z</time>
      </trkpt>
      <trkpt lat="45.17278" lon="4.08853">
        <ele>740.5009765625</ele>
        <time>2022-05-10T22:07:08Z</time>
      </trkpt>
      <trkpt lat="45.17274" lon="4.08859">
        <ele>741.13037109375</ele>
        <time>2022-05-10T22:07:23Z</time>
      </trkpt>
      <trkpt lat="45.17262" lon="4.08867">
        <ele>742.45147705078</ele>
        <time>2022-05-10T22:07:30Z</time>
      </trkpt>
      <trkpt lat="45.17258" lon="4.08868">
        <ele>742.39868164062</ele>
        <time>2022-05-10T22:07:40Z</time>
      </trkpt>
      <trkpt lat="45.17252" lon="4.08865">
        <ele>742.63745117188</ele>
        <time>2022-05-10T22:07:48Z</time>
      </trkpt>
      <trkpt lat="45.17246" lon="4.08858">
        <ele>744.18377685547</ele>
        <time>2022-05-10T22:07:54Z</time>
      </trkpt>
      <trkpt lat="45.17242" lon="4.08849">
        <ele>747.01165771484</ele>
        <time>2022-05-10T22:07:59Z</time>
      </trkpt>
      <trkpt lat="45.17241" lon="4.08834">
        <ele>748.9501953125</ele>
        <time>2022-05-10T22:08:01Z</time>
      </trkpt>
      <trkpt lat="45.17239" lon="4.08809">
        <ele>750.61541748047</ele>
        <time>2022-05-10T22:08:12Z</time>
      </trkpt>
      <trkpt lat="45.17236" lon="4.0876">
        <ele>752.23651123047</ele>
        <time>2022-05-10T22:08:19Z</time>
      </trkpt>
      <trkpt lat="45.17244" lon="4.08732">
        <ele>751.46203613281</ele>
        <time>2022-05-10T22:08:40Z</time>
      </trkpt>
      <trkpt lat="45.17243" lon="4.08718">
        <ele>751.68200683594</ele>
        <time>2022-05-10T22:08:46Z</time>
      </trkpt>
      <trkpt lat="45.1724" lon="4.08707">
        <ele>752.23724365234</ele>
        <time>2022-05-10T22:08:49Z</time>
      </trkpt>
      <trkpt lat="45.17228" lon="4.08693">
        <ele>754.02673339844</ele>
        <time>2022-05-10T22:08:59Z</time>
      </trkpt>
      <trkpt lat="45.17212" lon="4.08681">
        <ele>754.77325439453</ele>
        <time>2022-05-10T22:09:08Z</time>
      </trkpt>
      <trkpt lat="45.17209" lon="4.08679">
        <ele>754.75817871094</ele>
        <time>2022-05-10T22:09:21Z</time>
      </trkpt>
      <trkpt lat="45.17197" lon="4.08679">
        <ele>755.30053710938</ele>
        <time>2022-05-10T22:09:35Z</time>
      </trkpt>
      <trkpt lat="45.17185" lon="4.08682">
        <ele>755.72369384766</ele>
        <time>2022-05-10T22:09:52Z</time>
      </trkpt>
      <trkpt lat="45.17175" lon="4.08688">
        <ele>756.47570800781</ele>
        <time>2022-05-10T22:09:58Z</time>
      </trkpt>
      <trkpt lat="45.17164" lon="4.08698">
        <ele>756.41271972656</ele>
        <time>2022-05-10T22:10:09Z</time>
      </trkpt>
      <trkpt lat="45.17152" lon="4.08722">
        <ele>756.45123291016</ele>
        <time>2022-05-10T22:10:26Z</time>
      </trkpt>
      <trkpt lat="45.17144" lon="4.08742">
        <ele>757.42303466797</ele>
        <time>2022-05-10T22:10:29Z</time>
      </trkpt>
      <trkpt lat="45.17136" lon="4.08768">
        <ele>758.66906738281</ele>
        <time>2022-05-10T22:10:33Z</time>
      </trkpt>
      <trkpt lat="45.17131" lon="4.0879">
        <ele>758.78228759766</ele>
        <time>2022-05-10T22:10:40Z</time>
      </trkpt>
      <trkpt lat="45.17132" lon="4.08819">
        <ele>758.42443847656</ele>
        <time>2022-05-10T22:10:47Z</time>
      </trkpt>
      <trkpt lat="45.17132" lon="4.08842">
        <ele>758.96826171875</ele>
        <time>2022-05-10T22:10:51Z</time>
      </trkpt>
      <trkpt lat="45.17128" lon="4.08867">
        <ele>759.76293945312</ele>
        <time>2022-05-10T22:10:55Z</time>
      </trkpt>
      <trkpt lat="45.17124" lon="4.08897">
        <ele>761.67413330078</ele>
        <time>2022-05-10T22:11:05Z</time>
      </trkpt>
      <trkpt lat="45.17126" lon="4.08918">
        <ele>763.50268554688</ele>
        <time>2022-05-10T22:11:15Z</time>
      </trkpt>
      <trkpt lat="45.1713" lon="4.08942">
        <ele>765.75103759766</ele>
        <time>2022-05-10T22:11:32Z</time>
      </trkpt>
      <trkpt lat="45.17133" lon="4.08964">
        <ele>767.74572753906</ele>
        <time>2022-05-10T22:11:40Z</time>
      </trkpt>
      <trkpt lat="45.17131" lon="4.08974">
        <ele>768.76800537109</ele>
        <time>2022-05-10T22:11:52Z</time>
      </trkpt>
      <trkpt lat="45.17122" lon="4.08987">
        <ele>770.60864257812</ele>
        <time>2022-05-10T22:12:05Z</time>
      </trkpt>
      <trkpt lat="45.17116" lon="4.08991">
        <ele>771.53454589844</ele>
        <time>2022-05-10T22:12:11Z</time>
      </trkpt>
      <trkpt lat="45.17112" lon="4.08993">
        <ele>772.15606689453</ele>
        <time>2022-05-10T22:12:13Z</time>
      </trkpt>
      <trkpt lat="45.17098" lon="4.08993">
        <ele>772.67370605469</ele>
        <time>2022-05-10T22:12:27Z</time>
      </trkpt>
      <trkpt lat="45.17085" lon="4.09003">
        <ele>773.25714111328</ele>
        <time>2022-05-10T22:12:46Z</time>
      </trkpt>
      <trkpt lat="45.17061" lon="4.09041">
        <ele>776.26025390625</ele>
        <time>2022-05-10T22:12:55Z</time>
      </trkpt>
      <trkpt lat="45.17033" lon="4.09086">
        <ele>778.75762939453</ele>
        <time>2022-05-10T22:13:00Z</time>
      </trkpt>
      <trkpt lat="45.17015" lon="4.09112">
        <ele>779.97924804688</ele>
        <time>2022-05-10T22:13:06Z</time>
      </trkpt>
      <trkpt lat="45.16995" lon="4.09134">
        <ele>781.54858398438</ele>
        <time>2022-05-10T22:13:11Z</time>
      </trkpt>
      <trkpt lat="45.1695" lon="4.09176">
        <ele>785.91296386719</ele>
        <time>2022-05-10T22:13:18Z</time>
      </trkpt>
      <trkpt lat="45.16941" lon="4.09189">
        <ele>786.46527099609</ele>
        <time>2022-05-10T22:13:26Z</time>
      </trkpt>
      <trkpt lat="45.16927" lon="4.09215">
        <ele>787.85821533203</ele>
        <time>2022-05-10T22:13:43Z</time>
      </trkpt>
      <trkpt lat="45.16904" lon="4.09289">
        <ele>791.64178466797</ele>
        <time>2022-05-10T22:13:46Z</time>
      </trkpt>
      <trkpt lat="45.16884" lon="4.0935">
        <ele>794.88269042969</ele>
        <time>2022-05-10T22:13:51Z</time>
      </trkpt>
      <trkpt lat="45.16862" lon="4.09404">
        <ele>797.67687988281</ele>
        <time>2022-05-10T22:13:56Z</time>
      </trkpt>
      <trkpt lat="45.1685" lon="4.09432">
        <ele>799.41760253906</ele>
        <time>2022-05-10T22:14:03Z</time>
      </trkpt>
      <trkpt lat="45.16836" lon="4.09457">
        <ele>800.88208007812</ele>
        <time>2022-05-10T22:14:09Z</time>
      </trkpt>
      <trkpt lat="45.16832" lon="4.09467">
        <ele>801.31622314453</ele>
        <time>2022-05-10T22:14:19Z</time>
      </trkpt>
      <trkpt lat="45.16829" lon="4.0949">
        <ele>801.91882324219</ele>
        <time>2022-05-10T22:14:25Z</time>
      </trkpt>
      <trkpt lat="45.16827" lon="4.09505">
        <ele>802.60656738281</ele>
        <time>2022-05-10T22:14:38Z</time>
      </trkpt>
      <trkpt lat="45.16825" lon="4.09515">
        <ele>803.16662597656</ele>
        <time>2022-05-10T22:14:52Z</time>
      </trkpt>
      <trkpt lat="45.1682" lon="4.09523">
        <ele>803.85333251953</ele>
        <time>2022-05-10T22:15:03Z</time>
      </trkpt>
      <trkpt lat="45.16811" lon="4.0953">
        <ele>804.42218017578</ele>
        <time>2022-05-10T22:15:06Z</time>
      </trkpt>
      <trkpt lat="45.16799" lon="4.09535">
        <ele>804.21179199219</ele>
        <time>2022-05-10T22:15:17Z</time>
      </trkpt>
      <trkpt lat="45.16762" lon="4.09539">
        <ele>803.85192871094</ele>
        <time>2022-05-10T22:15:24Z</time>
      </trkpt>
      <trkpt lat="45.16712" lon="4.09548">
        <ele>803.65472412109</ele>
        <time>2022-05-10T22:15:27Z</time>
      </trkpt>
      <trkpt lat="45.16682" lon="4.0955">
        <ele>804.44128417969</ele>
        <time>2022-05-10T22:15:32Z</time>
      </trkpt>
      <trkpt lat="45.16663" lon="4.09551">
        <ele>804.77789306641</ele>
        <time>2022-05-10T22:15:40Z</time>
      </trkpt>
      <trkpt lat="45.16638" lon="4.09557">
        <ele>805.45239257812</ele>
        <time>2022-05-10T22:15:44Z</time>
      </trkpt>
      <trkpt lat="45.1662" lon="4.09568">
        <ele>807.79821777344</ele>
        <time>2022-05-10T22:15:45Z</time>
      </trkpt>
      <trkpt lat="45.16603" lon="4.09575">
        <ele>807.41979980469</ele>
        <time>2022-05-10T22:15:49Z</time>
      </trkpt>
      <trkpt lat="45.16585" lon="4.09576">
        <ele>808.22033691406</ele>
        <time>2022-05-10T22:15:51Z</time>
      </trkpt>
      <trkpt lat="45.16567" lon="4.09569">
        <ele>809.90203857422</ele>
        <time>2022-05-10T22:15:56Z</time>
      </trkpt>
      <trkpt lat="45.16553" lon="4.09559">
        <ele>810.44958496094</ele>
        <time>2022-05-10T22:16:03Z</time>
      </trkpt>
      <trkpt lat="45.16528" lon="4.09539">
        <ele>812.28454589844</ele>
        <time>2022-05-10T22:16:06Z</time>
      </trkpt>
      <trkpt lat="45.16501" lon="4.09535">
        <ele>813.94903564453</ele>
        <time>2022-05-10T22:16:12Z</time>
      </trkpt>
      <trkpt lat="45.16487" lon="4.09535">
        <ele>813.5927734375</ele>
        <time>2022-05-10T22:16:28Z</time>
      </trkpt>
      <trkpt lat="45.16474" lon="4.09532">
        <ele>814.08728027344</ele>
        <time>2022-05-10T22:16:34Z</time>
      </trkpt>
      <trkpt lat="45.1646" lon="4.09525">
        <ele>813.21997070312</ele>
        <time>2022-05-10T22:16:39Z</time>
      </trkpt>
      <trkpt lat="45.16435" lon="4.09494">
        <ele>812.85723876953</ele>
        <time>2022-05-10T22:16:45Z</time>
      </trkpt>
      <trkpt lat="45.16425" lon="4.09489">
        <ele>813.08325195312</ele>
        <time>2022-05-10T22:16:48Z</time>
      </trkpt>
      <trkpt lat="45.16407" lon="4.09486">
        <ele>813.248046875</ele>
        <time>2022-05-10T22:16:55Z</time>
      </trkpt>
      <trkpt lat="45.16368" lon="4.09484">
        <ele>814.37139892578</ele>
        <time>2022-05-10T22:16:59Z</time>
      </trkpt>
      <trkpt lat="45.16319" lon="4.09477">
        <ele>816.0517578125</ele>
        <time>2022-05-10T22:17:03Z</time>
      </trkpt>
      <trkpt lat="45.16307" lon="4.09477">
        <ele>816.92523193359</ele>
        <time>2022-05-10T22:17:08Z</time>
      </trkpt>
      <trkpt lat="45.16272" lon="4.09488">
        <ele>818.666015625</ele>
        <time>2022-05-10T22:17:13Z</time>
      </trkpt>
      <trkpt lat="45.16256" lon="4.09492">
        <ele>819.70855712891</ele>
        <time>2022-05-10T22:17:15Z</time>
      </trkpt>
      <trkpt lat="45.16232" lon="4.09495">
        <ele>820.45465087891</ele>
        <time>2022-05-10T22:17:18Z</time>
      </trkpt>
      <trkpt lat="45.16211" lon="4.095">
        <ele>820.58483886719</ele>
        <time>2022-05-10T22:17:27Z</time>
      </trkpt>
      <trkpt lat="45.16179" lon="4.09514">
        <ele>821.45379638672</ele>
        <time>2022-05-10T22:17:36Z</time>
      </trkpt>
      <trkpt lat="45.1616" lon="4.09523">
        <ele>821.57421875</ele>
        <time>2022-05-10T22:17:46Z</time>
      </trkpt>
      <trkpt lat="45.1615" lon="4.09528">
        <ele>822.10406494141</ele>
        <time>2022-05-10T22:17:51Z</time>
      </trkpt>
      <trkpt lat="45.1613" lon="4.0954">
        <ele>822.43450927734</ele>
        <time>2022-05-10T22:18:01Z</time>
      </trkpt>
      <trkpt lat="45.16114" lon="4.0955">
        <ele>822.49340820312</ele>
        <time>2022-05-10T22:18:01Z</time>
      </trkpt>
      <trkpt lat="45.16101" lon="4.09553">
        <ele>822.58160400391</ele>
        <time>2022-05-10T22:18:02Z</time>
      </trkpt>
      <trkpt lat="45.16089" lon="4.09554">
        <ele>822.66778564453</ele>
        <time>2022-05-10T22:18:13Z</time>
      </trkpt>
      <trkpt lat="45.16078" lon="4.09551">
        <ele>822.71264648438</ele>
        <time>2022-05-10T22:18:25Z</time>
      </trkpt>
      <trkpt lat="45.16044" lon="4.09534">
        <ele>822.97717285156</ele>
        <time>2022-05-10T22:18:34Z</time>
      </trkpt>
      <trkpt lat="45.16028" lon="4.09525">
        <ele>823.603515625</ele>
        <time>2022-05-10T22:18:39Z</time>
      </trkpt>
      <trkpt lat="45.15996" lon="4.09508">
        <ele>825.81335449219</ele>
        <time>2022-05-10T22:18:48Z</time>
      </trkpt>
      <trkpt lat="45.15959" lon="4.09493">
        <ele>825.90716552734</ele>
        <time>2022-05-10T22:18:56Z</time>
      </trkpt>
      <trkpt lat="45.15942" lon="4.09539">
        <ele>826.21783447266</ele>
        <time>2022-05-10T22:19:00Z</time>
      </trkpt>
      <trkpt lat="45.1592" lon="4.09598">
        <ele>825.98358154297</ele>
        <time>2022-05-10T22:19:05Z</time>
      </trkpt>
      <trkpt lat="45.15904" lon="4.09665">
        <ele>827.24676513672</ele>
        <time>2022-05-10T22:19:19Z</time>
      </trkpt>
      <trkpt lat="45.1589" lon="4.09756">
        <ele>829.33160400391</ele>
        <time>2022-05-10T22:19:29Z</time>
      </trkpt>
      <trkpt lat="45.15874" lon="4.09815">
        <ele>830.81036376953</ele>
        <time>2022-05-10T22:19:38Z</time>
      </trkpt>
      <trkpt lat="45.15859" lon="4.09846">
        <ele>832.02874755859</ele>
        <time>2022-05-10T22:19:48Z</time>
      </trkpt>
      <trkpt lat="45.15821" lon="4.09906">
        <ele>832.416015625</ele>
        <time>2022-05-10T22:20:04Z</time>
      </trkpt>
      <trkpt lat="45.15787" lon="4.0996">
        <ele>833.15783691406</ele>
        <time>2022-05-10T22:20:13Z</time>
      </trkpt>
      <trkpt lat="45.15753" lon="4.10018">
        <ele>836.04986572266</ele>
        <time>2022-05-10T22:20:18Z</time>
      </trkpt>
      <trkpt lat="45.15729" lon="4.10063">
        <ele>837.51507568359</ele>
        <time>2022-05-10T22:20:22Z</time>
      </trkpt>
      <trkpt lat="45.1571" lon="4.10096">
        <ele>838.35192871094</ele>
        <time>2022-05-10T22:20:27Z</time>
      </trkpt>
      <trkpt lat="45.1569" lon="4.10123">
        <ele>838.96197509766</ele>
        <time>2022-05-10T22:20:27Z</time>
      </trkpt>
      <trkpt lat="45.15643" lon="4.10174">
        <ele>840.03100585938</ele>
        <time>2022-05-10T22:20:37Z</time>
      </trkpt>
      <trkpt lat="45.15613" lon="4.10211">
        <ele>840.74987792969</ele>
        <time>2022-05-10T22:20:49Z</time>
      </trkpt>
      <trkpt lat="45.15556" lon="4.10294">
        <ele>843.02581787109</ele>
        <time>2022-05-10T22:21:01Z</time>
      </trkpt>
      <trkpt lat="45.15538" lon="4.10313">
        <ele>844.41772460938</ele>
        <time>2022-05-10T22:21:10Z</time>
      </trkpt>
      <trkpt lat="45.15511" lon="4.10337">
        <ele>846.55963134766</ele>
        <time>2022-05-10T22:21:13Z</time>
      </trkpt>
      <trkpt lat="45.15483" lon="4.10358">
        <ele>847.08044433594</ele>
        <time>2022-05-10T22:21:17Z</time>
      </trkpt>
      <trkpt lat="45.15431" lon="4.10392">
        <ele>846.68182373047</ele>
        <time>2022-05-10T22:21:20Z</time>
      </trkpt>
      <trkpt lat="45.15347" lon="4.10447">
        <ele>846.59252929688</ele>
        <time>2022-05-10T22:21:26Z</time>
      </trkpt>
      <trkpt lat="45.15281" lon="4.10486">
        <ele>848.20867919922</ele>
        <time>2022-05-10T22:21:30Z</time>
      </trkpt>
      <trkpt lat="45.1526" lon="4.105">
        <ele>847.85101318359</ele>
        <time>2022-05-10T22:21:38Z</time>
      </trkpt>
      <trkpt lat="45.15187" lon="4.10561">
        <ele>847.53228759766</ele>
        <time>2022-05-10T22:21:55Z</time>
      </trkpt>
      <trkpt lat="45.15155" lon="4.10589">
        <ele>848.39947509766</ele>
        <time>2022-05-10T22:22:20Z</time>
      </trkpt>
      <trkpt lat="45.15135" lon="4.10611">
        <ele>848.47009277344</ele>
        <time>2022-05-10T22:22:29Z</time>
      </trkpt>
      <trkpt lat="45.15073" lon="4.10699">
        <ele>850.31988525391</ele>
        <time>2022-05-10T22:22:31Z</time>
      </trkpt>
      <trkpt lat="45.15016" lon="4.1078">
        <ele>849.77166748047</ele>
        <time>2022-05-10T22:22:31Z</time>
      </trkpt>
      <trkpt lat="45.14976" lon="4.10832">
        <ele>849.41723632812</ele>
        <time>2022-05-10T22:22:41Z</time>
      </trkpt>
      <trkpt lat="45.14898" lon="4.10937">
        <ele>851.11535644531</ele>
        <time>2022-05-10T22:22:49Z</time>
      </trkpt>
      <trkpt lat="45.14863" lon="4.10985">
        <ele>852.02117919922</ele>
        <time>2022-05-10T22:22:55Z</time>
      </trkpt>
      <trkpt lat="45.14837" lon="4.11024">
        <ele>853.22265625</ele>
        <time>2022-05-10T22:23:19Z</time>
      </trkpt>
      <trkpt lat="45.14819" lon="4.1105">
        <ele>854.10321044922</ele>
        <time>2022-05-10T22:23:24Z</time>
      </trkpt>
      <trkpt lat="45.14805" lon="4.11061">
        <ele>854.23175048828</ele>
        <time>2022-05-10T22:23:40Z</time>
      </trkpt>
      <trkpt lat="45.14791" lon="4.11062">
        <ele>853.61358642578</ele>
        <time>2022-05-10T22:23:48Z</time>
      </trkpt>
      <trkpt lat="45.14782" lon="4.1106">
        <ele>853.30023193359</ele>
        <time>2022-05-10T22:23:54Z</time>
      </trkpt>
      <trkpt lat="45.14769" lon="4.11053">
        <ele>852.45764160156</ele>
        <time>2022-05-10T22:23:56Z</time>
      </trkpt>
      <trkpt lat="45.14713" lon="4.10985">
        <ele>849.49572753906</ele>
        <time>2022-05-10T22:23:58Z</time>
      </trkpt>
      <trkpt lat="45.14681" lon="4.10947">
        <ele>848.65045166016</ele>
        <time>2022-05-10T22:24:02Z</time>
      </trkpt>
      <trkpt lat="45.14652" lon="4.10917">
        <ele>847.59899902344</ele>
        <time>2022-05-10T22:24:09Z</time>
      </trkpt>
      <trkpt lat="45.1461" lon="4.10877">
        <ele>846.92919921875</ele>
        <time>2022-05-10T22:24:15Z</time>
      </trkpt>
      <trkpt lat="45.14567" lon="4.10846">
        <ele>847.20404052734</ele>
        <time>2022-05-10T22:24:23Z</time>
      </trkpt>
      <trkpt lat="45.1453" lon="4.10814">
        <ele>847.35821533203</ele>
        <time>2022-05-10T22:24:40Z</time>
      </trkpt>
      <trkpt lat="45.14508" lon="4.10798">
        <ele>846.58465576172</ele>
        <time>2022-05-10T22:24:46Z</time>
      </trkpt>
      <trkpt lat="45.14486" lon="4.10792">
        <ele>846.30975341797</ele>
        <time>2022-05-10T22:24:52Z</time>
      </trkpt>
      <trkpt lat="45.1445" lon="4.10795">
        <ele>846.41442871094</ele>
        <time>2022-05-10T22:24:58Z</time>
      </trkpt>
      <trkpt lat="45.14409" lon="4.10808">
        <ele>846.00561523438</ele>
        <time>2022-05-10T22:25:02Z</time>
      </trkpt>
      <trkpt lat="45.14387" lon="4.10809">
        <ele>846.08758544922</ele>
        <time>2022-05-10T22:25:08Z</time>
      </trkpt>
      <trkpt lat="45.14376" lon="4.10803">
        <ele>845.65173339844</ele>
        <time>2022-05-10T22:25:17Z</time>
      </trkpt>
      <trkpt lat="45.14366" lon="4.10793">
        <ele>845.43737792969</ele>
        <time>2022-05-10T22:25:32Z</time>
      </trkpt>
      <trkpt lat="45.14356" lon="4.10777">
        <ele>844.91912841797</ele>
        <time>2022-05-10T22:25:45Z</time>
      </trkpt>
      <trkpt lat="45.14355" lon="4.1076">
        <ele>844.6875</ele>
        <time>2022-05-10T22:25:47Z</time>
      </trkpt>
      <trkpt lat="45.14365" lon="4.10728">
        <ele>843.94171142578</ele>
        <time>2022-05-10T22:25:52Z</time>
      </trkpt>
      <trkpt lat="45.14381" lon="4.10704">
        <ele>843.62969970703</ele>
        <time>2022-05-10T22:25:59Z</time>
      </trkpt>
      <trkpt lat="45.14408" lon="4.10678">
        <ele>841.16705322266</ele>
        <time>2022-05-10T22:26:02Z</time>
      </trkpt>
      <trkpt lat="45.14459" lon="4.10637">
        <ele>838.10272216797</ele>
        <time>2022-05-10T22:26:04Z</time>
      </trkpt>
      <trkpt lat="45.14477" lon="4.10618">
        <ele>837.48962402344</ele>
        <time>2022-05-10T22:26:06Z</time>
      </trkpt>
      <trkpt lat="45.14514" lon="4.10563">
        <ele>835.77313232422</ele>
        <time>2022-05-10T22:26:10Z</time>
      </trkpt>
      <trkpt lat="45.14524" lon="4.10545">
        <ele>834.73516845703</ele>
        <time>2022-05-10T22:26:14Z</time>
      </trkpt>
      <trkpt lat="45.14556" lon="4.10464">
        <ele>830.58898925781</ele>
        <time>2022-05-10T22:26:17Z</time>
      </trkpt>
      <trkpt lat="45.14561" lon="4.10436">
        <ele>829.08892822266</ele>
        <time>2022-05-10T22:26:21Z</time>
      </trkpt>
      <trkpt lat="45.14561" lon="4.10404">
        <ele>829.33508300781</ele>
        <time>2022-05-10T22:26:24Z</time>
      </trkpt>
      <trkpt lat="45.14558" lon="4.10368">
        <ele>828.35003662109</ele>
        <time>2022-05-10T22:26:26Z</time>
      </trkpt>
      <trkpt lat="45.14551" lon="4.10344">
        <ele>826.80645751953</ele>
        <time>2022-05-10T22:26:29Z</time>
      </trkpt>
      <trkpt lat="45.14529" lon="4.10293">
        <ele>825.18377685547</ele>
        <time>2022-05-10T22:26:33Z</time>
      </trkpt>
      <trkpt lat="45.14526" lon="4.10259">
        <ele>823.75048828125</ele>
        <time>2022-05-10T22:26:39Z</time>
      </trkpt>
      <trkpt lat="45.14521" lon="4.10235">
        <ele>823.49322509766</ele>
        <time>2022-05-10T22:26:44Z</time>
      </trkpt>
      <trkpt lat="45.14515" lon="4.10222">
        <ele>822.95764160156</ele>
        <time>2022-05-10T22:26:58Z</time>
      </trkpt>
      <trkpt lat="45.14459" lon="4.10149">
        <ele>819.26531982422</ele>
        <time>2022-05-10T22:27:07Z</time>
      </trkpt>
      <trkpt lat="45.14396" lon="4.10068">
        <ele>814.00866699219</ele>
        <time>2022-05-10T22:27:34Z</time>
      </trkpt>
      <trkpt lat="45.14371" lon="4.10031">
        <ele>809.57629394531</ele>
        <time>2022-05-10T22:27:37Z</time>
      </trkpt>
      <trkpt lat="45.14368" lon="4.10017">
        <ele>809.09674072266</ele>
        <time>2022-05-10T22:27:42Z</time>
      </trkpt>
      <trkpt lat="45.14368" lon="4.09997">
        <ele>808.56256103516</ele>
        <time>2022-05-10T22:27:45Z</time>
      </trkpt>
      <trkpt lat="45.14375" lon="4.09975">
        <ele>808.45373535156</ele>
        <time>2022-05-10T22:27:49Z</time>
      </trkpt>
      <trkpt lat="45.14394" lon="4.09953">
        <ele>807.85308837891</ele>
        <time>2022-05-10T22:27:53Z</time>
      </trkpt>
      <trkpt lat="45.14435" lon="4.09914">
        <ele>806.86297607422</ele>
        <time>2022-05-10T22:27:56Z</time>
      </trkpt>
      <trkpt lat="45.14485" lon="4.0987">
        <ele>806.87573242188</ele>
        <time>2022-05-10T22:27:59Z</time>
      </trkpt>
      <trkpt lat="45.14506" lon="4.09857">
        <ele>805.65771484375</ele>
        <time>2022-05-10T22:28:04Z</time>
      </trkpt>
      <trkpt lat="45.1452" lon="4.09843">
        <ele>805.16180419922</ele>
        <time>2022-05-10T22:28:09Z</time>
      </trkpt>
      <trkpt lat="45.1453" lon="4.09828">
        <ele>805.20159912109</ele>
        <time>2022-05-10T22:28:20Z</time>
      </trkpt>
      <trkpt lat="45.1454" lon="4.09797">
        <ele>804.42755126953</ele>
        <time>2022-05-10T22:28:28Z</time>
      </trkpt>
      <trkpt lat="45.14543" lon="4.0977">
        <ele>803.49816894531</ele>
        <time>2022-05-10T22:28:32Z</time>
      </trkpt>
      <trkpt lat="45.14544" lon="4.09723">
        <ele>802.27868652344</ele>
        <time>2022-05-10T22:28:37Z</time>
      </trkpt>
      <trkpt lat="45.14546" lon="4.09688">
        <ele>800.85131835938</ele>
        <time>2022-05-10T22:28:42Z</time>
      </trkpt>
      <trkpt lat="45.1455" lon="4.09667">
        <ele>801.10620117188</ele>
        <time>2022-05-10T22:28:46Z</time>
      </trkpt>
      <trkpt lat="45.14556" lon="4.09647">
        <ele>800.61206054688</ele>
        <time>2022-05-10T22:28:51Z</time>
      </trkpt>
      <trkpt lat="45.14565" lon="4.0963">
        <ele>800.22436523438</ele>
        <time>2022-05-10T22:28:56Z</time>
      </trkpt>
      <trkpt lat="45.14637" lon="4.09549">
        <ele>798.44744873047</ele>
        <time>2022-05-10T22:29:00Z</time>
      </trkpt>
      <trkpt lat="45.14718" lon="4.09463">
        <ele>794.78271484375</ele>
        <time>2022-05-10T22:29:05Z</time>
      </trkpt>
      <trkpt lat="45.14742" lon="4.09434">
        <ele>793.09039306641</ele>
        <time>2022-05-10T22:29:14Z</time>
      </trkpt>
      <trkpt lat="45.14749" lon="4.09421">
        <ele>792.30334472656</ele>
        <time>2022-05-10T22:29:18Z</time>
      </trkpt>
      <trkpt lat="45.14754" lon="4.09394">
        <ele>791.31420898438</ele>
        <time>2022-05-10T22:29:23Z</time>
      </trkpt>
      <trkpt lat="45.14755" lon="4.0937">
        <ele>790.54455566406</ele>
        <time>2022-05-10T22:29:28Z</time>
      </trkpt>
      <trkpt lat="45.14751" lon="4.09336">
        <ele>789.298828125</ele>
        <time>2022-05-10T22:30:06Z</time>
      </trkpt>
      <trkpt lat="45.14733" lon="4.09275">
        <ele>786.56323242188</ele>
        <time>2022-05-10T22:30:37Z</time>
      </trkpt>
      <trkpt lat="45.14713" lon="4.09236">
        <ele>784.78601074219</ele>
        <time>2022-05-10T22:31:07Z</time>
      </trkpt>
      <trkpt lat="45.14704" lon="4.09225">
        <ele>784.58953857422</ele>
        <time>2022-05-10T22:31:09Z</time>
      </trkpt>
      <trkpt lat="45.14679" lon="4.09204">
        <ele>782.28649902344</ele>
        <time>2022-05-10T22:31:11Z</time>
      </trkpt>
      <trkpt lat="45.14648" lon="4.09181">
        <ele>779.33721923828</ele>
        <time>2022-05-10T22:31:18Z</time>
      </trkpt>
      <trkpt lat="45.14639" lon="4.09177">
        <ele>778.61737060547</ele>
        <time>2022-05-10T22:31:33Z</time>
      </trkpt>
      <trkpt lat="45.14633" lon="4.09178">
        <ele>778.55786132812</ele>
        <time>2022-05-10T22:31:41Z</time>
      </trkpt>
      <trkpt lat="45.14609" lon="4.09179">
        <ele>777.39569091797</ele>
        <time>2022-05-10T22:31:46Z</time>
      </trkpt>
      <trkpt lat="45.14594" lon="4.09177">
        <ele>776.51861572266</ele>
        <time>2022-05-10T22:31:50Z</time>
      </trkpt>
      <trkpt lat="45.14588" lon="4.09174">
        <ele>776.26153564453</ele>
        <time>2022-05-10T22:31:53Z</time>
      </trkpt>
      <trkpt lat="45.14584" lon="4.09169">
        <ele>775.73822021484</ele>
        <time>2022-05-10T22:31:56Z</time>
      </trkpt>
      <trkpt lat="45.1458" lon="4.09156">
        <ele>775.01940917969</ele>
        <time>2022-05-10T22:32:01Z</time>
      </trkpt>
      <trkpt lat="45.14579" lon="4.09146">
        <ele>774.63275146484</ele>
        <time>2022-05-10T22:32:06Z</time>
      </trkpt>
      <trkpt lat="45.14583" lon="4.09136">
        <ele>773.59942626953</ele>
        <time>2022-05-10T22:32:16Z</time>
      </trkpt>
      <trkpt lat="45.14598" lon="4.09118">
        <ele>771.43737792969</ele>
        <time>2022-05-10T22:32:21Z</time>
      </trkpt>
      <trkpt lat="45.14607" lon="4.09106">
        <ele>770.71612548828</ele>
        <time>2022-05-10T22:32:23Z</time>
      </trkpt>
      <trkpt lat="45.14608" lon="4.09092">
        <ele>770.38409423828</ele>
        <time>2022-05-10T22:32:30Z</time>
      </trkpt>
      <trkpt lat="45.14603" lon="4.09076">
        <ele>769.58032226562</ele>
        <time>2022-05-10T22:32:37Z</time>
      </trkpt>
      <trkpt lat="45.14558" lon="4.09014">
        <ele>765.86804199219</ele>
        <time>2022-05-10T22:32:40Z</time>
      </trkpt>
      <trkpt lat="45.14551" lon="4.09007">
        <ele>765.44305419922</ele>
        <time>2022-05-10T22:32:46Z</time>
      </trkpt>
      <trkpt lat="45.14539" lon="4.08998">
        <ele>764.60699462891</ele>
        <time>2022-05-10T22:32:52Z</time>
      </trkpt>
      <trkpt lat="45.14512" lon="4.08981">
        <ele>762.85736083984</ele>
        <time>2022-05-10T22:32:57Z</time>
      </trkpt>
      <trkpt lat="45.14509" lon="4.08976">
        <ele>762.11315917969</ele>
        <time>2022-05-10T22:33:03Z</time>
      </trkpt>
      <trkpt lat="45.14505" lon="4.08935">
        <ele>760.34973144531</ele>
        <time>2022-05-10T22:33:13Z</time>
      </trkpt>
      <trkpt lat="45.145" lon="4.08911">
        <ele>762.97796630859</ele>
        <time>2022-05-10T22:33:21Z</time>
      </trkpt>
      <trkpt lat="45.14493" lon="4.08888">
        <ele>765.52062988281</ele>
        <time>2022-05-10T22:33:27Z</time>
      </trkpt>
      <trkpt lat="45.14484" lon="4.08866">
        <ele>768.44665527344</ele>
        <time>2022-05-10T22:33:32Z</time>
      </trkpt>
      <trkpt lat="45.14465" lon="4.08833">
        <ele>776.60931396484</ele>
        <time>2022-05-10T22:33:40Z</time>
      </trkpt>
      <trkpt lat="45.14447" lon="4.0881">
        <ele>780.85998535156</ele>
        <time>2022-05-10T22:34:00Z</time>
      </trkpt>
      <trkpt lat="45.14417" lon="4.08777">
        <ele>777.82568359375</ele>
        <time>2022-05-10T22:34:06Z</time>
      </trkpt>
      <trkpt lat="45.14395" lon="4.08758">
        <ele>774.94958496094</ele>
        <time>2022-05-10T22:34:09Z</time>
      </trkpt>
      <trkpt lat="45.14386" lon="4.08746">
        <ele>775.55432128906</ele>
        <time>2022-05-10T22:34:09Z</time>
      </trkpt>
      <trkpt lat="45.14381" lon="4.08719">
        <ele>777.74932861328</ele>
        <time>2022-05-10T22:34:14Z</time>
      </trkpt>
      <trkpt lat="45.14385" lon="4.08703">
        <ele>779.24340820312</ele>
        <time>2022-05-10T22:34:21Z</time>
      </trkpt>
      <trkpt lat="45.14413" lon="4.08678">
        <ele>784.55841064453</ele>
        <time>2022-05-10T22:34:31Z</time>
      </trkpt>
      <trkpt lat="45.1445" lon="4.08665">
        <ele>788.09820556641</ele>
        <time>2022-05-10T22:34:36Z</time>
      </trkpt>
      <trkpt lat="45.14457" lon="4.0866">
        <ele>789.00952148438</ele>
        <time>2022-05-10T22:34:57Z</time>
      </trkpt>
      <trkpt lat="45.14478" lon="4.08632">
        <ele>789.07873535156</ele>
        <time>2022-05-10T22:35:06Z</time>
      </trkpt>
      <trkpt lat="45.14493" lon="4.08618">
        <ele>789.93762207031</ele>
        <time>2022-05-10T22:35:10Z</time>
      </trkpt>
      <trkpt lat="45.14509" lon="4.08608">
        <ele>790.24066162109</ele>
        <time>2022-05-10T22:35:14Z</time>
      </trkpt>
      <trkpt lat="45.14539" lon="4.08598">
        <ele>794.01116943359</ele>
        <time>2022-05-10T22:35:16Z</time>
      </trkpt>
      <trkpt lat="45.14572" lon="4.08583">
        <ele>796.68560791016</ele>
        <time>2022-05-10T22:35:25Z</time>
      </trkpt>
      <trkpt lat="45.14647" lon="4.08547">
        <ele>799.73852539062</ele>
        <time>2022-05-10T22:35:36Z</time>
      </trkpt>
      <trkpt lat="45.14724" lon="4.08512">
        <ele>802.73986816406</ele>
        <time>2022-05-10T22:35:49Z</time>
      </trkpt>
      <trkpt lat="45.14771" lon="4.0849">
        <ele>803.15020751953</ele>
        <time>2022-05-10T22:35:53Z</time>
      </trkpt>
      <trkpt lat="45.14771" lon="4.08465">
        <ele>803.54284667969</ele>
        <time>2022-05-10T22:35:57Z</time>
      </trkpt>
      <trkpt lat="45.14771" lon="4.08404">
        <ele>809.29559326172</ele>
        <time>2022-05-10T22:36:01Z</time>
      </trkpt>
      <trkpt lat="45.1476" lon="4.08361">
        <ele>809.10284423828</ele>
        <time>2022-05-10T22:36:05Z</time>
      </trkpt>
      <trkpt lat="45.14734" lon="4.0826">
        <ele>814.02795410156</ele>
        <time>2022-05-10T22:36:07Z</time>
      </trkpt>
      <trkpt lat="45.14733" lon="4.0824">
        <ele>815.05334472656</ele>
        <time>2022-05-10T22:36:09Z</time>
      </trkpt>
      <trkpt lat="45.14737" lon="4.08217">
        <ele>816.2314453125</ele>
        <time>2022-05-10T22:36:11Z</time>
      </trkpt>
      <trkpt lat="45.1475" lon="4.08201">
        <ele>818.69415283203</ele>
        <time>2022-05-10T22:36:13Z</time>
      </trkpt>
      <trkpt lat="45.14766" lon="4.08188">
        <ele>820.02795410156</ele>
        <time>2022-05-10T22:36:16Z</time>
      </trkpt>
      <trkpt lat="45.14781" lon="4.08181">
        <ele>821.26025390625</ele>
        <time>2022-05-10T22:36:20Z</time>
      </trkpt>
      <trkpt lat="45.14801" lon="4.08174">
        <ele>821.85723876953</ele>
        <time>2022-05-10T22:36:23Z</time>
      </trkpt>
      <trkpt lat="45.14812" lon="4.08166">
        <ele>822.431640625</ele>
        <time>2022-05-10T22:36:35Z</time>
      </trkpt>
      <trkpt lat="45.14829" lon="4.08144">
        <ele>823.52557373047</ele>
        <time>2022-05-10T22:36:47Z</time>
      </trkpt>
      <trkpt lat="45.14841" lon="4.08125">
        <ele>824.65631103516</ele>
        <time>2022-05-10T22:36:52Z</time>
      </trkpt>
      <trkpt lat="45.14891" lon="4.08039">
        <ele>831.23449707031</ele>
        <time>2022-05-10T22:36:55Z</time>
      </trkpt>
      <trkpt lat="45.14895" lon="4.08024">
        <ele>831.78680419922</ele>
        <time>2022-05-10T22:36:58Z</time>
      </trkpt>
      <trkpt lat="45.14892" lon="4.07999">
        <ele>833.59332275391</ele>
        <time>2022-05-10T22:36:59Z</time>
      </trkpt>
      <trkpt lat="45.14886" lon="4.07987">
        <ele>836.89300537109</ele>
        <time>2022-05-10T22:37:02Z</time>
      </trkpt>
      <trkpt lat="45.14879" lon="4.07982">
        <ele>838.53314208984</ele>
        <time>2022-05-10T22:37:08Z</time>
      </trkpt>
      <trkpt lat="45.14862" lon="4.07983">
        <ele>839.22314453125</ele>
        <time>2022-05-10T22:37:13Z</time>
      </trkpt>
      <trkpt lat="45.14809" lon="4.08004">
        <ele>838.68664550781</ele>
        <time>2022-05-10T22:37:18Z</time>
      </trkpt>
      <trkpt lat="45.14794" lon="4.08005">
        <ele>839.69299316406</ele>
        <time>2022-05-10T22:37:20Z</time>
      </trkpt>
      <trkpt lat="45.14779" lon="4.08001">
        <ele>840.59094238281</ele>
        <time>2022-05-10T22:37:28Z</time>
      </trkpt>
      <trkpt lat="45.14765" lon="4.07993">
        <ele>841.39263916016</ele>
        <time>2022-05-10T22:37:30Z</time>
      </trkpt>
      <trkpt lat="45.14743" lon="4.07976">
        <ele>842.80261230469</ele>
        <time>2022-05-10T22:37:34Z</time>
      </trkpt>
      <trkpt lat="45.1471" lon="4.07945">
        <ele>846.60314941406</ele>
        <time>2022-05-10T22:37:38Z</time>
      </trkpt>
      <trkpt lat="45.1463" lon="4.07937">
        <ele>850.60107421875</ele>
        <time>2022-05-10T22:37:41Z</time>
      </trkpt>
      <trkpt lat="45.14607" lon="4.0794">
        <ele>851.04443359375</ele>
        <time>2022-05-10T22:37:46Z</time>
      </trkpt>
      <trkpt lat="45.14499" lon="4.07959">
        <ele>852.91766357422</ele>
        <time>2022-05-10T22:37:49Z</time>
      </trkpt>
      <trkpt lat="45.14478" lon="4.07957">
        <ele>854.13134765625</ele>
        <time>2022-05-10T22:37:54Z</time>
      </trkpt>
      <trkpt lat="45.14437" lon="4.07938">
        <ele>856.66082763672</ele>
        <time>2022-05-10T22:37:59Z</time>
      </trkpt>
      <trkpt lat="45.14391" lon="4.07905">
        <ele>859.76171875</ele>
        <time>2022-05-10T22:38:04Z</time>
      </trkpt>
      <trkpt lat="45.14321" lon="4.07826">
        <ele>864.59460449219</ele>
        <time>2022-05-10T22:38:12Z</time>
      </trkpt>
      <trkpt lat="45.14268" lon="4.07754">
        <ele>866.7890625</ele>
        <time>2022-05-10T22:38:18Z</time>
      </trkpt>
      <trkpt lat="45.14243" lon="4.07717">
        <ele>870.15075683594</ele>
        <time>2022-05-10T22:38:21Z</time>
      </trkpt>
      <trkpt lat="45.14238" lon="4.07706">
        <ele>869.66589355469</ele>
        <time>2022-05-10T22:38:24Z</time>
      </trkpt>
      <trkpt lat="45.14233" lon="4.07683">
        <ele>871.58416748047</ele>
        <time>2022-05-10T22:38:30Z</time>
      </trkpt>
      <trkpt lat="45.14229" lon="4.07656">
        <ele>872.58001708984</ele>
        <time>2022-05-10T22:38:34Z</time>
      </trkpt>
      <trkpt lat="45.14223" lon="4.07606">
        <ele>875.17962646484</ele>
        <time>2022-05-10T22:38:37Z</time>
      </trkpt>
      <trkpt lat="45.14218" lon="4.07581">
        <ele>876.20141601562</ele>
        <time>2022-05-10T22:38:41Z</time>
      </trkpt>
      <trkpt lat="45.14188" lon="4.07509">
        <ele>879.88610839844</ele>
        <time>2022-05-10T22:38:45Z</time>
      </trkpt>
      <trkpt lat="45.1418" lon="4.07492">
        <ele>880.83197021484</ele>
        <time>2022-05-10T22:38:51Z</time>
      </trkpt>
      <trkpt lat="45.14163" lon="4.07455">
        <ele>883.32531738281</ele>
        <time>2022-05-10T22:38:54Z</time>
      </trkpt>
      <trkpt lat="45.14156" lon="4.07434">
        <ele>884.24865722656</ele>
        <time>2022-05-10T22:38:58Z</time>
      </trkpt>
      <trkpt lat="45.14153" lon="4.07415">
        <ele>885.1005859375</ele>
        <time>2022-05-10T22:39:05Z</time>
      </trkpt>
      <trkpt lat="45.14144" lon="4.07343">
        <ele>887.17694091797</ele>
        <time>2022-05-10T22:39:08Z</time>
      </trkpt>
      <trkpt lat="45.14137" lon="4.0732">
        <ele>887.49237060547</ele>
        <time>2022-05-10T22:39:12Z</time>
      </trkpt>
      <trkpt lat="45.14122" lon="4.07276">
        <ele>885.89739990234</ele>
        <time>2022-05-10T22:39:19Z</time>
      </trkpt>
      <trkpt lat="45.14112" lon="4.07252">
        <ele>885.01837158203</ele>
        <time>2022-05-10T22:39:22Z</time>
      </trkpt>
      <trkpt lat="45.14103" lon="4.07236">
        <ele>884.69720458984</ele>
        <time>2022-05-10T22:39:35Z</time>
      </trkpt>
      <trkpt lat="45.14086" lon="4.07217">
        <ele>884.49182128906</ele>
        <time>2022-05-10T22:39:59Z</time>
      </trkpt>
      <trkpt lat="45.1407" lon="4.07205">
        <ele>883.64208984375</ele>
        <time>2022-05-10T22:40:09Z</time>
      </trkpt>
      <trkpt lat="45.1404" lon="4.07188">
        <ele>884.47338867188</ele>
        <time>2022-05-10T22:40:15Z</time>
      </trkpt>
      <trkpt lat="45.14012" lon="4.0717">
        <ele>884.40545654297</ele>
        <time>2022-05-10T22:40:19Z</time>
      </trkpt>
      <trkpt lat="45.13989" lon="4.07151">
        <ele>884.55023193359</ele>
        <time>2022-05-10T22:40:28Z</time>
      </trkpt>
      <trkpt lat="45.13972" lon="4.07133">
        <ele>884.43737792969</ele>
        <time>2022-05-10T22:40:35Z</time>
      </trkpt>
      <trkpt lat="45.13951" lon="4.07108">
        <ele>885.62200927734</ele>
        <time>2022-05-10T22:40:52Z</time>
      </trkpt>
      <trkpt lat="45.13923" lon="4.07069">
        <ele>885.68298339844</ele>
        <time>2022-05-10T22:41:04Z</time>
      </trkpt>
      <trkpt lat="45.13907" lon="4.07036">
        <ele>885.77502441406</ele>
        <time>2022-05-10T22:41:11Z</time>
      </trkpt>
      <trkpt lat="45.13902" lon="4.07008">
        <ele>887.05010986328</ele>
        <time>2022-05-10T22:41:16Z</time>
      </trkpt>
      <trkpt lat="45.13897" lon="4.06982">
        <ele>886.72644042969</ele>
        <time>2022-05-10T22:41:26Z</time>
      </trkpt>
      <trkpt lat="45.13885" lon="4.06945">
        <ele>886.83984375</ele>
        <time>2022-05-10T22:41:30Z</time>
      </trkpt>
      <trkpt lat="45.1387" lon="4.06891">
        <ele>886.54705810547</ele>
        <time>2022-05-10T22:41:37Z</time>
      </trkpt>
      <trkpt lat="45.13864" lon="4.06877">
        <ele>886.58276367188</ele>
        <time>2022-05-10T22:41:47Z</time>
      </trkpt>
      <trkpt lat="45.13854" lon="4.06865">
        <ele>886.78582763672</ele>
        <time>2022-05-10T22:41:52Z</time>
      </trkpt>
      <trkpt lat="45.13835" lon="4.06847">
        <ele>885.93170166016</ele>
        <time>2022-05-10T22:41:57Z</time>
      </trkpt>
      <trkpt lat="45.13812" lon="4.06832">
        <ele>885.96270751953</ele>
        <time>2022-05-10T22:42:01Z</time>
      </trkpt>
      <trkpt lat="45.13795" lon="4.06824">
        <ele>887.06890869141</ele>
        <time>2022-05-10T22:42:14Z</time>
      </trkpt>
      <trkpt lat="45.13778" lon="4.06821">
        <ele>888.02258300781</ele>
        <time>2022-05-10T22:42:20Z</time>
      </trkpt>
      <trkpt lat="45.13772" lon="4.0682">
        <ele>888.21588134766</ele>
        <time>2022-05-10T22:42:33Z</time>
      </trkpt>
      <trkpt lat="45.13729" lon="4.06829">
        <ele>887.72045898438</ele>
        <time>2022-05-10T22:42:39Z</time>
      </trkpt>
      <trkpt lat="45.13635" lon="4.06857">
        <ele>889.57568359375</ele>
        <time>2022-05-10T22:42:44Z</time>
      </trkpt>
      <trkpt lat="45.13611" lon="4.06868">
        <ele>889.99975585938</ele>
        <time>2022-05-10T22:42:48Z</time>
      </trkpt>
      <trkpt lat="45.13567" lon="4.06894">
        <ele>891.63140869141</ele>
        <time>2022-05-10T22:42:53Z</time>
      </trkpt>
      <trkpt lat="45.13551" lon="4.069">
        <ele>891.814453125</ele>
        <time>2022-05-10T22:42:59Z</time>
      </trkpt>
      <trkpt lat="45.13533" lon="4.06904">
        <ele>892.85504150391</ele>
        <time>2022-05-10T22:43:05Z</time>
      </trkpt>
      <trkpt lat="45.13462" lon="4.0692">
        <ele>893.40600585938</ele>
        <time>2022-05-10T22:43:11Z</time>
      </trkpt>
      <trkpt lat="45.13431" lon="4.06927">
        <ele>893.6259765625</ele>
        <time>2022-05-10T22:43:18Z</time>
      </trkpt>
      <trkpt lat="45.13417" lon="4.06927">
        <ele>893.80120849609</ele>
        <time>2022-05-10T22:43:22Z</time>
      </trkpt>
      <trkpt lat="45.13384" lon="4.06922">
        <ele>893.26171875</ele>
        <time>2022-05-10T22:43:33Z</time>
      </trkpt>
      <trkpt lat="45.13279" lon="4.06904">
        <ele>894.85205078125</ele>
        <time>2022-05-10T22:43:39Z</time>
      </trkpt>
      <trkpt lat="45.13263" lon="4.06903">
        <ele>896.40765380859</ele>
        <time>2022-05-10T22:43:44Z</time>
      </trkpt>
      <trkpt lat="45.13242" lon="4.06908">
        <ele>896.51446533203</ele>
        <time>2022-05-10T22:43:47Z</time>
      </trkpt>
      <trkpt lat="45.13203" lon="4.0692">
        <ele>896.71496582031</ele>
        <time>2022-05-10T22:43:50Z</time>
      </trkpt>
      <trkpt lat="45.13136" lon="4.06942">
        <ele>898.39862060547</ele>
        <time>2022-05-10T22:43:52Z</time>
      </trkpt>
      <trkpt lat="45.13115" lon="4.06953">
        <ele>897.88336181641</ele>
        <time>2022-05-10T22:43:56Z</time>
      </trkpt>
      <trkpt lat="45.13087" lon="4.06974">
        <ele>897.74938964844</ele>
        <time>2022-05-10T22:44:05Z</time>
      </trkpt>
      <trkpt lat="45.13052" lon="4.06999">
        <ele>899.34893798828</ele>
        <time>2022-05-10T22:44:08Z</time>
      </trkpt>
      <trkpt lat="45.13026" lon="4.07007">
        <ele>899.15185546875</ele>
        <time>2022-05-10T22:44:11Z</time>
      </trkpt>
      <trkpt lat="45.13017" lon="4.07006">
        <ele>899.50714111328</ele>
        <time>2022-05-10T22:44:15Z</time>
      </trkpt>
      <trkpt lat="45.12935" lon="4.07005">
        <ele>899.59411621094</ele>
        <time>2022-05-10T22:44:32Z</time>
      </trkpt>
      <trkpt lat="45.12909" lon="4.0701">
        <ele>899.01037597656</ele>
        <time>2022-05-10T22:44:36Z</time>
      </trkpt>
      <trkpt lat="45.12892" lon="4.07018">
        <ele>898.98883056641</ele>
        <time>2022-05-10T22:44:40Z</time>
      </trkpt>
      <trkpt lat="45.12842" lon="4.07047">
        <ele>900.13507080078</ele>
        <time>2022-05-10T22:44:45Z</time>
      </trkpt>
      <trkpt lat="45.12821" lon="4.07056">
        <ele>900.67504882812</ele>
        <time>2022-05-10T22:44:50Z</time>
      </trkpt>
      <trkpt lat="45.12809" lon="4.07058">
        <ele>901.09741210938</ele>
        <time>2022-05-10T22:44:53Z</time>
      </trkpt>
      <trkpt lat="45.12797" lon="4.07056">
        <ele>901.40374755859</ele>
        <time>2022-05-10T22:44:58Z</time>
      </trkpt>
      <trkpt lat="45.1279" lon="4.07053">
        <ele>901.783203125</ele>
        <time>2022-05-10T22:45:07Z</time>
      </trkpt>
      <trkpt lat="45.12774" lon="4.07042">
        <ele>902.26184082031</ele>
        <time>2022-05-10T22:45:22Z</time>
      </trkpt>
      <trkpt lat="45.12759" lon="4.07027">
        <ele>901.98596191406</ele>
        <time>2022-05-10T22:45:27Z</time>
      </trkpt>
      <trkpt lat="45.12694" lon="4.06957">
        <ele>899.65814208984</ele>
        <time>2022-05-10T22:45:35Z</time>
      </trkpt>
      <trkpt lat="45.1268" lon="4.06942">
        <ele>898.51287841797</ele>
        <time>2022-05-10T22:45:40Z</time>
      </trkpt>
      <trkpt lat="45.12663" lon="4.06915">
        <ele>896.69519042969</ele>
        <time>2022-05-10T22:45:44Z</time>
      </trkpt>
      <trkpt lat="45.12647" lon="4.06878">
        <ele>894.70404052734</ele>
        <time>2022-05-10T22:45:51Z</time>
      </trkpt>
      <trkpt lat="45.12637" lon="4.06863">
        <ele>894.08294677734</ele>
        <time>2022-05-10T22:45:57Z</time>
      </trkpt>
      <trkpt lat="45.12619" lon="4.06841">
        <ele>893.80694580078</ele>
        <time>2022-05-10T22:46:08Z</time>
      </trkpt>
      <trkpt lat="45.12589" lon="4.06813">
        <ele>892.33898925781</ele>
        <time>2022-05-10T22:46:12Z</time>
      </trkpt>
      <trkpt lat="45.12571" lon="4.06794">
        <ele>892.55242919922</ele>
        <time>2022-05-10T22:46:20Z</time>
      </trkpt>
      <trkpt lat="45.12561" lon="4.06781">
        <ele>893.74182128906</ele>
        <time>2022-05-10T22:46:24Z</time>
      </trkpt>
      <trkpt lat="45.12543" lon="4.06747">
        <ele>895.69946289062</ele>
        <time>2022-05-10T22:46:31Z</time>
      </trkpt>
      <trkpt lat="45.12518" lon="4.06699">
        <ele>898.54840087891</ele>
        <time>2022-05-10T22:46:36Z</time>
      </trkpt>
      <trkpt lat="45.12507" lon="4.06682">
        <ele>899.74780273438</ele>
        <time>2022-05-10T22:46:47Z</time>
      </trkpt>
      <trkpt lat="45.12497" lon="4.06673">
        <ele>900.17407226562</ele>
        <time>2022-05-10T22:47:04Z</time>
      </trkpt>
      <trkpt lat="45.12509" lon="4.06599">
        <ele>902.9677734375</ele>
        <time>2022-05-10T22:47:19Z</time>
      </trkpt>
      <trkpt lat="45.12518" lon="4.06551">
        <ele>904.90478515625</ele>
        <time>2022-05-10T22:47:26Z</time>
      </trkpt>
      <trkpt lat="45.12528" lon="4.06516">
        <ele>906.75964355469</ele>
        <time>2022-05-10T22:47:36Z</time>
      </trkpt>
      <trkpt lat="45.12536" lon="4.06493">
        <ele>907.77703857422</ele>
        <time>2022-05-10T22:47:44Z</time>
      </trkpt>
      <trkpt lat="45.12552" lon="4.0646">
        <ele>909.28552246094</ele>
        <time>2022-05-10T22:47:50Z</time>
      </trkpt>
      <trkpt lat="45.12561" lon="4.06447">
        <ele>911.02081298828</ele>
        <time>2022-05-10T22:47:55Z</time>
      </trkpt>
      <trkpt lat="45.12568" lon="4.06439">
        <ele>911.23718261719</ele>
        <time>2022-05-10T22:47:57Z</time>
      </trkpt>
      <trkpt lat="45.12602" lon="4.0642">
        <ele>912.08630371094</ele>
        <time>2022-05-10T22:48:08Z</time>
      </trkpt>
      <trkpt lat="45.12614" lon="4.0641">
        <ele>912.38385009766</ele>
        <time>2022-05-10T22:48:15Z</time>
      </trkpt>
      <trkpt lat="45.12618" lon="4.06403">
        <ele>912.64111328125</ele>
        <time>2022-05-10T22:48:36Z</time>
      </trkpt>
      <trkpt lat="45.12631" lon="4.06338">
        <ele>916.58233642578</ele>
        <time>2022-05-10T22:48:42Z</time>
      </trkpt>
      <trkpt lat="45.12639" lon="4.06315">
        <ele>917.40771484375</ele>
        <time>2022-05-10T22:48:45Z</time>
      </trkpt>
      <trkpt lat="45.12647" lon="4.06293">
        <ele>918.92517089844</ele>
        <time>2022-05-10T22:48:55Z</time>
      </trkpt>
      <trkpt lat="45.12674" lon="4.06226">
        <ele>921.18786621094</ele>
        <time>2022-05-10T22:49:04Z</time>
      </trkpt>
      <trkpt lat="45.12681" lon="4.06203">
        <ele>921.96112060547</ele>
        <time>2022-05-10T22:49:17Z</time>
      </trkpt>
      <trkpt lat="45.12683" lon="4.06181">
        <ele>922.23046875</ele>
        <time>2022-05-10T22:49:31Z</time>
      </trkpt>
      <trkpt lat="45.12681" lon="4.06163">
        <ele>923.58129882812</ele>
        <time>2022-05-10T22:49:48Z</time>
      </trkpt>
      <trkpt lat="45.1268" lon="4.06146">
        <ele>924.25256347656</ele>
        <time>2022-05-10T22:49:54Z</time>
      </trkpt>
      <trkpt lat="45.12682" lon="4.06126">
        <ele>924.42724609375</ele>
        <time>2022-05-10T22:50:05Z</time>
      </trkpt>
      <trkpt lat="45.12689" lon="4.06103">
        <ele>923.91204833984</ele>
        <time>2022-05-10T22:50:22Z</time>
      </trkpt>
      <trkpt lat="45.12691" lon="4.06077">
        <ele>922.96014404297</ele>
        <time>2022-05-10T22:50:25Z</time>
      </trkpt>
      <trkpt lat="45.12687" lon="4.06061">
        <ele>922.74090576172</ele>
        <time>2022-05-10T22:50:29Z</time>
      </trkpt>
      <trkpt lat="45.12679" lon="4.06048">
        <ele>922.69482421875</ele>
        <time>2022-05-10T22:50:36Z</time>
      </trkpt>
      <trkpt lat="45.12665" lon="4.06031">
        <ele>922.45751953125</ele>
        <time>2022-05-10T22:50:43Z</time>
      </trkpt>
      <trkpt lat="45.12648" lon="4.06017">
        <ele>921.70355224609</ele>
        <time>2022-05-10T22:50:47Z</time>
      </trkpt>
      <trkpt lat="45.12631" lon="4.06011">
        <ele>921.37994384766</ele>
        <time>2022-05-10T22:50:51Z</time>
      </trkpt>
      <trkpt lat="45.12603" lon="4.06006">
        <ele>920.50018310547</ele>
        <time>2022-05-10T22:51:01Z</time>
      </trkpt>
      <trkpt lat="45.12595" lon="4.05999">
        <ele>920.02844238281</ele>
        <time>2022-05-10T22:51:11Z</time>
      </trkpt>
      <trkpt lat="45.12584" lon="4.05983">
        <ele>920.28729248047</ele>
        <time>2022-05-10T22:51:28Z</time>
      </trkpt>
      <trkpt lat="45.12564" lon="4.0593">
        <ele>920.26116943359</ele>
        <time>2022-05-10T22:51:36Z</time>
      </trkpt>
      <trkpt lat="45.12545" lon="4.05902">
        <ele>920.85192871094</ele>
        <time>2022-05-10T22:51:48Z</time>
      </trkpt>
      <trkpt lat="45.12528" lon="4.05869">
        <ele>920.89453125</ele>
        <time>2022-05-10T22:52:01Z</time>
      </trkpt>
      <trkpt lat="45.12524" lon="4.05849">
        <ele>921.08666992188</ele>
        <time>2022-05-10T22:52:07Z</time>
      </trkpt>
      <trkpt lat="45.12528" lon="4.05805">
        <ele>922.11767578125</ele>
        <time>2022-05-10T22:52:09Z</time>
      </trkpt>
      <trkpt lat="45.12524" lon="4.05768">
        <ele>922.75024414062</ele>
        <time>2022-05-10T22:52:23Z</time>
      </trkpt>
      <trkpt lat="45.12524" lon="4.05748">
        <ele>923.39593505859</ele>
        <time>2022-05-10T22:52:42Z</time>
      </trkpt>
      <trkpt lat="45.12534" lon="4.05714">
        <ele>923.18377685547</ele>
        <time>2022-05-10T22:52:51Z</time>
      </trkpt>
      <trkpt lat="45.12543" lon="4.05668">
        <ele>924.95544433594</ele>
        <time>2022-05-10T22:52:56Z</time>
      </trkpt>
      <trkpt lat="45.12557" lon="4.05572">
        <ele>923.64141845703</ele>
        <time>2022-05-10T22:53:02Z</time>
      </trkpt>
      <trkpt lat="45.12563" lon="4.05524">
        <ele>923.19500732422</ele>
        <time>2022-05-10T22:53:07Z</time>
      </trkpt>
      <trkpt lat="45.12561" lon="4.05494">
        <ele>923.16888427734</ele>
        <time>2022-05-10T22:53:14Z</time>
      </trkpt>
      <trkpt lat="45.12553" lon="4.05473">
        <ele>923.44964599609</ele>
        <time>2022-05-10T22:53:22Z</time>
      </trkpt>
      <trkpt lat="45.12545" lon="4.05458">
        <ele>923.49938964844</ele>
        <time>2022-05-10T22:53:39Z</time>
      </trkpt>
      <trkpt lat="45.12523" lon="4.05432">
        <ele>923.87982177734</ele>
        <time>2022-05-10T22:53:42Z</time>
      </trkpt>
      <trkpt lat="45.125" lon="4.05382">
        <ele>923.98712158203</ele>
        <time>2022-05-10T22:53:47Z</time>
      </trkpt>
      <trkpt lat="45.1246" lon="4.0536">
        <ele>924.05712890625</ele>
        <time>2022-05-10T22:53:52Z</time>
      </trkpt>
      <trkpt lat="45.12454" lon="4.05355">
        <ele>924.10992431641</ele>
        <time>2022-05-10T22:53:59Z</time>
      </trkpt>
      <trkpt lat="45.12449" lon="4.05346">
        <ele>924.17681884766</ele>
        <time>2022-05-10T22:54:05Z</time>
      </trkpt>
      <trkpt lat="45.12433" lon="4.05298">
        <ele>925.25024414062</ele>
        <time>2022-05-10T22:54:15Z</time>
      </trkpt>
      <trkpt lat="45.12417" lon="4.0527">
        <ele>925.40899658203</ele>
        <time>2022-05-10T22:54:21Z</time>
      </trkpt>
      <trkpt lat="45.12409" lon="4.05247">
        <ele>926.83978271484</ele>
        <time>2022-05-10T22:54:34Z</time>
      </trkpt>
      <trkpt lat="45.12408" lon="4.05232">
        <ele>926.60424804688</ele>
        <time>2022-05-10T22:54:48Z</time>
      </trkpt>
      <trkpt lat="45.12409" lon="4.05224">
        <ele>926.46990966797</ele>
        <time>2022-05-10T22:54:59Z</time>
      </trkpt>
      <trkpt lat="45.12413" lon="4.05211">
        <ele>926.11944580078</ele>
        <time>2022-05-10T22:55:02Z</time>
      </trkpt>
      <trkpt lat="45.12424" lon="4.05188">
        <ele>925.53198242188</ele>
        <time>2022-05-10T22:55:13Z</time>
      </trkpt>
      <trkpt lat="45.1243" lon="4.05174">
        <ele>924.52215576172</ele>
        <time>2022-05-10T22:55:20Z</time>
      </trkpt>
      <trkpt lat="45.12432" lon="4.05157">
        <ele>923.99731445312</ele>
        <time>2022-05-10T22:55:23Z</time>
      </trkpt>
      <trkpt lat="45.1243" lon="4.05143">
        <ele>924.18878173828</ele>
        <time>2022-05-10T22:55:28Z</time>
      </trkpt>
      <trkpt lat="45.12426" lon="4.0513">
        <ele>924.62060546875</ele>
        <time>2022-05-10T22:55:36Z</time>
      </trkpt>
      <trkpt lat="45.12404" lon="4.05097">
        <ele>927.48254394531</ele>
        <time>2022-05-10T22:55:40Z</time>
      </trkpt>
      <trkpt lat="45.12378" lon="4.0507">
        <ele>929.59979248047</ele>
        <time>2022-05-10T22:55:41Z</time>
      </trkpt>
      <trkpt lat="45.12359" lon="4.05044">
        <ele>929.62707519531</ele>
        <time>2022-05-10T22:55:45Z</time>
      </trkpt>
      <trkpt lat="45.12348" lon="4.05019">
        <ele>928.69830322266</ele>
        <time>2022-05-10T22:55:47Z</time>
      </trkpt>
      <trkpt lat="45.12328" lon="4.04966">
        <ele>926.61022949219</ele>
        <time>2022-05-10T22:55:52Z</time>
      </trkpt>
      <trkpt lat="45.12298" lon="4.04908">
        <ele>927.64929199219</ele>
        <time>2022-05-10T22:55:59Z</time>
      </trkpt>
      <trkpt lat="45.12287" lon="4.04882">
        <ele>927.78002929688</ele>
        <time>2022-05-10T22:56:02Z</time>
      </trkpt>
      <trkpt lat="45.1228" lon="4.04861">
        <ele>927.36322021484</ele>
        <time>2022-05-10T22:56:08Z</time>
      </trkpt>
      <trkpt lat="45.12275" lon="4.04814">
        <ele>927.72985839844</ele>
        <time>2022-05-10T22:56:24Z</time>
      </trkpt>
      <trkpt lat="45.12267" lon="4.04759">
        <ele>926.69689941406</ele>
        <time>2022-05-10T22:56:30Z</time>
      </trkpt>
      <trkpt lat="45.12259" lon="4.04715">
        <ele>926.6826171875</ele>
        <time>2022-05-10T22:56:35Z</time>
      </trkpt>
      <trkpt lat="45.12259" lon="4.04693">
        <ele>926.15600585938</ele>
        <time>2022-05-10T22:56:41Z</time>
      </trkpt>
      <trkpt lat="45.12271" lon="4.04552">
        <ele>929.34539794922</ele>
        <time>2022-05-10T22:56:44Z</time>
      </trkpt>
      <trkpt lat="45.12274" lon="4.0454">
        <ele>929.22448730469</ele>
        <time>2022-05-10T22:56:51Z</time>
      </trkpt>
      <trkpt lat="45.12278" lon="4.0453">
        <ele>928.95257568359</ele>
        <time>2022-05-10T22:56:55Z</time>
      </trkpt>
      <trkpt lat="45.12288" lon="4.04514">
        <ele>927.95697021484</ele>
        <time>2022-05-10T22:56:59Z</time>
      </trkpt>
      <trkpt lat="45.12323" lon="4.04467">
        <ele>924.40972900391</ele>
        <time>2022-05-10T22:57:04Z</time>
      </trkpt>
      <trkpt lat="45.1239" lon="4.04389">
        <ele>925.33386230469</ele>
        <time>2022-05-10T22:57:09Z</time>
      </trkpt>
      <trkpt lat="45.12396" lon="4.0438">
        <ele>925.57470703125</ele>
        <time>2022-05-10T22:57:11Z</time>
      </trkpt>
      <trkpt lat="45.12408" lon="4.04353">
        <ele>926.51678466797</ele>
        <time>2022-05-10T22:57:14Z</time>
      </trkpt>
      <trkpt lat="45.12422" lon="4.04285">
        <ele>926.11212158203</ele>
        <time>2022-05-10T22:57:23Z</time>
      </trkpt>
      <trkpt lat="45.12435" lon="4.04205">
        <ele>923.04675292969</ele>
        <time>2022-05-10T22:57:32Z</time>
      </trkpt>
      <trkpt lat="45.12437" lon="4.0417">
        <ele>922.76843261719</ele>
        <time>2022-05-10T22:57:42Z</time>
      </trkpt>
      <trkpt lat="45.12421" lon="4.04121">
        <ele>919.96960449219</ele>
        <time>2022-05-10T22:57:47Z</time>
      </trkpt>
      <trkpt lat="45.12411" lon="4.04085">
        <ele>918.71569824219</ele>
        <time>2022-05-10T22:57:50Z</time>
      </trkpt>
      <trkpt lat="45.12409" lon="4.04071">
        <ele>918.08813476562</ele>
        <time>2022-05-10T22:57:57Z</time>
      </trkpt>
      <trkpt lat="45.12409" lon="4.04048">
        <ele>916.68176269531</ele>
        <time>2022-05-10T22:57:57Z</time>
      </trkpt>
      <trkpt lat="45.12413" lon="4.04026">
        <ele>915.46002197266</ele>
        <time>2022-05-10T22:58:15Z</time>
      </trkpt>
      <trkpt lat="45.12422" lon="4.03986">
        <ele>913.04058837891</ele>
        <time>2022-05-10T22:58:22Z</time>
      </trkpt>
      <trkpt lat="45.12437" lon="4.0393">
        <ele>910.38299560547</ele>
        <time>2022-05-10T22:58:24Z</time>
      </trkpt>
      <trkpt lat="45.1244" lon="4.03904">
        <ele>909.0517578125</ele>
        <time>2022-05-10T22:58:26Z</time>
      </trkpt>
      <trkpt lat="45.12438" lon="4.03871">
        <ele>906.44177246094</ele>
        <time>2022-05-10T22:58:28Z</time>
      </trkpt>
      <trkpt lat="45.12433" lon="4.03851">
        <ele>905.83526611328</ele>
        <time>2022-05-10T22:58:31Z</time>
      </trkpt>
      <trkpt lat="45.12388" lon="4.03765">
        <ele>902.34454345703</ele>
        <time>2022-05-10T22:58:33Z</time>
      </trkpt>
      <trkpt lat="45.12336" lon="4.03697">
        <ele>895.47528076172</ele>
        <time>2022-05-10T22:58:36Z</time>
      </trkpt>
      <trkpt lat="45.12263" lon="4.03599">
        <ele>888.80932617188</ele>
        <time>2022-05-10T22:58:40Z</time>
      </trkpt>
      <trkpt lat="45.12244" lon="4.03567">
        <ele>886.37542724609</ele>
        <time>2022-05-10T22:58:47Z</time>
      </trkpt>
      <trkpt lat="45.12231" lon="4.03545">
        <ele>885.04187011719</ele>
        <time>2022-05-10T22:58:50Z</time>
      </trkpt>
      <trkpt lat="45.12212" lon="4.03523">
        <ele>883.19122314453</ele>
        <time>2022-05-10T22:58:53Z</time>
      </trkpt>
      <trkpt lat="45.12159" lon="4.03489">
        <ele>879.02722167969</ele>
        <time>2022-05-10T22:59:02Z</time>
      </trkpt>
      <trkpt lat="45.1213" lon="4.03463">
        <ele>876.41839599609</ele>
        <time>2022-05-10T22:59:07Z</time>
      </trkpt>
      <trkpt lat="45.12109" lon="4.03437">
        <ele>875.35485839844</ele>
        <time>2022-05-10T22:59:23Z</time>
      </trkpt>
      <trkpt lat="45.12102" lon="4.03424">
        <ele>875.00738525391</ele>
        <time>2022-05-10T22:59:41Z</time>
      </trkpt>
      <trkpt lat="45.12091" lon="4.03393">
        <ele>873.34405517578</ele>
        <time>2022-05-10T22:59:50Z</time>
      </trkpt>
      <trkpt lat="45.12074" lon="4.0334">
        <ele>872.27392578125</ele>
        <time>2022-05-10T22:59:53Z</time>
      </trkpt>
      <trkpt lat="45.12063" lon="4.03312">
        <ele>872.20050048828</ele>
        <time>2022-05-10T22:59:55Z</time>
      </trkpt>
      <trkpt lat="45.12049" lon="4.03266">
        <ele>870.06365966797</ele>
        <time>2022-05-10T22:59:57Z</time>
      </trkpt>
      <trkpt lat="45.12038" lon="4.03218">
        <ele>868.87969970703</ele>
        <time>2022-05-10T23:00:00Z</time>
      </trkpt>
      <trkpt lat="45.12035" lon="4.0321">
        <ele>869.04156494141</ele>
        <time>2022-05-10T23:00:02Z</time>
      </trkpt>
      <trkpt lat="45.12027" lon="4.03198">
        <ele>869.02081298828</ele>
        <time>2022-05-10T23:00:04Z</time>
      </trkpt>
      <trkpt lat="45.12015" lon="4.03188">
        <ele>868.36322021484</ele>
        <time>2022-05-10T23:00:07Z</time>
      </trkpt>
      <trkpt lat="45.12006" lon="4.03186">
        <ele>867.06982421875</ele>
        <time>2022-05-10T23:00:12Z</time>
      </trkpt>
      <trkpt lat="45.11994" lon="4.03188">
        <ele>865.29064941406</ele>
        <time>2022-05-10T23:00:18Z</time>
      </trkpt>
      <trkpt lat="45.11985" lon="4.03196">
        <ele>864.78228759766</ele>
        <time>2022-05-10T23:00:23Z</time>
      </trkpt>
      <trkpt lat="45.11967" lon="4.03224">
        <ele>865.30798339844</ele>
        <time>2022-05-10T23:00:27Z</time>
      </trkpt>
      <trkpt lat="45.11956" lon="4.03243">
        <ele>865.25732421875</ele>
        <time>2022-05-10T23:00:30Z</time>
      </trkpt>
      <trkpt lat="45.11948" lon="4.03253">
        <ele>864.84753417969</ele>
        <time>2022-05-10T23:00:33Z</time>
      </trkpt>
      <trkpt lat="45.11923" lon="4.03269">
        <ele>862.70733642578</ele>
        <time>2022-05-10T23:00:38Z</time>
      </trkpt>
      <trkpt lat="45.11907" lon="4.03278">
        <ele>861.7958984375</ele>
        <time>2022-05-10T23:00:40Z</time>
      </trkpt>
      <trkpt lat="45.11893" lon="4.03291">
        <ele>860.36212158203</ele>
        <time>2022-05-10T23:00:43Z</time>
      </trkpt>
      <trkpt lat="45.11877" lon="4.03311">
        <ele>858.71820068359</ele>
        <time>2022-05-10T23:00:53Z</time>
      </trkpt>
      <trkpt lat="45.11869" lon="4.03327">
        <ele>858.21813964844</ele>
        <time>2022-05-10T23:01:01Z</time>
      </trkpt>
      <trkpt lat="45.11858" lon="4.03355">
        <ele>857.07287597656</ele>
        <time>2022-05-10T23:01:03Z</time>
      </trkpt>
      <trkpt lat="45.11855" lon="4.03372">
        <ele>857.20404052734</ele>
        <time>2022-05-10T23:01:05Z</time>
      </trkpt>
      <trkpt lat="45.11854" lon="4.03393">
        <ele>857.09521484375</ele>
        <time>2022-05-10T23:01:08Z</time>
      </trkpt>
      <trkpt lat="45.11851" lon="4.03443">
        <ele>855.64471435547</ele>
        <time>2022-05-10T23:01:11Z</time>
      </trkpt>
      <trkpt lat="45.11849" lon="4.03454">
        <ele>855.10852050781</ele>
        <time>2022-05-10T23:01:13Z</time>
      </trkpt>
      <trkpt lat="45.11838" lon="4.03489">
        <ele>852.67956542969</ele>
        <time>2022-05-10T23:01:15Z</time>
      </trkpt>
      <trkpt lat="45.11821" lon="4.03529">
        <ele>851.22790527344</ele>
        <time>2022-05-10T23:01:20Z</time>
      </trkpt>
      <trkpt lat="45.11807" lon="4.03561">
        <ele>850.16180419922</ele>
        <time>2022-05-10T23:01:24Z</time>
      </trkpt>
      <trkpt lat="45.11777" lon="4.03621">
        <ele>847.62481689453</ele>
        <time>2022-05-10T23:01:26Z</time>
      </trkpt>
      <trkpt lat="45.11764" lon="4.03639">
        <ele>847.14410400391</ele>
        <time>2022-05-10T23:01:29Z</time>
      </trkpt>
      <trkpt lat="45.11748" lon="4.03654">
        <ele>847.46746826172</ele>
        <time>2022-05-10T23:01:33Z</time>
      </trkpt>
      <trkpt lat="45.1174" lon="4.0366">
        <ele>847.44995117188</ele>
        <time>2022-05-10T23:01:36Z</time>
      </trkpt>
      <trkpt lat="45.11715" lon="4.03668">
        <ele>846.24420166016</ele>
        <time>2022-05-10T23:01:38Z</time>
      </trkpt>
      <trkpt lat="45.11693" lon="4.03672">
        <ele>845.88671875</ele>
        <time>2022-05-10T23:01:41Z</time>
      </trkpt>
      <trkpt lat="45.11636" lon="4.03676">
        <ele>845.64001464844</ele>
        <time>2022-05-10T23:01:43Z</time>
      </trkpt>
      <trkpt lat="45.11614" lon="4.0368">
        <ele>844.11602783203</ele>
        <time>2022-05-10T23:01:45Z</time>
      </trkpt>
      <trkpt lat="45.11607" lon="4.03681">
        <ele>843.75213623047</ele>
        <time>2022-05-10T23:01:47Z</time>
      </trkpt>
      <trkpt lat="45.116" lon="4.03685">
        <ele>843.57757568359</ele>
        <time>2022-05-10T23:01:50Z</time>
      </trkpt>
      <trkpt lat="45.11569" lon="4.03715">
        <ele>842.4462890625</ele>
        <time>2022-05-10T23:01:53Z</time>
      </trkpt>
      <trkpt lat="45.11553" lon="4.03724">
        <ele>841.65460205078</ele>
        <time>2022-05-10T23:01:58Z</time>
      </trkpt>
      <trkpt lat="45.11535" lon="4.0373">
        <ele>840.63854980469</ele>
        <time>2022-05-10T23:02:01Z</time>
      </trkpt>
      <trkpt lat="45.11516" lon="4.03728">
        <ele>839.69018554688</ele>
        <time>2022-05-10T23:02:07Z</time>
      </trkpt>
      <trkpt lat="45.115" lon="4.03722">
        <ele>838.80334472656</ele>
        <time>2022-05-10T23:02:09Z</time>
      </trkpt>
      <trkpt lat="45.11473" lon="4.03706">
        <ele>838.75268554688</ele>
        <time>2022-05-10T23:02:10Z</time>
      </trkpt>
      <trkpt lat="45.11457" lon="4.03696">
        <ele>838.39343261719</ele>
        <time>2022-05-10T23:02:12Z</time>
      </trkpt>
      <trkpt lat="45.11389" lon="4.03663">
        <ele>843.25494384766</ele>
        <time>2022-05-10T23:02:15Z</time>
      </trkpt>
      <trkpt lat="45.1135" lon="4.03644">
        <ele>845.58581542969</ele>
        <time>2022-05-10T23:02:20Z</time>
      </trkpt>
      <trkpt lat="45.11331" lon="4.03632">
        <ele>843.52325439453</ele>
        <time>2022-05-10T23:02:29Z</time>
      </trkpt>
      <trkpt lat="45.11314" lon="4.03618">
        <ele>840.18347167969</ele>
        <time>2022-05-10T23:02:31Z</time>
      </trkpt>
      <trkpt lat="45.11295" lon="4.03588">
        <ele>835.07391357422</ele>
        <time>2022-05-10T23:02:33Z</time>
      </trkpt>
      <trkpt lat="45.11253" lon="4.03513">
        <ele>837.12542724609</ele>
        <time>2022-05-10T23:02:34Z</time>
      </trkpt>
      <trkpt lat="45.1124" lon="4.03487">
        <ele>835.32104492188</ele>
        <time>2022-05-10T23:02:40Z</time>
      </trkpt>
      <trkpt lat="45.11233" lon="4.03472">
        <ele>835.03497314453</ele>
        <time>2022-05-10T23:02:43Z</time>
      </trkpt>
      <trkpt lat="45.11228" lon="4.03452">
        <ele>835.33026123047</ele>
        <time>2022-05-10T23:02:45Z</time>
      </trkpt>
      <trkpt lat="45.11228" lon="4.0343">
        <ele>836.99255371094</ele>
        <time>2022-05-10T23:02:48Z</time>
      </trkpt>
      <trkpt lat="45.11231" lon="4.03406">
        <ele>837.86895751953</ele>
        <time>2022-05-10T23:02:53Z</time>
      </trkpt>
      <trkpt lat="45.1124" lon="4.03371">
        <ele>837.68725585938</ele>
        <time>2022-05-10T23:02:58Z</time>
      </trkpt>
      <trkpt lat="45.11244" lon="4.03348">
        <ele>836.48071289062</ele>
        <time>2022-05-10T23:03:02Z</time>
      </trkpt>
      <trkpt lat="45.11244" lon="4.03338">
        <ele>836.25463867188</ele>
        <time>2022-05-10T23:03:05Z</time>
      </trkpt>
      <trkpt lat="45.11227" lon="4.03269">
        <ele>835.31671142578</ele>
        <time>2022-05-10T23:03:08Z</time>
      </trkpt>
      <trkpt lat="45.11221" lon="4.03248">
        <ele>835.52746582031</ele>
        <time>2022-05-10T23:03:13Z</time>
      </trkpt>
      <trkpt lat="45.11213" lon="4.0323">
        <ele>836.47100830078</ele>
        <time>2022-05-10T23:03:20Z</time>
      </trkpt>
      <trkpt lat="45.11169" lon="4.03175">
        <ele>837.64093017578</ele>
        <time>2022-05-10T23:03:23Z</time>
      </trkpt>
      <trkpt lat="45.11155" lon="4.03159">
        <ele>837.45300292969</ele>
        <time>2022-05-10T23:03:27Z</time>
      </trkpt>
      <trkpt lat="45.11124" lon="4.03123">
        <ele>832.33325195312</ele>
        <time>2022-05-10T23:03:37Z</time>
      </trkpt>
      <trkpt lat="45.11089" lon="4.03072">
        <ele>831.21453857422</ele>
        <time>2022-05-10T23:03:42Z</time>
      </trkpt>
      <trkpt lat="45.11061" lon="4.03023">
        <ele>829.79827880859</ele>
        <time>2022-05-10T23:03:47Z</time>
      </trkpt>
      <trkpt lat="45.11029" lon="4.02969">
        <ele>829.00183105469</ele>
        <time>2022-05-10T23:03:56Z</time>
      </trkpt>
      <trkpt lat="45.11008" lon="4.02938">
        <ele>828.40972900391</ele>
        <time>2022-05-10T23:03:59Z</time>
      </trkpt>
      <trkpt lat="45.10995" lon="4.02925">
        <ele>828.24371337891</ele>
        <time>2022-05-10T23:04:02Z</time>
      </trkpt>
      <trkpt lat="45.10977" lon="4.02914">
        <ele>828.73974609375</ele>
        <time>2022-05-10T23:04:05Z</time>
      </trkpt>
      <trkpt lat="45.10925" lon="4.02892">
        <ele>827.65606689453</ele>
        <time>2022-05-10T23:04:08Z</time>
      </trkpt>
      <trkpt lat="45.10891" lon="4.02875">
        <ele>829.29321289062</ele>
        <time>2022-05-10T23:04:11Z</time>
      </trkpt>
      <trkpt lat="45.10882" lon="4.02871">
        <ele>829.52392578125</ele>
        <time>2022-05-10T23:04:17Z</time>
      </trkpt>
      <trkpt lat="45.10866" lon="4.02864">
        <ele>828.14489746094</ele>
        <time>2022-05-10T23:04:24Z</time>
      </trkpt>
      <trkpt lat="45.10842" lon="4.02845">
        <ele>828.09362792969</ele>
        <time>2022-05-10T23:04:28Z</time>
      </trkpt>
      <trkpt lat="45.10801" lon="4.02814">
        <ele>825.96264648438</ele>
        <time>2022-05-10T23:04:31Z</time>
      </trkpt>
      <trkpt lat="45.10771" lon="4.02787">
        <ele>825.14465332031</ele>
        <time>2022-05-10T23:04:33Z</time>
      </trkpt>
      <trkpt lat="45.10756" lon="4.02779">
        <ele>824.70971679688</ele>
        <time>2022-05-10T23:04:34Z</time>
      </trkpt>
      <trkpt lat="45.10745" lon="4.02777">
        <ele>825.17864990234</ele>
        <time>2022-05-10T23:04:36Z</time>
      </trkpt>
      <trkpt lat="45.10699" lon="4.02782">
        <ele>824.76306152344</ele>
        <time>2022-05-10T23:04:40Z</time>
      </trkpt>
      <trkpt lat="45.10682" lon="4.02782">
        <ele>824.62854003906</ele>
        <time>2022-05-10T23:04:47Z</time>
      </trkpt>
      <trkpt lat="45.10672" lon="4.02774">
        <ele>822.70635986328</ele>
        <time>2022-05-10T23:04:50Z</time>
      </trkpt>
      <trkpt lat="45.10667" lon="4.02766">
        <ele>822.61370849609</ele>
        <time>2022-05-10T23:04:53Z</time>
      </trkpt>
      <trkpt lat="45.10664" lon="4.02757">
        <ele>822.41821289062</ele>
        <time>2022-05-10T23:04:55Z</time>
      </trkpt>
      <trkpt lat="45.10665" lon="4.02742">
        <ele>822.44683837891</ele>
        <time>2022-05-10T23:05:02Z</time>
      </trkpt>
      <trkpt lat="45.10672" lon="4.0273">
        <ele>824.00073242188</ele>
        <time>2022-05-10T23:05:04Z</time>
      </trkpt>
      <trkpt lat="45.10686" lon="4.02714">
        <ele>825.51959228516</ele>
        <time>2022-05-10T23:05:06Z</time>
      </trkpt>
      <trkpt lat="45.10698" lon="4.02702">
        <ele>825.16400146484</ele>
        <time>2022-05-10T23:05:16Z</time>
      </trkpt>
      <trkpt lat="45.10708" lon="4.02678">
        <ele>825.09783935547</ele>
        <time>2022-05-10T23:05:24Z</time>
      </trkpt>
      <trkpt lat="45.10743" lon="4.02573">
        <ele>828.68231201172</ele>
        <time>2022-05-10T23:05:32Z</time>
      </trkpt>
      <trkpt lat="45.10757" lon="4.02526">
        <ele>830.90472412109</ele>
        <time>2022-05-10T23:05:39Z</time>
      </trkpt>
      <trkpt lat="45.10765" lon="4.02485">
        <ele>832.69464111328</ele>
        <time>2022-05-10T23:05:41Z</time>
      </trkpt>
      <trkpt lat="45.10769" lon="4.02454">
        <ele>833.15191650391</ele>
        <time>2022-05-10T23:05:45Z</time>
      </trkpt>
      <trkpt lat="45.10773" lon="4.02399">
        <ele>833.90759277344</ele>
        <time>2022-05-10T23:05:51Z</time>
      </trkpt>
      <trkpt lat="45.10772" lon="4.02276">
        <ele>834.92370605469</ele>
        <time>2022-05-10T23:05:54Z</time>
      </trkpt>
      <trkpt lat="45.10774" lon="4.0225">
        <ele>834.86120605469</ele>
        <time>2022-05-10T23:05:56Z</time>
      </trkpt>
      <trkpt lat="45.1078" lon="4.0223">
        <ele>835.10864257812</ele>
        <time>2022-05-10T23:06:02Z</time>
      </trkpt>
      <trkpt lat="45.10799" lon="4.02177">
        <ele>838.37036132812</ele>
        <time>2022-05-10T23:06:06Z</time>
      </trkpt>
      <trkpt lat="45.1081" lon="4.02123">
        <ele>838.13348388672</ele>
        <time>2022-05-10T23:06:10Z</time>
      </trkpt>
      <trkpt lat="45.10814" lon="4.02063">
        <ele>837.90338134766</ele>
        <time>2022-05-10T23:06:13Z</time>
      </trkpt>
      <trkpt lat="45.10815" lon="4.02012">
        <ele>837.20068359375</ele>
        <time>2022-05-10T23:06:17Z</time>
      </trkpt>
      <trkpt lat="45.10816" lon="4.01987">
        <ele>837.51306152344</ele>
        <time>2022-05-10T23:06:20Z</time>
      </trkpt>
      <trkpt lat="45.10823" lon="4.01937">
        <ele>835.41149902344</ele>
        <time>2022-05-10T23:06:24Z</time>
      </trkpt>
      <trkpt lat="45.10833" lon="4.01875">
        <ele>834.55505371094</ele>
        <time>2022-05-10T23:06:27Z</time>
      </trkpt>
      <trkpt lat="45.10834" lon="4.01852">
        <ele>834.73394775391</ele>
        <time>2022-05-10T23:06:30Z</time>
      </trkpt>
      <trkpt lat="45.10831" lon="4.01837">
        <ele>834.40289306641</ele>
        <time>2022-05-10T23:06:35Z</time>
      </trkpt>
      <trkpt lat="45.10822" lon="4.0181">
        <ele>834.14990234375</ele>
        <time>2022-05-10T23:06:37Z</time>
      </trkpt>
      <trkpt lat="45.10773" lon="4.01724">
        <ele>835.59149169922</ele>
        <time>2022-05-10T23:06:40Z</time>
      </trkpt>
      <trkpt lat="45.10752" lon="4.01697">
        <ele>835.22155761719</ele>
        <time>2022-05-10T23:06:44Z</time>
      </trkpt>
      <trkpt lat="45.10721" lon="4.01662">
        <ele>835.46600341797</ele>
        <time>2022-05-10T23:06:46Z</time>
      </trkpt>
      <trkpt lat="45.10676" lon="4.01612">
        <ele>837.50964355469</ele>
        <time>2022-05-10T23:06:53Z</time>
      </trkpt>
      <trkpt lat="45.10661" lon="4.01589">
        <ele>837.57897949219</ele>
        <time>2022-05-10T23:06:56Z</time>
      </trkpt>
      <trkpt lat="45.10651" lon="4.01572">
        <ele>837.32012939453</ele>
        <time>2022-05-10T23:07:03Z</time>
      </trkpt>
      <trkpt lat="45.10629" lon="4.01537">
        <ele>837.52471923828</ele>
        <time>2022-05-10T23:07:08Z</time>
      </trkpt>
      <trkpt lat="45.10609" lon="4.01498">
        <ele>838.67059326172</ele>
        <time>2022-05-10T23:07:16Z</time>
      </trkpt>
      <trkpt lat="45.10558" lon="4.01403">
        <ele>839.68389892578</ele>
        <time>2022-05-10T23:07:21Z</time>
      </trkpt>
      <trkpt lat="45.10523" lon="4.0136">
        <ele>839.25103759766</ele>
        <time>2022-05-10T23:07:26Z</time>
      </trkpt>
      <trkpt lat="45.10504" lon="4.01337">
        <ele>839.17230224609</ele>
        <time>2022-05-10T23:07:29Z</time>
      </trkpt>
      <trkpt lat="45.10493" lon="4.01323">
        <ele>838.48168945312</ele>
        <time>2022-05-10T23:07:34Z</time>
      </trkpt>
      <trkpt lat="45.10475" lon="4.01308">
        <ele>837.17645263672</ele>
        <time>2022-05-10T23:07:36Z</time>
      </trkpt>
      <trkpt lat="45.10459" lon="4.01295">
        <ele>835.94793701172</ele>
        <time>2022-05-10T23:07:40Z</time>
      </trkpt>
      <trkpt lat="45.10444" lon="4.01281">
        <ele>834.95922851562</ele>
        <time>2022-05-10T23:07:41Z</time>
      </trkpt>
      <trkpt lat="45.1039" lon="4.01256">
        <ele>833.31311035156</ele>
        <time>2022-05-10T23:07:43Z</time>
      </trkpt>
      <trkpt lat="45.10374" lon="4.01254">
        <ele>834.37176513672</ele>
        <time>2022-05-10T23:07:45Z</time>
      </trkpt>
      <trkpt lat="45.10357" lon="4.01255">
        <ele>834.74322509766</ele>
        <time>2022-05-10T23:07:47Z</time>
      </trkpt>
      <trkpt lat="45.10339" lon="4.01257">
        <ele>834.66693115234</ele>
        <time>2022-05-10T23:07:50Z</time>
      </trkpt>
      <trkpt lat="45.10311" lon="4.01261">
        <ele>833.72229003906</ele>
        <time>2022-05-10T23:07:55Z</time>
      </trkpt>
      <trkpt lat="45.10285" lon="4.01268">
        <ele>832.83978271484</ele>
        <time>2022-05-10T23:08:04Z</time>
      </trkpt>
      <trkpt lat="45.10259" lon="4.01276">
        <ele>834.12670898438</ele>
        <time>2022-05-10T23:08:10Z</time>
      </trkpt>
      <trkpt lat="45.10249" lon="4.01277">
        <ele>834.20959472656</ele>
        <time>2022-05-10T23:08:13Z</time>
      </trkpt>
      <trkpt lat="45.10233" lon="4.01274">
        <ele>833.64984130859</ele>
        <time>2022-05-10T23:08:15Z</time>
      </trkpt>
      <trkpt lat="45.10203" lon="4.01268">
        <ele>833.37536621094</ele>
        <time>2022-05-10T23:08:19Z</time>
      </trkpt>
      <trkpt lat="45.10193" lon="4.01262">
        <ele>832.64074707031</ele>
        <time>2022-05-10T23:08:24Z</time>
      </trkpt>
      <trkpt lat="45.10167" lon="4.01232">
        <ele>830.36145019531</ele>
        <time>2022-05-10T23:08:25Z</time>
      </trkpt>
      <trkpt lat="45.10156" lon="4.01226">
        <ele>830.34808349609</ele>
        <time>2022-05-10T23:08:28Z</time>
      </trkpt>
      <trkpt lat="45.10142" lon="4.01223">
        <ele>830.19622802734</ele>
        <time>2022-05-10T23:08:31Z</time>
      </trkpt>
      <trkpt lat="45.10113" lon="4.01223">
        <ele>829.71600341797</ele>
        <time>2022-05-10T23:08:34Z</time>
      </trkpt>
      <trkpt lat="45.10083" lon="4.0122">
        <ele>828.68908691406</ele>
        <time>2022-05-10T23:08:37Z</time>
      </trkpt>
      <trkpt lat="45.10064" lon="4.01217">
        <ele>828.28198242188</ele>
        <time>2022-05-10T23:08:43Z</time>
      </trkpt>
      <trkpt lat="45.10027" lon="4.01233">
        <ele>825.62579345703</ele>
        <time>2022-05-10T23:08:47Z</time>
      </trkpt>
      <trkpt lat="45.10001" lon="4.01243">
        <ele>824.07794189453</ele>
        <time>2022-05-10T23:08:52Z</time>
      </trkpt>
      <trkpt lat="45.09965" lon="4.01252">
        <ele>822.60125732422</ele>
        <time>2022-05-10T23:08:56Z</time>
      </trkpt>
      <trkpt lat="45.09926" lon="4.01257">
        <ele>820.12609863281</ele>
        <time>2022-05-10T23:09:01Z</time>
      </trkpt>
      <trkpt lat="45.09896" lon="4.01275">
        <ele>817.74810791016</ele>
        <time>2022-05-10T23:09:05Z</time>
      </trkpt>
      <trkpt lat="45.09823" lon="4.01337">
        <ele>815.52288818359</ele>
        <time>2022-05-10T23:09:10Z</time>
      </trkpt>
      <trkpt lat="45.09778" lon="4.01379">
        <ele>816.12811279297</ele>
        <time>2022-05-10T23:09:16Z</time>
      </trkpt>
      <trkpt lat="45.09757" lon="4.01398">
        <ele>816.61175537109</ele>
        <time>2022-05-10T23:09:20Z</time>
      </trkpt>
      <trkpt lat="45.09746" lon="4.01404">
        <ele>816.50775146484</ele>
        <time>2022-05-10T23:09:25Z</time>
      </trkpt>
      <trkpt lat="45.09728" lon="4.01414">
        <ele>816.65649414062</ele>
        <time>2022-05-10T23:09:29Z</time>
      </trkpt>
      <trkpt lat="45.09706" lon="4.01422">
        <ele>815.62670898438</ele>
        <time>2022-05-10T23:09:31Z</time>
      </trkpt>
      <trkpt lat="45.09667" lon="4.01434">
        <ele>816.19110107422</ele>
        <time>2022-05-10T23:09:34Z</time>
      </trkpt>
      <trkpt lat="45.09633" lon="4.01449">
        <ele>816.71624755859</ele>
        <time>2022-05-10T23:09:36Z</time>
      </trkpt>
      <trkpt lat="45.09608" lon="4.01463">
        <ele>817.30767822266</ele>
        <time>2022-05-10T23:09:37Z</time>
      </trkpt>
      <trkpt lat="45.09585" lon="4.01483">
        <ele>817.33898925781</ele>
        <time>2022-05-10T23:09:41Z</time>
      </trkpt>
      <trkpt lat="45.09571" lon="4.01495">
        <ele>817.55029296875</ele>
        <time>2022-05-10T23:09:45Z</time>
      </trkpt>
      <trkpt lat="45.09556" lon="4.01501">
        <ele>816.96258544922</ele>
        <time>2022-05-10T23:09:55Z</time>
      </trkpt>
      <trkpt lat="45.09518" lon="4.01514">
        <ele>814.39715576172</ele>
        <time>2022-05-10T23:10:06Z</time>
      </trkpt>
      <trkpt lat="45.09493" lon="4.01494">
        <ele>811.32281494141</ele>
        <time>2022-05-10T23:10:13Z</time>
      </trkpt>
      <trkpt lat="45.09502" lon="4.01501">
        <ele>812.71630859375</ele>
        <time>2022-05-10T23:10:34Z</time>
      </trkpt>
      <trkpt lat="45.09518" lon="4.01514">
        <ele>814.39715576172</ele>
        <time>2022-05-10T23:10:37Z</time>
      </trkpt>
      <trkpt lat="45.09499" lon="4.01518">
        <ele>812.6494140625</ele>
        <time>2022-05-10T23:10:43Z</time>
      </trkpt>
      <trkpt lat="45.09464" lon="4.01523">
        <ele>810.92321777344</ele>
        <time>2022-05-10T23:10:58Z</time>
      </trkpt>
      <trkpt lat="45.09442" lon="4.01522">
        <ele>809.07293701172</ele>
        <time>2022-05-10T23:11:11Z</time>
      </trkpt>
      <trkpt lat="45.094" lon="4.01517">
        <ele>807.19384765625</ele>
        <time>2022-05-10T23:11:23Z</time>
      </trkpt>
      <trkpt lat="45.09382" lon="4.01512">
        <ele>806.12084960938</ele>
        <time>2022-05-10T23:11:29Z</time>
      </trkpt>
      <trkpt lat="45.09366" lon="4.01515">
        <ele>805.32385253906</ele>
        <time>2022-05-10T23:11:35Z</time>
      </trkpt>
      <trkpt lat="45.0935" lon="4.01514">
        <ele>804.21252441406</ele>
        <time>2022-05-10T23:11:37Z</time>
      </trkpt>
      <trkpt lat="45.09336" lon="4.01516">
        <ele>803.474609375</ele>
        <time>2022-05-10T23:11:41Z</time>
      </trkpt>
      <trkpt lat="45.09327" lon="4.01522">
        <ele>802.68127441406</ele>
        <time>2022-05-10T23:11:44Z</time>
      </trkpt>
      <trkpt lat="45.09319" lon="4.01535">
        <ele>801.71948242188</ele>
        <time>2022-05-10T23:11:46Z</time>
      </trkpt>
      <trkpt lat="45.09294" lon="4.01584">
        <ele>798.27606201172</ele>
        <time>2022-05-10T23:11:48Z</time>
      </trkpt>
      <trkpt lat="45.09271" lon="4.01622">
        <ele>795.45166015625</ele>
        <time>2022-05-10T23:11:51Z</time>
      </trkpt>
      <trkpt lat="45.0925" lon="4.01644">
        <ele>793.29919433594</ele>
        <time>2022-05-10T23:11:54Z</time>
      </trkpt>
      <trkpt lat="45.09203" lon="4.01707">
        <ele>787.85180664062</ele>
        <time>2022-05-10T23:12:04Z</time>
      </trkpt>
      <trkpt lat="45.09177" lon="4.01743">
        <ele>785.53985595703</ele>
        <time>2022-05-10T23:12:17Z</time>
      </trkpt>
      <trkpt lat="45.09153" lon="4.01773">
        <ele>782.69281005859</ele>
        <time>2022-05-10T23:12:25Z</time>
      </trkpt>
      <trkpt lat="45.09116" lon="4.01793">
        <ele>778.99035644531</ele>
        <time>2022-05-10T23:12:30Z</time>
      </trkpt>
      <trkpt lat="45.09102" lon="4.01809">
        <ele>777.63348388672</ele>
        <time>2022-05-10T23:12:37Z</time>
      </trkpt>
      <trkpt lat="45.09077" lon="4.01852">
        <ele>774.59930419922</ele>
        <time>2022-05-10T23:12:42Z</time>
      </trkpt>
      <trkpt lat="45.09061" lon="4.01905">
        <ele>771.4931640625</ele>
        <time>2022-05-10T23:12:47Z</time>
      </trkpt>
      <trkpt lat="45.09034" lon="4.02">
        <ele>766.18829345703</ele>
        <time>2022-05-10T23:12:52Z</time>
      </trkpt>
      <trkpt lat="45.09018" lon="4.02073">
        <ele>761.07598876953</ele>
        <time>2022-05-10T23:12:57Z</time>
      </trkpt>
      <trkpt lat="45.09014" lon="4.02092">
        <ele>759.79412841797</ele>
        <time>2022-05-10T23:13:01Z</time>
      </trkpt>
      <trkpt lat="45.09008" lon="4.02107">
        <ele>758.97741699219</ele>
        <time>2022-05-10T23:13:09Z</time>
      </trkpt>
      <trkpt lat="45.08987" lon="4.02112">
        <ele>757.14074707031</ele>
        <time>2022-05-10T23:13:16Z</time>
      </trkpt>
      <trkpt lat="45.08978" lon="4.02107">
        <ele>756.34161376953</ele>
        <time>2022-05-10T23:13:20Z</time>
      </trkpt>
      <trkpt lat="45.08972" lon="4.02099">
        <ele>755.68853759766</ele>
        <time>2022-05-10T23:13:24Z</time>
      </trkpt>
      <trkpt lat="45.08959" lon="4.02065">
        <ele>754.67156982422</ele>
        <time>2022-05-10T23:13:28Z</time>
      </trkpt>
      <trkpt lat="45.08929" lon="4.02017">
        <ele>750.18176269531</ele>
        <time>2022-05-10T23:13:37Z</time>
      </trkpt>
      <trkpt lat="45.0889" lon="4.01906">
        <ele>744.00567626953</ele>
        <time>2022-05-10T23:13:40Z</time>
      </trkpt>
      <trkpt lat="45.0888" lon="4.01865">
        <ele>741.22882080078</ele>
        <time>2022-05-10T23:13:45Z</time>
      </trkpt>
      <trkpt lat="45.08878" lon="4.01774">
        <ele>735.91876220703</ele>
        <time>2022-05-10T23:13:55Z</time>
      </trkpt>
      <trkpt lat="45.08877" lon="4.01705">
        <ele>732.57415771484</ele>
        <time>2022-05-10T23:14:08Z</time>
      </trkpt>
      <trkpt lat="45.08881" lon="4.01628">
        <ele>728.66827392578</ele>
        <time>2022-05-10T23:14:11Z</time>
      </trkpt>
      <trkpt lat="45.08886" lon="4.01553">
        <ele>724.86700439453</ele>
        <time>2022-05-10T23:14:21Z</time>
      </trkpt>
      <trkpt lat="45.08894" lon="4.01481">
        <ele>719.26940917969</ele>
        <time>2022-05-10T23:14:25Z</time>
      </trkpt>
      <trkpt lat="45.08892" lon="4.01473">
        <ele>718.36126708984</ele>
        <time>2022-05-10T23:14:31Z</time>
      </trkpt>
      <trkpt lat="45.08878" lon="4.01455">
        <ele>716.62103271484</ele>
        <time>2022-05-10T23:14:37Z</time>
      </trkpt>
      <trkpt lat="45.08844" lon="4.01426">
        <ele>714.29083251953</ele>
        <time>2022-05-10T23:14:46Z</time>
      </trkpt>
      <trkpt lat="45.08839" lon="4.014">
        <ele>715.39404296875</ele>
        <time>2022-05-10T23:14:51Z</time>
      </trkpt>
      <trkpt lat="45.08839" lon="4.01348">
        <ele>715.28533935547</ele>
        <time>2022-05-10T23:14:54Z</time>
      </trkpt>
      <trkpt lat="45.08832" lon="4.01274">
        <ele>716.36871337891</ele>
        <time>2022-05-10T23:14:54Z</time>
      </trkpt>
      <trkpt lat="45.08823" lon="4.01218">
        <ele>715.84039306641</ele>
        <time>2022-05-10T23:14:55Z</time>
      </trkpt>
      <trkpt lat="45.08815" lon="4.01195">
        <ele>716.10266113281</ele>
        <time>2022-05-10T23:15:06Z</time>
      </trkpt>
      <trkpt lat="45.08787" lon="4.01109">
        <ele>716.20007324219</ele>
        <time>2022-05-10T23:15:18Z</time>
      </trkpt>
      <trkpt lat="45.08753" lon="4.0101">
        <ele>717.4296875</ele>
        <time>2022-05-10T23:15:27Z</time>
      </trkpt>
      <trkpt lat="45.08729" lon="4.0095">
        <ele>718.27014160156</ele>
        <time>2022-05-10T23:15:32Z</time>
      </trkpt>
      <trkpt lat="45.08702" lon="4.00886">
        <ele>715.32836914062</ele>
        <time>2022-05-10T23:15:41Z</time>
      </trkpt>
      <trkpt lat="45.08684" lon="4.00816">
        <ele>711.62341308594</ele>
        <time>2022-05-10T23:15:49Z</time>
      </trkpt>
      <trkpt lat="45.08673" lon="4.00784">
        <ele>710.32080078125</ele>
        <time>2022-05-10T23:15:53Z</time>
      </trkpt>
      <trkpt lat="45.08658" lon="4.00765">
        <ele>710.62164306641</ele>
        <time>2022-05-10T23:15:58Z</time>
      </trkpt>
      <trkpt lat="45.08649" lon="4.00752">
        <ele>711.09790039062</ele>
        <time>2022-05-10T23:16:12Z</time>
      </trkpt>
      <trkpt lat="45.08616" lon="4.00675">
        <ele>714.28314208984</ele>
        <time>2022-05-10T23:16:22Z</time>
      </trkpt>
      <trkpt lat="45.08602" lon="4.00661">
        <ele>715.39697265625</ele>
        <time>2022-05-10T23:16:31Z</time>
      </trkpt>
      <trkpt lat="45.0859" lon="4.00658">
        <ele>716.53387451172</ele>
        <time>2022-05-10T23:16:41Z</time>
      </trkpt>
      <trkpt lat="45.0853" lon="4.00652">
        <ele>722.55633544922</ele>
        <time>2022-05-10T23:16:57Z</time>
      </trkpt>
      <trkpt lat="45.08517" lon="4.0065">
        <ele>723.71917724609</ele>
        <time>2022-05-10T23:17:06Z</time>
      </trkpt>
      <trkpt lat="45.08503" lon="4.00643">
        <ele>723.74298095703</ele>
        <time>2022-05-10T23:17:11Z</time>
      </trkpt>
      <trkpt lat="45.08471" lon="4.00615">
        <ele>723.89526367188</ele>
        <time>2022-05-10T23:17:15Z</time>
      </trkpt>
      <trkpt lat="45.08445" lon="4.00595">
        <ele>723.81555175781</ele>
        <time>2022-05-10T23:17:20Z</time>
      </trkpt>
      <trkpt lat="45.08423" lon="4.00581">
        <ele>722.15594482422</ele>
        <time>2022-05-10T23:17:20Z</time>
      </trkpt>
      <trkpt lat="45.08385" lon="4.00542">
        <ele>722.77990722656</ele>
        <time>2022-05-10T23:17:30Z</time>
      </trkpt>
      <trkpt lat="45.08361" lon="4.00521">
        <ele>723.51483154297</ele>
        <time>2022-05-10T23:17:42Z</time>
      </trkpt>
      <trkpt lat="45.08313" lon="4.00495">
        <ele>726.35961914062</ele>
        <time>2022-05-10T23:17:54Z</time>
      </trkpt>
      <trkpt lat="45.08272" lon="4.00487">
        <ele>727.49572753906</ele>
        <time>2022-05-10T23:18:03Z</time>
      </trkpt>
      <trkpt lat="45.08234" lon="4.00476">
        <ele>727.27362060547</ele>
        <time>2022-05-10T23:18:06Z</time>
      </trkpt>
      <trkpt lat="45.0822" lon="4.00471">
        <ele>728.84185791016</ele>
        <time>2022-05-10T23:18:10Z</time>
      </trkpt>
      <trkpt lat="45.08202" lon="4.00452">
        <ele>730.35906982422</ele>
        <time>2022-05-10T23:18:13Z</time>
      </trkpt>
      <trkpt lat="45.0815" lon="4.00392">
        <ele>730.37316894531</ele>
        <time>2022-05-10T23:18:19Z</time>
      </trkpt>
      <trkpt lat="45.08107" lon="4.00353">
        <ele>733.0322265625</ele>
        <time>2022-05-10T23:18:23Z</time>
      </trkpt>
      <trkpt lat="45.08095" lon="4.00345">
        <ele>733.73980712891</ele>
        <time>2022-05-10T23:18:31Z</time>
      </trkpt>
      <trkpt lat="45.08078" lon="4.00337">
        <ele>735.08062744141</ele>
        <time>2022-05-10T23:18:48Z</time>
      </trkpt>
      <trkpt lat="45.08043" lon="4.00326">
        <ele>737.35327148438</ele>
        <time>2022-05-10T23:19:13Z</time>
      </trkpt>
      <trkpt lat="45.08008" lon="4.00319">
        <ele>738.94769287109</ele>
        <time>2022-05-10T23:19:22Z</time>
      </trkpt>
      <trkpt lat="45.0799" lon="4.00313">
        <ele>740.03845214844</ele>
        <time>2022-05-10T23:19:24Z</time>
      </trkpt>
      <trkpt lat="45.07968" lon="4.00304">
        <ele>741.16931152344</ele>
        <time>2022-05-10T23:19:24Z</time>
      </trkpt>
      <trkpt lat="45.07937" lon="4.00289">
        <ele>743.16802978516</ele>
        <time>2022-05-10T23:19:34Z</time>
      </trkpt>
      <trkpt lat="45.07904" lon="4.00269">
        <ele>746.25335693359</ele>
        <time>2022-05-10T23:19:42Z</time>
      </trkpt>
      <trkpt lat="45.07877" lon="4.00249">
        <ele>749.05548095703</ele>
        <time>2022-05-10T23:19:48Z</time>
      </trkpt>
      <trkpt lat="45.07841" lon="4.00226">
        <ele>751.86328125</ele>
        <time>2022-05-10T23:20:12Z</time>
      </trkpt>
      <trkpt lat="45.07838" lon="4.00224">
        <ele>752.15069580078</ele>
        <time>2022-05-10T23:20:17Z</time>
      </trkpt>
      <trkpt lat="45.07794" lon="4.00187">
        <ele>756.55310058594</ele>
        <time>2022-05-10T23:20:41Z</time>
      </trkpt>
      <trkpt lat="45.07778" lon="4.00175">
        <ele>758.98986816406</ele>
        <time>2022-05-10T23:20:47Z</time>
      </trkpt>
      <trkpt lat="45.07746" lon="4.00154">
        <ele>760.90350341797</ele>
        <time>2022-05-10T23:20:49Z</time>
      </trkpt>
      <trkpt lat="45.07739" lon="4.00151">
        <ele>760.81024169922</ele>
        <time>2022-05-10T23:20:51Z</time>
      </trkpt>
      <trkpt lat="45.07693" lon="4.00138">
        <ele>762.93530273438</ele>
        <time>2022-05-10T23:20:55Z</time>
      </trkpt>
      <trkpt lat="45.07689" lon="4.00135">
        <ele>763.39990234375</ele>
        <time>2022-05-10T23:21:02Z</time>
      </trkpt>
      <trkpt lat="45.07669" lon="4.00121">
        <ele>763.89703369141</ele>
        <time>2022-05-10T23:21:08Z</time>
      </trkpt>
      <trkpt lat="45.07642" lon="4.00088">
        <ele>766.34857177734</ele>
        <time>2022-05-10T23:21:16Z</time>
      </trkpt>
      <trkpt lat="45.07636" lon="4.00082">
        <ele>766.90490722656</ele>
        <time>2022-05-10T23:21:33Z</time>
      </trkpt>
      <trkpt lat="45.07625" lon="4.00079">
        <ele>767.38775634766</ele>
        <time>2022-05-10T23:21:39Z</time>
      </trkpt>
      <trkpt lat="45.07613" lon="4.00077">
        <ele>768.12756347656</ele>
        <time>2022-05-10T23:21:45Z</time>
      </trkpt>
      <trkpt lat="45.07585" lon="4.00065">
        <ele>770.21362304688</ele>
        <time>2022-05-10T23:21:51Z</time>
      </trkpt>
      <trkpt lat="45.07578" lon="4.00059">
        <ele>770.78790283203</ele>
        <time>2022-05-10T23:21:55Z</time>
      </trkpt>
      <trkpt lat="45.07561" lon="4.00029">
        <ele>772.71533203125</ele>
        <time>2022-05-10T23:22:01Z</time>
      </trkpt>
      <trkpt lat="45.07552" lon="4.00014">
        <ele>773.25067138672</ele>
        <time>2022-05-10T23:22:10Z</time>
      </trkpt>
      <trkpt lat="45.07522" lon="3.99979">
        <ele>773.60528564453</ele>
        <time>2022-05-10T23:22:25Z</time>
      </trkpt>
      <trkpt lat="45.0749" lon="4.00001">
        <ele>770.15197753906</ele>
        <time>2022-05-10T23:22:38Z</time>
      </trkpt>
      <trkpt lat="45.07473" lon="4.0001">
        <ele>769.36303710938</ele>
        <time>2022-05-10T23:22:40Z</time>
      </trkpt>
      <trkpt lat="45.07456" lon="4.00017">
        <ele>770.25860595703</ele>
        <time>2022-05-10T23:22:45Z</time>
      </trkpt>
      <trkpt lat="45.07367" lon="4.00042">
        <ele>778.72406005859</ele>
        <time>2022-05-10T23:22:52Z</time>
      </trkpt>
      <trkpt lat="45.07295" lon="4.00062">
        <ele>782.94189453125</ele>
        <time>2022-05-10T23:22:55Z</time>
      </trkpt>
      <trkpt lat="45.07264" lon="4.00072">
        <ele>786.05609130859</ele>
        <time>2022-05-10T23:22:57Z</time>
      </trkpt>
      <trkpt lat="45.07208" lon="4.00073">
        <ele>790.47686767578</ele>
        <time>2022-05-10T23:22:59Z</time>
      </trkpt>
      <trkpt lat="45.07158" lon="4.00072">
        <ele>794.8056640625</ele>
        <time>2022-05-10T23:23:03Z</time>
      </trkpt>
      <trkpt lat="45.07141" lon="4.00062">
        <ele>796.92431640625</ele>
        <time>2022-05-10T23:23:07Z</time>
      </trkpt>
      <trkpt lat="45.07133" lon="4.00063">
        <ele>798.07958984375</ele>
        <time>2022-05-10T23:23:10Z</time>
      </trkpt>
      <trkpt lat="45.07116" lon="4.00075">
        <ele>800.43304443359</ele>
        <time>2022-05-10T23:23:14Z</time>
      </trkpt>
      <trkpt lat="45.07137" lon="4.00104">
        <ele>799.06359863281</ele>
        <time>2022-05-10T23:23:17Z</time>
      </trkpt>
      <trkpt lat="45.07153" lon="4.0013">
        <ele>797.64520263672</ele>
        <time>2022-05-10T23:23:19Z</time>
      </trkpt>
      <trkpt lat="45.07164" lon="4.0015">
        <ele>797.21429443359</ele>
        <time>2022-05-10T23:23:22Z</time>
      </trkpt>
      <trkpt lat="45.07171" lon="4.0016">
        <ele>796.79754638672</ele>
        <time>2022-05-10T23:23:26Z</time>
      </trkpt>
      <trkpt lat="45.07186" lon="4.00175">
        <ele>796.76873779297</ele>
        <time>2022-05-10T23:23:32Z</time>
      </trkpt>
      <trkpt lat="45.0719" lon="4.00185">
        <ele>796.55645751953</ele>
        <time>2022-05-10T23:23:37Z</time>
      </trkpt>
      <trkpt lat="45.07197" lon="4.00228">
        <ele>797.56536865234</ele>
        <time>2022-05-10T23:23:51Z</time>
      </trkpt>
      <trkpt lat="45.0721" lon="4.00274">
        <ele>798.91619873047</ele>
        <time>2022-05-10T23:24:00Z</time>
      </trkpt>
      <trkpt lat="45.07218" lon="4.00294">
        <ele>798.82666015625</ele>
        <time>2022-05-10T23:24:10Z</time>
      </trkpt>
      <trkpt lat="45.07268" lon="4.004">
        <ele>802.00744628906</ele>
        <time>2022-05-10T23:24:27Z</time>
      </trkpt>
      <trkpt lat="45.07276" lon="4.00434">
        <ele>802.72009277344</ele>
        <time>2022-05-10T23:24:30Z</time>
      </trkpt>
      <trkpt lat="45.07274" lon="4.00472">
        <ele>803.18115234375</ele>
        <time>2022-05-10T23:24:35Z</time>
      </trkpt>
      <trkpt lat="45.07264" lon="4.00538">
        <ele>805.15753173828</ele>
        <time>2022-05-10T23:24:38Z</time>
      </trkpt>
      <trkpt lat="45.07265" lon="4.00552">
        <ele>806.76153564453</ele>
        <time>2022-05-10T23:24:42Z</time>
      </trkpt>
      <trkpt lat="45.07269" lon="4.00572">
        <ele>808.9375</ele>
        <time>2022-05-10T23:24:46Z</time>
      </trkpt>
      <trkpt lat="45.07282" lon="4.00588">
        <ele>808.38043212891</ele>
        <time>2022-05-10T23:24:49Z</time>
      </trkpt>
      <trkpt lat="45.07297" lon="4.00596">
        <ele>807.48754882812</ele>
        <time>2022-05-10T23:24:52Z</time>
      </trkpt>
      <trkpt lat="45.07315" lon="4.00607">
        <ele>807.91986083984</ele>
        <time>2022-05-10T23:24:57Z</time>
      </trkpt>
      <trkpt lat="45.0734" lon="4.00631">
        <ele>809.57171630859</ele>
        <time>2022-05-10T23:25:02Z</time>
      </trkpt>
      <trkpt lat="45.07349" lon="4.00643">
        <ele>809.59063720703</ele>
        <time>2022-05-10T23:25:13Z</time>
      </trkpt>
      <trkpt lat="45.07366" lon="4.00681">
        <ele>810.11614990234</ele>
        <time>2022-05-10T23:25:21Z</time>
      </trkpt>
      <trkpt lat="45.07396" lon="4.0077">
        <ele>812.35510253906</ele>
        <time>2022-05-10T23:25:25Z</time>
      </trkpt>
      <trkpt lat="45.07399" lon="4.00789">
        <ele>813.51617431641</ele>
        <time>2022-05-10T23:25:30Z</time>
      </trkpt>
      <trkpt lat="45.07401" lon="4.00823">
        <ele>814.66180419922</ele>
        <time>2022-05-10T23:25:35Z</time>
      </trkpt>
      <trkpt lat="45.07398" lon="4.00853">
        <ele>815.31567382812</ele>
        <time>2022-05-10T23:25:39Z</time>
      </trkpt>
      <trkpt lat="45.07385" lon="4.00896">
        <ele>817.32543945312</ele>
        <time>2022-05-10T23:25:44Z</time>
      </trkpt>
      <trkpt lat="45.07376" lon="4.00915">
        <ele>817.75427246094</ele>
        <time>2022-05-10T23:25:49Z</time>
      </trkpt>
      <trkpt lat="45.07366" lon="4.00929">
        <ele>817.84429931641</ele>
        <time>2022-05-10T23:25:53Z</time>
      </trkpt>
      <trkpt lat="45.07307" lon="4.00982">
        <ele>820.12603759766</ele>
        <time>2022-05-10T23:25:58Z</time>
      </trkpt>
      <trkpt lat="45.07253" lon="4.01024">
        <ele>822.31005859375</ele>
        <time>2022-05-10T23:26:07Z</time>
      </trkpt>
      <trkpt lat="45.07224" lon="4.01039">
        <ele>821.73675537109</ele>
        <time>2022-05-10T23:26:11Z</time>
      </trkpt>
      <trkpt lat="45.07203" lon="4.01046">
        <ele>822.82269287109</ele>
        <time>2022-05-10T23:26:16Z</time>
      </trkpt>
      <trkpt lat="45.0712" lon="4.01069">
        <ele>823.26599121094</ele>
        <time>2022-05-10T23:26:21Z</time>
      </trkpt>
      <trkpt lat="45.07089" lon="4.01073">
        <ele>823.72412109375</ele>
        <time>2022-05-10T23:26:59Z</time>
      </trkpt>
      <trkpt lat="45.07071" lon="4.0107">
        <ele>824.05072021484</ele>
        <time>2022-05-10T23:27:30Z</time>
      </trkpt>
      <trkpt lat="45.07044" lon="4.0106">
        <ele>824.85681152344</ele>
        <time>2022-05-10T23:28:00Z</time>
      </trkpt>
      <trkpt lat="45.07024" lon="4.01045">
        <ele>825.43389892578</ele>
        <time>2022-05-10T23:28:02Z</time>
      </trkpt>
      <trkpt lat="45.07007" lon="4.01033">
        <ele>826.00170898438</ele>
        <time>2022-05-10T23:28:04Z</time>
      </trkpt>
      <trkpt lat="45.06994" lon="4.01027">
        <ele>826.36297607422</ele>
        <time>2022-05-10T23:28:11Z</time>
      </trkpt>
      <trkpt lat="45.06977" lon="4.01021">
        <ele>825.81689453125</ele>
        <time>2022-05-10T23:28:26Z</time>
      </trkpt>
      <trkpt lat="45.06966" lon="4.0102">
        <ele>825.10632324219</ele>
        <time>2022-05-10T23:28:34Z</time>
      </trkpt>
      <trkpt lat="45.06943" lon="4.01023">
        <ele>826.14978027344</ele>
        <time>2022-05-10T23:28:39Z</time>
      </trkpt>
      <trkpt lat="45.06923" lon="4.0102">
        <ele>826.62731933594</ele>
        <time>2022-05-10T23:28:43Z</time>
      </trkpt>
      <trkpt lat="45.06901" lon="4.01013">
        <ele>827.39306640625</ele>
        <time>2022-05-10T23:28:46Z</time>
      </trkpt>
      <trkpt lat="45.06887" lon="4.01008">
        <ele>827.04528808594</ele>
        <time>2022-05-10T23:28:49Z</time>
      </trkpt>
      <trkpt lat="45.06876" lon="4.01009">
        <ele>826.90161132812</ele>
        <time>2022-05-10T23:28:54Z</time>
      </trkpt>
      <trkpt lat="45.06854" lon="4.01017">
        <ele>826.42852783203</ele>
        <time>2022-05-10T23:28:59Z</time>
      </trkpt>
      <trkpt lat="45.06787" lon="4.01049">
        <ele>825.15399169922</ele>
        <time>2022-05-10T23:29:09Z</time>
      </trkpt>
      <trkpt lat="45.06772" lon="4.01053">
        <ele>825.00518798828</ele>
        <time>2022-05-10T23:29:14Z</time>
      </trkpt>
      <trkpt lat="45.06733" lon="4.01055">
        <ele>824.5546875</ele>
        <time>2022-05-10T23:29:16Z</time>
      </trkpt>
      <trkpt lat="45.0669" lon="4.01053">
        <ele>823.67791748047</ele>
        <time>2022-05-10T23:29:23Z</time>
      </trkpt>
      <trkpt lat="45.06651" lon="4.01056">
        <ele>824.05548095703</ele>
        <time>2022-05-10T23:29:33Z</time>
      </trkpt>
      <trkpt lat="45.06623" lon="4.01063">
        <ele>824.00476074219</ele>
        <time>2022-05-10T23:29:39Z</time>
      </trkpt>
      <trkpt lat="45.06608" lon="4.01074">
        <ele>824.14361572266</ele>
        <time>2022-05-10T23:29:45Z</time>
      </trkpt>
      <trkpt lat="45.06585" lon="4.01095">
        <ele>824.16186523438</ele>
        <time>2022-05-10T23:29:50Z</time>
      </trkpt>
      <trkpt lat="45.065" lon="4.01169">
        <ele>820.71636962891</ele>
        <time>2022-05-10T23:29:56Z</time>
      </trkpt>
      <trkpt lat="45.0649" lon="4.01176">
        <ele>820.29876708984</ele>
        <time>2022-05-10T23:30:06Z</time>
      </trkpt>
      <trkpt lat="45.06478" lon="4.01181">
        <ele>820.16522216797</ele>
        <time>2022-05-10T23:30:14Z</time>
      </trkpt>
      <trkpt lat="45.06437" lon="4.01186">
        <ele>818.78088378906</ele>
        <time>2022-05-10T23:30:20Z</time>
      </trkpt>
      <trkpt lat="45.06399" lon="4.01193">
        <ele>816.84912109375</ele>
        <time>2022-05-10T23:30:25Z</time>
      </trkpt>
      <trkpt lat="45.06383" lon="4.0119">
        <ele>816.69561767578</ele>
        <time>2022-05-10T23:30:33Z</time>
      </trkpt>
      <trkpt lat="45.06346" lon="4.01172">
        <ele>815.27209472656</ele>
        <time>2022-05-10T23:30:53Z</time>
      </trkpt>
      <trkpt lat="45.06309" lon="4.01152">
        <ele>814.12329101562</ele>
        <time>2022-05-10T23:30:59Z</time>
      </trkpt>
      <trkpt lat="45.06292" lon="4.01143">
        <ele>812.72326660156</ele>
        <time>2022-05-10T23:31:02Z</time>
      </trkpt>
      <trkpt lat="45.0628" lon="4.01141">
        <ele>812.85784912109</ele>
        <time>2022-05-10T23:31:02Z</time>
      </trkpt>
      <trkpt lat="45.06266" lon="4.01143">
        <ele>813.07006835938</ele>
        <time>2022-05-10T23:31:07Z</time>
      </trkpt>
      <trkpt lat="45.06247" lon="4.01147">
        <ele>811.90417480469</ele>
        <time>2022-05-10T23:31:14Z</time>
      </trkpt>
      <trkpt lat="45.06224" lon="4.01156">
        <ele>811.15966796875</ele>
        <time>2022-05-10T23:31:24Z</time>
      </trkpt>
      <trkpt lat="45.06207" lon="4.01165">
        <ele>809.90692138672</ele>
        <time>2022-05-10T23:31:29Z</time>
      </trkpt>
      <trkpt lat="45.0619" lon="4.01181">
        <ele>809.32922363281</ele>
        <time>2022-05-10T23:31:50Z</time>
      </trkpt>
      <trkpt lat="45.06177" lon="4.01198">
        <ele>808.25085449219</ele>
        <time>2022-05-10T23:31:59Z</time>
      </trkpt>
      <trkpt lat="45.06167" lon="4.01216">
        <ele>806.94006347656</ele>
        <time>2022-05-10T23:32:03Z</time>
      </trkpt>
      <trkpt lat="45.06163" lon="4.01231">
        <ele>806.71862792969</ele>
        <time>2022-05-10T23:32:07Z</time>
      </trkpt>
      <trkpt lat="45.06157" lon="4.01263">
        <ele>805.20581054688</ele>
        <time>2022-05-10T23:32:09Z</time>
      </trkpt>
      <trkpt lat="45.06156" lon="4.01287">
        <ele>803.71820068359</ele>
        <time>2022-05-10T23:32:18Z</time>
      </trkpt>
      <trkpt lat="45.06147" lon="4.01309">
        <ele>802.24676513672</ele>
        <time>2022-05-10T23:32:29Z</time>
      </trkpt>
      <trkpt lat="45.06135" lon="4.01316">
        <ele>802.20733642578</ele>
        <time>2022-05-10T23:32:42Z</time>
      </trkpt>
      <trkpt lat="45.06129" lon="4.01316">
        <ele>802.18103027344</ele>
        <time>2022-05-10T23:32:46Z</time>
      </trkpt>
      <trkpt lat="45.06123" lon="4.01312">
        <ele>802.07214355469</ele>
        <time>2022-05-10T23:32:50Z</time>
      </trkpt>
      <trkpt lat="45.06112" lon="4.01303">
        <ele>801.58569335938</ele>
        <time>2022-05-10T23:32:54Z</time>
      </trkpt>
      <trkpt lat="45.06111" lon="4.013">
        <ele>801.47918701172</ele>
        <time>2022-05-10T23:32:58Z</time>
      </trkpt>
      <trkpt lat="45.06108" lon="4.01295">
        <ele>801.26263427734</ele>
        <time>2022-05-10T23:33:00Z</time>
      </trkpt>
      <trkpt lat="45.06103" lon="4.01288">
        <ele>801.00793457031</ele>
        <time>2022-05-10T23:33:02Z</time>
      </trkpt>
      <trkpt lat="45.06095" lon="4.01284">
        <ele>800.68835449219</ele>
        <time>2022-05-10T23:33:04Z</time>
      </trkpt>
      <trkpt lat="45.06087" lon="4.01284">
        <ele>800.32232666016</ele>
        <time>2022-05-10T23:33:06Z</time>
      </trkpt>
      <trkpt lat="45.0608" lon="4.01289">
        <ele>800.11016845703</ele>
        <time>2022-05-10T23:33:09Z</time>
      </trkpt>
      <trkpt lat="45.06074" lon="4.01296">
        <ele>800.04998779297</ele>
        <time>2022-05-10T23:33:13Z</time>
      </trkpt>
      <trkpt lat="45.06071" lon="4.01307">
        <ele>799.99755859375</ele>
        <time>2022-05-10T23:33:16Z</time>
      </trkpt>
      <trkpt lat="45.0607" lon="4.01318">
        <ele>800.21313476562</ele>
        <time>2022-05-10T23:33:28Z</time>
      </trkpt>
      <trkpt lat="45.06072" lon="4.01328">
        <ele>800.42138671875</ele>
        <time>2022-05-10T23:33:40Z</time>
      </trkpt>
      <trkpt lat="45.06076" lon="4.01336">
        <ele>800.63928222656</ele>
        <time>2022-05-10T23:33:45Z</time>
      </trkpt>
      <trkpt lat="45.06079" lon="4.01349">
        <ele>800.39715576172</ele>
        <time>2022-05-10T23:33:48Z</time>
      </trkpt>
      <trkpt lat="45.0608" lon="4.01364">
        <ele>800.56304931641</ele>
        <time>2022-05-10T23:33:51Z</time>
      </trkpt>
      <trkpt lat="45.06081" lon="4.01391">
        <ele>800.57098388672</ele>
        <time>2022-05-10T23:33:52Z</time>
      </trkpt>
      <trkpt lat="45.06084" lon="4.01417">
        <ele>800.88513183594</ele>
        <time>2022-05-10T23:33:55Z</time>
      </trkpt>
      <trkpt lat="45.06128" lon="4.0152">
        <ele>803.71203613281</ele>
        <time>2022-05-10T23:34:01Z</time>
      </trkpt>
      <trkpt lat="45.06177" lon="4.01656">
        <ele>806.60491943359</ele>
        <time>2022-05-10T23:34:06Z</time>
      </trkpt>
      <trkpt lat="45.06202" lon="4.01722">
        <ele>808.10888671875</ele>
        <time>2022-05-10T23:34:11Z</time>
      </trkpt>
      <trkpt lat="45.06221" lon="4.01754">
        <ele>808.71710205078</ele>
        <time>2022-05-10T23:34:13Z</time>
      </trkpt>
      <trkpt lat="45.06208" lon="4.01771">
        <ele>807.51434326172</ele>
        <time>2022-05-10T23:34:21Z</time>
      </trkpt>
      <trkpt lat="45.06156" lon="4.01828">
        <ele>810.81915283203</ele>
        <time>2022-05-10T23:34:23Z</time>
      </trkpt>
      <trkpt lat="45.06119" lon="4.01866">
        <ele>815.85546875</ele>
        <time>2022-05-10T23:34:27Z</time>
      </trkpt>
      <trkpt lat="45.06107" lon="4.01874">
        <ele>816.83673095703</ele>
        <time>2022-05-10T23:34:31Z</time>
      </trkpt>
      <trkpt lat="45.06095" lon="4.01878">
        <ele>817.31774902344</ele>
        <time>2022-05-10T23:34:34Z</time>
      </trkpt>
      <trkpt lat="45.06088" lon="4.0188">
        <ele>817.83294677734</ele>
        <time>2022-05-10T23:34:39Z</time>
      </trkpt>
      <trkpt lat="45.06077" lon="4.01882">
        <ele>818.67443847656</ele>
        <time>2022-05-10T23:34:42Z</time>
      </trkpt>
      <trkpt lat="45.06041" lon="4.01889">
        <ele>820.78454589844</ele>
        <time>2022-05-10T23:34:47Z</time>
      </trkpt>
      <trkpt lat="45.05996" lon="4.01898">
        <ele>821.67681884766</ele>
        <time>2022-05-10T23:34:52Z</time>
      </trkpt>
      <trkpt lat="45.05977" lon="4.01905">
        <ele>821.72998046875</ele>
        <time>2022-05-10T23:34:57Z</time>
      </trkpt>
      <trkpt lat="45.05962" lon="4.01919">
        <ele>822.48858642578</ele>
        <time>2022-05-10T23:35:05Z</time>
      </trkpt>
      <trkpt lat="45.0595" lon="4.01937">
        <ele>822.93792724609</ele>
        <time>2022-05-10T23:35:11Z</time>
      </trkpt>
      <trkpt lat="45.05938" lon="4.01949">
        <ele>823.44647216797</ele>
        <time>2022-05-10T23:35:14Z</time>
      </trkpt>
      <trkpt lat="45.0592" lon="4.01958">
        <ele>824.58477783203</ele>
        <time>2022-05-10T23:35:17Z</time>
      </trkpt>
      <trkpt lat="45.05901" lon="4.01962">
        <ele>826.50109863281</ele>
        <time>2022-05-10T23:35:23Z</time>
      </trkpt>
      <trkpt lat="45.05879" lon="4.01953">
        <ele>829.06927490234</ele>
        <time>2022-05-10T23:35:27Z</time>
      </trkpt>
      <trkpt lat="45.05864" lon="4.01941">
        <ele>830.30401611328</ele>
        <time>2022-05-10T23:35:30Z</time>
      </trkpt>
      <trkpt lat="45.05856" lon="4.01932">
        <ele>830.94415283203</ele>
        <time>2022-05-10T23:35:34Z</time>
      </trkpt>
      <trkpt lat="45.05841" lon="4.01918">
        <ele>831.9580078125</ele>
        <time>2022-05-10T23:35:38Z</time>
      </trkpt>
      <trkpt lat="45.05834" lon="4.01914">
        <ele>831.83941650391</ele>
        <time>2022-05-10T23:35:44Z</time>
      </trkpt>
      <trkpt lat="45.05811" lon="4.01908">
        <ele>832.67864990234</ele>
        <time>2022-05-10T23:35:47Z</time>
      </trkpt>
      <trkpt lat="45.05759" lon="4.01886">
        <ele>835.95544433594</ele>
        <time>2022-05-10T23:35:51Z</time>
      </trkpt>
      <trkpt lat="45.05672" lon="4.01842">
        <ele>841.29248046875</ele>
        <time>2022-05-10T23:35:58Z</time>
      </trkpt>
      <trkpt lat="45.05665" lon="4.01836">
        <ele>841.591796875</ele>
        <time>2022-05-10T23:36:01Z</time>
      </trkpt>
      <trkpt lat="45.05656" lon="4.01828">
        <ele>842.32855224609</ele>
        <time>2022-05-10T23:36:05Z</time>
      </trkpt>
      <trkpt lat="45.05642" lon="4.01813">
        <ele>843.26190185547</ele>
        <time>2022-05-10T23:36:12Z</time>
      </trkpt>
      <trkpt lat="45.05635" lon="4.01807">
        <ele>843.37652587891</ele>
        <time>2022-05-10T23:36:15Z</time>
      </trkpt>
      <trkpt lat="45.05623" lon="4.01802">
        <ele>843.95947265625</ele>
        <time>2022-05-10T23:36:28Z</time>
      </trkpt>
      <trkpt lat="45.05614" lon="4.01801">
        <ele>844.60821533203</ele>
        <time>2022-05-10T23:36:52Z</time>
      </trkpt>
      <trkpt lat="45.05601" lon="4.01801">
        <ele>845.18634033203</ele>
        <time>2022-05-10T23:37:02Z</time>
      </trkpt>
      <trkpt lat="45.05561" lon="4.01811">
        <ele>847.27001953125</ele>
        <time>2022-05-10T23:37:08Z</time>
      </trkpt>
      <trkpt lat="45.05539" lon="4.0181">
        <ele>848.56640625</ele>
        <time>2022-05-10T23:37:12Z</time>
      </trkpt>
      <trkpt lat="45.05529" lon="4.01807">
        <ele>849.189453125</ele>
        <time>2022-05-10T23:37:21Z</time>
      </trkpt>
      <trkpt lat="45.05503" lon="4.01795">
        <ele>851.02862548828</ele>
        <time>2022-05-10T23:37:28Z</time>
      </trkpt>
      <trkpt lat="45.05466" lon="4.01773">
        <ele>854.03088378906</ele>
        <time>2022-05-10T23:37:45Z</time>
      </trkpt>
      <trkpt lat="45.05454" lon="4.01765">
        <ele>854.98223876953</ele>
        <time>2022-05-10T23:37:57Z</time>
      </trkpt>
      <trkpt lat="45.05443" lon="4.01762">
        <ele>855.10925292969</ele>
        <time>2022-05-10T23:38:04Z</time>
      </trkpt>
      <trkpt lat="45.05428" lon="4.0176">
        <ele>855.33929443359</ele>
        <time>2022-05-10T23:38:09Z</time>
      </trkpt>
      <trkpt lat="45.05365" lon="4.01755">
        <ele>859.15069580078</ele>
        <time>2022-05-10T23:38:19Z</time>
      </trkpt>
      <trkpt lat="45.05341" lon="4.01755">
        <ele>859.86846923828</ele>
        <time>2022-05-10T23:38:23Z</time>
      </trkpt>
      <trkpt lat="45.05309" lon="4.01762">
        <ele>861.70477294922</ele>
        <time>2022-05-10T23:38:30Z</time>
      </trkpt>
      <trkpt lat="45.0528" lon="4.01775">
        <ele>863.482421875</ele>
        <time>2022-05-10T23:38:40Z</time>
      </trkpt>
      <trkpt lat="45.05265" lon="4.01785">
        <ele>864.33929443359</ele>
        <time>2022-05-10T23:38:45Z</time>
      </trkpt>
      <trkpt lat="45.05204" lon="4.01824">
        <ele>868.66802978516</ele>
        <time>2022-05-10T23:38:50Z</time>
      </trkpt>
      <trkpt lat="45.05136" lon="4.01867">
        <ele>871.91711425781</ele>
        <time>2022-05-10T23:38:54Z</time>
      </trkpt>
      <trkpt lat="45.05116" lon="4.01884">
        <ele>872.60308837891</ele>
        <time>2022-05-10T23:39:07Z</time>
      </trkpt>
      <trkpt lat="45.051" lon="4.01905">
        <ele>873.22833251953</ele>
        <time>2022-05-10T23:39:13Z</time>
      </trkpt>
      <trkpt lat="45.05077" lon="4.01948">
        <ele>875.83880615234</ele>
        <time>2022-05-10T23:39:26Z</time>
      </trkpt>
      <trkpt lat="45.05038" lon="4.02006">
        <ele>878.50677490234</ele>
        <time>2022-05-10T23:39:32Z</time>
      </trkpt>
      <trkpt lat="45.04986" lon="4.02079">
        <ele>882.05114746094</ele>
        <time>2022-05-10T23:39:37Z</time>
      </trkpt>
      <trkpt lat="45.04976" lon="4.02108">
        <ele>884.21002197266</ele>
        <time>2022-05-10T23:39:41Z</time>
      </trkpt>
      <trkpt lat="45.04971" lon="4.02133">
        <ele>884.94476318359</ele>
        <time>2022-05-10T23:39:46Z</time>
      </trkpt>
      <trkpt lat="45.04966" lon="4.02189">
        <ele>886.83892822266</ele>
        <time>2022-05-10T23:39:52Z</time>
      </trkpt>
      <trkpt lat="45.04956" lon="4.02324">
        <ele>886.79125976562</ele>
        <time>2022-05-10T23:39:58Z</time>
      </trkpt>
      <trkpt lat="45.04945" lon="4.02398">
        <ele>886.46234130859</ele>
        <time>2022-05-10T23:40:04Z</time>
      </trkpt>
      <trkpt lat="45.04934" lon="4.02425">
        <ele>886.60009765625</ele>
        <time>2022-05-10T23:40:11Z</time>
      </trkpt>
      <trkpt lat="45.04895" lon="4.02483">
        <ele>888.00305175781</ele>
        <time>2022-05-10T23:40:15Z</time>
      </trkpt>
      <trkpt lat="45.04869" lon="4.02518">
        <ele>891.21331787109</ele>
        <time>2022-05-10T23:40:26Z</time>
      </trkpt>
      <trkpt lat="45.04862" lon="4.02524">
        <ele>891.57458496094</ele>
        <time>2022-05-10T23:40:32Z</time>
      </trkpt>
      <trkpt lat="45.04841" lon="4.02532">
        <ele>892.21282958984</ele>
        <time>2022-05-10T23:40:37Z</time>
      </trkpt>
      <trkpt lat="45.04823" lon="4.02545">
        <ele>893.19458007812</ele>
        <time>2022-05-10T23:40:40Z</time>
      </trkpt>
      <trkpt lat="45.04805" lon="4.02563">
        <ele>894.80059814453</ele>
        <time>2022-05-10T23:40:43Z</time>
      </trkpt>
      <trkpt lat="45.04794" lon="4.02583">
        <ele>895.41333007812</ele>
        <time>2022-05-10T23:40:45Z</time>
      </trkpt>
      <trkpt lat="45.0479" lon="4.026">
        <ele>896.03143310547</ele>
        <time>2022-05-10T23:40:49Z</time>
      </trkpt>
      <trkpt lat="45.04787" lon="4.02628">
        <ele>896.17755126953</ele>
        <time>2022-05-10T23:40:58Z</time>
      </trkpt>
      <trkpt lat="45.04785" lon="4.02716">
        <ele>895.21014404297</ele>
        <time>2022-05-10T23:41:01Z</time>
      </trkpt>
      <trkpt lat="45.04775" lon="4.02752">
        <ele>894.89825439453</ele>
        <time>2022-05-10T23:41:04Z</time>
      </trkpt>
      <trkpt lat="45.04761" lon="4.02779">
        <ele>893.54620361328</ele>
        <time>2022-05-10T23:41:08Z</time>
      </trkpt>
      <trkpt lat="45.04751" lon="4.02806">
        <ele>891.19061279297</ele>
        <time>2022-05-10T23:41:15Z</time>
      </trkpt>
      <trkpt lat="45.04738" lon="4.02853">
        <ele>889.64636230469</ele>
        <time>2022-05-10T23:41:25Z</time>
      </trkpt>
      <trkpt lat="45.04728" lon="4.02887">
        <ele>888.99371337891</ele>
        <time>2022-05-10T23:41:29Z</time>
      </trkpt>
      <trkpt lat="45.04716" lon="4.02929">
        <ele>885.66339111328</ele>
        <time>2022-05-10T23:41:33Z</time>
      </trkpt>
      <trkpt lat="45.04714" lon="4.02957">
        <ele>884.75134277344</ele>
        <time>2022-05-10T23:41:38Z</time>
      </trkpt>
      <trkpt lat="45.04717" lon="4.02992">
        <ele>882.82702636719</ele>
        <time>2022-05-10T23:41:43Z</time>
      </trkpt>
      <trkpt lat="45.04718" lon="4.03025">
        <ele>881.28918457031</ele>
        <time>2022-05-10T23:41:46Z</time>
      </trkpt>
      <trkpt lat="45.04717" lon="4.03054">
        <ele>881.36199951172</ele>
        <time>2022-05-10T23:41:51Z</time>
      </trkpt>
      <trkpt lat="45.04712" lon="4.03078">
        <ele>879.75836181641</ele>
        <time>2022-05-10T23:42:00Z</time>
      </trkpt>
      <trkpt lat="45.04701" lon="4.03101">
        <ele>878.41870117188</ele>
        <time>2022-05-10T23:42:15Z</time>
      </trkpt>
      <trkpt lat="45.04665" lon="4.03167">
        <ele>874.88989257812</ele>
        <time>2022-05-10T23:42:20Z</time>
      </trkpt>
      <trkpt lat="45.04655" lon="4.03193">
        <ele>874.56451416016</ele>
        <time>2022-05-10T23:42:28Z</time>
      </trkpt>
      <trkpt lat="45.04654" lon="4.03203">
        <ele>874.19158935547</ele>
        <time>2022-05-10T23:42:33Z</time>
      </trkpt>
      <trkpt lat="45.04654" lon="4.03214">
        <ele>873.59307861328</ele>
        <time>2022-05-10T23:42:37Z</time>
      </trkpt>
      <trkpt lat="45.0466" lon="4.03239">
        <ele>872.29888916016</ele>
        <time>2022-05-10T23:42:44Z</time>
      </trkpt>
      <trkpt lat="45.04674" lon="4.03281">
        <ele>870.68188476562</ele>
        <time>2022-05-10T23:42:50Z</time>
      </trkpt>
      <trkpt lat="45.04674" lon="4.03296">
        <ele>869.91656494141</ele>
        <time>2022-05-10T23:43:01Z</time>
      </trkpt>
      <trkpt lat="45.04671" lon="4.03314">
        <ele>868.47967529297</ele>
        <time>2022-05-10T23:43:05Z</time>
      </trkpt>
      <trkpt lat="45.04668" lon="4.03343">
        <ele>866.07409667969</ele>
        <time>2022-05-10T23:43:13Z</time>
      </trkpt>
      <trkpt lat="45.04666" lon="4.03401">
        <ele>863.17828369141</ele>
        <time>2022-05-10T23:43:17Z</time>
      </trkpt>
      <trkpt lat="45.04662" lon="4.03447">
        <ele>861.31396484375</ele>
        <time>2022-05-10T23:43:24Z</time>
      </trkpt>
      <trkpt lat="45.04661" lon="4.03498">
        <ele>859.26910400391</ele>
        <time>2022-05-10T23:43:29Z</time>
      </trkpt>
      <trkpt lat="45.04666" lon="4.03534">
        <ele>858.42553710938</ele>
        <time>2022-05-10T23:43:40Z</time>
      </trkpt>
      <trkpt lat="45.04679" lon="4.0357">
        <ele>858.361328125</ele>
        <time>2022-05-10T23:43:57Z</time>
      </trkpt>
      <trkpt lat="45.0468" lon="4.03594">
        <ele>858.11480712891</ele>
        <time>2022-05-10T23:44:12Z</time>
      </trkpt>
      <trkpt lat="45.04678" lon="4.03604">
        <ele>857.41693115234</ele>
        <time>2022-05-10T23:44:19Z</time>
      </trkpt>
      <trkpt lat="45.04671" lon="4.03616">
        <ele>856.26062011719</ele>
        <time>2022-05-10T23:44:29Z</time>
      </trkpt>
      <trkpt lat="45.0466" lon="4.03635">
        <ele>854.05395507812</ele>
        <time>2022-05-10T23:44:37Z</time>
      </trkpt>
      <trkpt lat="45.04655" lon="4.03648">
        <ele>853.10162353516</ele>
        <time>2022-05-10T23:44:43Z</time>
      </trkpt>
      <trkpt lat="45.04651" lon="4.03683">
        <ele>852.54705810547</ele>
        <time>2022-05-10T23:44:48Z</time>
      </trkpt>
      <trkpt lat="45.04641" lon="4.03705">
        <ele>851.88000488281</ele>
        <time>2022-05-10T23:44:50Z</time>
      </trkpt>
      <trkpt lat="45.04631" lon="4.03726">
        <ele>852.40435791016</ele>
        <time>2022-05-10T23:45:01Z</time>
      </trkpt>
      <trkpt lat="45.04628" lon="4.03749">
        <ele>852.73413085938</ele>
        <time>2022-05-10T23:45:08Z</time>
      </trkpt>
      <trkpt lat="45.0463" lon="4.03771">
        <ele>852.79919433594</ele>
        <time>2022-05-10T23:45:29Z</time>
      </trkpt>
      <trkpt lat="45.0464" lon="4.03801">
        <ele>852.30609130859</ele>
        <time>2022-05-10T23:45:35Z</time>
      </trkpt>
      <trkpt lat="45.04645" lon="4.03827">
        <ele>852.32098388672</ele>
        <time>2022-05-10T23:45:38Z</time>
      </trkpt>
      <trkpt lat="45.04643" lon="4.03842">
        <ele>852.31866455078</ele>
        <time>2022-05-10T23:45:48Z</time>
      </trkpt>
      <trkpt lat="45.04639" lon="4.03852">
        <ele>852.58752441406</ele>
        <time>2022-05-10T23:45:57Z</time>
      </trkpt>
      <trkpt lat="45.04626" lon="4.03865">
        <ele>852.96209716797</ele>
        <time>2022-05-10T23:46:10Z</time>
      </trkpt>
      <trkpt lat="45.0461" lon="4.03874">
        <ele>852.45184326172</ele>
        <time>2022-05-10T23:46:24Z</time>
      </trkpt>
      <trkpt lat="45.04584" lon="4.03892">
        <ele>853.27758789062</ele>
        <time>2022-05-10T23:46:41Z</time>
      </trkpt>
      <trkpt lat="45.04565" lon="4.0391">
        <ele>855.43170166016</ele>
        <time>2022-05-10T23:46:47Z</time>
      </trkpt>
      <trkpt lat="45.0455" lon="4.03922">
        <ele>853.49029541016</ele>
        <time>2022-05-10T23:46:58Z</time>
      </trkpt>
      <trkpt lat="45.04539" lon="4.03926">
        <ele>853.72338867188</ele>
        <time>2022-05-10T23:47:15Z</time>
      </trkpt>
      <trkpt lat="45.04482" lon="4.03944">
        <ele>858.64367675781</ele>
        <time>2022-05-10T23:47:18Z</time>
      </trkpt>
      <trkpt lat="45.04461" lon="4.03955">
        <ele>856.59564208984</ele>
        <time>2022-05-10T23:47:22Z</time>
      </trkpt>
      <trkpt lat="45.04419" lon="4.03975">
        <ele>857.29138183594</ele>
        <time>2022-05-10T23:47:29Z</time>
      </trkpt>
      <trkpt lat="45.04406" lon="4.03983">
        <ele>856.26812744141</ele>
        <time>2022-05-10T23:47:36Z</time>
      </trkpt>
      <trkpt lat="45.04396" lon="4.03985">
        <ele>854.32537841797</ele>
        <time>2022-05-10T23:47:40Z</time>
      </trkpt>
      <trkpt lat="45.04366" lon="4.0399">
        <ele>853.94555664062</ele>
        <time>2022-05-10T23:47:44Z</time>
      </trkpt>
      <trkpt lat="45.04344" lon="4.03993">
        <ele>853.86920166016</ele>
        <time>2022-05-10T23:47:54Z</time>
      </trkpt>
      <trkpt lat="45.04336" lon="4.04">
        <ele>853.94439697266</ele>
        <time>2022-05-10T23:48:04Z</time>
      </trkpt>
      <trkpt lat="45.04316" lon="4.04033">
        <ele>853.31884765625</ele>
        <time>2022-05-10T23:48:21Z</time>
      </trkpt>
      <trkpt lat="45.04293" lon="4.0406">
        <ele>851.23596191406</ele>
        <time>2022-05-10T23:48:29Z</time>
      </trkpt>
      <trkpt lat="45.04269" lon="4.04083">
        <ele>848.3154296875</ele>
        <time>2022-05-10T23:48:41Z</time>
      </trkpt>
      <trkpt lat="45.04253" lon="4.0409">
        <ele>848.13848876953</ele>
        <time>2022-05-10T23:48:54Z</time>
      </trkpt>
      <trkpt lat="45.04238" lon="4.0409">
        <ele>848.9306640625</ele>
        <time>2022-05-10T23:49:00Z</time>
      </trkpt>
      <trkpt lat="45.04218" lon="4.04089">
        <ele>848.17980957031</ele>
        <time>2022-05-10T23:49:02Z</time>
      </trkpt>
      <trkpt lat="45.04209" lon="4.0409">
        <ele>847.52075195312</ele>
        <time>2022-05-10T23:49:16Z</time>
      </trkpt>
      <trkpt lat="45.04204" lon="4.04094">
        <ele>846.76892089844</ele>
        <time>2022-05-10T23:49:35Z</time>
      </trkpt>
      <trkpt lat="45.042" lon="4.04101">
        <ele>845.7646484375</ele>
        <time>2022-05-10T23:49:44Z</time>
      </trkpt>
      <trkpt lat="45.04199" lon="4.04113">
        <ele>844.74078369141</ele>
        <time>2022-05-10T23:49:49Z</time>
      </trkpt>
      <trkpt lat="45.04201" lon="4.04124">
        <ele>843.40051269531</ele>
        <time>2022-05-10T23:49:55Z</time>
      </trkpt>
      <trkpt lat="45.04205" lon="4.04131">
        <ele>841.55554199219</ele>
        <time>2022-05-10T23:50:00Z</time>
      </trkpt>
      <trkpt lat="45.04209" lon="4.04134">
        <ele>840.60748291016</ele>
        <time>2022-05-10T23:50:07Z</time>
      </trkpt>
      <trkpt lat="45.04212" lon="4.04135">
        <ele>840.21490478516</ele>
        <time>2022-05-10T23:50:15Z</time>
      </trkpt>
      <trkpt lat="45.04223" lon="4.04135">
        <ele>839.73260498047</ele>
        <time>2022-05-10T23:50:32Z</time>
      </trkpt>
      <trkpt lat="45.04262" lon="4.04123">
        <ele>840.90319824219</ele>
        <time>2022-05-10T23:50:35Z</time>
      </trkpt>
      <trkpt lat="45.04283" lon="4.04116">
        <ele>841.52954101562</ele>
        <time>2022-05-10T23:50:40Z</time>
      </trkpt>
      <trkpt lat="45.04296" lon="4.04116">
        <ele>841.22009277344</ele>
        <time>2022-05-10T23:50:45Z</time>
      </trkpt>
      <trkpt lat="45.04317" lon="4.04125">
        <ele>838.00531005859</ele>
        <time>2022-05-10T23:50:52Z</time>
      </trkpt>
      <trkpt lat="45.04326" lon="4.04133">
        <ele>836.17926025391</ele>
        <time>2022-05-10T23:50:58Z</time>
      </trkpt>
      <trkpt lat="45.04335" lon="4.04148">
        <ele>836.44689941406</ele>
        <time>2022-05-10T23:51:08Z</time>
      </trkpt>
      <trkpt lat="45.04339" lon="4.04179">
        <ele>833.70208740234</ele>
        <time>2022-05-10T23:51:14Z</time>
      </trkpt>
      <trkpt lat="45.04343" lon="4.04222">
        <ele>832.14337158203</ele>
        <time>2022-05-10T23:51:27Z</time>
      </trkpt>
      <trkpt lat="45.04354" lon="4.04281">
        <ele>827.19995117188</ele>
        <time>2022-05-10T23:51:41Z</time>
      </trkpt>
      <trkpt lat="45.0436" lon="4.04312">
        <ele>823.19201660156</ele>
        <time>2022-05-10T23:51:52Z</time>
      </trkpt>
      <trkpt lat="45.04368" lon="4.04343">
        <ele>819.73638916016</ele>
        <time>2022-05-10T23:51:55Z</time>
      </trkpt>
      <trkpt lat="45.0438" lon="4.04355">
        <ele>819.98400878906</ele>
        <time>2022-05-10T23:52:06Z</time>
      </trkpt>
      <trkpt lat="45.04396" lon="4.04359">
        <ele>821.67126464844</ele>
        <time>2022-05-10T23:52:13Z</time>
      </trkpt>
      <trkpt lat="45.04433" lon="4.04362">
        <ele>822.13818359375</ele>
        <time>2022-05-10T23:52:16Z</time>
      </trkpt>
      <trkpt lat="45.04442" lon="4.04366">
        <ele>821.89495849609</ele>
        <time>2022-05-10T23:52:21Z</time>
      </trkpt>
      <trkpt lat="45.04447" lon="4.04374">
        <ele>821.42218017578</ele>
        <time>2022-05-10T23:52:29Z</time>
      </trkpt>
      <trkpt lat="45.04452" lon="4.04388">
        <ele>821.63562011719</ele>
        <time>2022-05-10T23:52:33Z</time>
      </trkpt>
      <trkpt lat="45.0445" lon="4.04409">
        <ele>819.33148193359</ele>
        <time>2022-05-10T23:52:34Z</time>
      </trkpt>
      <trkpt lat="45.04438" lon="4.04421">
        <ele>818.46044921875</ele>
        <time>2022-05-10T23:52:38Z</time>
      </trkpt>
      <trkpt lat="45.04429" lon="4.04423">
        <ele>818.16918945312</ele>
        <time>2022-05-10T23:52:40Z</time>
      </trkpt>
      <trkpt lat="45.04417" lon="4.04418">
        <ele>816.24987792969</ele>
        <time>2022-05-10T23:52:45Z</time>
      </trkpt>
      <trkpt lat="45.04405" lon="4.04402">
        <ele>814.86145019531</ele>
        <time>2022-05-10T23:52:52Z</time>
      </trkpt>
      <trkpt lat="45.04398" lon="4.04396">
        <ele>814.28930664062</ele>
        <time>2022-05-10T23:52:55Z</time>
      </trkpt>
      <trkpt lat="45.0439" lon="4.04394">
        <ele>813.55474853516</ele>
        <time>2022-05-10T23:53:01Z</time>
      </trkpt>
      <trkpt lat="45.04367" lon="4.04397">
        <ele>811.77227783203</ele>
        <time>2022-05-10T23:53:17Z</time>
      </trkpt>
      <trkpt lat="45.04361" lon="4.04397">
        <ele>810.74957275391</ele>
        <time>2022-05-10T23:53:23Z</time>
      </trkpt>
      <trkpt lat="45.04353" lon="4.04393">
        <ele>809.81018066406</ele>
        <time>2022-05-10T23:53:28Z</time>
      </trkpt>
      <trkpt lat="45.04327" lon="4.04345">
        <ele>809.02886962891</ele>
        <time>2022-05-10T23:53:34Z</time>
      </trkpt>
      <trkpt lat="45.04315" lon="4.04326">
        <ele>808.11358642578</ele>
        <time>2022-05-10T23:53:37Z</time>
      </trkpt>
      <trkpt lat="45.043" lon="4.04323">
        <ele>806.18865966797</ele>
        <time>2022-05-10T23:53:44Z</time>
      </trkpt>
      <trkpt lat="45.04291" lon="4.0433">
        <ele>804.58874511719</ele>
        <time>2022-05-10T23:53:48Z</time>
      </trkpt>
      <trkpt lat="45.04284" lon="4.04346">
        <ele>803.49639892578</ele>
        <time>2022-05-10T23:53:52Z</time>
      </trkpt>
      <trkpt lat="45.04283" lon="4.04356">
        <ele>803.10791015625</ele>
        <time>2022-05-10T23:53:57Z</time>
      </trkpt>
      <trkpt lat="45.04288" lon="4.04375">
        <ele>801.73168945312</ele>
        <time>2022-05-10T23:54:02Z</time>
      </trkpt>
      <trkpt lat="45.04318" lon="4.0441">
        <ele>800.22882080078</ele>
        <time>2022-05-10T23:54:04Z</time>
      </trkpt>
      <trkpt lat="45.04327" lon="4.04429">
        <ele>799.10198974609</ele>
        <time>2022-05-10T23:54:07Z</time>
      </trkpt>
      <trkpt lat="45.04329" lon="4.04449">
        <ele>798.37475585938</ele>
        <time>2022-05-10T23:54:16Z</time>
      </trkpt>
      <trkpt lat="45.04325" lon="4.04472">
        <ele>797.19580078125</ele>
        <time>2022-05-10T23:54:25Z</time>
      </trkpt>
      <trkpt lat="45.043" lon="4.04557">
        <ele>792.53393554688</ele>
        <time>2022-05-10T23:54:35Z</time>
      </trkpt>
      <trkpt lat="45.04296" lon="4.04583">
        <ele>791.01470947266</ele>
        <time>2022-05-10T23:54:40Z</time>
      </trkpt>
      <trkpt lat="45.04295" lon="4.04613">
        <ele>788.95556640625</ele>
        <time>2022-05-10T23:54:43Z</time>
      </trkpt>
      <trkpt lat="45.04292" lon="4.04624">
        <ele>788.22833251953</ele>
        <time>2022-05-10T23:54:50Z</time>
      </trkpt>
      <trkpt lat="45.04287" lon="4.04633">
        <ele>786.97125244141</ele>
        <time>2022-05-10T23:54:50Z</time>
      </trkpt>
      <trkpt lat="45.04247" lon="4.04663">
        <ele>785.86431884766</ele>
        <time>2022-05-10T23:55:08Z</time>
      </trkpt>
      <trkpt lat="45.04214" lon="4.04685">
        <ele>787.85729980469</ele>
        <time>2022-05-10T23:55:15Z</time>
      </trkpt>
      <trkpt lat="45.04196" lon="4.04707">
        <ele>788.32019042969</ele>
        <time>2022-05-10T23:55:17Z</time>
      </trkpt>
      <trkpt lat="45.04167" lon="4.04763">
        <ele>792.11834716797</ele>
        <time>2022-05-10T23:55:19Z</time>
      </trkpt>
      <trkpt lat="45.0416" lon="4.04786">
        <ele>792.90277099609</ele>
        <time>2022-05-10T23:55:21Z</time>
      </trkpt>
      <trkpt lat="45.04151" lon="4.04848">
        <ele>793.9267578125</ele>
        <time>2022-05-10T23:55:24Z</time>
      </trkpt>
      <trkpt lat="45.04141" lon="4.04874">
        <ele>794.87585449219</ele>
        <time>2022-05-10T23:55:26Z</time>
      </trkpt>
      <trkpt lat="45.04111" lon="4.04926">
        <ele>796.41180419922</ele>
        <time>2022-05-10T23:55:29Z</time>
      </trkpt>
      <trkpt lat="45.04106" lon="4.04953">
        <ele>796.46044921875</ele>
        <time>2022-05-10T23:55:33Z</time>
      </trkpt>
      <trkpt lat="45.04103" lon="4.0498">
        <ele>796.68829345703</ele>
        <time>2022-05-10T23:55:40Z</time>
      </trkpt>
      <trkpt lat="45.04107" lon="4.05016">
        <ele>797.17523193359</ele>
        <time>2022-05-10T23:55:43Z</time>
      </trkpt>
      <trkpt lat="45.04104" lon="4.05053">
        <ele>797.57141113281</ele>
        <time>2022-05-10T23:55:46Z</time>
      </trkpt>
      <trkpt lat="45.04084" lon="4.05131">
        <ele>798.88525390625</ele>
        <time>2022-05-10T23:55:55Z</time>
      </trkpt>
      <trkpt lat="45.04077" lon="4.05153">
        <ele>798.74835205078</ele>
        <time>2022-05-10T23:56:00Z</time>
      </trkpt>
      <trkpt lat="45.04056" lon="4.0519">
        <ele>799.59820556641</ele>
        <time>2022-05-10T23:56:16Z</time>
      </trkpt>
      <trkpt lat="45.04039" lon="4.05215">
        <ele>799.82818603516</ele>
        <time>2022-05-10T23:56:34Z</time>
      </trkpt>
      <trkpt lat="45.04025" lon="4.05232">
        <ele>799.93365478516</ele>
        <time>2022-05-10T23:56:43Z</time>
      </trkpt>
      <trkpt lat="45.04001" lon="4.05263">
        <ele>800.58050537109</ele>
        <time>2022-05-10T23:56:46Z</time>
      </trkpt>
      <trkpt lat="45.03967" lon="4.05321">
        <ele>801.82092285156</ele>
        <time>2022-05-10T23:56:48Z</time>
      </trkpt>
      <trkpt lat="45.03934" lon="4.05384">
        <ele>803.15850830078</ele>
        <time>2022-05-10T23:56:50Z</time>
      </trkpt>
      <trkpt lat="45.03906" lon="4.0544">
        <ele>803.72308349609</ele>
        <time>2022-05-10T23:56:55Z</time>
      </trkpt>
      <trkpt lat="45.03887" lon="4.05484">
        <ele>804.74670410156</ele>
        <time>2022-05-10T23:56:57Z</time>
      </trkpt>
      <trkpt lat="45.03869" lon="4.05534">
        <ele>805.82629394531</ele>
        <time>2022-05-10T23:57:00Z</time>
      </trkpt>
      <trkpt lat="45.03843" lon="4.05606">
        <ele>806.88720703125</ele>
        <time>2022-05-10T23:57:05Z</time>
      </trkpt>
      <trkpt lat="45.03824" lon="4.05655">
        <ele>807.77709960938</ele>
        <time>2022-05-10T23:57:11Z</time>
      </trkpt>
      <trkpt lat="45.03801" lon="4.05695">
        <ele>808.91046142578</ele>
        <time>2022-05-10T23:57:16Z</time>
      </trkpt>
      <trkpt lat="45.0372" lon="4.05831">
        <ele>814.32702636719</ele>
        <time>2022-05-10T23:57:20Z</time>
      </trkpt>
      <trkpt lat="45.03706" lon="4.05842">
        <ele>815.78210449219</ele>
        <time>2022-05-10T23:57:23Z</time>
      </trkpt>
      <trkpt lat="45.0369" lon="4.05848">
        <ele>816.69598388672</ele>
        <time>2022-05-10T23:57:26Z</time>
      </trkpt>
      <trkpt lat="45.0365" lon="4.05873">
        <ele>817.33056640625</ele>
        <time>2022-05-10T23:57:31Z</time>
      </trkpt>
      <trkpt lat="45.03649" lon="4.0587">
        <ele>817.24468994141</ele>
        <time>2022-05-10T23:57:33Z</time>
      </trkpt>
      <trkpt lat="45.03647" lon="4.05869">
        <ele>817.328125</ele>
        <time>2022-05-10T23:57:36Z</time>
      </trkpt>
      <trkpt lat="45.03643" lon="4.05867">
        <ele>817.88482666016</ele>
        <time>2022-05-10T23:57:46Z</time>
      </trkpt>
      <trkpt lat="45.03639" lon="4.05869">
        <ele>818.28485107422</ele>
        <time>2022-05-10T23:57:54Z</time>
      </trkpt>
      <trkpt lat="45.03637" lon="4.05873">
        <ele>818.23785400391</ele>
        <time>2022-05-10T23:57:56Z</time>
      </trkpt>
      <trkpt lat="45.03636" lon="4.05878">
        <ele>818.08471679688</ele>
        <time>2022-05-10T23:57:58Z</time>
      </trkpt>
      <trkpt lat="45.03637" lon="4.05884">
        <ele>817.87097167969</ele>
        <time>2022-05-10T23:58:01Z</time>
      </trkpt>
      <trkpt lat="45.0364" lon="4.05887">
        <ele>817.89544677734</ele>
        <time>2022-05-10T23:58:04Z</time>
      </trkpt>
      <trkpt lat="45.03642" lon="4.05888">
        <ele>817.81555175781</ele>
        <time>2022-05-10T23:58:06Z</time>
      </trkpt>
      <trkpt lat="45.03649" lon="4.05917">
        <ele>818.33673095703</ele>
        <time>2022-05-10T23:58:08Z</time>
      </trkpt>
      <trkpt lat="45.03642" lon="4.06051">
        <ele>820.33947753906</ele>
        <time>2022-05-10T23:58:13Z</time>
      </trkpt>
      <trkpt lat="45.03644" lon="4.06075">
        <ele>820.28680419922</ele>
        <time>2022-05-10T23:58:17Z</time>
      </trkpt>
      <trkpt lat="45.03653" lon="4.06099">
        <ele>819.36022949219</ele>
        <time>2022-05-10T23:58:19Z</time>
      </trkpt>
      <trkpt lat="45.03658" lon="4.06114">
        <ele>818.83740234375</ele>
        <time>2022-05-10T23:58:22Z</time>
      </trkpt>
      <trkpt lat="45.03668" lon="4.06129">
        <ele>818.85339355469</ele>
        <time>2022-05-10T23:58:26Z</time>
      </trkpt>
      <trkpt lat="45.03683" lon="4.06139">
        <ele>818.42181396484</ele>
        <time>2022-05-10T23:58:29Z</time>
      </trkpt>
      <trkpt lat="45.03702" lon="4.06146">
        <ele>818.17755126953</ele>
        <time>2022-05-10T23:58:31Z</time>
      </trkpt>
      <trkpt lat="45.03717" lon="4.06146">
        <ele>817.23205566406</ele>
        <time>2022-05-10T23:58:34Z</time>
      </trkpt>
      <trkpt lat="45.03724" lon="4.06174">
        <ele>819.08502197266</ele>
        <time>2022-05-10T23:58:36Z</time>
      </trkpt>
      <trkpt lat="45.03749" lon="4.06236">
        <ele>822.51806640625</ele>
        <time>2022-05-10T23:58:38Z</time>
      </trkpt>
      <trkpt lat="45.03766" lon="4.06287">
        <ele>823.77917480469</ele>
        <time>2022-05-10T23:58:40Z</time>
      </trkpt>
      <trkpt lat="45.03772" lon="4.06345">
        <ele>825.50451660156</ele>
        <time>2022-05-10T23:58:43Z</time>
      </trkpt>
      <trkpt lat="45.03781" lon="4.06475">
        <ele>827.08435058594</ele>
        <time>2022-05-10T23:58:46Z</time>
      </trkpt>
      <trkpt lat="45.03783" lon="4.06517">
        <ele>828.43737792969</ele>
        <time>2022-05-10T23:58:51Z</time>
      </trkpt>
      <trkpt lat="45.03779" lon="4.06573">
        <ele>830.09777832031</ele>
        <time>2022-05-10T23:58:54Z</time>
      </trkpt>
      <trkpt lat="45.03779" lon="4.06605">
        <ele>831.57855224609</ele>
        <time>2022-05-10T23:59:00Z</time>
      </trkpt>
      <trkpt lat="45.03776" lon="4.0663">
        <ele>832.69549560547</ele>
        <time>2022-05-10T23:59:02Z</time>
      </trkpt>
      <trkpt lat="45.03774" lon="4.06635">
        <ele>833.18426513672</ele>
        <time>2022-05-10T23:59:03Z</time>
      </trkpt>
      <trkpt lat="45.03787" lon="4.06652">
        <ele>833.44244384766</ele>
        <time>2022-05-10T23:59:05Z</time>
      </trkpt>
      <trkpt lat="45.03803" lon="4.06673">
        <ele>833.58349609375</ele>
        <time>2022-05-10T23:59:08Z</time>
      </trkpt>
      <trkpt lat="45.03835" lon="4.06718">
        <ele>832.51947021484</ele>
        <time>2022-05-10T23:59:13Z</time>
      </trkpt>
      <trkpt lat="45.03843" lon="4.06738">
        <ele>832.26696777344</ele>
        <time>2022-05-10T23:59:22Z</time>
      </trkpt>
      <trkpt lat="45.03853" lon="4.06804">
        <ele>833.52661132812</ele>
        <time>2022-05-10T23:59:24Z</time>
      </trkpt>
      <trkpt lat="45.03861" lon="4.06854">
        <ele>834.38244628906</ele>
        <time>2022-05-10T23:59:26Z</time>
      </trkpt>
      <trkpt lat="45.03868" lon="4.06897">
        <ele>834.19403076172</ele>
        <time>2022-05-10T23:59:27Z</time>
      </trkpt>
      <trkpt lat="45.03885" lon="4.06953">
        <ele>833.98376464844</ele>
        <time>2022-05-10T23:59:33Z</time>
      </trkpt>
      <trkpt lat="45.03902" lon="4.06984">
        <ele>834.16687011719</ele>
        <time>2022-05-10T23:59:36Z</time>
      </trkpt>
      <trkpt lat="45.03911" lon="4.06992">
        <ele>834.66180419922</ele>
        <time>2022-05-10T23:59:38Z</time>
      </trkpt>
      <trkpt lat="45.03925" lon="4.07004">
        <ele>835.79193115234</ele>
        <time>2022-05-10T23:59:41Z</time>
      </trkpt>
      <trkpt lat="45.03932" lon="4.07014">
        <ele>836.46362304688</ele>
        <time>2022-05-10T23:59:46Z</time>
      </trkpt>
      <trkpt lat="45.03945" lon="4.07054">
        <ele>838.44488525391</ele>
        <time>2022-05-10T23:59:51Z</time>
      </trkpt>
      <trkpt lat="45.03958" lon="4.0712">
        <ele>842.740234375</ele>
        <time>2022-05-10T23:59:55Z</time>
      </trkpt>
      <trkpt lat="45.03968" lon="4.0719">
        <ele>845.77655029297</ele>
        <time>2022-05-10T23:59:58Z</time>
      </trkpt>
      <trkpt lat="45.03975" lon="4.073">
        <ele>852.32989501953</ele>
        <time>2022-05-11T00:00:01Z</time>
      </trkpt>
      <trkpt lat="45.03983" lon="4.07415">
        <ele>858.43127441406</ele>
        <time>2022-05-11T00:00:06Z</time>
      </trkpt>
      <trkpt lat="45.0398" lon="4.07464">
        <ele>861.61785888672</ele>
        <time>2022-05-11T00:00:13Z</time>
      </trkpt>
      <trkpt lat="45.03974" lon="4.07489">
        <ele>863.02764892578</ele>
        <time>2022-05-11T00:00:16Z</time>
      </trkpt>
      <trkpt lat="45.03969" lon="4.07508">
        <ele>864.06976318359</ele>
        <time>2022-05-11T00:00:20Z</time>
      </trkpt>
      <trkpt lat="45.03943" lon="4.07575">
        <ele>868.60559082031</ele>
        <time>2022-05-11T00:00:30Z</time>
      </trkpt>
      <trkpt lat="45.03921" lon="4.07631">
        <ele>871.92468261719</ele>
        <time>2022-05-11T00:00:35Z</time>
      </trkpt>
      <trkpt lat="45.03913" lon="4.07647">
        <ele>872.31463623047</ele>
        <time>2022-05-11T00:00:40Z</time>
      </trkpt>
      <trkpt lat="45.03888" lon="4.07686">
        <ele>874.71575927734</ele>
        <time>2022-05-11T00:00:49Z</time>
      </trkpt>
      <trkpt lat="45.03868" lon="4.07722">
        <ele>877.48767089844</ele>
        <time>2022-05-11T00:00:52Z</time>
      </trkpt>
      <trkpt lat="45.03864" lon="4.07751">
        <ele>879.11315917969</ele>
        <time>2022-05-11T00:00:55Z</time>
      </trkpt>
      <trkpt lat="45.03865" lon="4.07811">
        <ele>882.40570068359</ele>
        <time>2022-05-11T00:00:58Z</time>
      </trkpt>
      <trkpt lat="45.03863" lon="4.07829">
        <ele>883.77661132812</ele>
        <time>2022-05-11T00:01:01Z</time>
      </trkpt>
      <trkpt lat="45.03855" lon="4.07845">
        <ele>884.60980224609</ele>
        <time>2022-05-11T00:01:04Z</time>
      </trkpt>
      <trkpt lat="45.03835" lon="4.07868">
        <ele>886.72601318359</ele>
        <time>2022-05-11T00:01:10Z</time>
      </trkpt>
      <trkpt lat="45.03829" lon="4.07881">
        <ele>887.72448730469</ele>
        <time>2022-05-11T00:01:14Z</time>
      </trkpt>
      <trkpt lat="45.03824" lon="4.07928">
        <ele>891.14532470703</ele>
        <time>2022-05-11T00:01:17Z</time>
      </trkpt>
      <trkpt lat="45.03821" lon="4.0797">
        <ele>893.24108886719</ele>
        <time>2022-05-11T00:01:21Z</time>
      </trkpt>
      <trkpt lat="45.03817" lon="4.07984">
        <ele>894.38391113281</ele>
        <time>2022-05-11T00:01:24Z</time>
      </trkpt>
      <trkpt lat="45.03811" lon="4.07995">
        <ele>896.15618896484</ele>
        <time>2022-05-11T00:01:26Z</time>
      </trkpt>
      <trkpt lat="45.03801" lon="4.08006">
        <ele>897.77252197266</ele>
        <time>2022-05-11T00:01:27Z</time>
      </trkpt>
      <trkpt lat="45.03789" lon="4.08012">
        <ele>898.08801269531</ele>
        <time>2022-05-11T00:01:29Z</time>
      </trkpt>
      <trkpt lat="45.03777" lon="4.08022">
        <ele>897.65118408203</ele>
        <time>2022-05-11T00:01:33Z</time>
      </trkpt>
      <trkpt lat="45.03767" lon="4.08032">
        <ele>898.23388671875</ele>
        <time>2022-05-11T00:01:40Z</time>
      </trkpt>
      <trkpt lat="45.03755" lon="4.08052">
        <ele>899.95349121094</ele>
        <time>2022-05-11T00:01:43Z</time>
      </trkpt>
      <trkpt lat="45.03746" lon="4.08074">
        <ele>901.92456054688</ele>
        <time>2022-05-11T00:01:46Z</time>
      </trkpt>
      <trkpt lat="45.03732" lon="4.08118">
        <ele>906.96948242188</ele>
        <time>2022-05-11T00:01:48Z</time>
      </trkpt>
      <trkpt lat="45.03724" lon="4.08129">
        <ele>908.45831298828</ele>
        <time>2022-05-11T00:01:55Z</time>
      </trkpt>
      <trkpt lat="45.0371" lon="4.08137">
        <ele>912.61981201172</ele>
        <time>2022-05-11T00:01:57Z</time>
      </trkpt>
      <trkpt lat="45.03688" lon="4.08143">
        <ele>912.67053222656</ele>
        <time>2022-05-11T00:01:59Z</time>
      </trkpt>
      <trkpt lat="45.03665" lon="4.08145">
        <ele>909.18328857422</ele>
        <time>2022-05-11T00:02:09Z</time>
      </trkpt>
      <trkpt lat="45.03648" lon="4.08159">
        <ele>910.73962402344</ele>
        <time>2022-05-11T00:02:17Z</time>
      </trkpt>
      <trkpt lat="45.03629" lon="4.08186">
        <ele>913.2802734375</ele>
        <time>2022-05-11T00:02:25Z</time>
      </trkpt>
      <trkpt lat="45.03614" lon="4.08198">
        <ele>914.38018798828</ele>
        <time>2022-05-11T00:02:32Z</time>
      </trkpt>
      <trkpt lat="45.03599" lon="4.08206">
        <ele>914.87066650391</ele>
        <time>2022-05-11T00:02:34Z</time>
      </trkpt>
      <trkpt lat="45.03585" lon="4.08217">
        <ele>915.88421630859</ele>
        <time>2022-05-11T00:02:38Z</time>
      </trkpt>
      <trkpt lat="45.03562" lon="4.08248">
        <ele>919.24798583984</ele>
        <time>2022-05-11T00:02:44Z</time>
      </trkpt>
      <trkpt lat="45.03551" lon="4.08273">
        <ele>920.84613037109</ele>
        <time>2022-05-11T00:02:47Z</time>
      </trkpt>
      <trkpt lat="45.0355" lon="4.08287">
        <ele>921.94653320312</ele>
        <time>2022-05-11T00:02:49Z</time>
      </trkpt>
      <trkpt lat="45.03551" lon="4.08303">
        <ele>922.50103759766</ele>
        <time>2022-05-11T00:02:55Z</time>
      </trkpt>
      <trkpt lat="45.03559" lon="4.08319">
        <ele>923.57995605469</ele>
        <time>2022-05-11T00:02:59Z</time>
      </trkpt>
      <trkpt lat="45.03574" lon="4.08339">
        <ele>924.51873779297</ele>
        <time>2022-05-11T00:03:03Z</time>
      </trkpt>
      <trkpt lat="45.03609" lon="4.08388">
        <ele>928.21844482422</ele>
        <time>2022-05-11T00:03:06Z</time>
      </trkpt>
      <trkpt lat="45.03628" lon="4.08417">
        <ele>930.72674560547</ele>
        <time>2022-05-11T00:03:10Z</time>
      </trkpt>
      <trkpt lat="45.03654" lon="4.08448">
        <ele>933.21087646484</ele>
        <time>2022-05-11T00:03:13Z</time>
      </trkpt>
      <trkpt lat="45.03695" lon="4.08498">
        <ele>938.71417236328</ele>
        <time>2022-05-11T00:03:17Z</time>
      </trkpt>
      <trkpt lat="45.03726" lon="4.08538">
        <ele>942.00128173828</ele>
        <time>2022-05-11T00:03:20Z</time>
      </trkpt>
      <trkpt lat="45.03739" lon="4.08563">
        <ele>943.72583007812</ele>
        <time>2022-05-11T00:03:23Z</time>
      </trkpt>
      <trkpt lat="45.03749" lon="4.08589">
        <ele>944.88873291016</ele>
        <time>2022-05-11T00:03:28Z</time>
      </trkpt>
      <trkpt lat="45.03755" lon="4.08605">
        <ele>945.521484375</ele>
        <time>2022-05-11T00:03:30Z</time>
      </trkpt>
      <trkpt lat="45.03764" lon="4.08619">
        <ele>946.55444335938</ele>
        <time>2022-05-11T00:03:33Z</time>
      </trkpt>
      <trkpt lat="45.03783" lon="4.08641">
        <ele>948.82946777344</ele>
        <time>2022-05-11T00:03:37Z</time>
      </trkpt>
      <trkpt lat="45.03809" lon="4.08673">
        <ele>949.70526123047</ele>
        <time>2022-05-11T00:03:39Z</time>
      </trkpt>
      <trkpt lat="45.03832" lon="4.08717">
        <ele>950.65240478516</ele>
        <time>2022-05-11T00:03:46Z</time>
      </trkpt>
      <trkpt lat="45.03841" lon="4.08759">
        <ele>951.45971679688</ele>
        <time>2022-05-11T00:03:49Z</time>
      </trkpt>
      <trkpt lat="45.03845" lon="4.08799">
        <ele>953.06231689453</ele>
        <time>2022-05-11T00:03:56Z</time>
      </trkpt>
      <trkpt lat="45.03857" lon="4.08842">
        <ele>955.84790039062</ele>
        <time>2022-05-11T00:04:01Z</time>
      </trkpt>
      <trkpt lat="45.03883" lon="4.08906">
        <ele>959.52685546875</ele>
        <time>2022-05-11T00:04:09Z</time>
      </trkpt>
      <trkpt lat="45.0389" lon="4.08936">
        <ele>960.63098144531</ele>
        <time>2022-05-11T00:04:14Z</time>
      </trkpt>
      <trkpt lat="45.03915" lon="4.09009">
        <ele>961.98455810547</ele>
        <time>2022-05-11T00:04:19Z</time>
      </trkpt>
      <trkpt lat="45.03922" lon="4.09023">
        <ele>962.23516845703</ele>
        <time>2022-05-11T00:04:22Z</time>
      </trkpt>
      <trkpt lat="45.0395" lon="4.09059">
        <ele>963.70727539062</ele>
        <time>2022-05-11T00:04:27Z</time>
      </trkpt>
      <trkpt lat="45.03976" lon="4.09091">
        <ele>967.10241699219</ele>
        <time>2022-05-11T00:04:29Z</time>
      </trkpt>
      <trkpt lat="45.04001" lon="4.09118">
        <ele>968.78192138672</ele>
        <time>2022-05-11T00:04:33Z</time>
      </trkpt>
      <trkpt lat="45.0401" lon="4.09121">
        <ele>969.68054199219</ele>
        <time>2022-05-11T00:04:34Z</time>
      </trkpt>
      <trkpt lat="45.04046" lon="4.09113">
        <ele>970.51422119141</ele>
        <time>2022-05-11T00:04:36Z</time>
      </trkpt>
      <trkpt lat="45.04054" lon="4.09111">
        <ele>971.49658203125</ele>
        <time>2022-05-11T00:04:38Z</time>
      </trkpt>
      <trkpt lat="45.04085" lon="4.0909">
        <ele>972.96478271484</ele>
        <time>2022-05-11T00:04:40Z</time>
      </trkpt>
      <trkpt lat="45.04145" lon="4.09044">
        <ele>977.55926513672</ele>
        <time>2022-05-11T00:04:43Z</time>
      </trkpt>
      <trkpt lat="45.04172" lon="4.09024">
        <ele>980.53826904297</ele>
        <time>2022-05-11T00:04:48Z</time>
      </trkpt>
      <trkpt lat="45.04181" lon="4.09021">
        <ele>981.19427490234</ele>
        <time>2022-05-11T00:04:57Z</time>
      </trkpt>
      <trkpt lat="45.04191" lon="4.0902">
        <ele>982.07879638672</ele>
        <time>2022-05-11T00:05:03Z</time>
      </trkpt>
      <trkpt lat="45.04215" lon="4.09021">
        <ele>984.15075683594</ele>
        <time>2022-05-11T00:05:06Z</time>
      </trkpt>
      <trkpt lat="45.04268" lon="4.09027">
        <ele>988.30975341797</ele>
        <time>2022-05-11T00:05:08Z</time>
      </trkpt>
      <trkpt lat="45.04306" lon="4.09025">
        <ele>990.24237060547</ele>
        <time>2022-05-11T00:05:12Z</time>
      </trkpt>
      <trkpt lat="45.04323" lon="4.09023">
        <ele>991.34405517578</ele>
        <time>2022-05-11T00:05:17Z</time>
      </trkpt>
      <trkpt lat="45.04342" lon="4.09026">
        <ele>992.33929443359</ele>
        <time>2022-05-11T00:05:18Z</time>
      </trkpt>
      <trkpt lat="45.04378" lon="4.09035">
        <ele>995.44177246094</ele>
        <time>2022-05-11T00:05:21Z</time>
      </trkpt>
      <trkpt lat="45.04395" lon="4.09039">
        <ele>996.49914550781</ele>
        <time>2022-05-11T00:05:24Z</time>
      </trkpt>
      <trkpt lat="45.0443" lon="4.09051">
        <ele>999.81127929688</ele>
        <time>2022-05-11T00:05:27Z</time>
      </trkpt>
      <trkpt lat="45.04447" lon="4.0906">
        <ele>1000.3325195312</ele>
        <time>2022-05-11T00:05:30Z</time>
      </trkpt>
      <trkpt lat="45.04463" lon="4.09074">
        <ele>1002.5719604492</ele>
        <time>2022-05-11T00:05:36Z</time>
      </trkpt>
      <trkpt lat="45.04499" lon="4.0911">
        <ele>1006.5327148438</ele>
        <time>2022-05-11T00:05:40Z</time>
      </trkpt>
      <trkpt lat="45.04508" lon="4.09126">
        <ele>1008.2329711914</ele>
        <time>2022-05-11T00:05:45Z</time>
      </trkpt>
      <trkpt lat="45.0452" lon="4.09146">
        <ele>1009.6807250977</ele>
        <time>2022-05-11T00:05:49Z</time>
      </trkpt>
      <trkpt lat="45.04527" lon="4.09151">
        <ele>1010.266784668</ele>
        <time>2022-05-11T00:05:54Z</time>
      </trkpt>
      <trkpt lat="45.0454" lon="4.09154">
        <ele>1009.4821777344</ele>
        <time>2022-05-11T00:05:58Z</time>
      </trkpt>
      <trkpt lat="45.04573" lon="4.09164">
        <ele>1011.9946289062</ele>
        <time>2022-05-11T00:06:03Z</time>
      </trkpt>
      <trkpt lat="45.04592" lon="4.09174">
        <ele>1011.8984375</ele>
        <time>2022-05-11T00:06:09Z</time>
      </trkpt>
      <trkpt lat="45.04628" lon="4.09198">
        <ele>1010.9652709961</ele>
        <time>2022-05-11T00:06:13Z</time>
      </trkpt>
      <trkpt lat="45.0465" lon="4.0921">
        <ele>1009.4356079102</ele>
        <time>2022-05-11T00:06:18Z</time>
      </trkpt>
      <trkpt lat="45.04667" lon="4.09218">
        <ele>1009.4102783203</ele>
        <time>2022-05-11T00:06:22Z</time>
      </trkpt>
      <trkpt lat="45.04692" lon="4.09231">
        <ele>1009.9696655273</ele>
        <time>2022-05-11T00:06:24Z</time>
      </trkpt>
      <trkpt lat="45.04703" lon="4.09238">
        <ele>1010.8787231445</ele>
        <time>2022-05-11T00:06:27Z</time>
      </trkpt>
      <trkpt lat="45.04724" lon="4.09248">
        <ele>1013.9432373047</ele>
        <time>2022-05-11T00:06:29Z</time>
      </trkpt>
      <trkpt lat="45.04736" lon="4.09251">
        <ele>1015.2168579102</ele>
        <time>2022-05-11T00:06:30Z</time>
      </trkpt>
      <trkpt lat="45.04768" lon="4.09259">
        <ele>1018.9288330078</ele>
        <time>2022-05-11T00:06:34Z</time>
      </trkpt>
      <trkpt lat="45.04787" lon="4.09271">
        <ele>1019.7340698242</ele>
        <time>2022-05-11T00:06:38Z</time>
      </trkpt>
      <trkpt lat="45.04813" lon="4.09295">
        <ele>1021.8845214844</ele>
        <time>2022-05-11T00:06:48Z</time>
      </trkpt>
      <trkpt lat="45.04826" lon="4.0931">
        <ele>1023.0969848633</ele>
        <time>2022-05-11T00:06:59Z</time>
      </trkpt>
      <trkpt lat="45.04874" lon="4.0936">
        <ele>1026.4510498047</ele>
        <time>2022-05-11T00:07:06Z</time>
      </trkpt>
      <trkpt lat="45.04906" lon="4.09391">
        <ele>1029.3851318359</ele>
        <time>2022-05-11T00:07:13Z</time>
      </trkpt>
      <trkpt lat="45.04934" lon="4.09417">
        <ele>1033.6176757812</ele>
        <time>2022-05-11T00:07:30Z</time>
      </trkpt>
      <trkpt lat="45.04956" lon="4.09429">
        <ele>1034.0101318359</ele>
        <time>2022-05-11T00:07:36Z</time>
      </trkpt>
      <trkpt lat="45.04977" lon="4.09437">
        <ele>1035.1251220703</ele>
        <time>2022-05-11T00:07:51Z</time>
      </trkpt>
      <trkpt lat="45.0499" lon="4.09442">
        <ele>1036.0230712891</ele>
        <time>2022-05-11T00:08:04Z</time>
      </trkpt>
      <trkpt lat="45.04998" lon="4.09448">
        <ele>1037.1390380859</ele>
        <time>2022-05-11T00:08:16Z</time>
      </trkpt>
      <trkpt lat="45.05015" lon="4.09462">
        <ele>1037.6302490234</ele>
        <time>2022-05-11T00:08:22Z</time>
      </trkpt>
      <trkpt lat="45.05037" lon="4.09487">
        <ele>1036.8894042969</ele>
        <time>2022-05-11T00:08:28Z</time>
      </trkpt>
      <trkpt lat="45.05076" lon="4.09552">
        <ele>1032.8079833984</ele>
        <time>2022-05-11T00:08:30Z</time>
      </trkpt>
      <trkpt lat="45.05087" lon="4.09572">
        <ele>1032.5322265625</ele>
        <time>2022-05-11T00:08:34Z</time>
      </trkpt>
      <trkpt lat="45.05104" lon="4.09617">
        <ele>1038.0698242188</ele>
        <time>2022-05-11T00:08:37Z</time>
      </trkpt>
      <trkpt lat="45.05126" lon="4.09686">
        <ele>1041.2885742188</ele>
        <time>2022-05-11T00:08:39Z</time>
      </trkpt>
      <trkpt lat="45.05135" lon="4.09736">
        <ele>1038.6961669922</ele>
        <time>2022-05-11T00:08:41Z</time>
      </trkpt>
      <trkpt lat="45.05141" lon="4.09786">
        <ele>1042.7565917969</ele>
        <time>2022-05-11T00:08:44Z</time>
      </trkpt>
      <trkpt lat="45.05142" lon="4.09811">
        <ele>1043.3009033203</ele>
        <time>2022-05-11T00:08:47Z</time>
      </trkpt>
      <trkpt lat="45.05142" lon="4.09844">
        <ele>1040.4758300781</ele>
        <time>2022-05-11T00:08:57Z</time>
      </trkpt>
      <trkpt lat="45.05139" lon="4.09887">
        <ele>1045.0363769531</ele>
        <time>2022-05-11T00:09:10Z</time>
      </trkpt>
      <trkpt lat="45.0514" lon="4.09913">
        <ele>1043.7376708984</ele>
        <time>2022-05-11T00:09:18Z</time>
      </trkpt>
      <trkpt lat="45.05141" lon="4.09964">
        <ele>1043.1274414062</ele>
        <time>2022-05-11T00:09:23Z</time>
      </trkpt>
      <trkpt lat="45.05131" lon="4.10043">
        <ele>1041.5343017578</ele>
        <time>2022-05-11T00:09:30Z</time>
      </trkpt>
      <trkpt lat="45.05123" lon="4.10088">
        <ele>1039.7359619141</ele>
        <time>2022-05-11T00:09:35Z</time>
      </trkpt>
      <trkpt lat="45.05115" lon="4.10116">
        <ele>1038.9162597656</ele>
        <time>2022-05-11T00:09:40Z</time>
      </trkpt>
      <trkpt lat="45.05089" lon="4.10166">
        <ele>1038.2738037109</ele>
        <time>2022-05-11T00:09:45Z</time>
      </trkpt>
      <trkpt lat="45.05041" lon="4.10258">
        <ele>1038.6278076172</ele>
        <time>2022-05-11T00:09:50Z</time>
      </trkpt>
      <trkpt lat="45.05012" lon="4.10319">
        <ele>1039.6968994141</ele>
        <time>2022-05-11T00:09:54Z</time>
      </trkpt>
      <trkpt lat="45.04989" lon="4.10362">
        <ele>1039.0563964844</ele>
        <time>2022-05-11T00:10:02Z</time>
      </trkpt>
      <trkpt lat="45.04969" lon="4.10388">
        <ele>1041.3709716797</ele>
        <time>2022-05-11T00:10:09Z</time>
      </trkpt>
      <trkpt lat="45.04936" lon="4.10427">
        <ele>1044.9244384766</ele>
        <time>2022-05-11T00:10:13Z</time>
      </trkpt>
      <trkpt lat="45.04926" lon="4.10447">
        <ele>1049.4276123047</ele>
        <time>2022-05-11T00:10:17Z</time>
      </trkpt>
      <trkpt lat="45.04926" lon="4.10467">
        <ele>1049.7419433594</ele>
        <time>2022-05-11T00:10:21Z</time>
      </trkpt>
      <trkpt lat="45.04931" lon="4.10504">
        <ele>1048.9019775391</ele>
        <time>2022-05-11T00:10:30Z</time>
      </trkpt>
      <trkpt lat="45.04935" lon="4.10534">
        <ele>1046.1929931641</ele>
        <time>2022-05-11T00:10:33Z</time>
      </trkpt>
      <trkpt lat="45.04938" lon="4.10546">
        <ele>1046.5087890625</ele>
        <time>2022-05-11T00:10:38Z</time>
      </trkpt>
      <trkpt lat="45.04945" lon="4.10557">
        <ele>1047.0145263672</ele>
        <time>2022-05-11T00:10:48Z</time>
      </trkpt>
      <trkpt lat="45.04971" lon="4.10577">
        <ele>1048.275390625</ele>
        <time>2022-05-11T00:11:01Z</time>
      </trkpt>
      <trkpt lat="45.04986" lon="4.10585">
        <ele>1048.0219726562</ele>
        <time>2022-05-11T00:11:04Z</time>
      </trkpt>
      <trkpt lat="45.05036" lon="4.106">
        <ele>1048.3796386719</ele>
        <time>2022-05-11T00:11:14Z</time>
      </trkpt>
      <trkpt lat="45.05094" lon="4.10616">
        <ele>1050.4320068359</ele>
        <time>2022-05-11T00:11:18Z</time>
      </trkpt>
      <trkpt lat="45.05127" lon="4.10631">
        <ele>1052.5451660156</ele>
        <time>2022-05-11T00:11:24Z</time>
      </trkpt>
      <trkpt lat="45.05186" lon="4.10663">
        <ele>1052.6839599609</ele>
        <time>2022-05-11T00:11:30Z</time>
      </trkpt>
      <trkpt lat="45.05266" lon="4.10712">
        <ele>1050.8211669922</ele>
        <time>2022-05-11T00:11:39Z</time>
      </trkpt>
      <trkpt lat="45.0528" lon="4.10725">
        <ele>1050.1043701172</ele>
        <time>2022-05-11T00:11:44Z</time>
      </trkpt>
      <trkpt lat="45.05295" lon="4.10752">
        <ele>1048.4227294922</ele>
        <time>2022-05-11T00:11:47Z</time>
      </trkpt>
      <trkpt lat="45.05336" lon="4.10832">
        <ele>1045.4123535156</ele>
        <time>2022-05-11T00:11:47Z</time>
      </trkpt>
      <trkpt lat="45.05367" lon="4.10881">
        <ele>1044.0452880859</ele>
        <time>2022-05-11T00:11:53Z</time>
      </trkpt>
      <trkpt lat="45.05373" lon="4.10894">
        <ele>1043.8889160156</ele>
        <time>2022-05-11T00:11:58Z</time>
      </trkpt>
      <trkpt lat="45.05382" lon="4.10925">
        <ele>1043.3422851562</ele>
        <time>2022-05-11T00:12:02Z</time>
      </trkpt>
      <trkpt lat="45.05389" lon="4.10949">
        <ele>1042.8326416016</ele>
        <time>2022-05-11T00:12:05Z</time>
      </trkpt>
      <trkpt lat="45.05396" lon="4.1096">
        <ele>1042.6577148438</ele>
        <time>2022-05-11T00:12:08Z</time>
      </trkpt>
      <trkpt lat="45.05402" lon="4.10965">
        <ele>1042.8637695312</ele>
        <time>2022-05-11T00:12:18Z</time>
      </trkpt>
      <trkpt lat="45.05408" lon="4.10968">
        <ele>1043.6159667969</ele>
        <time>2022-05-11T00:12:23Z</time>
      </trkpt>
      <trkpt lat="45.05415" lon="4.10968">
        <ele>1044.8098144531</ele>
        <time>2022-05-11T00:12:32Z</time>
      </trkpt>
      <trkpt lat="45.05432" lon="4.10952">
        <ele>1044.1284179688</ele>
        <time>2022-05-11T00:12:42Z</time>
      </trkpt>
      <trkpt lat="45.05445" lon="4.10935">
        <ele>1045.0037841797</ele>
        <time>2022-05-11T00:12:52Z</time>
      </trkpt>
      <trkpt lat="45.05455" lon="4.10927">
        <ele>1046.0032958984</ele>
        <time>2022-05-11T00:13:05Z</time>
      </trkpt>
      <trkpt lat="45.05473" lon="4.10922">
        <ele>1048.19921875</ele>
        <time>2022-05-11T00:13:18Z</time>
      </trkpt>
      <trkpt lat="45.05486" lon="4.10919">
        <ele>1049.2322998047</ele>
        <time>2022-05-11T00:13:36Z</time>
      </trkpt>
      <trkpt lat="45.05499" lon="4.10912">
        <ele>1050.2796630859</ele>
        <time>2022-05-11T00:13:48Z</time>
      </trkpt>
      <trkpt lat="45.05522" lon="4.10894">
        <ele>1051.7783203125</ele>
        <time>2022-05-11T00:13:55Z</time>
      </trkpt>
      <trkpt lat="45.05537" lon="4.1088">
        <ele>1052.0180664062</ele>
        <time>2022-05-11T00:14:10Z</time>
      </trkpt>
      <trkpt lat="45.05597" lon="4.10799">
        <ele>1052.8889160156</ele>
        <time>2022-05-11T00:14:24Z</time>
      </trkpt>
      <trkpt lat="45.0561" lon="4.10784">
        <ele>1052.6286621094</ele>
        <time>2022-05-11T00:14:38Z</time>
      </trkpt>
      <trkpt lat="45.05618" lon="4.1078">
        <ele>1052.9246826172</ele>
        <time>2022-05-11T00:14:49Z</time>
      </trkpt>
      <trkpt lat="45.05646" lon="4.10782">
        <ele>1054.177734375</ele>
        <time>2022-05-11T00:14:57Z</time>
      </trkpt>
      <trkpt lat="45.057" lon="4.10784">
        <ele>1058.3853759766</ele>
        <time>2022-05-11T00:15:04Z</time>
      </trkpt>
      <trkpt lat="45.05735" lon="4.10781">
        <ele>1059.3200683594</ele>
        <time>2022-05-11T00:15:20Z</time>
      </trkpt>
      <trkpt lat="45.0587" lon="4.10765">
        <ele>1063.5087890625</ele>
        <time>2022-05-11T00:15:31Z</time>
      </trkpt>
      <trkpt lat="45.05929" lon="4.10762">
        <ele>1064.1373291016</ele>
        <time>2022-05-11T00:15:53Z</time>
      </trkpt>
      <trkpt lat="45.05953" lon="4.10762">
        <ele>1064.8209228516</ele>
        <time>2022-05-11T00:15:59Z</time>
      </trkpt>
      <trkpt lat="45.05997" lon="4.10768">
        <ele>1065.5366210938</ele>
        <time>2022-05-11T00:16:08Z</time>
      </trkpt>
      <trkpt lat="45.06023" lon="4.1078">
        <ele>1065.234375</ele>
        <time>2022-05-11T00:16:16Z</time>
      </trkpt>
      <trkpt lat="45.06034" lon="4.10787">
        <ele>1065.3526611328</ele>
        <time>2022-05-11T00:16:31Z</time>
      </trkpt>
      <trkpt lat="45.0607" lon="4.10825">
        <ele>1066.8981933594</ele>
        <time>2022-05-11T00:16:56Z</time>
      </trkpt>
      <trkpt lat="45.06121" lon="4.10877">
        <ele>1068.4705810547</ele>
        <time>2022-05-11T00:17:15Z</time>
      </trkpt>
      <trkpt lat="45.06157" lon="4.10915">
        <ele>1069.443359375</ele>
        <time>2022-05-11T00:17:21Z</time>
      </trkpt>
      <trkpt lat="45.06179" lon="4.10943">
        <ele>1070.8547363281</ele>
        <time>2022-05-11T00:17:44Z</time>
      </trkpt>
      <trkpt lat="45.06204" lon="4.10998">
        <ele>1072.6325683594</ele>
        <time>2022-05-11T00:17:54Z</time>
      </trkpt>
      <trkpt lat="45.06215" lon="4.1102">
        <ele>1073.4814453125</ele>
        <time>2022-05-11T00:18:01Z</time>
      </trkpt>
      <trkpt lat="45.06232" lon="4.11047">
        <ele>1073.6776123047</ele>
        <time>2022-05-11T00:18:24Z</time>
      </trkpt>
      <trkpt lat="45.06243" lon="4.1106">
        <ele>1072.9543457031</ele>
        <time>2022-05-11T00:18:46Z</time>
      </trkpt>
      <trkpt lat="45.06259" lon="4.11075">
        <ele>1072.3253173828</ele>
        <time>2022-05-11T00:19:00Z</time>
      </trkpt>
      <trkpt lat="45.06272" lon="4.11082">
        <ele>1071.8312988281</ele>
        <time>2022-05-11T00:19:29Z</time>
      </trkpt>
      <trkpt lat="45.06286" lon="4.11085">
        <ele>1071.8981933594</ele>
        <time>2022-05-11T00:19:42Z</time>
      </trkpt>
      <trkpt lat="45.06301" lon="4.11084">
        <ele>1073.7346191406</ele>
        <time>2022-05-11T00:19:52Z</time>
      </trkpt>
      <trkpt lat="45.06311" lon="4.11079">
        <ele>1073.3374023438</ele>
        <time>2022-05-11T00:19:59Z</time>
      </trkpt>
      <trkpt lat="45.06336" lon="4.11049">
        <ele>1077.1090087891</ele>
        <time>2022-05-11T00:20:03Z</time>
      </trkpt>
      <trkpt lat="45.06372" lon="4.11007">
        <ele>1078.3891601562</ele>
        <time>2022-05-11T00:20:07Z</time>
      </trkpt>
      <trkpt lat="45.06405" lon="4.10966">
        <ele>1080.4174804688</ele>
        <time>2022-05-11T00:20:09Z</time>
      </trkpt>
      <trkpt lat="45.06442" lon="4.10912">
        <ele>1084.9871826172</ele>
        <time>2022-05-11T00:20:13Z</time>
      </trkpt>
      <trkpt lat="45.06484" lon="4.10847">
        <ele>1088.0838623047</ele>
        <time>2022-05-11T00:20:33Z</time>
      </trkpt>
      <trkpt lat="45.06509" lon="4.10809">
        <ele>1091.8068847656</ele>
        <time>2022-05-11T00:20:44Z</time>
      </trkpt>
      <trkpt lat="45.0652" lon="4.1079">
        <ele>1093.1831054688</ele>
        <time>2022-05-11T00:20:54Z</time>
      </trkpt>
      <trkpt lat="45.06528" lon="4.10767">
        <ele>1095.4399414062</ele>
        <time>2022-05-11T00:21:08Z</time>
      </trkpt>
      <trkpt lat="45.06545" lon="4.10695">
        <ele>1101.6212158203</ele>
        <time>2022-05-11T00:21:21Z</time>
      </trkpt>
      <trkpt lat="45.06557" lon="4.10636">
        <ele>1104.8631591797</ele>
        <time>2022-05-11T00:21:33Z</time>
      </trkpt>
      <trkpt lat="45.06573" lon="4.10586">
        <ele>1105.6765136719</ele>
        <time>2022-05-11T00:21:40Z</time>
      </trkpt>
      <trkpt lat="45.06578" lon="4.10577">
        <ele>1105.3698730469</ele>
        <time>2022-05-11T00:21:46Z</time>
      </trkpt>
      <trkpt lat="45.06592" lon="4.10563">
        <ele>1105.9704589844</ele>
        <time>2022-05-11T00:21:56Z</time>
      </trkpt>
      <trkpt lat="45.06623" lon="4.1054">
        <ele>1108.1053466797</ele>
        <time>2022-05-11T00:22:07Z</time>
      </trkpt>
      <trkpt lat="45.06633" lon="4.10528">
        <ele>1108.3634033203</ele>
        <time>2022-05-11T00:22:13Z</time>
      </trkpt>
      <trkpt lat="45.06649" lon="4.10502">
        <ele>1108.6733398438</ele>
        <time>2022-05-11T00:22:16Z</time>
      </trkpt>
      <trkpt lat="45.06664" lon="4.10475">
        <ele>1110.7900390625</ele>
        <time>2022-05-11T00:22:19Z</time>
      </trkpt>
      <trkpt lat="45.0667" lon="4.1046">
        <ele>1112.6865234375</ele>
        <time>2022-05-11T00:22:23Z</time>
      </trkpt>
      <trkpt lat="45.06672" lon="4.10445">
        <ele>1112.2681884766</ele>
        <time>2022-05-11T00:22:26Z</time>
      </trkpt>
      <trkpt lat="45.06671" lon="4.10419">
        <ele>1114.4473876953</ele>
        <time>2022-05-11T00:22:33Z</time>
      </trkpt>
      <trkpt lat="45.06668" lon="4.10391">
        <ele>1115.4517822266</ele>
        <time>2022-05-11T00:22:39Z</time>
      </trkpt>
      <trkpt lat="45.06655" lon="4.10337">
        <ele>1117.1240234375</ele>
        <time>2022-05-11T00:22:48Z</time>
      </trkpt>
      <trkpt lat="45.06637" lon="4.10279">
        <ele>1121.1708984375</ele>
        <time>2022-05-11T00:23:04Z</time>
      </trkpt>
      <trkpt lat="45.06634" lon="4.10253">
        <ele>1122.9279785156</ele>
        <time>2022-05-11T00:23:10Z</time>
      </trkpt>
      <trkpt lat="45.06635" lon="4.10242">
        <ele>1122.9958496094</ele>
        <time>2022-05-11T00:23:24Z</time>
      </trkpt>
      <trkpt lat="45.06642" lon="4.10232">
        <ele>1123.8116455078</ele>
        <time>2022-05-11T00:23:28Z</time>
      </trkpt>
      <trkpt lat="45.06664" lon="4.10208">
        <ele>1126.2940673828</ele>
        <time>2022-05-11T00:23:45Z</time>
      </trkpt>
      <trkpt lat="45.06674" lon="4.10201">
        <ele>1127.7319335938</ele>
        <time>2022-05-11T00:23:50Z</time>
      </trkpt>
      <trkpt lat="45.06692" lon="4.10197">
        <ele>1129.3681640625</ele>
        <time>2022-05-11T00:23:56Z</time>
      </trkpt>
      <trkpt lat="45.06733" lon="4.10201">
        <ele>1132.1983642578</ele>
        <time>2022-05-11T00:24:03Z</time>
      </trkpt>
      <trkpt lat="45.06743" lon="4.102">
        <ele>1132.5698242188</ele>
        <time>2022-05-11T00:24:08Z</time>
      </trkpt>
      <trkpt lat="45.06777" lon="4.1019">
        <ele>1135.1337890625</ele>
        <time>2022-05-11T00:24:19Z</time>
      </trkpt>
      <trkpt lat="45.06826" lon="4.10171">
        <ele>1136.7891845703</ele>
        <time>2022-05-11T00:24:25Z</time>
      </trkpt>
      <trkpt lat="45.06854" lon="4.10163">
        <ele>1137.5288085938</ele>
        <time>2022-05-11T00:24:30Z</time>
      </trkpt>
      <trkpt lat="45.06899" lon="4.10164">
        <ele>1136.7706298828</ele>
        <time>2022-05-11T00:24:33Z</time>
      </trkpt>
      <trkpt lat="45.06922" lon="4.10167">
        <ele>1137.0006103516</ele>
        <time>2022-05-11T00:24:53Z</time>
      </trkpt>
      <trkpt lat="45.06935" lon="4.10171">
        <ele>1136.755859375</ele>
        <time>2022-05-11T00:24:53Z</time>
      </trkpt>
      <trkpt lat="45.06982" lon="4.10189">
        <ele>1136.9650878906</ele>
        <time>2022-05-11T00:24:54Z</time>
      </trkpt>
      <trkpt lat="45.07004" lon="4.10197">
        <ele>1137.3470458984</ele>
        <time>2022-05-11T00:25:05Z</time>
      </trkpt>
      <trkpt lat="45.07043" lon="4.10211">
        <ele>1137.0998535156</ele>
        <time>2022-05-11T00:25:17Z</time>
      </trkpt>
      <trkpt lat="45.07067" lon="4.10217">
        <ele>1136.0511474609</ele>
        <time>2022-05-11T00:25:26Z</time>
      </trkpt>
      <trkpt lat="45.07083" lon="4.10211">
        <ele>1135.7512207031</ele>
        <time>2022-05-11T00:25:31Z</time>
      </trkpt>
      <trkpt lat="45.07093" lon="4.10201">
        <ele>1136.6695556641</ele>
        <time>2022-05-11T00:25:40Z</time>
      </trkpt>
      <trkpt lat="45.07133" lon="4.10148">
        <ele>1139.9620361328</ele>
        <time>2022-05-11T00:25:48Z</time>
      </trkpt>
      <trkpt lat="45.07147" lon="4.10133">
        <ele>1140.201171875</ele>
        <time>2022-05-11T00:25:52Z</time>
      </trkpt>
      <trkpt lat="45.07156" lon="4.10129">
        <ele>1140.7156982422</ele>
        <time>2022-05-11T00:25:57Z</time>
      </trkpt>
      <trkpt lat="45.07208" lon="4.1012">
        <ele>1144.1455078125</ele>
        <time>2022-05-11T00:26:11Z</time>
      </trkpt>
      <trkpt lat="45.0725" lon="4.10112">
        <ele>1146.9079589844</ele>
        <time>2022-05-11T00:26:21Z</time>
      </trkpt>
      <trkpt lat="45.0727" lon="4.10103">
        <ele>1148.0891113281</ele>
        <time>2022-05-11T00:26:30Z</time>
      </trkpt>
      <trkpt lat="45.07278" lon="4.10092">
        <ele>1147.8526611328</ele>
        <time>2022-05-11T00:26:40Z</time>
      </trkpt>
      <trkpt lat="45.07288" lon="4.10074">
        <ele>1149.0842285156</ele>
        <time>2022-05-11T00:26:56Z</time>
      </trkpt>
      <trkpt lat="45.07284" lon="4.10064">
        <ele>1148.7305908203</ele>
        <time>2022-05-11T00:27:05Z</time>
      </trkpt>
      <trkpt lat="45.07275" lon="4.1004">
        <ele>1146.4228515625</ele>
        <time>2022-05-11T00:27:10Z</time>
      </trkpt>
      <trkpt lat="45.07272" lon="4.10024">
        <ele>1145.7941894531</ele>
        <time>2022-05-11T00:27:14Z</time>
      </trkpt>
      <trkpt lat="45.07267" lon="4.10005">
        <ele>1145.2924804688</ele>
        <time>2022-05-11T00:27:19Z</time>
      </trkpt>
      <trkpt lat="45.07257" lon="4.09983">
        <ele>1144.1118164062</ele>
        <time>2022-05-11T00:27:19Z</time>
      </trkpt>
      <trkpt lat="45.07226" lon="4.0992">
        <ele>1139.9947509766</ele>
        <time>2022-05-11T00:27:29Z</time>
      </trkpt>
      <trkpt lat="45.07199" lon="4.0987">
        <ele>1136.6107177734</ele>
        <time>2022-05-11T00:27:41Z</time>
      </trkpt>
      <trkpt lat="45.07173" lon="4.09814">
        <ele>1133.2994384766</ele>
        <time>2022-05-11T00:27:53Z</time>
      </trkpt>
      <trkpt lat="45.0714" lon="4.09762">
        <ele>1129.3919677734</ele>
        <time>2022-05-11T00:28:02Z</time>
      </trkpt>
      <trkpt lat="45.07119" lon="4.09736">
        <ele>1127.3791503906</ele>
        <time>2022-05-11T00:28:05Z</time>
      </trkpt>
      <trkpt lat="45.07098" lon="4.09722">
        <ele>1125.7680664062</ele>
        <time>2022-05-11T00:28:09Z</time>
      </trkpt>
      <trkpt lat="45.07088" lon="4.09722">
        <ele>1124.8217773438</ele>
        <time>2022-05-11T00:28:12Z</time>
      </trkpt>
      <trkpt lat="45.07075" lon="4.09727">
        <ele>1123.3776855469</ele>
        <time>2022-05-11T00:28:18Z</time>
      </trkpt>
      <trkpt lat="45.07065" lon="4.09732">
        <ele>1122.3525390625</ele>
        <time>2022-05-11T00:28:22Z</time>
      </trkpt>
      <trkpt lat="45.07058" lon="4.09733">
        <ele>1121.8717041016</ele>
        <time>2022-05-11T00:28:30Z</time>
      </trkpt>
      <trkpt lat="45.07049" lon="4.09731">
        <ele>1121.2471923828</ele>
        <time>2022-05-11T00:28:47Z</time>
      </trkpt>
      <trkpt lat="45.07036" lon="4.09725">
        <ele>1119.8518066406</ele>
        <time>2022-05-11T00:29:12Z</time>
      </trkpt>
      <trkpt lat="45.07017" lon="4.09714">
        <ele>1121.0100097656</ele>
        <time>2022-05-11T00:29:21Z</time>
      </trkpt>
      <trkpt lat="45.06974" lon="4.09705">
        <ele>1117.3843994141</ele>
        <time>2022-05-11T00:29:23Z</time>
      </trkpt>
      <trkpt lat="45.06924" lon="4.09699">
        <ele>1113.9743652344</ele>
        <time>2022-05-11T00:29:23Z</time>
      </trkpt>
      <trkpt lat="45.06911" lon="4.09695">
        <ele>1111.6258544922</ele>
        <time>2022-05-11T00:29:33Z</time>
      </trkpt>
      <trkpt lat="45.06901" lon="4.0969">
        <ele>1109.6436767578</ele>
        <time>2022-05-11T00:29:41Z</time>
      </trkpt>
      <trkpt lat="45.06895" lon="4.09684">
        <ele>1108.6059570312</ele>
        <time>2022-05-11T00:29:47Z</time>
      </trkpt>
      <trkpt lat="45.0689" lon="4.09678">
        <ele>1107.2806396484</ele>
        <time>2022-05-11T00:30:11Z</time>
      </trkpt>
      <trkpt lat="45.06887" lon="4.09661">
        <ele>1106.5579833984</ele>
        <time>2022-05-11T00:30:16Z</time>
      </trkpt>
      <trkpt lat="45.06887" lon="4.09635">
        <ele>1106.1027832031</ele>
        <time>2022-05-11T00:30:32Z</time>
      </trkpt>
      <trkpt lat="45.0689" lon="4.09604">
        <ele>1104.50390625</ele>
        <time>2022-05-11T00:30:40Z</time>
      </trkpt>
      <trkpt lat="45.06896" lon="4.09561">
        <ele>1100.8079833984</ele>
        <time>2022-05-11T00:30:46Z</time>
      </trkpt>
      <trkpt lat="45.06901" lon="4.09536">
        <ele>1099.4791259766</ele>
        <time>2022-05-11T00:30:48Z</time>
      </trkpt>
      <trkpt lat="45.06912" lon="4.09475">
        <ele>1097.4564208984</ele>
        <time>2022-05-11T00:30:50Z</time>
      </trkpt>
      <trkpt lat="45.06918" lon="4.09454">
        <ele>1095.8686523438</ele>
        <time>2022-05-11T00:30:54Z</time>
      </trkpt>
      <trkpt lat="45.06933" lon="4.09418">
        <ele>1094.2878417969</ele>
        <time>2022-05-11T00:31:01Z</time>
      </trkpt>
      <trkpt lat="45.06953" lon="4.09377">
        <ele>1091.5209960938</ele>
        <time>2022-05-11T00:31:07Z</time>
      </trkpt>
      <trkpt lat="45.0698" lon="4.09342">
        <ele>1089.2973632812</ele>
        <time>2022-05-11T00:31:15Z</time>
      </trkpt>
      <trkpt lat="45.07014" lon="4.09307">
        <ele>1086.9453125</ele>
        <time>2022-05-11T00:31:32Z</time>
      </trkpt>
      <trkpt lat="45.07028" lon="4.09295">
        <ele>1086.2418212891</ele>
        <time>2022-05-11T00:31:38Z</time>
      </trkpt>
      <trkpt lat="45.07043" lon="4.09286">
        <ele>1085.0775146484</ele>
        <time>2022-05-11T00:31:44Z</time>
      </trkpt>
      <trkpt lat="45.07064" lon="4.09281">
        <ele>1082.978515625</ele>
        <time>2022-05-11T00:31:50Z</time>
      </trkpt>
      <trkpt lat="45.07076" lon="4.09282">
        <ele>1082.6579589844</ele>
        <time>2022-05-11T00:31:54Z</time>
      </trkpt>
      <trkpt lat="45.07091" lon="4.09287">
        <ele>1082.4964599609</ele>
        <time>2022-05-11T00:32:00Z</time>
      </trkpt>
      <trkpt lat="45.07112" lon="4.09301">
        <ele>1082.7039794922</ele>
        <time>2022-05-11T00:32:09Z</time>
      </trkpt>
      <trkpt lat="45.07128" lon="4.09313">
        <ele>1082.6398925781</ele>
        <time>2022-05-11T00:32:24Z</time>
      </trkpt>
      <trkpt lat="45.0715" lon="4.09328">
        <ele>1081.2384033203</ele>
        <time>2022-05-11T00:32:37Z</time>
      </trkpt>
      <trkpt lat="45.07171" lon="4.09336">
        <ele>1080.4364013672</ele>
        <time>2022-05-11T00:32:39Z</time>
      </trkpt>
      <trkpt lat="45.07194" lon="4.09337">
        <ele>1079.4274902344</ele>
        <time>2022-05-11T00:32:44Z</time>
      </trkpt>
      <trkpt lat="45.07212" lon="4.09325">
        <ele>1078.1730957031</ele>
        <time>2022-05-11T00:32:51Z</time>
      </trkpt>
      <trkpt lat="45.07223" lon="4.09311">
        <ele>1077.2222900391</ele>
        <time>2022-05-11T00:32:54Z</time>
      </trkpt>
      <trkpt lat="45.07236" lon="4.09288">
        <ele>1077.0270996094</ele>
        <time>2022-05-11T00:32:56Z</time>
      </trkpt>
      <trkpt lat="45.07256" lon="4.09245">
        <ele>1075.7506103516</ele>
        <time>2022-05-11T00:32:58Z</time>
      </trkpt>
      <trkpt lat="45.07259" lon="4.09231">
        <ele>1075.1433105469</ele>
        <time>2022-05-11T00:33:02Z</time>
      </trkpt>
      <trkpt lat="45.0726" lon="4.09216">
        <ele>1074.6494140625</ele>
        <time>2022-05-11T00:33:06Z</time>
      </trkpt>
      <trkpt lat="45.07258" lon="4.092">
        <ele>1075.333984375</ele>
        <time>2022-05-11T00:33:09Z</time>
      </trkpt>
      <trkpt lat="45.07254" lon="4.09187">
        <ele>1075.1098632812</ele>
        <time>2022-05-11T00:33:13Z</time>
      </trkpt>
      <trkpt lat="45.07227" lon="4.09146">
        <ele>1073.6730957031</ele>
        <time>2022-05-11T00:33:16Z</time>
      </trkpt>
      <trkpt lat="45.07185" lon="4.09089">
        <ele>1071.7543945312</ele>
        <time>2022-05-11T00:33:18Z</time>
      </trkpt>
      <trkpt lat="45.07171" lon="4.09068">
        <ele>1070.85546875</ele>
        <time>2022-05-11T00:33:21Z</time>
      </trkpt>
      <trkpt lat="45.07156" lon="4.09043">
        <ele>1070.5404052734</ele>
        <time>2022-05-11T00:33:25Z</time>
      </trkpt>
      <trkpt lat="45.07129" lon="4.08985">
        <ele>1071.7508544922</ele>
        <time>2022-05-11T00:33:31Z</time>
      </trkpt>
      <trkpt lat="45.07116" lon="4.08958">
        <ele>1071.9722900391</ele>
        <time>2022-05-11T00:33:36Z</time>
      </trkpt>
      <trkpt lat="45.07107" lon="4.08943">
        <ele>1071.8250732422</ele>
        <time>2022-05-11T00:33:50Z</time>
      </trkpt>
      <trkpt lat="45.07059" lon="4.08891">
        <ele>1070.3834228516</ele>
        <time>2022-05-11T00:33:59Z</time>
      </trkpt>
      <trkpt lat="45.06987" lon="4.08814">
        <ele>1068.6754150391</ele>
        <time>2022-05-11T00:34:09Z</time>
      </trkpt>
      <trkpt lat="45.06947" lon="4.08767">
        <ele>1067.6159667969</ele>
        <time>2022-05-11T00:34:26Z</time>
      </trkpt>
      <trkpt lat="45.06932" lon="4.08747">
        <ele>1066.8970947266</ele>
        <time>2022-05-11T00:34:29Z</time>
      </trkpt>
      <trkpt lat="45.06918" lon="4.0872">
        <ele>1066.5086669922</ele>
        <time>2022-05-11T00:34:34Z</time>
      </trkpt>
      <trkpt lat="45.06915" lon="4.08716">
        <ele>1066.3376464844</ele>
        <time>2022-05-11T00:34:37Z</time>
      </trkpt>
      <trkpt lat="45.06896" lon="4.0869">
        <ele>1065.1859130859</ele>
        <time>2022-05-11T00:34:45Z</time>
      </trkpt>
      <trkpt lat="45.06884" lon="4.08667">
        <ele>1063.6282958984</ele>
        <time>2022-05-11T00:34:48Z</time>
      </trkpt>
      <trkpt lat="45.06867" lon="4.08609">
        <ele>1061.4865722656</ele>
        <time>2022-05-11T00:34:51Z</time>
      </trkpt>
      <trkpt lat="45.06848" lon="4.08553">
        <ele>1060.4334716797</ele>
        <time>2022-05-11T00:34:56Z</time>
      </trkpt>
      <trkpt lat="45.06839" lon="4.08516">
        <ele>1059.0399169922</ele>
        <time>2022-05-11T00:35:01Z</time>
      </trkpt>
      <trkpt lat="45.06817" lon="4.08463">
        <ele>1055.8173828125</ele>
        <time>2022-05-11T00:35:12Z</time>
      </trkpt>
      <trkpt lat="45.06802" lon="4.08412">
        <ele>1053.765625</ele>
        <time>2022-05-11T00:35:20Z</time>
      </trkpt>
      <trkpt lat="45.06792" lon="4.08351">
        <ele>1051.9735107422</ele>
        <time>2022-05-11T00:35:24Z</time>
      </trkpt>
      <trkpt lat="45.0677" lon="4.08297">
        <ele>1048.3325195312</ele>
        <time>2022-05-11T00:35:29Z</time>
      </trkpt>
      <trkpt lat="45.06752" lon="4.08263">
        <ele>1045.8865966797</ele>
        <time>2022-05-11T00:35:34Z</time>
      </trkpt>
      <trkpt lat="45.06742" lon="4.08249">
        <ele>1044.4415283203</ele>
        <time>2022-05-11T00:35:38Z</time>
      </trkpt>
      <trkpt lat="45.06712" lon="4.08209">
        <ele>1041.7756347656</ele>
        <time>2022-05-11T00:35:43Z</time>
      </trkpt>
      <trkpt lat="45.0669" lon="4.08163">
        <ele>1039.3458251953</ele>
        <time>2022-05-11T00:35:48Z</time>
      </trkpt>
      <trkpt lat="45.06675" lon="4.08119">
        <ele>1037.6094970703</ele>
        <time>2022-05-11T00:35:52Z</time>
      </trkpt>
      <trkpt lat="45.06655" lon="4.08048">
        <ele>1035.5673828125</ele>
        <time>2022-05-11T00:35:57Z</time>
      </trkpt>
      <trkpt lat="45.06644" lon="4.07997">
        <ele>1034.1300048828</ele>
        <time>2022-05-11T00:36:06Z</time>
      </trkpt>
      <trkpt lat="45.0664" lon="4.07955">
        <ele>1032.4154052734</ele>
        <time>2022-05-11T00:36:10Z</time>
      </trkpt>
      <trkpt lat="45.06639" lon="4.07935">
        <ele>1030.9525146484</ele>
        <time>2022-05-11T00:36:15Z</time>
      </trkpt>
      <trkpt lat="45.06645" lon="4.07837">
        <ele>1024.7895507812</ele>
        <time>2022-05-11T00:36:20Z</time>
      </trkpt>
      <trkpt lat="45.06649" lon="4.07781">
        <ele>1021.0529785156</ele>
        <time>2022-05-11T00:36:58Z</time>
      </trkpt>
      <trkpt lat="45.06653" lon="4.07756">
        <ele>1018.9784545898</ele>
        <time>2022-05-11T00:37:29Z</time>
      </trkpt>
      <trkpt lat="45.06666" lon="4.07723">
        <ele>1017.4873657227</ele>
        <time>2022-05-11T00:37:59Z</time>
      </trkpt>
      <trkpt lat="45.06678" lon="4.07699">
        <ele>1015.8405151367</ele>
        <time>2022-05-11T00:38:01Z</time>
      </trkpt>
      <trkpt lat="45.06716" lon="4.0765">
        <ele>1012.6332397461</ele>
        <time>2022-05-11T00:38:03Z</time>
      </trkpt>
      <trkpt lat="45.06734" lon="4.07629">
        <ele>1010.4430541992</ele>
        <time>2022-05-11T00:38:10Z</time>
      </trkpt>
      <trkpt lat="45.06778" lon="4.07575">
        <ele>1006.6889038086</ele>
        <time>2022-05-11T00:38:25Z</time>
      </trkpt>
      <trkpt lat="45.06845" lon="4.07493">
        <ele>1002.6400146484</ele>
        <time>2022-05-11T00:38:33Z</time>
      </trkpt>
      <trkpt lat="45.06861" lon="4.07474">
        <ele>1000.7793579102</ele>
        <time>2022-05-11T00:38:38Z</time>
      </trkpt>
      <trkpt lat="45.06866" lon="4.07464">
        <ele>999.89562988281</ele>
        <time>2022-05-11T00:38:42Z</time>
      </trkpt>
      <trkpt lat="45.0687" lon="4.07451">
        <ele>998.95855712891</ele>
        <time>2022-05-11T00:38:45Z</time>
      </trkpt>
      <trkpt lat="45.0687" lon="4.07435">
        <ele>998.17565917969</ele>
        <time>2022-05-11T00:38:48Z</time>
      </trkpt>
      <trkpt lat="45.06866" lon="4.07419">
        <ele>997.32434082031</ele>
        <time>2022-05-11T00:38:53Z</time>
      </trkpt>
      <trkpt lat="45.06853" lon="4.07397">
        <ele>996.25054931641</ele>
        <time>2022-05-11T00:38:58Z</time>
      </trkpt>
      <trkpt lat="45.06826" lon="4.07363">
        <ele>992.95489501953</ele>
        <time>2022-05-11T00:39:08Z</time>
      </trkpt>
      <trkpt lat="45.06804" lon="4.07345">
        <ele>990.95672607422</ele>
        <time>2022-05-11T00:39:13Z</time>
      </trkpt>
      <trkpt lat="45.0678" lon="4.07333">
        <ele>988.96173095703</ele>
        <time>2022-05-11T00:39:15Z</time>
      </trkpt>
      <trkpt lat="45.06771" lon="4.07326">
        <ele>987.77264404297</ele>
        <time>2022-05-11T00:39:22Z</time>
      </trkpt>
      <trkpt lat="45.06764" lon="4.07315">
        <ele>986.53540039062</ele>
        <time>2022-05-11T00:39:29Z</time>
      </trkpt>
      <trkpt lat="45.0676" lon="4.07293">
        <ele>984.64630126953</ele>
        <time>2022-05-11T00:39:32Z</time>
      </trkpt>
      <trkpt lat="45.06761" lon="4.07275">
        <ele>983.68280029297</ele>
        <time>2022-05-11T00:39:38Z</time>
      </trkpt>
      <trkpt lat="45.06772" lon="4.0724">
        <ele>981.04986572266</ele>
        <time>2022-05-11T00:39:44Z</time>
      </trkpt>
      <trkpt lat="45.06777" lon="4.07219">
        <ele>980.01043701172</ele>
        <time>2022-05-11T00:39:49Z</time>
      </trkpt>
      <trkpt lat="45.06776" lon="4.07178">
        <ele>977.54644775391</ele>
        <time>2022-05-11T00:39:55Z</time>
      </trkpt>
      <trkpt lat="45.06772" lon="4.0711">
        <ele>974.24597167969</ele>
        <time>2022-05-11T00:40:05Z</time>
      </trkpt>
      <trkpt lat="45.06773" lon="4.07098">
        <ele>973.72625732422</ele>
        <time>2022-05-11T00:40:13Z</time>
      </trkpt>
      <trkpt lat="45.06776" lon="4.0708">
        <ele>971.98895263672</ele>
        <time>2022-05-11T00:40:19Z</time>
      </trkpt>
      <trkpt lat="45.06787" lon="4.07041">
        <ele>969.97082519531</ele>
        <time>2022-05-11T00:40:24Z</time>
      </trkpt>
      <trkpt lat="45.06803" lon="4.07011">
        <ele>968.24969482422</ele>
        <time>2022-05-11T00:40:32Z</time>
      </trkpt>
      <trkpt lat="45.06823" lon="4.06981">
        <ele>965.21124267578</ele>
        <time>2022-05-11T00:40:52Z</time>
      </trkpt>
      <trkpt lat="45.06853" lon="4.06945">
        <ele>960.93530273438</ele>
        <time>2022-05-11T00:40:58Z</time>
      </trkpt>
      <trkpt lat="45.06859" lon="4.06932">
        <ele>960.17120361328</ele>
        <time>2022-05-11T00:41:01Z</time>
      </trkpt>
      <trkpt lat="45.06863" lon="4.06913">
        <ele>958.74853515625</ele>
        <time>2022-05-11T00:41:01Z</time>
      </trkpt>
      <trkpt lat="45.06864" lon="4.06868">
        <ele>956.02117919922</ele>
        <time>2022-05-11T00:41:06Z</time>
      </trkpt>
      <trkpt lat="45.06869" lon="4.06802">
        <ele>952.11492919922</ele>
        <time>2022-05-11T00:41:13Z</time>
      </trkpt>
      <trkpt lat="45.06874" lon="4.06777">
        <ele>950.4501953125</ele>
        <time>2022-05-11T00:41:23Z</time>
      </trkpt>
      <trkpt lat="45.06879" lon="4.06764">
        <ele>949.56451416016</ele>
        <time>2022-05-11T00:41:28Z</time>
      </trkpt>
      <trkpt lat="45.06888" lon="4.06749">
        <ele>948.14337158203</ele>
        <time>2022-05-11T00:41:49Z</time>
      </trkpt>
      <trkpt lat="45.06893" lon="4.06745">
        <ele>947.49151611328</ele>
        <time>2022-05-11T00:41:58Z</time>
      </trkpt>
      <trkpt lat="45.06906" lon="4.06736">
        <ele>946.94677734375</ele>
        <time>2022-05-11T00:42:02Z</time>
      </trkpt>
      <trkpt lat="45.06932" lon="4.06723">
        <ele>945.47723388672</ele>
        <time>2022-05-11T00:42:06Z</time>
      </trkpt>
      <trkpt lat="45.06951" lon="4.06748">
        <ele>945.38732910156</ele>
        <time>2022-05-11T00:42:08Z</time>
      </trkpt>
      <trkpt lat="45.06974" lon="4.06734">
        <ele>940.96954345703</ele>
        <time>2022-05-11T00:42:17Z</time>
      </trkpt>
      <trkpt lat="45.06984" lon="4.06726">
        <ele>940.33154296875</ele>
        <time>2022-05-11T00:42:28Z</time>
      </trkpt>
      <trkpt lat="45.07012" lon="4.06695">
        <ele>939.54296875</ele>
        <time>2022-05-11T00:42:41Z</time>
      </trkpt>
      <trkpt lat="45.07135" lon="4.06557">
        <ele>934.01068115234</ele>
        <time>2022-05-11T00:42:45Z</time>
      </trkpt>
      <trkpt lat="45.07219" lon="4.06465">
        <ele>929.28924560547</ele>
        <time>2022-05-11T00:42:49Z</time>
      </trkpt>
      <trkpt lat="45.07256" lon="4.0643">
        <ele>927.79565429688</ele>
        <time>2022-05-11T00:42:53Z</time>
      </trkpt>
      <trkpt lat="45.07289" lon="4.06408">
        <ele>926.05316162109</ele>
        <time>2022-05-11T00:42:57Z</time>
      </trkpt>
      <trkpt lat="45.07308" lon="4.06394">
        <ele>924.50445556641</ele>
        <time>2022-05-11T00:42:59Z</time>
      </trkpt>
      <trkpt lat="45.07324" lon="4.06375">
        <ele>921.95520019531</ele>
        <time>2022-05-11T00:43:01Z</time>
      </trkpt>
      <trkpt lat="45.07361" lon="4.06316">
        <ele>917.13024902344</ele>
        <time>2022-05-11T00:43:03Z</time>
      </trkpt>
      <trkpt lat="45.07392" lon="4.06264">
        <ele>913.17730712891</ele>
        <time>2022-05-11T00:43:05Z</time>
      </trkpt>
      <trkpt lat="45.07406" lon="4.06236">
        <ele>911.56616210938</ele>
        <time>2022-05-11T00:43:08Z</time>
      </trkpt>
      <trkpt lat="45.07417" lon="4.06207">
        <ele>910.95422363281</ele>
        <time>2022-05-11T00:43:12Z</time>
      </trkpt>
      <trkpt lat="45.0747" lon="4.06073">
        <ele>900.34991455078</ele>
        <time>2022-05-11T00:43:15Z</time>
      </trkpt>
      <trkpt lat="45.07495" lon="4.06018">
        <ele>898.01281738281</ele>
        <time>2022-05-11T00:43:27Z</time>
      </trkpt>
      <trkpt lat="45.07506" lon="4.05996">
        <ele>896.02026367188</ele>
        <time>2022-05-11T00:43:39Z</time>
      </trkpt>
      <trkpt lat="45.07518" lon="4.05966">
        <ele>893.95440673828</ele>
        <time>2022-05-11T00:43:44Z</time>
      </trkpt>
      <trkpt lat="45.07539" lon="4.05896">
        <ele>889.99450683594</ele>
        <time>2022-05-11T00:43:47Z</time>
      </trkpt>
      <trkpt lat="45.07559" lon="4.05825">
        <ele>886.22692871094</ele>
        <time>2022-05-11T00:43:50Z</time>
      </trkpt>
      <trkpt lat="45.07569" lon="4.05783">
        <ele>885.53106689453</ele>
        <time>2022-05-11T00:43:51Z</time>
      </trkpt>
      <trkpt lat="45.07576" lon="4.0575">
        <ele>884.443359375</ele>
        <time>2022-05-11T00:43:54Z</time>
      </trkpt>
      <trkpt lat="45.07581" lon="4.0571">
        <ele>882.69915771484</ele>
        <time>2022-05-11T00:44:00Z</time>
      </trkpt>
      <trkpt lat="45.07588" lon="4.0565">
        <ele>880.24517822266</ele>
        <time>2022-05-11T00:44:05Z</time>
      </trkpt>
      <trkpt lat="45.07595" lon="4.0557">
        <ele>876.75964355469</ele>
        <time>2022-05-11T00:44:10Z</time>
      </trkpt>
      <trkpt lat="45.076" lon="4.05525">
        <ele>874.34802246094</ele>
        <time>2022-05-11T00:44:12Z</time>
      </trkpt>
      <trkpt lat="45.07598" lon="4.05476">
        <ele>871.74493408203</ele>
        <time>2022-05-11T00:44:20Z</time>
      </trkpt>
      <trkpt lat="45.07593" lon="4.05432">
        <ele>870.24102783203</ele>
        <time>2022-05-11T00:44:22Z</time>
      </trkpt>
      <trkpt lat="45.07582" lon="4.0538">
        <ele>867.40118408203</ele>
        <time>2022-05-11T00:44:26Z</time>
      </trkpt>
      <trkpt lat="45.07574" lon="4.05361">
        <ele>867.3544921875</ele>
        <time>2022-05-11T00:44:30Z</time>
      </trkpt>
      <trkpt lat="45.07563" lon="4.05342">
        <ele>866.28210449219</ele>
        <time>2022-05-11T00:44:33Z</time>
      </trkpt>
      <trkpt lat="45.07499" lon="4.05242">
        <ele>858.07843017578</ele>
        <time>2022-05-11T00:44:38Z</time>
      </trkpt>
      <trkpt lat="45.07452" lon="4.05165">
        <ele>854.00543212891</ele>
        <time>2022-05-11T00:44:41Z</time>
      </trkpt>
      <trkpt lat="45.07434" lon="4.05135">
        <ele>852.62634277344</ele>
        <time>2022-05-11T00:44:46Z</time>
      </trkpt>
      <trkpt lat="45.07391" lon="4.05071">
        <ele>848.97479248047</ele>
        <time>2022-05-11T00:44:56Z</time>
      </trkpt>
      <trkpt lat="45.07388" lon="4.05066">
        <ele>848.51782226562</ele>
        <time>2022-05-11T00:45:04Z</time>
      </trkpt>
      <trkpt lat="45.07371" lon="4.05035">
        <ele>845.92071533203</ele>
        <time>2022-05-11T00:45:10Z</time>
      </trkpt>
      <trkpt lat="45.07368" lon="4.05026">
        <ele>845.34136962891</ele>
        <time>2022-05-11T00:45:13Z</time>
      </trkpt>
      <trkpt lat="45.07367" lon="4.05006">
        <ele>843.48236083984</ele>
        <time>2022-05-11T00:45:16Z</time>
      </trkpt>
      <trkpt lat="45.07377" lon="4.04931">
        <ele>837.45227050781</ele>
        <time>2022-05-11T00:45:22Z</time>
      </trkpt>
      <trkpt lat="45.07391" lon="4.04827">
        <ele>831.30096435547</ele>
        <time>2022-05-11T00:45:26Z</time>
      </trkpt>
      <trkpt lat="45.07365" lon="4.048">
        <ele>831.90161132812</ele>
        <time>2022-05-11T00:45:29Z</time>
      </trkpt>
      <trkpt lat="45.07351" lon="4.04788">
        <ele>831.92858886719</ele>
        <time>2022-05-11T00:45:33Z</time>
      </trkpt>
      <trkpt lat="45.07354" lon="4.04773">
        <ele>830.77386474609</ele>
        <time>2022-05-11T00:45:37Z</time>
      </trkpt>
      <trkpt lat="45.07356" lon="4.04761">
        <ele>829.42065429688</ele>
        <time>2022-05-11T00:45:43Z</time>
      </trkpt>
      <trkpt lat="45.07374" lon="4.04718">
        <ele>826.15124511719</ele>
        <time>2022-05-11T00:45:46Z</time>
      </trkpt>
      <trkpt lat="45.07386" lon="4.04689">
        <ele>822.78137207031</ele>
        <time>2022-05-11T00:45:50Z</time>
      </trkpt>
      <trkpt lat="45.07396" lon="4.04669">
        <ele>821.06201171875</ele>
        <time>2022-05-11T00:45:57Z</time>
      </trkpt>
      <trkpt lat="45.07404" lon="4.04653">
        <ele>821.54925537109</ele>
        <time>2022-05-11T00:46:00Z</time>
      </trkpt>
      <trkpt lat="45.07407" lon="4.04643">
        <ele>822.24963378906</ele>
        <time>2022-05-11T00:46:04Z</time>
      </trkpt>
      <trkpt lat="45.07408" lon="4.04616">
        <ele>824.23327636719</ele>
        <time>2022-05-11T00:46:11Z</time>
      </trkpt>
      <trkpt lat="45.07403" lon="4.04598">
        <ele>824.55340576172</ele>
        <time>2022-05-11T00:46:14Z</time>
      </trkpt>
      <trkpt lat="45.07396" lon="4.04575">
        <ele>824.08880615234</ele>
        <time>2022-05-11T00:46:27Z</time>
      </trkpt>
      <trkpt lat="45.07393" lon="4.04557">
        <ele>823.26611328125</ele>
        <time>2022-05-11T00:46:51Z</time>
      </trkpt>
      <trkpt lat="45.07395" lon="4.04533">
        <ele>821.92224121094</ele>
        <time>2022-05-11T00:47:01Z</time>
      </trkpt>
      <trkpt lat="45.07405" lon="4.04504">
        <ele>821.24658203125</ele>
        <time>2022-05-11T00:47:07Z</time>
      </trkpt>
      <trkpt lat="45.07421" lon="4.04457">
        <ele>821.60076904297</ele>
        <time>2022-05-11T00:47:11Z</time>
      </trkpt>
      <trkpt lat="45.07425" lon="4.04437">
        <ele>822.09350585938</ele>
        <time>2022-05-11T00:47:20Z</time>
      </trkpt>
      <trkpt lat="45.07427" lon="4.04407">
        <ele>822.41937255859</ele>
        <time>2022-05-11T00:47:27Z</time>
      </trkpt>
      <trkpt lat="45.07429" lon="4.04382">
        <ele>821.47888183594</ele>
        <time>2022-05-11T00:47:44Z</time>
      </trkpt>
      <trkpt lat="45.07433" lon="4.04355">
        <ele>819.89385986328</ele>
        <time>2022-05-11T00:47:56Z</time>
      </trkpt>
      <trkpt lat="45.07441" lon="4.04327">
        <ele>817.43634033203</ele>
        <time>2022-05-11T00:48:03Z</time>
      </trkpt>
      <trkpt lat="45.07456" lon="4.04313">
        <ele>816.26184082031</ele>
        <time>2022-05-11T00:48:08Z</time>
      </trkpt>
      <trkpt lat="45.07491" lon="4.04286">
        <ele>813.32073974609</ele>
        <time>2022-05-11T00:48:18Z</time>
      </trkpt>
      <trkpt lat="45.07506" lon="4.0427">
        <ele>811.96789550781</ele>
        <time>2022-05-11T00:48:22Z</time>
      </trkpt>
      <trkpt lat="45.07518" lon="4.04256">
        <ele>810.75469970703</ele>
        <time>2022-05-11T00:48:29Z</time>
      </trkpt>
      <trkpt lat="45.07526" lon="4.04241">
        <ele>809.49530029297</ele>
        <time>2022-05-11T00:48:39Z</time>
      </trkpt>
      <trkpt lat="45.07532" lon="4.04225">
        <ele>808.40997314453</ele>
        <time>2022-05-11T00:48:44Z</time>
      </trkpt>
      <trkpt lat="45.07541" lon="4.04199">
        <ele>806.83453369141</ele>
        <time>2022-05-11T00:48:49Z</time>
      </trkpt>
      <trkpt lat="45.07552" lon="4.0415">
        <ele>804.61175537109</ele>
        <time>2022-05-11T00:48:53Z</time>
      </trkpt>
      <trkpt lat="45.07556" lon="4.04116">
        <ele>803.87377929688</ele>
        <time>2022-05-11T00:49:06Z</time>
      </trkpt>
      <trkpt lat="45.07563" lon="4.04066">
        <ele>803.89086914062</ele>
        <time>2022-05-11T00:49:12Z</time>
      </trkpt>
      <trkpt lat="45.07577" lon="4.03999">
        <ele>801.65142822266</ele>
        <time>2022-05-11T00:49:25Z</time>
      </trkpt>
      <trkpt lat="45.07589" lon="4.03918">
        <ele>801.32067871094</ele>
        <time>2022-05-11T00:49:31Z</time>
      </trkpt>
      <trkpt lat="45.07606" lon="4.03874">
        <ele>801.20599365234</ele>
        <time>2022-05-11T00:49:36Z</time>
      </trkpt>
      <trkpt lat="45.07622" lon="4.03844">
        <ele>800.88128662109</ele>
        <time>2022-05-11T00:49:40Z</time>
      </trkpt>
      <trkpt lat="45.07666" lon="4.03803">
        <ele>804.2734375</ele>
        <time>2022-05-11T00:49:45Z</time>
      </trkpt>
      <trkpt lat="45.07695" lon="4.03772">
        <ele>804.73516845703</ele>
        <time>2022-05-11T00:49:51Z</time>
      </trkpt>
      <trkpt lat="45.07747" lon="4.03702">
        <ele>802.86517333984</ele>
        <time>2022-05-11T00:49:57Z</time>
      </trkpt>
      <trkpt lat="45.07789" lon="4.03631">
        <ele>802.74139404297</ele>
        <time>2022-05-11T00:50:03Z</time>
      </trkpt>
      <trkpt lat="45.07802" lon="4.03606">
        <ele>802.84533691406</ele>
        <time>2022-05-11T00:50:10Z</time>
      </trkpt>
      <trkpt lat="45.07835" lon="4.03513">
        <ele>803.87280273438</ele>
        <time>2022-05-11T00:50:14Z</time>
      </trkpt>
      <trkpt lat="45.07843" lon="4.0349">
        <ele>802.91790771484</ele>
        <time>2022-05-11T00:50:25Z</time>
      </trkpt>
      <trkpt lat="45.07863" lon="4.03428">
        <ele>802.45880126953</ele>
        <time>2022-05-11T00:50:31Z</time>
      </trkpt>
      <trkpt lat="45.07875" lon="4.03345">
        <ele>800.70178222656</ele>
        <time>2022-05-11T00:50:36Z</time>
      </trkpt>
      <trkpt lat="45.07879" lon="4.03317">
        <ele>799.3056640625</ele>
        <time>2022-05-11T00:50:39Z</time>
      </trkpt>
      <trkpt lat="45.07893" lon="4.03246">
        <ele>794.28546142578</ele>
        <time>2022-05-11T00:50:42Z</time>
      </trkpt>
      <trkpt lat="45.0792" lon="4.0312">
        <ele>787.62219238281</ele>
        <time>2022-05-11T00:50:44Z</time>
      </trkpt>
      <trkpt lat="45.07929" lon="4.03075">
        <ele>786.42852783203</ele>
        <time>2022-05-11T00:50:48Z</time>
      </trkpt>
      <trkpt lat="45.07944" lon="4.03032">
        <ele>784.22760009766</ele>
        <time>2022-05-11T00:50:57Z</time>
      </trkpt>
      <trkpt lat="45.07955" lon="4.03006">
        <ele>783.91973876953</ele>
        <time>2022-05-11T00:51:00Z</time>
      </trkpt>
      <trkpt lat="45.07966" lon="4.02984">
        <ele>783.53857421875</ele>
        <time>2022-05-11T00:51:03Z</time>
      </trkpt>
      <trkpt lat="45.08" lon="4.02939">
        <ele>782.81866455078</ele>
        <time>2022-05-11T00:51:07Z</time>
      </trkpt>
      <trkpt lat="45.0803" lon="4.02903">
        <ele>781.18048095703</ele>
        <time>2022-05-11T00:51:14Z</time>
      </trkpt>
      <trkpt lat="45.08047" lon="4.02888">
        <ele>780.51867675781</ele>
        <time>2022-05-11T00:51:24Z</time>
      </trkpt>
      <trkpt lat="45.08063" lon="4.02882">
        <ele>779.73553466797</ele>
        <time>2022-05-11T00:51:28Z</time>
      </trkpt>
      <trkpt lat="45.08081" lon="4.02879">
        <ele>777.36071777344</ele>
        <time>2022-05-11T00:51:32Z</time>
      </trkpt>
      <trkpt lat="45.08132" lon="4.02873">
        <ele>772.21020507812</ele>
        <time>2022-05-11T00:51:37Z</time>
      </trkpt>
      <trkpt lat="45.0815" lon="4.02857">
        <ele>771.89422607422</ele>
        <time>2022-05-11T00:51:42Z</time>
      </trkpt>
      <trkpt lat="45.08187" lon="4.02805">
        <ele>773.31243896484</ele>
        <time>2022-05-11T00:51:45Z</time>
      </trkpt>
      <trkpt lat="45.08202" lon="4.02788">
        <ele>773.47778320312</ele>
        <time>2022-05-11T00:51:50Z</time>
      </trkpt>
      <trkpt lat="45.08224" lon="4.02766">
        <ele>775.38372802734</ele>
        <time>2022-05-11T00:51:59Z</time>
      </trkpt>
      <trkpt lat="45.08237" lon="4.02757">
        <ele>775.83020019531</ele>
        <time>2022-05-11T00:52:14Z</time>
      </trkpt>
      <trkpt lat="45.08249" lon="4.02752">
        <ele>775.4140625</ele>
        <time>2022-05-11T00:52:19Z</time>
      </trkpt>
      <trkpt lat="45.08264" lon="4.02751">
        <ele>776.58276367188</ele>
        <time>2022-05-11T00:52:27Z</time>
      </trkpt>
      <trkpt lat="45.08285" lon="4.02754">
        <ele>777.84039306641</ele>
        <time>2022-05-11T00:52:32Z</time>
      </trkpt>
      <trkpt lat="45.08303" lon="4.02756">
        <ele>778.0009765625</ele>
        <time>2022-05-11T00:52:36Z</time>
      </trkpt>
      <trkpt lat="45.08332" lon="4.02759">
        <ele>779.12902832031</ele>
        <time>2022-05-11T00:52:43Z</time>
      </trkpt>
      <trkpt lat="45.08349" lon="4.02755">
        <ele>778.34881591797</ele>
        <time>2022-05-11T00:52:49Z</time>
      </trkpt>
      <trkpt lat="45.08389" lon="4.02743">
        <ele>777.6484375</ele>
        <time>2022-05-11T00:53:00Z</time>
      </trkpt>
      <trkpt lat="45.0842" lon="4.02735">
        <ele>778.18518066406</ele>
        <time>2022-05-11T00:53:04Z</time>
      </trkpt>
      <trkpt lat="45.08437" lon="4.02734">
        <ele>778.17810058594</ele>
        <time>2022-05-11T00:53:12Z</time>
      </trkpt>
      <trkpt lat="45.08454" lon="4.02746">
        <ele>779.67388916016</ele>
        <time>2022-05-11T00:53:16Z</time>
      </trkpt>
      <trkpt lat="45.08472" lon="4.02761">
        <ele>781.06011962891</ele>
        <time>2022-05-11T00:53:23Z</time>
      </trkpt>
      <trkpt lat="45.08495" lon="4.02776">
        <ele>782.15765380859</ele>
        <time>2022-05-11T00:53:28Z</time>
      </trkpt>
      <trkpt lat="45.08507" lon="4.02781">
        <ele>782.36865234375</ele>
        <time>2022-05-11T00:53:39Z</time>
      </trkpt>
      <trkpt lat="45.08523" lon="4.02788">
        <ele>782.91351318359</ele>
        <time>2022-05-11T00:53:56Z</time>
      </trkpt>
      <trkpt lat="45.08542" lon="4.02799">
        <ele>784.12670898438</ele>
        <time>2022-05-11T00:54:11Z</time>
      </trkpt>
      <trkpt lat="45.08564" lon="4.02811">
        <ele>783.42224121094</ele>
        <time>2022-05-11T00:54:18Z</time>
      </trkpt>
      <trkpt lat="45.08576" lon="4.02814">
        <ele>782.32360839844</ele>
        <time>2022-05-11T00:54:28Z</time>
      </trkpt>
      <trkpt lat="45.08628" lon="4.02804">
        <ele>777.24700927734</ele>
        <time>2022-05-11T00:54:36Z</time>
      </trkpt>
      <trkpt lat="45.08636" lon="4.028">
        <ele>775.87884521484</ele>
        <time>2022-05-11T00:54:42Z</time>
      </trkpt>
      <trkpt lat="45.08645" lon="4.0279">
        <ele>774.54577636719</ele>
        <time>2022-05-11T00:54:47Z</time>
      </trkpt>
      <trkpt lat="45.08676" lon="4.02747">
        <ele>771.41339111328</ele>
        <time>2022-05-11T00:54:49Z</time>
      </trkpt>
      <trkpt lat="45.0873" lon="4.02669">
        <ele>764.43585205078</ele>
        <time>2022-05-11T00:55:00Z</time>
      </trkpt>
      <trkpt lat="45.0878" lon="4.02595">
        <ele>763.82427978516</ele>
        <time>2022-05-11T00:55:07Z</time>
      </trkpt>
      <trkpt lat="45.08792" lon="4.02579">
        <ele>762.537109375</ele>
        <time>2022-05-11T00:55:28Z</time>
      </trkpt>
      <trkpt lat="45.0881" lon="4.0257">
        <ele>761.12908935547</ele>
        <time>2022-05-11T00:55:34Z</time>
      </trkpt>
      <trkpt lat="45.08849" lon="4.02566">
        <ele>758.02923583984</ele>
        <time>2022-05-11T00:55:37Z</time>
      </trkpt>
      <trkpt lat="45.08866" lon="4.02567">
        <ele>757.72326660156</ele>
        <time>2022-05-11T00:55:47Z</time>
      </trkpt>
      <trkpt lat="45.08877" lon="4.02562">
        <ele>758.24816894531</ele>
        <time>2022-05-11T00:55:56Z</time>
      </trkpt>
      <trkpt lat="45.08882" lon="4.0256">
        <ele>758.40063476562</ele>
        <time>2022-05-11T00:56:09Z</time>
      </trkpt>
      <trkpt lat="45.08892" lon="4.02549">
        <ele>757.77770996094</ele>
        <time>2022-05-11T00:56:23Z</time>
      </trkpt>
      <trkpt lat="45.089" lon="4.02536">
        <ele>757.20660400391</ele>
        <time>2022-05-11T00:56:40Z</time>
      </trkpt>
      <trkpt lat="45.08913" lon="4.0248">
        <ele>757.45672607422</ele>
        <time>2022-05-11T00:56:46Z</time>
      </trkpt>
      <trkpt lat="45.08915" lon="4.02475">
        <ele>757.53106689453</ele>
        <time>2022-05-11T00:56:57Z</time>
      </trkpt>
      <trkpt lat="45.08922" lon="4.02458">
        <ele>756.99792480469</ele>
        <time>2022-05-11T00:57:17Z</time>
      </trkpt>
      <trkpt lat="45.08934" lon="4.02443">
        <ele>757.35125732422</ele>
        <time>2022-05-11T00:57:21Z</time>
      </trkpt>
      <trkpt lat="45.08949" lon="4.02425">
        <ele>756.1220703125</ele>
        <time>2022-05-11T00:57:28Z</time>
      </trkpt>
      <trkpt lat="45.08968" lon="4.02411">
        <ele>755.77197265625</ele>
        <time>2022-05-11T00:57:35Z</time>
      </trkpt>
      <trkpt lat="45.08984" lon="4.024">
        <ele>755.11480712891</ele>
        <time>2022-05-11T00:57:39Z</time>
      </trkpt>
      <trkpt lat="45.08999" lon="4.02385">
        <ele>755.12542724609</ele>
        <time>2022-05-11T00:57:43Z</time>
      </trkpt>
      <trkpt lat="45.0901" lon="4.02364">
        <ele>754.82550048828</ele>
        <time>2022-05-11T00:57:53Z</time>
      </trkpt>
      <trkpt lat="45.09014" lon="4.02348">
        <ele>755.57623291016</ele>
        <time>2022-05-11T00:58:03Z</time>
      </trkpt>
      <trkpt lat="45.0901" lon="4.02267">
        <ele>756.98260498047</ele>
        <time>2022-05-11T00:58:20Z</time>
      </trkpt>
      <trkpt lat="45.09002" lon="4.02166">
        <ele>757.08331298828</ele>
        <time>2022-05-11T00:58:28Z</time>
      </trkpt>
      <trkpt lat="45.09002" lon="4.0213">
        <ele>758.04229736328</ele>
        <time>2022-05-11T00:58:40Z</time>
      </trkpt>
      <trkpt lat="45.09004" lon="4.02115">
        <ele>758.58654785156</ele>
        <time>2022-05-11T00:58:53Z</time>
      </trkpt>
      <trkpt lat="45.09008" lon="4.02107">
        <ele>758.97741699219</ele>
        <time>2022-05-11T00:58:59Z</time>
      </trkpt>
      <trkpt lat="45.08987" lon="4.02112">
        <ele>757.14074707031</ele>
        <time>2022-05-11T00:59:01Z</time>
      </trkpt>
      <trkpt lat="45.08978" lon="4.02107">
        <ele>756.34161376953</ele>
        <time>2022-05-11T00:59:15Z</time>
      </trkpt>
      <trkpt lat="45.08972" lon="4.02099">
        <ele>755.68853759766</ele>
        <time>2022-05-11T00:59:34Z</time>
      </trkpt>
      <trkpt lat="45.08959" lon="4.02065">
        <ele>754.67156982422</ele>
        <time>2022-05-11T00:59:43Z</time>
      </trkpt>
      <trkpt lat="45.08929" lon="4.02017">
        <ele>750.18176269531</ele>
        <time>2022-05-11T00:59:48Z</time>
      </trkpt>
      <trkpt lat="45.0889" lon="4.01906">
        <ele>744.00567626953</ele>
        <time>2022-05-11T00:59:54Z</time>
      </trkpt>
      <trkpt lat="45.0888" lon="4.01865">
        <ele>741.22882080078</ele>
        <time>2022-05-11T00:59:59Z</time>
      </trkpt>
      <trkpt lat="45.08878" lon="4.01774">
        <ele>735.91876220703</ele>
        <time>2022-05-11T01:00:06Z</time>
      </trkpt>
      <trkpt lat="45.08877" lon="4.01705">
        <ele>732.57415771484</ele>
        <time>2022-05-11T01:00:14Z</time>
      </trkpt>
      <trkpt lat="45.08881" lon="4.01628">
        <ele>728.66827392578</ele>
        <time>2022-05-11T01:00:31Z</time>
      </trkpt>
      <trkpt lat="45.08886" lon="4.01553">
        <ele>724.86700439453</ele>
        <time>2022-05-11T01:00:34Z</time>
      </trkpt>
      <trkpt lat="45.08894" lon="4.01481">
        <ele>719.26940917969</ele>
        <time>2022-05-11T01:00:39Z</time>
      </trkpt>
      <trkpt lat="45.08892" lon="4.01473">
        <ele>718.36126708984</ele>
        <time>2022-05-11T01:00:44Z</time>
      </trkpt>
      <trkpt lat="45.08878" lon="4.01455">
        <ele>716.62103271484</ele>
        <time>2022-05-11T01:00:51Z</time>
      </trkpt>
      <trkpt lat="45.08844" lon="4.01426">
        <ele>714.29083251953</ele>
        <time>2022-05-11T01:00:57Z</time>
      </trkpt>
      <trkpt lat="45.08839" lon="4.014">
        <ele>715.39404296875</ele>
        <time>2022-05-11T01:01:07Z</time>
      </trkpt>
      <trkpt lat="45.08839" lon="4.01348">
        <ele>715.28533935547</ele>
        <time>2022-05-11T01:01:13Z</time>
      </trkpt>
      <trkpt lat="45.08832" lon="4.01274">
        <ele>716.36871337891</ele>
        <time>2022-05-11T01:01:26Z</time>
      </trkpt>
      <trkpt lat="45.08823" lon="4.01218">
        <ele>715.84039306641</ele>
        <time>2022-05-11T01:01:40Z</time>
      </trkpt>
      <trkpt lat="45.08815" lon="4.01195">
        <ele>716.10266113281</ele>
        <time>2022-05-11T01:01:51Z</time>
      </trkpt>
      <trkpt lat="45.08787" lon="4.01109">
        <ele>716.20007324219</ele>
        <time>2022-05-11T01:01:54Z</time>
      </trkpt>
      <trkpt lat="45.08753" lon="4.0101">
        <ele>717.4296875</ele>
        <time>2022-05-11T01:02:05Z</time>
      </trkpt>
      <trkpt lat="45.08729" lon="4.0095">
        <ele>718.27014160156</ele>
        <time>2022-05-11T01:02:12Z</time>
      </trkpt>
      <trkpt lat="45.08702" lon="4.00886">
        <ele>715.32836914062</ele>
        <time>2022-05-11T01:02:15Z</time>
      </trkpt>
      <trkpt lat="45.08684" lon="4.00816">
        <ele>711.62341308594</ele>
        <time>2022-05-11T01:02:20Z</time>
      </trkpt>
      <trkpt lat="45.08673" lon="4.00784">
        <ele>710.32080078125</ele>
        <time>2022-05-11T01:02:28Z</time>
      </trkpt>
      <trkpt lat="45.08658" lon="4.00765">
        <ele>710.62164306641</ele>
        <time>2022-05-11T01:02:32Z</time>
      </trkpt>
      <trkpt lat="45.08649" lon="4.00752">
        <ele>711.09790039062</ele>
        <time>2022-05-11T01:02:33Z</time>
      </trkpt>
      <trkpt lat="45.08616" lon="4.00675">
        <ele>714.28314208984</ele>
        <time>2022-05-11T01:02:37Z</time>
      </trkpt>
      <trkpt lat="45.08602" lon="4.00661">
        <ele>715.39697265625</ele>
        <time>2022-05-11T01:02:39Z</time>
      </trkpt>
      <trkpt lat="45.0859" lon="4.00658">
        <ele>716.53387451172</ele>
        <time>2022-05-11T01:02:44Z</time>
      </trkpt>
      <trkpt lat="45.0853" lon="4.00652">
        <ele>722.55633544922</ele>
        <time>2022-05-11T01:02:51Z</time>
      </trkpt>
      <trkpt lat="45.08517" lon="4.0065">
        <ele>723.71917724609</ele>
        <time>2022-05-11T01:02:54Z</time>
      </trkpt>
      <trkpt lat="45.08503" lon="4.00643">
        <ele>723.74298095703</ele>
        <time>2022-05-11T01:03:00Z</time>
      </trkpt>
      <trkpt lat="45.08471" lon="4.00615">
        <ele>723.89526367188</ele>
        <time>2022-05-11T01:03:16Z</time>
      </trkpt>
      <trkpt lat="45.08445" lon="4.00595">
        <ele>723.81555175781</ele>
        <time>2022-05-11T01:03:22Z</time>
      </trkpt>
      <trkpt lat="45.08423" lon="4.00581">
        <ele>722.15594482422</ele>
        <time>2022-05-11T01:03:27Z</time>
      </trkpt>
      <trkpt lat="45.08385" lon="4.00542">
        <ele>722.77990722656</ele>
        <time>2022-05-11T01:03:33Z</time>
      </trkpt>
      <trkpt lat="45.08361" lon="4.00521">
        <ele>723.51483154297</ele>
        <time>2022-05-11T01:03:36Z</time>
      </trkpt>
      <trkpt lat="45.08313" lon="4.00495">
        <ele>726.35961914062</ele>
        <time>2022-05-11T01:03:43Z</time>
      </trkpt>
      <trkpt lat="45.08272" lon="4.00487">
        <ele>727.49572753906</ele>
        <time>2022-05-11T01:03:47Z</time>
      </trkpt>
      <trkpt lat="45.08234" lon="4.00476">
        <ele>727.27362060547</ele>
        <time>2022-05-11T01:03:51Z</time>
      </trkpt>
      <trkpt lat="45.0822" lon="4.00471">
        <ele>728.84185791016</ele>
        <time>2022-05-11T01:03:56Z</time>
      </trkpt>
      <trkpt lat="45.08202" lon="4.00452">
        <ele>730.35906982422</ele>
        <time>2022-05-11T01:04:01Z</time>
      </trkpt>
      <trkpt lat="45.08166" lon="4.00411">
        <ele>731.00958251953</ele>
        <time>2022-05-11T01:04:03Z</time>
      </trkpt>
      <trkpt lat="45.08194" lon="4.00397">
        <ele>730.85485839844</ele>
        <time>2022-05-11T01:04:06Z</time>
      </trkpt>
      <trkpt lat="45.08278" lon="4.00353">
        <ele>728.49481201172</ele>
        <time>2022-05-11T01:04:15Z</time>
      </trkpt>
      <trkpt lat="45.08299" lon="4.00343">
        <ele>728.677734375</ele>
        <time>2022-05-11T01:04:24Z</time>
      </trkpt>
      <trkpt lat="45.0834" lon="4.00334">
        <ele>728.17694091797</ele>
        <time>2022-05-11T01:04:34Z</time>
      </trkpt>
      <trkpt lat="45.0836" lon="4.0033">
        <ele>728.37677001953</ele>
        <time>2022-05-11T01:04:39Z</time>
      </trkpt>
      <trkpt lat="45.08382" lon="4.00321">
        <ele>728.38330078125</ele>
        <time>2022-05-11T01:04:42Z</time>
      </trkpt>
      <trkpt lat="45.08424" lon="4.00295">
        <ele>729.54962158203</ele>
        <time>2022-05-11T01:04:49Z</time>
      </trkpt>
      <trkpt lat="45.08448" lon="4.00284">
        <ele>730.70654296875</ele>
        <time>2022-05-11T01:04:49Z</time>
      </trkpt>
      <trkpt lat="45.08465" lon="4.0028">
        <ele>730.49212646484</ele>
        <time>2022-05-11T01:05:07Z</time>
      </trkpt>
      <trkpt lat="45.08486" lon="4.00277">
        <ele>730.45452880859</ele>
        <time>2022-05-11T01:05:14Z</time>
      </trkpt>
      <trkpt lat="45.08539" lon="4.00268">
        <ele>730.55718994141</ele>
        <time>2022-05-11T01:05:16Z</time>
      </trkpt>
      <trkpt lat="45.08593" lon="4.00257">
        <ele>730.52453613281</ele>
        <time>2022-05-11T01:05:20Z</time>
      </trkpt>
      <trkpt lat="45.08611" lon="4.00256">
        <ele>730.18481445312</ele>
        <time>2022-05-11T01:05:23Z</time>
      </trkpt>
      <trkpt lat="45.08633" lon="4.00258">
        <ele>730.00634765625</ele>
        <time>2022-05-11T01:05:25Z</time>
      </trkpt>
      <trkpt lat="45.08647" lon="4.00258">
        <ele>729.75317382812</ele>
        <time>2022-05-11T01:05:28Z</time>
      </trkpt>
      <trkpt lat="45.08698" lon="4.00244">
        <ele>727.38317871094</ele>
        <time>2022-05-11T01:05:32Z</time>
      </trkpt>
      <trkpt lat="45.08733" lon="4.00221">
        <ele>722.82415771484</ele>
        <time>2022-05-11T01:05:39Z</time>
      </trkpt>
      <trkpt lat="45.08765" lon="4.00198">
        <ele>719.30920410156</ele>
        <time>2022-05-11T01:05:42Z</time>
      </trkpt>
      <trkpt lat="45.08788" lon="4.00183">
        <ele>717.85070800781</ele>
        <time>2022-05-11T01:05:45Z</time>
      </trkpt>
      <trkpt lat="45.08814" lon="4.00151">
        <ele>715.94342041016</ele>
        <time>2022-05-11T01:05:54Z</time>
      </trkpt>
      <trkpt lat="45.08823" lon="4.00139">
        <ele>715.2587890625</ele>
        <time>2022-05-11T01:05:59Z</time>
      </trkpt>
      <trkpt lat="45.08854" lon="4.00118">
        <ele>714.64270019531</ele>
        <time>2022-05-11T01:06:15Z</time>
      </trkpt>
      <trkpt lat="45.08927" lon="4.00067">
        <ele>711.57586669922</ele>
        <time>2022-05-11T01:06:33Z</time>
      </trkpt>
      <trkpt lat="45.08967" lon="4.00027">
        <ele>709.88354492188</ele>
        <time>2022-05-11T01:06:42Z</time>
      </trkpt>
      <trkpt lat="45.08994" lon="3.99988">
        <ele>710.01733398438</ele>
        <time>2022-05-11T01:06:45Z</time>
      </trkpt>
      <trkpt lat="45.08999" lon="3.99975">
        <ele>710.31359863281</ele>
        <time>2022-05-11T01:06:47Z</time>
      </trkpt>
      <trkpt lat="45.0901" lon="3.99925">
        <ele>711.52056884766</ele>
        <time>2022-05-11T01:06:49Z</time>
      </trkpt>
      <trkpt lat="45.09016" lon="3.99906">
        <ele>710.24188232422</ele>
        <time>2022-05-11T01:06:52Z</time>
      </trkpt>
      <trkpt lat="45.09021" lon="3.99896">
        <ele>710.63922119141</ele>
        <time>2022-05-11T01:06:54Z</time>
      </trkpt>
      <trkpt lat="45.09029" lon="3.99888">
        <ele>709.99328613281</ele>
        <time>2022-05-11T01:06:56Z</time>
      </trkpt>
      <trkpt lat="45.09036" lon="3.99884">
        <ele>708.9111328125</ele>
        <time>2022-05-11T01:06:59Z</time>
      </trkpt>
      <trkpt lat="45.09048" lon="3.99876">
        <ele>706.97674560547</ele>
        <time>2022-05-11T01:07:04Z</time>
      </trkpt>
      <trkpt lat="45.09063" lon="3.99862">
        <ele>704.95007324219</ele>
        <time>2022-05-11T01:07:10Z</time>
      </trkpt>
      <trkpt lat="45.0907" lon="3.99836">
        <ele>703.97344970703</ele>
        <time>2022-05-11T01:07:15Z</time>
      </trkpt>
      <trkpt lat="45.09073" lon="3.99814">
        <ele>703.57141113281</ele>
        <time>2022-05-11T01:07:19Z</time>
      </trkpt>
      <trkpt lat="45.09075" lon="3.99785">
        <ele>702.06591796875</ele>
        <time>2022-05-11T01:07:25Z</time>
      </trkpt>
      <trkpt lat="45.09075" lon="3.9976">
        <ele>700.77825927734</ele>
        <time>2022-05-11T01:07:30Z</time>
      </trkpt>
      <trkpt lat="45.09073" lon="3.99751">
        <ele>700.64410400391</ele>
        <time>2022-05-11T01:07:32Z</time>
      </trkpt>
      <trkpt lat="45.09061" lon="3.99723">
        <ele>700.88311767578</ele>
        <time>2022-05-11T01:07:35Z</time>
      </trkpt>
      <trkpt lat="45.0905" lon="3.99694">
        <ele>700.94348144531</ele>
        <time>2022-05-11T01:07:45Z</time>
      </trkpt>
      <trkpt lat="45.09044" lon="3.99644">
        <ele>700.98681640625</ele>
        <time>2022-05-11T01:07:53Z</time>
      </trkpt>
      <trkpt lat="45.09038" lon="3.99606">
        <ele>700.63250732422</ele>
        <time>2022-05-11T01:07:55Z</time>
      </trkpt>
      <trkpt lat="45.09031" lon="3.99582">
        <ele>700.73651123047</ele>
        <time>2022-05-11T01:07:57Z</time>
      </trkpt>
      <trkpt lat="45.09025" lon="3.99558">
        <ele>700.42437744141</ele>
        <time>2022-05-11T01:08:00Z</time>
      </trkpt>
      <trkpt lat="45.09054" lon="3.99518">
        <ele>696.48565673828</ele>
        <time>2022-05-11T01:08:03Z</time>
      </trkpt>
      <trkpt lat="45.09068" lon="3.99502">
        <ele>695.58831787109</ele>
        <time>2022-05-11T01:08:05Z</time>
      </trkpt>
      <trkpt lat="45.09109" lon="3.99472">
        <ele>692.22058105469</ele>
        <time>2022-05-11T01:08:07Z</time>
      </trkpt>
      <trkpt lat="45.09132" lon="3.99456">
        <ele>691.48504638672</ele>
        <time>2022-05-11T01:08:12Z</time>
      </trkpt>
      <trkpt lat="45.09129" lon="3.99379">
        <ele>690.92022705078</ele>
        <time>2022-05-11T01:08:16Z</time>
      </trkpt>
      <trkpt lat="45.09127" lon="3.99328">
        <ele>691.68182373047</ele>
        <time>2022-05-11T01:08:18Z</time>
      </trkpt>
      <trkpt lat="45.09126" lon="3.99278">
        <ele>693.75317382812</ele>
        <time>2022-05-11T01:08:21Z</time>
      </trkpt>
      <trkpt lat="45.0913" lon="3.99257">
        <ele>694.38598632812</ele>
        <time>2022-05-11T01:08:25Z</time>
      </trkpt>
      <trkpt lat="45.09177" lon="3.99152">
        <ele>688.04321289062</ele>
        <time>2022-05-11T01:08:28Z</time>
      </trkpt>
      <trkpt lat="45.0921" lon="3.99061">
        <ele>684.94665527344</ele>
        <time>2022-05-11T01:08:30Z</time>
      </trkpt>
      <trkpt lat="45.09214" lon="3.99049">
        <ele>684.65386962891</ele>
        <time>2022-05-11T01:08:33Z</time>
      </trkpt>
      <trkpt lat="45.09233" lon="3.98949">
        <ele>682.88983154297</ele>
        <time>2022-05-11T01:08:37Z</time>
      </trkpt>
      <trkpt lat="45.09242" lon="3.98916">
        <ele>682.49670410156</ele>
        <time>2022-05-11T01:08:39Z</time>
      </trkpt>
      <trkpt lat="45.09268" lon="3.98861">
        <ele>681.49072265625</ele>
        <time>2022-05-11T01:08:42Z</time>
      </trkpt>
      <trkpt lat="45.09275" lon="3.9884">
        <ele>681.67669677734</ele>
        <time>2022-05-11T01:08:45Z</time>
      </trkpt>
      <trkpt lat="45.09302" lon="3.98729">
        <ele>681.84698486328</ele>
        <time>2022-05-11T01:08:50Z</time>
      </trkpt>
      <trkpt lat="45.09422" lon="3.98817">
        <ele>678.96563720703</ele>
        <time>2022-05-11T01:08:53Z</time>
      </trkpt>
      <trkpt lat="45.0945" lon="3.9884">
        <ele>678.08331298828</ele>
        <time>2022-05-11T01:08:59Z</time>
      </trkpt>
      <trkpt lat="45.09461" lon="3.98865">
        <ele>676.98486328125</ele>
        <time>2022-05-11T01:09:01Z</time>
      </trkpt>
      <trkpt lat="45.09475" lon="3.98908">
        <ele>675.42810058594</ele>
        <time>2022-05-11T01:09:02Z</time>
      </trkpt>
      <trkpt lat="45.09482" lon="3.9893">
        <ele>675.50146484375</ele>
        <time>2022-05-11T01:09:04Z</time>
      </trkpt>
      <trkpt lat="45.09495" lon="3.98961">
        <ele>674.49102783203</ele>
        <time>2022-05-11T01:09:07Z</time>
      </trkpt>
      <trkpt lat="45.09521" lon="3.99012">
        <ele>673.28167724609</ele>
        <time>2022-05-11T01:09:12Z</time>
      </trkpt>
      <trkpt lat="45.09554" lon="3.99077">
        <ele>671.20843505859</ele>
        <time>2022-05-11T01:09:21Z</time>
      </trkpt>
      <trkpt lat="45.09589" lon="3.99148">
        <ele>666.07098388672</ele>
        <time>2022-05-11T01:09:23Z</time>
      </trkpt>
      <trkpt lat="45.0961" lon="3.99189">
        <ele>664.36157226562</ele>
        <time>2022-05-11T01:09:25Z</time>
      </trkpt>
      <trkpt lat="45.09625" lon="3.99213">
        <ele>664.16253662109</ele>
        <time>2022-05-11T01:09:26Z</time>
      </trkpt>
      <trkpt lat="45.09629" lon="3.99219">
        <ele>664.13702392578</ele>
        <time>2022-05-11T01:09:32Z</time>
      </trkpt>
      <trkpt lat="45.09632" lon="3.9922">
        <ele>664.09350585938</ele>
        <time>2022-05-11T01:09:35Z</time>
      </trkpt>
      <trkpt lat="45.09691" lon="3.99217">
        <ele>663.63409423828</ele>
        <time>2022-05-11T01:09:37Z</time>
      </trkpt>
      <trkpt lat="45.09719" lon="3.99214">
        <ele>662.88549804688</ele>
        <time>2022-05-11T01:09:40Z</time>
      </trkpt>
      <trkpt lat="45.09753" lon="3.9922">
        <ele>663.99017333984</ele>
        <time>2022-05-11T01:09:45Z</time>
      </trkpt>
      <trkpt lat="45.09769" lon="3.99223">
        <ele>664.02722167969</ele>
        <time>2022-05-11T01:09:50Z</time>
      </trkpt>
      <trkpt lat="45.09791" lon="3.99221">
        <ele>663.67791748047</ele>
        <time>2022-05-11T01:09:54Z</time>
      </trkpt>
      <trkpt lat="45.09813" lon="3.9922">
        <ele>662.57061767578</ele>
        <time>2022-05-11T01:09:57Z</time>
      </trkpt>
      <trkpt lat="45.09838" lon="3.99208">
        <ele>661.13580322266</ele>
        <time>2022-05-11T01:10:00Z</time>
      </trkpt>
      <trkpt lat="45.09886" lon="3.99182">
        <ele>662.19689941406</ele>
        <time>2022-05-11T01:10:05Z</time>
      </trkpt>
      <trkpt lat="45.09944" lon="3.99156">
        <ele>663.10034179688</ele>
        <time>2022-05-11T01:10:12Z</time>
      </trkpt>
      <trkpt lat="45.09961" lon="3.99153">
        <ele>662.79382324219</ele>
        <time>2022-05-11T01:10:15Z</time>
      </trkpt>
      <trkpt lat="45.09991" lon="3.99159">
        <ele>663.35815429688</ele>
        <time>2022-05-11T01:10:19Z</time>
      </trkpt>
      <trkpt lat="45.09998" lon="3.9916">
        <ele>663.02990722656</ele>
        <time>2022-05-11T01:10:29Z</time>
      </trkpt>
      <trkpt lat="45.10007" lon="3.99156">
        <ele>661.35986328125</ele>
        <time>2022-05-11T01:10:34Z</time>
      </trkpt>
      <trkpt lat="45.10024" lon="3.99144">
        <ele>657.48266601562</ele>
        <time>2022-05-11T01:10:39Z</time>
      </trkpt>
      <trkpt lat="45.10032" lon="3.99138">
        <ele>658.8798828125</ele>
        <time>2022-05-11T01:10:48Z</time>
      </trkpt>
      <trkpt lat="45.10039" lon="3.99136">
        <ele>660.61163330078</ele>
        <time>2022-05-11T01:10:51Z</time>
      </trkpt>
      <trkpt lat="45.10059" lon="3.99141">
        <ele>663.53839111328</ele>
        <time>2022-05-11T01:10:54Z</time>
      </trkpt>
      <trkpt lat="45.10077" lon="3.99143">
        <ele>664.33563232422</ele>
        <time>2022-05-11T01:10:57Z</time>
      </trkpt>
      <trkpt lat="45.10094" lon="3.9914">
        <ele>663.78118896484</ele>
        <time>2022-05-11T01:11:00Z</time>
      </trkpt>
      <trkpt lat="45.10112" lon="3.99139">
        <ele>663.11651611328</ele>
        <time>2022-05-11T01:11:03Z</time>
      </trkpt>
      <trkpt lat="45.10146" lon="3.99139">
        <ele>661.03546142578</ele>
        <time>2022-05-11T01:11:09Z</time>
      </trkpt>
      <trkpt lat="45.10198" lon="3.99136">
        <ele>656.39135742188</ele>
        <time>2022-05-11T01:11:13Z</time>
      </trkpt>
      <trkpt lat="45.10224" lon="3.99129">
        <ele>655.80450439453</ele>
        <time>2022-05-11T01:11:16Z</time>
      </trkpt>
      <trkpt lat="45.10252" lon="3.99111">
        <ele>653.46917724609</ele>
        <time>2022-05-11T01:11:23Z</time>
      </trkpt>
      <trkpt lat="45.1027" lon="3.99103">
        <ele>652.54278564453</ele>
        <time>2022-05-11T01:11:25Z</time>
      </trkpt>
      <trkpt lat="45.10285" lon="3.991">
        <ele>651.41558837891</ele>
        <time>2022-05-11T01:11:26Z</time>
      </trkpt>
      <trkpt lat="45.10315" lon="3.99102">
        <ele>650.91162109375</ele>
        <time>2022-05-11T01:11:28Z</time>
      </trkpt>
      <trkpt lat="45.10334" lon="3.99103">
        <ele>650.87127685547</ele>
        <time>2022-05-11T01:11:32Z</time>
      </trkpt>
      <trkpt lat="45.10359" lon="3.99099">
        <ele>651.59930419922</ele>
        <time>2022-05-11T01:11:39Z</time>
      </trkpt>
      <trkpt lat="45.10392" lon="3.99095">
        <ele>651.27819824219</ele>
        <time>2022-05-11T01:11:42Z</time>
      </trkpt>
      <trkpt lat="45.10431" lon="3.99093">
        <ele>652.05816650391</ele>
        <time>2022-05-11T01:11:45Z</time>
      </trkpt>
      <trkpt lat="45.10449" lon="3.99087">
        <ele>652.05444335938</ele>
        <time>2022-05-11T01:11:47Z</time>
      </trkpt>
      <trkpt lat="45.10458" lon="3.99081">
        <ele>651.98419189453</ele>
        <time>2022-05-11T01:11:54Z</time>
      </trkpt>
      <trkpt lat="45.1048" lon="3.99063">
        <ele>652.56243896484</ele>
        <time>2022-05-11T01:11:56Z</time>
      </trkpt>
      <trkpt lat="45.10497" lon="3.99052">
        <ele>652.38690185547</ele>
        <time>2022-05-11T01:11:58Z</time>
      </trkpt>
      <trkpt lat="45.10519" lon="3.99038">
        <ele>651.54852294922</ele>
        <time>2022-05-11T01:12:08Z</time>
      </trkpt>
      <trkpt lat="45.10533" lon="3.99033">
        <ele>651.77337646484</ele>
        <time>2022-05-11T01:12:16Z</time>
      </trkpt>
      <trkpt lat="45.10561" lon="3.99021">
        <ele>649.97235107422</ele>
        <time>2022-05-11T01:12:24Z</time>
      </trkpt>
      <trkpt lat="45.10628" lon="3.98989">
        <ele>646.12219238281</ele>
        <time>2022-05-11T01:12:31Z</time>
      </trkpt>
      <trkpt lat="45.10673" lon="3.98968">
        <ele>645.59191894531</ele>
        <time>2022-05-11T01:12:33Z</time>
      </trkpt>
      <trkpt lat="45.10724" lon="3.98946">
        <ele>644.39147949219</ele>
        <time>2022-05-11T01:12:37Z</time>
      </trkpt>
      <trkpt lat="45.10764" lon="3.98936">
        <ele>644.05023193359</ele>
        <time>2022-05-11T01:12:43Z</time>
      </trkpt>
      <trkpt lat="45.10795" lon="3.9893">
        <ele>643.67926025391</ele>
        <time>2022-05-11T01:12:46Z</time>
      </trkpt>
      <trkpt lat="45.10838" lon="3.98926">
        <ele>644.04626464844</ele>
        <time>2022-05-11T01:12:48Z</time>
      </trkpt>
      <trkpt lat="45.10887" lon="3.98926">
        <ele>644.58758544922</ele>
        <time>2022-05-11T01:12:54Z</time>
      </trkpt>
      <trkpt lat="45.10992" lon="3.98931">
        <ele>644.43139648438</ele>
        <time>2022-05-11T01:12:58Z</time>
      </trkpt>
      <trkpt lat="45.11032" lon="3.98934">
        <ele>643.37908935547</ele>
        <time>2022-05-11T01:13:02Z</time>
      </trkpt>
      <trkpt lat="45.11042" lon="3.98936">
        <ele>643.17858886719</ele>
        <time>2022-05-11T01:13:05Z</time>
      </trkpt>
      <trkpt lat="45.1107" lon="3.98941">
        <ele>643.07006835938</ele>
        <time>2022-05-11T01:13:09Z</time>
      </trkpt>
      <trkpt lat="45.11078" lon="3.9894">
        <ele>643.05297851562</ele>
        <time>2022-05-11T01:13:12Z</time>
      </trkpt>
      <trkpt lat="45.1109" lon="3.98934">
        <ele>643.53582763672</ele>
        <time>2022-05-11T01:13:16Z</time>
      </trkpt>
      <trkpt lat="45.11117" lon="3.98914">
        <ele>645.76281738281</ele>
        <time>2022-05-11T01:13:19Z</time>
      </trkpt>
      <trkpt lat="45.11132" lon="3.98903">
        <ele>647.34857177734</ele>
        <time>2022-05-11T01:13:22Z</time>
      </trkpt>
      <trkpt lat="45.11149" lon="3.98894">
        <ele>648.41192626953</ele>
        <time>2022-05-11T01:13:27Z</time>
      </trkpt>
      <trkpt lat="45.11198" lon="3.98873">
        <ele>649.99444580078</ele>
        <time>2022-05-11T01:13:29Z</time>
      </trkpt>
      <trkpt lat="45.11213" lon="3.98863">
        <ele>650.76654052734</ele>
        <time>2022-05-11T01:13:32Z</time>
      </trkpt>
      <trkpt lat="45.11259" lon="3.98828">
        <ele>652.80438232422</ele>
        <time>2022-05-11T01:13:36Z</time>
      </trkpt>
      <trkpt lat="45.11295" lon="3.98805">
        <ele>655.14654541016</ele>
        <time>2022-05-11T01:13:38Z</time>
      </trkpt>
      <trkpt lat="45.1134" lon="3.98771">
        <ele>656.54943847656</ele>
        <time>2022-05-11T01:13:45Z</time>
      </trkpt>
      <trkpt lat="45.11372" lon="3.98753">
        <ele>655.94415283203</ele>
        <time>2022-05-11T01:13:48Z</time>
      </trkpt>
      <trkpt lat="45.1139" lon="3.98745">
        <ele>655.54852294922</ele>
        <time>2022-05-11T01:13:55Z</time>
      </trkpt>
      <trkpt lat="45.11428" lon="3.98738">
        <ele>654.47430419922</ele>
        <time>2022-05-11T01:14:00Z</time>
      </trkpt>
      <trkpt lat="45.11465" lon="3.98736">
        <ele>652.97991943359</ele>
        <time>2022-05-11T01:14:08Z</time>
      </trkpt>
      <trkpt lat="45.11507" lon="3.98742">
        <ele>651.61181640625</ele>
        <time>2022-05-11T01:14:13Z</time>
      </trkpt>
      <trkpt lat="45.11522" lon="3.98746">
        <ele>651.59338378906</ele>
        <time>2022-05-11T01:14:18Z</time>
      </trkpt>
      <trkpt lat="45.11562" lon="3.98753">
        <ele>648.74444580078</ele>
        <time>2022-05-11T01:14:21Z</time>
      </trkpt>
      <trkpt lat="45.11613" lon="3.98754">
        <ele>647.66571044922</ele>
        <time>2022-05-11T01:14:26Z</time>
      </trkpt>
      <trkpt lat="45.11647" lon="3.98755">
        <ele>646.49786376953</ele>
        <time>2022-05-11T01:14:28Z</time>
      </trkpt>
      <trkpt lat="45.11656" lon="3.98753">
        <ele>646.78771972656</ele>
        <time>2022-05-11T01:14:32Z</time>
      </trkpt>
      <trkpt lat="45.11689" lon="3.98746">
        <ele>647.6171875</ele>
        <time>2022-05-11T01:14:33Z</time>
      </trkpt>
      <trkpt lat="45.1171" lon="3.98744">
        <ele>648.36602783203</ele>
        <time>2022-05-11T01:14:35Z</time>
      </trkpt>
      <trkpt lat="45.11738" lon="3.98746">
        <ele>649.1015625</ele>
        <time>2022-05-11T01:14:37Z</time>
      </trkpt>
      <trkpt lat="45.11765" lon="3.98739">
        <ele>649.59460449219</ele>
        <time>2022-05-11T01:14:39Z</time>
      </trkpt>
      <trkpt lat="45.11803" lon="3.98731">
        <ele>650.64733886719</ele>
        <time>2022-05-11T01:14:42Z</time>
      </trkpt>
      <trkpt lat="45.11841" lon="3.98726">
        <ele>651.51452636719</ele>
        <time>2022-05-11T01:14:47Z</time>
      </trkpt>
      <trkpt lat="45.11863" lon="3.98722">
        <ele>651.14562988281</ele>
        <time>2022-05-11T01:14:56Z</time>
      </trkpt>
      <trkpt lat="45.11895" lon="3.98712">
        <ele>648.84967041016</ele>
        <time>2022-05-11T01:15:02Z</time>
      </trkpt>
      <trkpt lat="45.12056" lon="3.98638">
        <ele>641.55126953125</ele>
        <time>2022-05-11T01:15:05Z</time>
      </trkpt>
      <trkpt lat="45.12164" lon="3.9859">
        <ele>637.03332519531</ele>
        <time>2022-05-11T01:15:07Z</time>
      </trkpt>
      <trkpt lat="45.12253" lon="3.9855">
        <ele>633.77276611328</ele>
        <time>2022-05-11T01:15:16Z</time>
      </trkpt>
      <trkpt lat="45.12305" lon="3.9852">
        <ele>631.76507568359</ele>
        <time>2022-05-11T01:15:17Z</time>
      </trkpt>
      <trkpt lat="45.12332" lon="3.98501">
        <ele>631.20056152344</ele>
        <time>2022-05-11T01:15:20Z</time>
      </trkpt>
      <trkpt lat="45.12358" lon="3.98477">
        <ele>631.03698730469</ele>
        <time>2022-05-11T01:15:23Z</time>
      </trkpt>
      <trkpt lat="45.12376" lon="3.98464">
        <ele>631.28991699219</ele>
        <time>2022-05-11T01:15:26Z</time>
      </trkpt>
      <trkpt lat="45.12387" lon="3.9846">
        <ele>630.66607666016</ele>
        <time>2022-05-11T01:15:29Z</time>
      </trkpt>
      <trkpt lat="45.12396" lon="3.98459">
        <ele>630.5205078125</ele>
        <time>2022-05-11T01:15:35Z</time>
      </trkpt>
      <trkpt lat="45.1241" lon="3.9846">
        <ele>631.24255371094</ele>
        <time>2022-05-11T01:15:39Z</time>
      </trkpt>
      <trkpt lat="45.12429" lon="3.98464">
        <ele>630.77087402344</ele>
        <time>2022-05-11T01:15:44Z</time>
      </trkpt>
      <trkpt lat="45.12455" lon="3.98464">
        <ele>631.46002197266</ele>
        <time>2022-05-11T01:15:48Z</time>
      </trkpt>
      <trkpt lat="45.12481" lon="3.98459">
        <ele>632.65765380859</ele>
        <time>2022-05-11T01:15:53Z</time>
      </trkpt>
      <trkpt lat="45.12516" lon="3.9845">
        <ele>634.12701416016</ele>
        <time>2022-05-11T01:15:57Z</time>
      </trkpt>
      <trkpt lat="45.12552" lon="3.98446">
        <ele>635.9248046875</ele>
        <time>2022-05-11T01:16:02Z</time>
      </trkpt>
      <trkpt lat="45.12597" lon="3.98447">
        <ele>640.07928466797</ele>
        <time>2022-05-11T01:16:08Z</time>
      </trkpt>
      <trkpt lat="45.12628" lon="3.98451">
        <ele>642.23004150391</ele>
        <time>2022-05-11T01:16:12Z</time>
      </trkpt>
      <trkpt lat="45.1266" lon="3.98449">
        <ele>642.76513671875</ele>
        <time>2022-05-11T01:16:17Z</time>
      </trkpt>
      <trkpt lat="45.12685" lon="3.98448">
        <ele>643.25158691406</ele>
        <time>2022-05-11T01:16:21Z</time>
      </trkpt>
      <trkpt lat="45.12701" lon="3.98449">
        <ele>643.53930664062</ele>
        <time>2022-05-11T01:16:23Z</time>
      </trkpt>
      <trkpt lat="45.12738" lon="3.9846">
        <ele>643.17535400391</ele>
        <time>2022-05-11T01:16:26Z</time>
      </trkpt>
      <trkpt lat="45.1276" lon="3.98472">
        <ele>641.42828369141</ele>
        <time>2022-05-11T01:16:28Z</time>
      </trkpt>
      <trkpt lat="45.12779" lon="3.9849">
        <ele>638.78564453125</ele>
        <time>2022-05-11T01:16:29Z</time>
      </trkpt>
      <trkpt lat="45.12799" lon="3.98517">
        <ele>636.21313476562</ele>
        <time>2022-05-11T01:16:33Z</time>
      </trkpt>
      <trkpt lat="45.12817" lon="3.98551">
        <ele>635.01306152344</ele>
        <time>2022-05-11T01:16:37Z</time>
      </trkpt>
      <trkpt lat="45.12833" lon="3.98578">
        <ele>635.35162353516</ele>
        <time>2022-05-11T01:16:47Z</time>
      </trkpt>
      <trkpt lat="45.12859" lon="3.98586">
        <ele>635.05938720703</ele>
        <time>2022-05-11T01:16:58Z</time>
      </trkpt>
      <trkpt lat="45.12878" lon="3.9859">
        <ele>635.38507080078</ele>
        <time>2022-05-11T01:17:05Z</time>
      </trkpt>
      <trkpt lat="45.12904" lon="3.98593">
        <ele>636.28112792969</ele>
        <time>2022-05-11T01:17:12Z</time>
      </trkpt>
      <trkpt lat="45.12949" lon="3.98588">
        <ele>637.15838623047</ele>
        <time>2022-05-11T01:17:26Z</time>
      </trkpt>
      <trkpt lat="45.12957" lon="3.98589">
        <ele>637.35266113281</ele>
        <time>2022-05-11T01:17:29Z</time>
      </trkpt>
      <trkpt lat="45.12975" lon="3.98598">
        <ele>637.80914306641</ele>
        <time>2022-05-11T01:17:35Z</time>
      </trkpt>
      <trkpt lat="45.13021" lon="3.9862">
        <ele>638.74322509766</ele>
        <time>2022-05-11T01:17:50Z</time>
      </trkpt>
      <trkpt lat="45.13051" lon="3.98633">
        <ele>640.33343505859</ele>
        <time>2022-05-11T01:18:03Z</time>
      </trkpt>
      <trkpt lat="45.13085" lon="3.98645">
        <ele>642.30975341797</ele>
        <time>2022-05-11T01:18:15Z</time>
      </trkpt>
      <trkpt lat="45.13104" lon="3.98646">
        <ele>642.14416503906</ele>
        <time>2022-05-11T01:18:21Z</time>
      </trkpt>
      <trkpt lat="45.13114" lon="3.98647">
        <ele>641.37652587891</ele>
        <time>2022-05-11T01:18:27Z</time>
      </trkpt>
      <trkpt lat="45.13122" lon="3.98651">
        <ele>641.31256103516</ele>
        <time>2022-05-11T01:18:29Z</time>
      </trkpt>
      <trkpt lat="45.13128" lon="3.98658">
        <ele>641.53308105469</ele>
        <time>2022-05-11T01:18:33Z</time>
      </trkpt>
      <trkpt lat="45.13142" lon="3.98682">
        <ele>642.55200195312</ele>
        <time>2022-05-11T01:18:36Z</time>
      </trkpt>
      <trkpt lat="45.13169" lon="3.98675">
        <ele>643.82067871094</ele>
        <time>2022-05-11T01:18:38Z</time>
      </trkpt>
      <trkpt lat="45.13188" lon="3.98679">
        <ele>644.24298095703</ele>
        <time>2022-05-11T01:18:40Z</time>
      </trkpt>
      <trkpt lat="45.1321" lon="3.98664">
        <ele>646.32751464844</ele>
        <time>2022-05-11T01:18:43Z</time>
      </trkpt>
      <trkpt lat="45.13222" lon="3.98654">
        <ele>647.23486328125</ele>
        <time>2022-05-11T01:18:46Z</time>
      </trkpt>
      <trkpt lat="45.13224" lon="3.98657">
        <ele>647.42797851562</ele>
        <time>2022-05-11T01:18:56Z</time>
      </trkpt>
      <trkpt lat="45.13255" lon="3.98714">
        <ele>650.2939453125</ele>
        <time>2022-05-11T01:19:09Z</time>
      </trkpt>
      <trkpt lat="45.13258" lon="3.98733">
        <ele>650.92095947266</ele>
        <time>2022-05-11T01:19:17Z</time>
      </trkpt>
      <trkpt lat="45.1326" lon="3.98776">
        <ele>651.35693359375</ele>
        <time>2022-05-11T01:19:22Z</time>
      </trkpt>
      <trkpt lat="45.13265" lon="3.988">
        <ele>651.97210693359</ele>
        <time>2022-05-11T01:19:29Z</time>
      </trkpt>
      <trkpt lat="45.13274" lon="3.98828">
        <ele>652.24169921875</ele>
        <time>2022-05-11T01:19:34Z</time>
      </trkpt>
      <trkpt lat="45.13298" lon="3.98869">
        <ele>653.13885498047</ele>
        <time>2022-05-11T01:19:39Z</time>
      </trkpt>
      <trkpt lat="45.1331" lon="3.98884">
        <ele>653.51135253906</ele>
        <time>2022-05-11T01:19:44Z</time>
      </trkpt>
      <trkpt lat="45.13318" lon="3.98885">
        <ele>654.10302734375</ele>
        <time>2022-05-11T01:19:49Z</time>
      </trkpt>
      <trkpt lat="45.1334" lon="3.98884">
        <ele>655.56579589844</ele>
        <time>2022-05-11T01:19:53Z</time>
      </trkpt>
      <trkpt lat="45.1335" lon="3.98883">
        <ele>656.63793945312</ele>
        <time>2022-05-11T01:20:01Z</time>
      </trkpt>
      <trkpt lat="45.1336" lon="3.98885">
        <ele>657.84777832031</ele>
        <time>2022-05-11T01:20:08Z</time>
      </trkpt>
      <trkpt lat="45.13373" lon="3.989">
        <ele>658.70343017578</ele>
        <time>2022-05-11T01:20:12Z</time>
      </trkpt>
      <trkpt lat="45.1339" lon="3.98928">
        <ele>660.43634033203</ele>
        <time>2022-05-11T01:20:16Z</time>
      </trkpt>
      <trkpt lat="45.13432" lon="3.98991">
        <ele>663.90905761719</ele>
        <time>2022-05-11T01:20:20Z</time>
      </trkpt>
      <trkpt lat="45.1346" lon="3.99028">
        <ele>666.49285888672</ele>
        <time>2022-05-11T01:20:29Z</time>
      </trkpt>
      <trkpt lat="45.1348" lon="3.99042">
        <ele>667.96771240234</ele>
        <time>2022-05-11T01:20:32Z</time>
      </trkpt>
      <trkpt lat="45.135" lon="3.99051">
        <ele>669.02185058594</ele>
        <time>2022-05-11T01:20:37Z</time>
      </trkpt>
      <trkpt lat="45.13517" lon="3.99051">
        <ele>669.91046142578</ele>
        <time>2022-05-11T01:20:47Z</time>
      </trkpt>
      <trkpt lat="45.1354" lon="3.99044">
        <ele>671.86022949219</ele>
        <time>2022-05-11T01:21:00Z</time>
      </trkpt>
      <trkpt lat="45.13558" lon="3.99039">
        <ele>673.12335205078</ele>
        <time>2022-05-11T01:21:03Z</time>
      </trkpt>
      <trkpt lat="45.13584" lon="3.99037">
        <ele>674.43579101562</ele>
        <time>2022-05-11T01:21:13Z</time>
      </trkpt>
      <trkpt lat="45.13649" lon="3.99042">
        <ele>679.48742675781</ele>
        <time>2022-05-11T01:21:17Z</time>
      </trkpt>
      <trkpt lat="45.13676" lon="3.99045">
        <ele>681.0419921875</ele>
        <time>2022-05-11T01:21:23Z</time>
      </trkpt>
      <trkpt lat="45.13706" lon="3.99051">
        <ele>683.28790283203</ele>
        <time>2022-05-11T01:21:29Z</time>
      </trkpt>
      <trkpt lat="45.13729" lon="3.99061">
        <ele>684.78552246094</ele>
        <time>2022-05-11T01:21:38Z</time>
      </trkpt>
      <trkpt lat="45.13748" lon="3.99073">
        <ele>685.82214355469</ele>
        <time>2022-05-11T01:21:43Z</time>
      </trkpt>
      <trkpt lat="45.13767" lon="3.99089">
        <ele>686.87512207031</ele>
        <time>2022-05-11T01:21:46Z</time>
      </trkpt>
      <trkpt lat="45.1383" lon="3.99149">
        <ele>691.99896240234</ele>
        <time>2022-05-11T01:21:46Z</time>
      </trkpt>
      <trkpt lat="45.13863" lon="3.99179">
        <ele>694.15869140625</ele>
        <time>2022-05-11T01:21:52Z</time>
      </trkpt>
      <trkpt lat="45.13879" lon="3.99188">
        <ele>695.79174804688</ele>
        <time>2022-05-11T01:21:57Z</time>
      </trkpt>
      <trkpt lat="45.13893" lon="3.99191">
        <ele>696.50811767578</ele>
        <time>2022-05-11T01:22:01Z</time>
      </trkpt>
      <trkpt lat="45.13906" lon="3.99189">
        <ele>697.62683105469</ele>
        <time>2022-05-11T01:22:04Z</time>
      </trkpt>
      <trkpt lat="45.13919" lon="3.99184">
        <ele>698.16448974609</ele>
        <time>2022-05-11T01:22:07Z</time>
      </trkpt>
      <trkpt lat="45.13938" lon="3.99172">
        <ele>699.53601074219</ele>
        <time>2022-05-11T01:22:17Z</time>
      </trkpt>
      <trkpt lat="45.13972" lon="3.99148">
        <ele>701.65368652344</ele>
        <time>2022-05-11T01:22:22Z</time>
      </trkpt>
      <trkpt lat="45.13993" lon="3.99137">
        <ele>702.66760253906</ele>
        <time>2022-05-11T01:22:31Z</time>
      </trkpt>
      <trkpt lat="45.14007" lon="3.99132">
        <ele>703.85766601562</ele>
        <time>2022-05-11T01:22:41Z</time>
      </trkpt>
      <trkpt lat="45.1402" lon="3.99131">
        <ele>705.30462646484</ele>
        <time>2022-05-11T01:22:51Z</time>
      </trkpt>
      <trkpt lat="45.14036" lon="3.99134">
        <ele>706.60931396484</ele>
        <time>2022-05-11T01:23:04Z</time>
      </trkpt>
      <trkpt lat="45.14052" lon="3.99143">
        <ele>707.88922119141</ele>
        <time>2022-05-11T01:23:17Z</time>
      </trkpt>
      <trkpt lat="45.14069" lon="3.99159">
        <ele>709.66607666016</ele>
        <time>2022-05-11T01:23:35Z</time>
      </trkpt>
      <trkpt lat="45.14084" lon="3.99179">
        <ele>711.10095214844</ele>
        <time>2022-05-11T01:23:47Z</time>
      </trkpt>
      <trkpt lat="45.14099" lon="3.99209">
        <ele>713.08221435547</ele>
        <time>2022-05-11T01:23:54Z</time>
      </trkpt>
      <trkpt lat="45.14108" lon="3.99233">
        <ele>714.47277832031</ele>
        <time>2022-05-11T01:24:09Z</time>
      </trkpt>
      <trkpt lat="45.14113" lon="3.99258">
        <ele>715.81469726562</ele>
        <time>2022-05-11T01:24:23Z</time>
      </trkpt>
      <trkpt lat="45.14115" lon="3.99285">
        <ele>717.46948242188</ele>
        <time>2022-05-11T01:24:37Z</time>
      </trkpt>
      <trkpt lat="45.14112" lon="3.99318">
        <ele>719.22589111328</ele>
        <time>2022-05-11T01:24:48Z</time>
      </trkpt>
      <trkpt lat="45.14103" lon="3.99348">
        <ele>721.13098144531</ele>
        <time>2022-05-11T01:24:56Z</time>
      </trkpt>
      <trkpt lat="45.14083" lon="3.99384">
        <ele>723.48089599609</ele>
        <time>2022-05-11T01:25:03Z</time>
      </trkpt>
      <trkpt lat="45.14098" lon="3.99399">
        <ele>722.765625</ele>
        <time>2022-05-11T01:25:19Z</time>
      </trkpt>
      <trkpt lat="45.14119" lon="3.99419">
        <ele>724.11047363281</ele>
        <time>2022-05-11T01:25:30Z</time>
      </trkpt>
      <trkpt lat="45.14136" lon="3.99423">
        <ele>725.81866455078</ele>
        <time>2022-05-11T01:25:52Z</time>
      </trkpt>
      <trkpt lat="45.14147" lon="3.99421">
        <ele>726.31213378906</ele>
        <time>2022-05-11T01:25:58Z</time>
      </trkpt>
      <trkpt lat="45.14154" lon="3.99416">
        <ele>726.28375244141</ele>
        <time>2022-05-11T01:26:07Z</time>
      </trkpt>
      <trkpt lat="45.14164" lon="3.99401">
        <ele>727.02593994141</ele>
        <time>2022-05-11T01:26:15Z</time>
      </trkpt>
      <trkpt lat="45.14172" lon="3.99358">
        <ele>728.59265136719</ele>
        <time>2022-05-11T01:26:30Z</time>
      </trkpt>
      <trkpt lat="45.14181" lon="3.99328">
        <ele>729.74487304688</ele>
        <time>2022-05-11T01:26:55Z</time>
      </trkpt>
      <trkpt lat="45.14193" lon="3.99299">
        <ele>731.09326171875</ele>
        <time>2022-05-11T01:27:14Z</time>
      </trkpt>
      <trkpt lat="45.14201" lon="3.99265">
        <ele>731.50390625</ele>
        <time>2022-05-11T01:27:20Z</time>
      </trkpt>
      <trkpt lat="45.14201" lon="3.99244">
        <ele>732.53948974609</ele>
        <time>2022-05-11T01:27:43Z</time>
      </trkpt>
      <trkpt lat="45.14198" lon="3.99212">
        <ele>733.30346679688</ele>
        <time>2022-05-11T01:27:53Z</time>
      </trkpt>
      <trkpt lat="45.142" lon="3.99188">
        <ele>734.54693603516</ele>
        <time>2022-05-11T01:28:00Z</time>
      </trkpt>
      <trkpt lat="45.14208" lon="3.99157">
        <ele>735.14019775391</ele>
        <time>2022-05-11T01:28:23Z</time>
      </trkpt>
      <trkpt lat="45.14235" lon="3.99063">
        <ele>738.32000732422</ele>
        <time>2022-05-11T01:28:45Z</time>
      </trkpt>
      <trkpt lat="45.14243" lon="3.99013">
        <ele>738.90948486328</ele>
        <time>2022-05-11T01:28:59Z</time>
      </trkpt>
      <trkpt lat="45.14244" lon="3.9898">
        <ele>739.85662841797</ele>
        <time>2022-05-11T01:29:28Z</time>
      </trkpt>
      <trkpt lat="45.14242" lon="3.9896">
        <ele>740.49475097656</ele>
        <time>2022-05-11T01:29:41Z</time>
      </trkpt>
      <trkpt lat="45.14239" lon="3.98938">
        <ele>741.18377685547</ele>
        <time>2022-05-11T01:29:51Z</time>
      </trkpt>
      <trkpt lat="45.1424" lon="3.98909">
        <ele>742.65972900391</ele>
        <time>2022-05-11T01:29:58Z</time>
      </trkpt>
      <trkpt lat="45.14249" lon="3.98888">
        <ele>743.90246582031</ele>
        <time>2022-05-11T01:30:02Z</time>
      </trkpt>
      <trkpt lat="45.14266" lon="3.9887">
        <ele>745.28332519531</ele>
        <time>2022-05-11T01:30:06Z</time>
      </trkpt>
      <trkpt lat="45.14316" lon="3.98839">
        <ele>749.55029296875</ele>
        <time>2022-05-11T01:30:08Z</time>
      </trkpt>
      <trkpt lat="45.14325" lon="3.98826">
        <ele>750.12329101562</ele>
        <time>2022-05-11T01:30:12Z</time>
      </trkpt>
      <trkpt lat="45.14329" lon="3.98807">
        <ele>750.61938476562</ele>
        <time>2022-05-11T01:30:32Z</time>
      </trkpt>
      <trkpt lat="45.14328" lon="3.98775">
        <ele>752.14367675781</ele>
        <time>2022-05-11T01:30:43Z</time>
      </trkpt>
      <trkpt lat="45.14327" lon="3.98754">
        <ele>753.40319824219</ele>
        <time>2022-05-11T01:30:53Z</time>
      </trkpt>
      <trkpt lat="45.14332" lon="3.98734">
        <ele>754.40112304688</ele>
        <time>2022-05-11T01:31:07Z</time>
      </trkpt>
      <trkpt lat="45.14342" lon="3.98725">
        <ele>754.91833496094</ele>
        <time>2022-05-11T01:31:20Z</time>
      </trkpt>
      <trkpt lat="45.1436" lon="3.98719">
        <ele>755.70147705078</ele>
        <time>2022-05-11T01:31:32Z</time>
      </trkpt>
      <trkpt lat="45.14455" lon="3.98705">
        <ele>761.07019042969</ele>
        <time>2022-05-11T01:31:39Z</time>
      </trkpt>
      <trkpt lat="45.14474" lon="3.98702">
        <ele>761.81774902344</ele>
        <time>2022-05-11T01:31:45Z</time>
      </trkpt>
      <trkpt lat="45.14489" lon="3.98698">
        <ele>761.17529296875</ele>
        <time>2022-05-11T01:31:55Z</time>
      </trkpt>
      <trkpt lat="45.14513" lon="3.98688">
        <ele>760.83087158203</ele>
        <time>2022-05-11T01:32:06Z</time>
      </trkpt>
      <trkpt lat="45.14547" lon="3.98681">
        <ele>758.71276855469</ele>
        <time>2022-05-11T01:32:12Z</time>
      </trkpt>
      <trkpt lat="45.14607" lon="3.98679">
        <ele>756.81671142578</ele>
        <time>2022-05-11T01:32:15Z</time>
      </trkpt>
      <trkpt lat="45.14628" lon="3.98676">
        <ele>755.70288085938</ele>
        <time>2022-05-11T01:32:18Z</time>
      </trkpt>
      <trkpt lat="45.14647" lon="3.9867">
        <ele>754.85430908203</ele>
        <time>2022-05-11T01:32:22Z</time>
      </trkpt>
      <trkpt lat="45.14672" lon="3.98658">
        <ele>753.03936767578</ele>
        <time>2022-05-11T01:32:25Z</time>
      </trkpt>
      <trkpt lat="45.14689" lon="3.9865">
        <ele>752.02783203125</ele>
        <time>2022-05-11T01:32:32Z</time>
      </trkpt>
      <trkpt lat="45.14713" lon="3.98646">
        <ele>752.84161376953</ele>
        <time>2022-05-11T01:32:38Z</time>
      </trkpt>
      <trkpt lat="45.14783" lon="3.98652">
        <ele>750.56787109375</ele>
        <time>2022-05-11T01:32:47Z</time>
      </trkpt>
      <trkpt lat="45.14851" lon="3.9865">
        <ele>748.40698242188</ele>
        <time>2022-05-11T01:33:03Z</time>
      </trkpt>
      <trkpt lat="45.14869" lon="3.98649">
        <ele>748.33508300781</ele>
        <time>2022-05-11T01:33:09Z</time>
      </trkpt>
      <trkpt lat="45.14889" lon="3.98645">
        <ele>751.90258789062</ele>
        <time>2022-05-11T01:33:23Z</time>
      </trkpt>
      <trkpt lat="45.14914" lon="3.98632">
        <ele>752.83270263672</ele>
        <time>2022-05-11T01:33:27Z</time>
      </trkpt>
      <trkpt lat="45.14925" lon="3.98625">
        <ele>752.67340087891</ele>
        <time>2022-05-11T01:33:44Z</time>
      </trkpt>
      <trkpt lat="45.14978" lon="3.98568">
        <ele>749.14471435547</ele>
        <time>2022-05-11T01:33:49Z</time>
      </trkpt>
      <trkpt lat="45.15023" lon="3.98525">
        <ele>748.76025390625</ele>
        <time>2022-05-11T01:33:55Z</time>
      </trkpt>
      <trkpt lat="45.1505" lon="3.985">
        <ele>746.27111816406</ele>
        <time>2022-05-11T01:34:02Z</time>
      </trkpt>
      <trkpt lat="45.15078" lon="3.98469">
        <ele>744.52362060547</ele>
        <time>2022-05-11T01:34:07Z</time>
      </trkpt>
      <trkpt lat="45.15084" lon="3.98462">
        <ele>744.35406494141</ele>
        <time>2022-05-11T01:34:18Z</time>
      </trkpt>
      <trkpt lat="45.15103" lon="3.98445">
        <ele>742.66717529297</ele>
        <time>2022-05-11T01:34:29Z</time>
      </trkpt>
      <trkpt lat="45.15127" lon="3.98425">
        <ele>741.13732910156</ele>
        <time>2022-05-11T01:34:32Z</time>
      </trkpt>
      <trkpt lat="45.15175" lon="3.9839">
        <ele>740.11517333984</ele>
        <time>2022-05-11T01:34:52Z</time>
      </trkpt>
      <trkpt lat="45.15208" lon="3.98366">
        <ele>739.75207519531</ele>
        <time>2022-05-11T01:34:52Z</time>
      </trkpt>
      <trkpt lat="45.15243" lon="3.98347">
        <ele>739.20050048828</ele>
        <time>2022-05-11T01:35:15Z</time>
      </trkpt>
      <trkpt lat="45.15278" lon="3.98334">
        <ele>738.24816894531</ele>
        <time>2022-05-11T01:35:25Z</time>
      </trkpt>
      <trkpt lat="45.15318" lon="3.98326">
        <ele>736.37640380859</ele>
        <time>2022-05-11T01:35:28Z</time>
      </trkpt>
      <trkpt lat="45.15333" lon="3.98324">
        <ele>734.64373779297</ele>
        <time>2022-05-11T01:35:32Z</time>
      </trkpt>
      <trkpt lat="45.15346" lon="3.98324">
        <ele>733.30456542969</ele>
        <time>2022-05-11T01:35:37Z</time>
      </trkpt>
      <trkpt lat="45.1538" lon="3.98329">
        <ele>730.87536621094</ele>
        <time>2022-05-11T01:35:44Z</time>
      </trkpt>
      <trkpt lat="45.15438" lon="3.98337">
        <ele>728.13220214844</ele>
        <time>2022-05-11T01:35:57Z</time>
      </trkpt>
      <trkpt lat="45.1551" lon="3.98341">
        <ele>723.94311523438</ele>
        <time>2022-05-11T01:36:13Z</time>
      </trkpt>
      <trkpt lat="45.15537" lon="3.98337">
        <ele>722.43994140625</ele>
        <time>2022-05-11T01:36:19Z</time>
      </trkpt>
      <trkpt lat="45.15558" lon="3.98329">
        <ele>721.58996582031</ele>
        <time>2022-05-11T01:36:24Z</time>
      </trkpt>
      <trkpt lat="45.15597" lon="3.98314">
        <ele>720.93853759766</ele>
        <time>2022-05-11T01:36:28Z</time>
      </trkpt>
      <trkpt lat="45.15604" lon="3.98313">
        <ele>721.02380371094</ele>
        <time>2022-05-11T01:36:34Z</time>
      </trkpt>
      <trkpt lat="45.15624" lon="3.98312">
        <ele>722.03991699219</ele>
        <time>2022-05-11T01:36:39Z</time>
      </trkpt>
      <trkpt lat="45.15636" lon="3.98315">
        <ele>722.99829101562</ele>
        <time>2022-05-11T01:36:48Z</time>
      </trkpt>
      <trkpt lat="45.15648" lon="3.98322">
        <ele>723.63543701172</ele>
        <time>2022-05-11T01:36:55Z</time>
      </trkpt>
      <trkpt lat="45.15714" lon="3.98369">
        <ele>727.02368164062</ele>
        <time>2022-05-11T01:36:59Z</time>
      </trkpt>
      <trkpt lat="45.15732" lon="3.98379">
        <ele>727.41326904297</ele>
        <time>2022-05-11T01:37:03Z</time>
      </trkpt>
      <trkpt lat="45.15805" lon="3.98401">
        <ele>728.47900390625</ele>
        <time>2022-05-11T01:37:07Z</time>
      </trkpt>
      <trkpt lat="45.15848" lon="3.98418">
        <ele>729.14025878906</ele>
        <time>2022-05-11T01:37:32Z</time>
      </trkpt>
      <trkpt lat="45.1588" lon="3.98439">
        <ele>729.40130615234</ele>
        <time>2022-05-11T01:37:59Z</time>
      </trkpt>
      <trkpt lat="45.15938" lon="3.98488">
        <ele>732.13519287109</ele>
        <time>2022-05-11T01:38:07Z</time>
      </trkpt>
      <trkpt lat="45.15954" lon="3.98502">
        <ele>732.58612060547</ele>
        <time>2022-05-11T01:38:10Z</time>
      </trkpt>
      <trkpt lat="45.15971" lon="3.98522">
        <ele>734.66638183594</ele>
        <time>2022-05-11T01:38:15Z</time>
      </trkpt>
      <trkpt lat="45.15987" lon="3.98537">
        <ele>735.72241210938</ele>
        <time>2022-05-11T01:38:20Z</time>
      </trkpt>
      <trkpt lat="45.15997" lon="3.98541">
        <ele>736.05206298828</ele>
        <time>2022-05-11T01:38:26Z</time>
      </trkpt>
      <trkpt lat="45.16051" lon="3.98533">
        <ele>734.43609619141</ele>
        <time>2022-05-11T01:38:38Z</time>
      </trkpt>
      <trkpt lat="45.16066" lon="3.9854">
        <ele>734.15246582031</ele>
        <time>2022-05-11T01:38:47Z</time>
      </trkpt>
      <trkpt lat="45.16096" lon="3.9857">
        <ele>734.17834472656</ele>
        <time>2022-05-11T01:38:50Z</time>
      </trkpt>
      <trkpt lat="45.16121" lon="3.9858">
        <ele>735.38525390625</ele>
        <time>2022-05-11T01:38:58Z</time>
      </trkpt>
      <trkpt lat="45.1613" lon="3.98584">
        <ele>735.92944335938</ele>
        <time>2022-05-11T01:39:07Z</time>
      </trkpt>
      <trkpt lat="45.16135" lon="3.98588">
        <ele>736.48413085938</ele>
        <time>2022-05-11T01:39:10Z</time>
      </trkpt>
      <trkpt lat="45.16154" lon="3.98614">
        <ele>738.45825195312</ele>
        <time>2022-05-11T01:39:12Z</time>
      </trkpt>
      <trkpt lat="45.16167" lon="3.98623">
        <ele>739.72357177734</ele>
        <time>2022-05-11T01:39:18Z</time>
      </trkpt>
      <trkpt lat="45.1619" lon="3.98639">
        <ele>740.64880371094</ele>
        <time>2022-05-11T01:39:22Z</time>
      </trkpt>
      <trkpt lat="45.1621" lon="3.98659">
        <ele>742.11639404297</ele>
        <time>2022-05-11T01:39:24Z</time>
      </trkpt>
      <trkpt lat="45.16221" lon="3.9866">
        <ele>744.35070800781</ele>
        <time>2022-05-11T01:39:25Z</time>
      </trkpt>
      <trkpt lat="45.16229" lon="3.98654">
        <ele>745.65191650391</ele>
        <time>2022-05-11T01:39:28Z</time>
      </trkpt>
      <trkpt lat="45.16238" lon="3.98638">
        <ele>747.08312988281</ele>
        <time>2022-05-11T01:39:30Z</time>
      </trkpt>
      <trkpt lat="45.16236" lon="3.986">
        <ele>748.41412353516</ele>
        <time>2022-05-11T01:39:32Z</time>
      </trkpt>
      <trkpt lat="45.16236" lon="3.98586">
        <ele>748.43054199219</ele>
        <time>2022-05-11T01:39:37Z</time>
      </trkpt>
      <trkpt lat="45.16238" lon="3.98581">
        <ele>748.41192626953</ele>
        <time>2022-05-11T01:39:40Z</time>
      </trkpt>
      <trkpt lat="45.16266" lon="3.98544">
        <ele>749.17993164062</ele>
        <time>2022-05-11T01:39:43Z</time>
      </trkpt>
      <trkpt lat="45.16287" lon="3.98506">
        <ele>749.58111572266</ele>
        <time>2022-05-11T01:39:46Z</time>
      </trkpt>
      <trkpt lat="45.16347" lon="3.98448">
        <ele>748.17620849609</ele>
        <time>2022-05-11T01:40:03Z</time>
      </trkpt>
      <trkpt lat="45.16367" lon="3.98432">
        <ele>747.857421875</ele>
        <time>2022-05-11T01:40:05Z</time>
      </trkpt>
      <trkpt lat="45.16378" lon="3.98425">
        <ele>747.78930664062</ele>
        <time>2022-05-11T01:40:09Z</time>
      </trkpt>
      <trkpt lat="45.16387" lon="3.98422">
        <ele>747.84509277344</ele>
        <time>2022-05-11T01:40:17Z</time>
      </trkpt>
      <trkpt lat="45.16416" lon="3.98418">
        <ele>749.07904052734</ele>
        <time>2022-05-11T01:40:18Z</time>
      </trkpt>
      <trkpt lat="45.16494" lon="3.98408">
        <ele>751.80999755859</ele>
        <time>2022-05-11T01:40:26Z</time>
      </trkpt>
      <trkpt lat="45.1657" lon="3.98396">
        <ele>756.95471191406</ele>
        <time>2022-05-11T01:40:31Z</time>
      </trkpt>
      <trkpt lat="45.16621" lon="3.98379">
        <ele>759.76531982422</ele>
        <time>2022-05-11T01:40:36Z</time>
      </trkpt>
      <trkpt lat="45.16697" lon="3.98348">
        <ele>762.89367675781</ele>
        <time>2022-05-11T01:40:41Z</time>
      </trkpt>
      <trkpt lat="45.16723" lon="3.98331">
        <ele>763.91204833984</ele>
        <time>2022-05-11T01:40:49Z</time>
      </trkpt>
      <trkpt lat="45.16815" lon="3.9826">
        <ele>765.54815673828</ele>
        <time>2022-05-11T01:40:55Z</time>
      </trkpt>
      <trkpt lat="45.16831" lon="3.98246">
        <ele>765.74688720703</ele>
        <time>2022-05-11T01:41:05Z</time>
      </trkpt>
      <trkpt lat="45.16856" lon="3.98218">
        <ele>766.02014160156</ele>
        <time>2022-05-11T01:41:12Z</time>
      </trkpt>
      <trkpt lat="45.16894" lon="3.98163">
        <ele>766.59375</ele>
        <time>2022-05-11T01:41:15Z</time>
      </trkpt>
      <trkpt lat="45.1696" lon="3.98062">
        <ele>768.35693359375</ele>
        <time>2022-05-11T01:41:20Z</time>
      </trkpt>
      <trkpt lat="45.16964" lon="3.98053">
        <ele>768.68347167969</ele>
        <time>2022-05-11T01:41:23Z</time>
      </trkpt>
      <trkpt lat="45.16969" lon="3.98052">
        <ele>768.46398925781</ele>
        <time>2022-05-11T01:41:32Z</time>
      </trkpt>
      <trkpt lat="45.17022" lon="3.98054">
        <ele>766.9462890625</ele>
        <time>2022-05-11T01:41:42Z</time>
      </trkpt>
      <trkpt lat="45.17094" lon="3.98056">
        <ele>762.29028320312</ele>
        <time>2022-05-11T01:41:44Z</time>
      </trkpt>
      <trkpt lat="45.17132" lon="3.98052">
        <ele>759.62463378906</ele>
        <time>2022-05-11T01:41:52Z</time>
      </trkpt>
      <trkpt lat="45.1721" lon="3.98041">
        <ele>755.64569091797</ele>
        <time>2022-05-11T01:41:57Z</time>
      </trkpt>
      <trkpt lat="45.17255" lon="3.98032">
        <ele>753.40759277344</ele>
        <time>2022-05-11T01:42:02Z</time>
      </trkpt>
      <trkpt lat="45.17273" lon="3.98027">
        <ele>752.50109863281</ele>
        <time>2022-05-11T01:42:10Z</time>
      </trkpt>
      <trkpt lat="45.17286" lon="3.98026">
        <ele>751.77075195312</ele>
        <time>2022-05-11T01:42:19Z</time>
      </trkpt>
      <trkpt lat="45.17391" lon="3.98016">
        <ele>747.53131103516</ele>
        <time>2022-05-11T01:42:40Z</time>
      </trkpt>
      <trkpt lat="45.17416" lon="3.98012">
        <ele>746.07244873047</ele>
        <time>2022-05-11T01:43:02Z</time>
      </trkpt>
      <trkpt lat="45.17428" lon="3.98007">
        <ele>745.29779052734</ele>
        <time>2022-05-11T01:43:15Z</time>
      </trkpt>
      <trkpt lat="45.17467" lon="3.97974">
        <ele>744.59234619141</ele>
        <time>2022-05-11T01:43:20Z</time>
      </trkpt>
      <trkpt lat="45.17496" lon="3.97947">
        <ele>743.58905029297</ele>
        <time>2022-05-11T01:43:31Z</time>
      </trkpt>
      <trkpt lat="45.1751" lon="3.97941">
        <ele>743.32366943359</ele>
        <time>2022-05-11T01:43:40Z</time>
      </trkpt>
      <trkpt lat="45.17519" lon="3.9794">
        <ele>742.63275146484</ele>
        <time>2022-05-11T01:44:00Z</time>
      </trkpt>
      <trkpt lat="45.17536" lon="3.97942">
        <ele>741.76013183594</ele>
        <time>2022-05-11T01:44:04Z</time>
      </trkpt>
      <trkpt lat="45.17546" lon="3.9795">
        <ele>740.92639160156</ele>
        <time>2022-05-11T01:44:08Z</time>
      </trkpt>
      <trkpt lat="45.17571" lon="3.97986">
        <ele>739.20513916016</ele>
        <time>2022-05-11T01:44:13Z</time>
      </trkpt>
      <trkpt lat="45.17595" lon="3.98004">
        <ele>738.69873046875</ele>
        <time>2022-05-11T01:44:18Z</time>
      </trkpt>
      <trkpt lat="45.17638" lon="3.98035">
        <ele>737.63098144531</ele>
        <time>2022-05-11T01:44:22Z</time>
      </trkpt>
      <trkpt lat="45.17677" lon="3.98059">
        <ele>734.72058105469</ele>
        <time>2022-05-11T01:44:28Z</time>
      </trkpt>
      <trkpt lat="45.17695" lon="3.98067">
        <ele>733.98034667969</ele>
        <time>2022-05-11T01:44:31Z</time>
      </trkpt>
      <trkpt lat="45.17712" lon="3.98068">
        <ele>733.68627929688</ele>
        <time>2022-05-11T01:44:37Z</time>
      </trkpt>
      <trkpt lat="45.17815" lon="3.98076">
        <ele>728.20562744141</ele>
        <time>2022-05-11T01:44:42Z</time>
      </trkpt>
      <trkpt lat="45.17826" lon="3.98079">
        <ele>728.06079101562</ele>
        <time>2022-05-11T01:45:03Z</time>
      </trkpt>
      <trkpt lat="45.17842" lon="3.98088">
        <ele>727.30065917969</ele>
        <time>2022-05-11T01:45:06Z</time>
      </trkpt>
      <trkpt lat="45.17865" lon="3.981">
        <ele>726.14794921875</ele>
        <time>2022-05-11T01:45:11Z</time>
      </trkpt>
      <trkpt lat="45.17884" lon="3.98103">
        <ele>724.61804199219</ele>
        <time>2022-05-11T01:45:14Z</time>
      </trkpt>
      <trkpt lat="45.17906" lon="3.981">
        <ele>723.64569091797</ele>
        <time>2022-05-11T01:45:16Z</time>
      </trkpt>
      <trkpt lat="45.17922" lon="3.98096">
        <ele>722.59582519531</ele>
        <time>2022-05-11T01:45:21Z</time>
      </trkpt>
      <trkpt lat="45.17931" lon="3.98091">
        <ele>722.20153808594</ele>
        <time>2022-05-11T01:45:36Z</time>
      </trkpt>
      <trkpt lat="45.1795" lon="3.98073">
        <ele>721.21063232422</ele>
        <time>2022-05-11T01:45:40Z</time>
      </trkpt>
      <trkpt lat="45.18003" lon="3.98013">
        <ele>717.62194824219</ele>
        <time>2022-05-11T01:45:44Z</time>
      </trkpt>
      <trkpt lat="45.18011" lon="3.98001">
        <ele>716.77490234375</ele>
        <time>2022-05-11T01:45:48Z</time>
      </trkpt>
      <trkpt lat="45.18028" lon="3.97958">
        <ele>714.60620117188</ele>
        <time>2022-05-11T01:45:55Z</time>
      </trkpt>
      <trkpt lat="45.1804" lon="3.97942">
        <ele>713.8388671875</ele>
        <time>2022-05-11T01:46:06Z</time>
      </trkpt>
      <trkpt lat="45.18057" lon="3.97933">
        <ele>713.79760742188</ele>
        <time>2022-05-11T01:46:27Z</time>
      </trkpt>
      <trkpt lat="45.18071" lon="3.97931">
        <ele>714.17175292969</ele>
        <time>2022-05-11T01:46:33Z</time>
      </trkpt>
      <trkpt lat="45.18088" lon="3.97928">
        <ele>714.27423095703</ele>
        <time>2022-05-11T01:47:02Z</time>
      </trkpt>
      <trkpt lat="45.181" lon="3.97921">
        <ele>714.44952392578</ele>
        <time>2022-05-11T01:47:08Z</time>
      </trkpt>
      <trkpt lat="45.18112" lon="3.97911">
        <ele>715.42156982422</ele>
        <time>2022-05-11T01:47:20Z</time>
      </trkpt>
      <trkpt lat="45.18134" lon="3.97888">
        <ele>716.88226318359</ele>
        <time>2022-05-11T01:47:34Z</time>
      </trkpt>
      <trkpt lat="45.18165" lon="3.97851">
        <ele>716.99475097656</ele>
        <time>2022-05-11T01:47:58Z</time>
      </trkpt>
      <trkpt lat="45.18172" lon="3.97842">
        <ele>716.93859863281</ele>
        <time>2022-05-11T01:48:18Z</time>
      </trkpt>
      <trkpt lat="45.18188" lon="3.9781">
        <ele>716.37042236328</ele>
        <time>2022-05-11T01:48:28Z</time>
      </trkpt>
      <trkpt lat="45.18215" lon="3.97742">
        <ele>714.49792480469</ele>
        <time>2022-05-11T01:48:30Z</time>
      </trkpt>
      <trkpt lat="45.1822" lon="3.97735">
        <ele>714.38195800781</ele>
        <time>2022-05-11T01:48:35Z</time>
      </trkpt>
      <trkpt lat="45.18229" lon="3.97727">
        <ele>714.38201904297</ele>
        <time>2022-05-11T01:48:40Z</time>
      </trkpt>
      <trkpt lat="45.18286" lon="3.97692">
        <ele>713.86822509766</ele>
        <time>2022-05-11T01:48:50Z</time>
      </trkpt>
      <trkpt lat="45.18309" lon="3.97679">
        <ele>713.67578125</ele>
        <time>2022-05-11T01:48:55Z</time>
      </trkpt>
      <trkpt lat="45.1832" lon="3.97676">
        <ele>713.70770263672</ele>
        <time>2022-05-11T01:49:11Z</time>
      </trkpt>
      <trkpt lat="45.18333" lon="3.97675">
        <ele>713.669921875</ele>
        <time>2022-05-11T01:49:15Z</time>
      </trkpt>
      <trkpt lat="45.18348" lon="3.97672">
        <ele>712.6796875</ele>
        <time>2022-05-11T01:49:23Z</time>
      </trkpt>
      <trkpt lat="45.18364" lon="3.97665">
        <ele>711.83264160156</ele>
        <time>2022-05-11T01:49:27Z</time>
      </trkpt>
      <trkpt lat="45.18394" lon="3.97645">
        <ele>709.12133789062</ele>
        <time>2022-05-11T01:49:31Z</time>
      </trkpt>
      <trkpt lat="45.18414" lon="3.97632">
        <ele>707.38958740234</ele>
        <time>2022-05-11T01:49:45Z</time>
      </trkpt>
      <trkpt lat="45.18418" lon="3.97628">
        <ele>706.85485839844</ele>
        <time>2022-05-11T01:49:50Z</time>
      </trkpt>
      <trkpt lat="45.18424" lon="3.97623">
        <ele>706.08306884766</ele>
        <time>2022-05-11T01:49:59Z</time>
      </trkpt>
      <trkpt lat="45.18448" lon="3.97613">
        <ele>707.57012939453</ele>
        <time>2022-05-11T01:50:04Z</time>
      </trkpt>
      <trkpt lat="45.18469" lon="3.97609">
        <ele>710.49688720703</ele>
        <time>2022-05-11T01:50:08Z</time>
      </trkpt>
      <trkpt lat="45.18487" lon="3.97605">
        <ele>712.98913574219</ele>
        <time>2022-05-11T01:50:14Z</time>
      </trkpt>
      <trkpt lat="45.18501" lon="3.97599">
        <ele>714.17791748047</ele>
        <time>2022-05-11T01:50:19Z</time>
      </trkpt>
      <trkpt lat="45.18511" lon="3.97588">
        <ele>712.44458007812</ele>
        <time>2022-05-11T01:50:28Z</time>
      </trkpt>
      <trkpt lat="45.1852" lon="3.97574">
        <ele>710.40881347656</ele>
        <time>2022-05-11T01:50:36Z</time>
      </trkpt>
      <trkpt lat="45.18544" lon="3.97531">
        <ele>705.95721435547</ele>
        <time>2022-05-11T01:50:43Z</time>
      </trkpt>
      <trkpt lat="45.18565" lon="3.97505">
        <ele>703.86895751953</ele>
        <time>2022-05-11T01:50:49Z</time>
      </trkpt>
      <trkpt lat="45.18589" lon="3.97485">
        <ele>700.82147216797</ele>
        <time>2022-05-11T01:50:56Z</time>
      </trkpt>
      <trkpt lat="45.18608" lon="3.97473">
        <ele>696.7353515625</ele>
        <time>2022-05-11T01:51:06Z</time>
      </trkpt>
      <trkpt lat="45.18619" lon="3.97471">
        <ele>695.40386962891</ele>
        <time>2022-05-11T01:51:14Z</time>
      </trkpt>
      <trkpt lat="45.18631" lon="3.97476">
        <ele>695.42706298828</ele>
        <time>2022-05-11T01:51:19Z</time>
      </trkpt>
      <trkpt lat="45.18646" lon="3.97489">
        <ele>697.62213134766</ele>
        <time>2022-05-11T01:51:24Z</time>
      </trkpt>
      <trkpt lat="45.18654" lon="3.97491">
        <ele>697.33453369141</ele>
        <time>2022-05-11T01:51:32Z</time>
      </trkpt>
      <trkpt lat="45.18663" lon="3.9749">
        <ele>695.50738525391</ele>
        <time>2022-05-11T01:51:43Z</time>
      </trkpt>
      <trkpt lat="45.18679" lon="3.97481">
        <ele>691.85314941406</ele>
        <time>2022-05-11T01:51:46Z</time>
      </trkpt>
      <trkpt lat="45.18693" lon="3.97473">
        <ele>690.05310058594</ele>
        <time>2022-05-11T01:51:50Z</time>
      </trkpt>
      <trkpt lat="45.18705" lon="3.97473">
        <ele>689.88995361328</ele>
        <time>2022-05-11T01:51:56Z</time>
      </trkpt>
      <trkpt lat="45.1872" lon="3.97479">
        <ele>690.59771728516</ele>
        <time>2022-05-11T01:52:03Z</time>
      </trkpt>
      <trkpt lat="45.18728" lon="3.97483">
        <ele>691.34356689453</ele>
        <time>2022-05-11T01:52:08Z</time>
      </trkpt>
      <trkpt lat="45.18745" lon="3.97498">
        <ele>695.0615234375</ele>
        <time>2022-05-11T01:52:13Z</time>
      </trkpt>
      <trkpt lat="45.18756" lon="3.97507">
        <ele>696.61846923828</ele>
        <time>2022-05-11T01:52:15Z</time>
      </trkpt>
      <trkpt lat="45.1877" lon="3.97515">
        <ele>697.08923339844</ele>
        <time>2022-05-11T01:52:27Z</time>
      </trkpt>
      <trkpt lat="45.188" lon="3.97525">
        <ele>696.55450439453</ele>
        <time>2022-05-11T01:52:53Z</time>
      </trkpt>
      <trkpt lat="45.18825" lon="3.97533">
        <ele>690.25659179688</ele>
        <time>2022-05-11T01:53:00Z</time>
      </trkpt>
      <trkpt lat="45.18846" lon="3.97538">
        <ele>686.82263183594</ele>
        <time>2022-05-11T01:53:13Z</time>
      </trkpt>
      <trkpt lat="45.18854" lon="3.97539">
        <ele>687.34320068359</ele>
        <time>2022-05-11T01:53:17Z</time>
      </trkpt>
      <trkpt lat="45.18871" lon="3.97536">
        <ele>688.86047363281</ele>
        <time>2022-05-11T01:53:22Z</time>
      </trkpt>
      <trkpt lat="45.18888" lon="3.9753">
        <ele>686.62603759766</ele>
        <time>2022-05-11T01:53:41Z</time>
      </trkpt>
      <trkpt lat="45.18905" lon="3.97522">
        <ele>682.55517578125</ele>
        <time>2022-05-11T01:53:49Z</time>
      </trkpt>
      <trkpt lat="45.18921" lon="3.97512">
        <ele>678.44854736328</ele>
        <time>2022-05-11T01:53:53Z</time>
      </trkpt>
      <trkpt lat="45.1893" lon="3.97496">
        <ele>672.27191162109</ele>
        <time>2022-05-11T01:54:02Z</time>
      </trkpt>
      <trkpt lat="45.18933" lon="3.97479">
        <ele>672.79058837891</ele>
        <time>2022-05-11T01:54:30Z</time>
      </trkpt>
      <trkpt lat="45.18929" lon="3.97463">
        <ele>672.4287109375</ele>
        <time>2022-05-11T01:54:34Z</time>
      </trkpt>
      <trkpt lat="45.18917" lon="3.9744">
        <ele>673.80676269531</ele>
        <time>2022-05-11T01:54:40Z</time>
      </trkpt>
      <trkpt lat="45.18881" lon="3.97383">
        <ele>673.24993896484</ele>
        <time>2022-05-11T01:54:51Z</time>
      </trkpt>
      <trkpt lat="45.18874" lon="3.9736">
        <ele>672.12768554688</ele>
        <time>2022-05-11T01:55:09Z</time>
      </trkpt>
      <trkpt lat="45.18875" lon="3.97348">
        <ele>671.71282958984</ele>
        <time>2022-05-11T01:55:15Z</time>
      </trkpt>
      <trkpt lat="45.18878" lon="3.97336">
        <ele>670.49578857422</ele>
        <time>2022-05-11T01:55:23Z</time>
      </trkpt>
      <trkpt lat="45.18887" lon="3.97324">
        <ele>669.20318603516</ele>
        <time>2022-05-11T01:55:33Z</time>
      </trkpt>
      <trkpt lat="45.18898" lon="3.97314">
        <ele>668.33984375</ele>
        <time>2022-05-11T01:55:40Z</time>
      </trkpt>
      <trkpt lat="45.18914" lon="3.97305">
        <ele>668.10339355469</ele>
        <time>2022-05-11T01:55:42Z</time>
      </trkpt>
      <trkpt lat="45.18928" lon="3.97306">
        <ele>667.22906494141</ele>
        <time>2022-05-11T01:55:42Z</time>
      </trkpt>
      <trkpt lat="45.18941" lon="3.97316">
        <ele>666.23010253906</ele>
        <time>2022-05-11T01:55:43Z</time>
      </trkpt>
      <trkpt lat="45.18975" lon="3.9735">
        <ele>663.97662353516</ele>
        <time>2022-05-11T01:55:54Z</time>
      </trkpt>
      <trkpt lat="45.18986" lon="3.97365">
        <ele>662.92608642578</ele>
        <time>2022-05-11T01:56:06Z</time>
      </trkpt>
      <trkpt lat="45.18998" lon="3.97398">
        <ele>663.07592773438</ele>
        <time>2022-05-11T01:56:15Z</time>
      </trkpt>
      <trkpt lat="45.19016" lon="3.97442">
        <ele>661.30224609375</ele>
        <time>2022-05-11T01:56:20Z</time>
      </trkpt>
      <trkpt lat="45.19028" lon="3.9746">
        <ele>660.27508544922</ele>
        <time>2022-05-11T01:56:29Z</time>
      </trkpt>
      <trkpt lat="45.19043" lon="3.97475">
        <ele>656.61389160156</ele>
        <time>2022-05-11T01:56:37Z</time>
      </trkpt>
      <trkpt lat="45.19074" lon="3.97499">
        <ele>655.64123535156</ele>
        <time>2022-05-11T01:56:41Z</time>
      </trkpt>
      <trkpt lat="45.19105" lon="3.9752">
        <ele>648.50958251953</ele>
        <time>2022-05-11T01:56:46Z</time>
      </trkpt>
      <trkpt lat="45.19124" lon="3.97531">
        <ele>646.38708496094</ele>
        <time>2022-05-11T01:57:00Z</time>
      </trkpt>
      <trkpt lat="45.19145" lon="3.97542">
        <ele>642.86376953125</ele>
        <time>2022-05-11T01:57:10Z</time>
      </trkpt>
      <trkpt lat="45.19171" lon="3.97551">
        <ele>636.08514404297</ele>
        <time>2022-05-11T01:57:19Z</time>
      </trkpt>
      <trkpt lat="45.19191" lon="3.97555">
        <ele>631.36566162109</ele>
        <time>2022-05-11T01:57:29Z</time>
      </trkpt>
      <trkpt lat="45.19222" lon="3.97558">
        <ele>627.79913330078</ele>
        <time>2022-05-11T01:57:45Z</time>
      </trkpt>
      <trkpt lat="45.19229" lon="3.9756">
        <ele>627.62426757812</ele>
        <time>2022-05-11T01:57:54Z</time>
      </trkpt>
      <trkpt lat="45.19242" lon="3.97568">
        <ele>628.52795410156</ele>
        <time>2022-05-11T01:57:59Z</time>
      </trkpt>
      <trkpt lat="45.19253" lon="3.97574">
        <ele>628.87829589844</ele>
        <time>2022-05-11T01:58:03Z</time>
      </trkpt>
      <trkpt lat="45.19267" lon="3.97579">
        <ele>628.55725097656</ele>
        <time>2022-05-11T01:58:08Z</time>
      </trkpt>
      <trkpt lat="45.19285" lon="3.97577">
        <ele>624.33807373047</ele>
        <time>2022-05-11T01:58:08Z</time>
      </trkpt>
      <trkpt lat="45.19293" lon="3.97572">
        <ele>623.43951416016</ele>
        <time>2022-05-11T01:58:18Z</time>
      </trkpt>
      <trkpt lat="45.19318" lon="3.97546">
        <ele>622.58404541016</ele>
        <time>2022-05-11T01:58:30Z</time>
      </trkpt>
      <trkpt lat="45.19332" lon="3.97535">
        <ele>622.68579101562</ele>
        <time>2022-05-11T01:58:42Z</time>
      </trkpt>
      <trkpt lat="45.19343" lon="3.97531">
        <ele>623.91381835938</ele>
        <time>2022-05-11T01:58:51Z</time>
      </trkpt>
      <trkpt lat="45.1936" lon="3.97524">
        <ele>623.30804443359</ele>
        <time>2022-05-11T01:58:54Z</time>
      </trkpt>
      <trkpt lat="45.19389" lon="3.97508">
        <ele>617.86688232422</ele>
        <time>2022-05-11T01:58:58Z</time>
      </trkpt>
      <trkpt lat="45.194" lon="3.97494">
        <ele>613.50500488281</ele>
        <time>2022-05-11T01:59:01Z</time>
      </trkpt>
      <trkpt lat="45.19413" lon="3.97462">
        <ele>609.60375976562</ele>
        <time>2022-05-11T01:59:07Z</time>
      </trkpt>
      <trkpt lat="45.19431" lon="3.97423">
        <ele>606.39337158203</ele>
        <time>2022-05-11T01:59:11Z</time>
      </trkpt>
      <trkpt lat="45.19443" lon="3.97405">
        <ele>606.54364013672</ele>
        <time>2022-05-11T01:59:19Z</time>
      </trkpt>
      <trkpt lat="45.19449" lon="3.97399">
        <ele>606.29705810547</ele>
        <time>2022-05-11T01:59:36Z</time>
      </trkpt>
      <trkpt lat="45.19458" lon="3.97396">
        <ele>606.30157470703</ele>
        <time>2022-05-11T02:00:01Z</time>
      </trkpt>
      <trkpt lat="45.19463" lon="3.97396">
        <ele>607.43634033203</ele>
        <time>2022-05-11T02:00:10Z</time>
      </trkpt>
      <trkpt lat="45.19469" lon="3.97399">
        <ele>608.69586181641</ele>
        <time>2022-05-11T02:00:12Z</time>
      </trkpt>
      <trkpt lat="45.19475" lon="3.97407">
        <ele>609.92559814453</ele>
        <time>2022-05-11T02:00:12Z</time>
      </trkpt>
      <trkpt lat="45.19488" lon="3.97431">
        <ele>610.57159423828</ele>
        <time>2022-05-11T02:00:22Z</time>
      </trkpt>
      <trkpt lat="45.19492" lon="3.9744">
        <ele>610.13177490234</ele>
        <time>2022-05-11T02:00:30Z</time>
      </trkpt>
      <trkpt lat="45.19501" lon="3.97448">
        <ele>610.03350830078</ele>
        <time>2022-05-11T02:00:36Z</time>
      </trkpt>
      <trkpt lat="45.19527" lon="3.9746">
        <ele>608.71551513672</ele>
        <time>2022-05-11T02:01:00Z</time>
      </trkpt>
      <trkpt lat="45.19536" lon="3.97461">
        <ele>607.94714355469</ele>
        <time>2022-05-11T02:01:05Z</time>
      </trkpt>
      <trkpt lat="45.19553" lon="3.97457">
        <ele>606.07794189453</ele>
        <time>2022-05-11T02:01:21Z</time>
      </trkpt>
      <trkpt lat="45.19574" lon="3.97443">
        <ele>603.005859375</ele>
        <time>2022-05-11T02:01:29Z</time>
      </trkpt>
      <trkpt lat="45.19587" lon="3.97437">
        <ele>600.76580810547</ele>
        <time>2022-05-11T02:01:35Z</time>
      </trkpt>
      <trkpt lat="45.19604" lon="3.97432">
        <ele>599.20739746094</ele>
        <time>2022-05-11T02:01:37Z</time>
      </trkpt>
      <trkpt lat="45.19614" lon="3.97431">
        <ele>598.58624267578</ele>
        <time>2022-05-11T02:01:39Z</time>
      </trkpt>
      <trkpt lat="45.19642" lon="3.97438">
        <ele>599.57385253906</ele>
        <time>2022-05-11T02:01:50Z</time>
      </trkpt>
      <trkpt lat="45.19703" lon="3.97464">
        <ele>600.751953125</ele>
        <time>2022-05-11T02:01:56Z</time>
      </trkpt>
      <trkpt lat="45.19721" lon="3.97476">
        <ele>600.4521484375</ele>
        <time>2022-05-11T02:02:04Z</time>
      </trkpt>
      <trkpt lat="45.19739" lon="3.97493">
        <ele>599.51995849609</ele>
        <time>2022-05-11T02:02:21Z</time>
      </trkpt>
      <trkpt lat="45.19776" lon="3.97533">
        <ele>590.89898681641</ele>
        <time>2022-05-11T02:02:27Z</time>
      </trkpt>
      <trkpt lat="45.19786" lon="3.97548">
        <ele>585.26727294922</ele>
        <time>2022-05-11T02:02:33Z</time>
      </trkpt>
      <trkpt lat="45.19796" lon="3.97556">
        <ele>578.61743164062</ele>
        <time>2022-05-11T02:02:39Z</time>
      </trkpt>
      <trkpt lat="45.19813" lon="3.97561">
        <ele>576.83746337891</ele>
        <time>2022-05-11T02:02:43Z</time>
      </trkpt>
      <trkpt lat="45.19828" lon="3.97558">
        <ele>576.63983154297</ele>
        <time>2022-05-11T02:02:49Z</time>
      </trkpt>
      <trkpt lat="45.19853" lon="3.97558">
        <ele>586.27612304688</ele>
        <time>2022-05-11T02:02:58Z</time>
      </trkpt>
      <trkpt lat="45.19867" lon="3.97561">
        <ele>587.44378662109</ele>
        <time>2022-05-11T02:03:13Z</time>
      </trkpt>
      <trkpt lat="45.1994" lon="3.97602">
        <ele>569.98211669922</ele>
        <time>2022-05-11T02:03:26Z</time>
      </trkpt>
      <trkpt lat="45.1995" lon="3.97612">
        <ele>565.23779296875</ele>
        <time>2022-05-11T02:03:28Z</time>
      </trkpt>
      <trkpt lat="45.19957" lon="3.97628">
        <ele>563.21856689453</ele>
        <time>2022-05-11T02:03:33Z</time>
      </trkpt>
      <trkpt lat="45.19962" lon="3.97651">
        <ele>562.17913818359</ele>
        <time>2022-05-11T02:03:40Z</time>
      </trkpt>
      <trkpt lat="45.19962" lon="3.97671">
        <ele>563.12524414062</ele>
        <time>2022-05-11T02:03:43Z</time>
      </trkpt>
      <trkpt lat="45.19961" lon="3.97702">
        <ele>564.31140136719</ele>
        <time>2022-05-11T02:03:45Z</time>
      </trkpt>
      <trkpt lat="45.19966" lon="3.97744">
        <ele>560.09313964844</ele>
        <time>2022-05-11T02:03:47Z</time>
      </trkpt>
      <trkpt lat="45.19975" lon="3.97787">
        <ele>560.49822998047</ele>
        <time>2022-05-11T02:03:51Z</time>
      </trkpt>
      <trkpt lat="45.19983" lon="3.97802">
        <ele>559.80181884766</ele>
        <time>2022-05-11T02:03:55Z</time>
      </trkpt>
      <trkpt lat="45.19991" lon="3.97817">
        <ele>557.49920654297</ele>
        <time>2022-05-11T02:03:58Z</time>
      </trkpt>
      <trkpt lat="45.19994" lon="3.97832">
        <ele>558.49151611328</ele>
        <time>2022-05-11T02:04:02Z</time>
      </trkpt>
      <trkpt lat="45.20002" lon="3.97864">
        <ele>553.41217041016</ele>
        <time>2022-05-11T02:04:05Z</time>
      </trkpt>
      <trkpt lat="45.20014" lon="3.97931">
        <ele>550.501953125</ele>
        <time>2022-05-11T02:04:07Z</time>
      </trkpt>
      <trkpt lat="45.20022" lon="3.98009">
        <ele>546.00506591797</ele>
        <time>2022-05-11T02:04:10Z</time>
      </trkpt>
      <trkpt lat="45.20028" lon="3.98034">
        <ele>543.52325439453</ele>
        <time>2022-05-11T02:04:14Z</time>
      </trkpt>
      <trkpt lat="45.20058" lon="3.98105">
        <ele>538.13397216797</ele>
        <time>2022-05-11T02:04:20Z</time>
      </trkpt>
      <trkpt lat="45.20065" lon="3.98125">
        <ele>536.71820068359</ele>
        <time>2022-05-11T02:04:25Z</time>
      </trkpt>
      <trkpt lat="45.20071" lon="3.98169">
        <ele>535.32189941406</ele>
        <time>2022-05-11T02:04:39Z</time>
      </trkpt>
      <trkpt lat="45.20082" lon="3.98267">
        <ele>530.22137451172</ele>
        <time>2022-05-11T02:04:48Z</time>
      </trkpt>
      <trkpt lat="45.20087" lon="3.98279">
        <ele>529.78271484375</ele>
        <time>2022-05-11T02:04:58Z</time>
      </trkpt>
      <trkpt lat="45.20102" lon="3.9829">
        <ele>527.95349121094</ele>
        <time>2022-05-11T02:05:15Z</time>
      </trkpt>
      <trkpt lat="45.20103" lon="3.98305">
        <ele>528.16333007812</ele>
        <time>2022-05-11T02:05:18Z</time>
      </trkpt>
      <trkpt lat="45.20104" lon="3.98365">
        <ele>527.51739501953</ele>
        <time>2022-05-11T02:05:23Z</time>
      </trkpt>
      <trkpt lat="45.20104" lon="3.98482">
        <ele>524.48364257812</ele>
        <time>2022-05-11T02:05:26Z</time>
      </trkpt>
      <trkpt lat="45.20112" lon="3.98518">
        <ele>523.86590576172</ele>
        <time>2022-05-11T02:05:30Z</time>
      </trkpt>
      <trkpt lat="45.20121" lon="3.98546">
        <ele>522.50152587891</ele>
        <time>2022-05-11T02:05:34Z</time>
      </trkpt>
      <trkpt lat="45.20126" lon="3.98578">
        <ele>522.89978027344</ele>
        <time>2022-05-11T02:05:37Z</time>
      </trkpt>
      <trkpt lat="45.20129" lon="3.9865">
        <ele>523.37554931641</ele>
        <time>2022-05-11T02:05:40Z</time>
      </trkpt>
      <trkpt lat="45.20133" lon="3.98669">
        <ele>524.37292480469</ele>
        <time>2022-05-11T02:05:45Z</time>
      </trkpt>
      <trkpt lat="45.20163" lon="3.98753">
        <ele>527.56750488281</ele>
        <time>2022-05-11T02:05:50Z</time>
      </trkpt>
      <trkpt lat="45.20183" lon="3.98785">
        <ele>526.50189208984</ele>
        <time>2022-05-11T02:06:01Z</time>
      </trkpt>
      <trkpt lat="45.20203" lon="3.98811">
        <ele>524.55303955078</ele>
        <time>2022-05-11T02:06:09Z</time>
      </trkpt>
      <trkpt lat="45.20214" lon="3.98828">
        <ele>523.76330566406</ele>
        <time>2022-05-11T02:06:13Z</time>
      </trkpt>
      <trkpt lat="45.20231" lon="3.98861">
        <ele>524.90423583984</ele>
        <time>2022-05-11T02:06:18Z</time>
      </trkpt>
      <trkpt lat="45.20246" lon="3.9888">
        <ele>520.35198974609</ele>
        <time>2022-05-11T02:06:23Z</time>
      </trkpt>
      <trkpt lat="45.20266" lon="3.98898">
        <ele>517.63781738281</ele>
        <time>2022-05-11T02:06:27Z</time>
      </trkpt>
      <trkpt lat="45.20319" lon="3.98917">
        <ele>517.01538085938</ele>
        <time>2022-05-11T02:06:32Z</time>
      </trkpt>
      <trkpt lat="45.20321" lon="3.9885">
        <ele>506.72378540039</ele>
        <time>2022-05-11T02:06:37Z</time>
      </trkpt>
      <trkpt lat="45.20322" lon="3.98813">
        <ele>511.39401245117</ele>
        <time>2022-05-11T02:06:41Z</time>
      </trkpt>
      <trkpt lat="45.20325" lon="3.98801">
        <ele>512.68493652344</ele>
        <time>2022-05-11T02:06:46Z</time>
      </trkpt>
      <trkpt lat="45.20332" lon="3.98789">
        <ele>513.80816650391</ele>
        <time>2022-05-11T02:06:55Z</time>
      </trkpt>
      <trkpt lat="45.20336" lon="3.98777">
        <ele>514.57000732422</ele>
        <time>2022-05-11T02:06:59Z</time>
      </trkpt>
      <trkpt lat="45.20334" lon="3.98765">
        <ele>515.13238525391</ele>
        <time>2022-05-11T02:07:04Z</time>
      </trkpt>
      <trkpt lat="45.20328" lon="3.9875">
        <ele>516.30529785156</ele>
        <time>2022-05-11T02:07:09Z</time>
      </trkpt>
      <trkpt lat="45.20309" lon="3.98697">
        <ele>519.07458496094</ele>
        <time>2022-05-11T02:07:47Z</time>
      </trkpt>
      <trkpt lat="45.203" lon="3.98668">
        <ele>521.03948974609</ele>
        <time>2022-05-11T02:08:18Z</time>
      </trkpt>
      <trkpt lat="45.20299" lon="3.9865">
        <ele>522.31646728516</ele>
        <time>2022-05-11T02:08:48Z</time>
      </trkpt>
      <trkpt lat="45.20301" lon="3.98641">
        <ele>523.44934082031</ele>
        <time>2022-05-11T02:08:50Z</time>
      </trkpt>
      <trkpt lat="45.20311" lon="3.98622">
        <ele>525.83056640625</ele>
        <time>2022-05-11T02:08:52Z</time>
      </trkpt>
      <trkpt lat="45.20325" lon="3.98616">
        <ele>527.79962158203</ele>
        <time>2022-05-11T02:08:59Z</time>
      </trkpt>
      <trkpt lat="45.2033" lon="3.98615">
        <ele>528.44964599609</ele>
        <time>2022-05-11T02:09:14Z</time>
      </trkpt>
      <trkpt lat="45.20336" lon="3.98617">
        <ele>528.859375</ele>
        <time>2022-05-11T02:09:22Z</time>
      </trkpt>
      <trkpt lat="45.20351" lon="3.98628">
        <ele>530.1630859375</ele>
        <time>2022-05-11T02:09:27Z</time>
      </trkpt>
      <trkpt lat="45.20381" lon="3.98656">
        <ele>532.671875</ele>
        <time>2022-05-11T02:09:31Z</time>
      </trkpt>
      <trkpt lat="45.2044" lon="3.98708">
        <ele>537.75579833984</ele>
        <time>2022-05-11T02:09:34Z</time>
      </trkpt>
      <trkpt lat="45.20494" lon="3.98746">
        <ele>542.45556640625</ele>
        <time>2022-05-11T02:09:37Z</time>
      </trkpt>
      <trkpt lat="45.20514" lon="3.98755">
        <ele>542.35717773438</ele>
        <time>2022-05-11T02:09:42Z</time>
      </trkpt>
      <trkpt lat="45.2052" lon="3.98755">
        <ele>542.4580078125</ele>
        <time>2022-05-11T02:09:47Z</time>
      </trkpt>
      <trkpt lat="45.20534" lon="3.98749">
        <ele>543.79895019531</ele>
        <time>2022-05-11T02:09:57Z</time>
      </trkpt>
      <trkpt lat="45.20548" lon="3.98746">
        <ele>545.07116699219</ele>
        <time>2022-05-11T02:10:02Z</time>
      </trkpt>
      <trkpt lat="45.2056" lon="3.98751">
        <ele>546.03863525391</ele>
        <time>2022-05-11T02:10:04Z</time>
      </trkpt>
      <trkpt lat="45.20574" lon="3.98766">
        <ele>547.51293945312</ele>
        <time>2022-05-11T02:10:11Z</time>
      </trkpt>
      <trkpt lat="45.20586" lon="3.98776">
        <ele>547.80944824219</ele>
        <time>2022-05-11T02:10:18Z</time>
      </trkpt>
      <trkpt lat="45.20597" lon="3.98778">
        <ele>547.82849121094</ele>
        <time>2022-05-11T02:10:21Z</time>
      </trkpt>
      <trkpt lat="45.20616" lon="3.98771">
        <ele>549.08483886719</ele>
        <time>2022-05-11T02:10:27Z</time>
      </trkpt>
      <trkpt lat="45.20633" lon="3.98752">
        <ele>550.70788574219</ele>
        <time>2022-05-11T02:10:33Z</time>
      </trkpt>
      <trkpt lat="45.20646" lon="3.98729">
        <ele>552.99731445312</ele>
        <time>2022-05-11T02:10:38Z</time>
      </trkpt>
      <trkpt lat="45.20658" lon="3.98717">
        <ele>554.86694335938</ele>
        <time>2022-05-11T02:10:44Z</time>
      </trkpt>
      <trkpt lat="45.20664" lon="3.98715">
        <ele>556.08868408203</ele>
        <time>2022-05-11T02:10:54Z</time>
      </trkpt>
      <trkpt lat="45.20677" lon="3.98717">
        <ele>556.77575683594</ele>
        <time>2022-05-11T02:11:02Z</time>
      </trkpt>
      <trkpt lat="45.20684" lon="3.98723">
        <ele>557.98083496094</ele>
        <time>2022-05-11T02:11:08Z</time>
      </trkpt>
      <trkpt lat="45.20691" lon="3.9874">
        <ele>559.82836914062</ele>
        <time>2022-05-11T02:11:13Z</time>
      </trkpt>
      <trkpt lat="45.20696" lon="3.98765">
        <ele>558.14489746094</ele>
        <time>2022-05-11T02:11:21Z</time>
      </trkpt>
      <trkpt lat="45.20706" lon="3.98814">
        <ele>558.90802001953</ele>
        <time>2022-05-11T02:11:41Z</time>
      </trkpt>
      <trkpt lat="45.20714" lon="3.98839">
        <ele>560.28515625</ele>
        <time>2022-05-11T02:11:47Z</time>
      </trkpt>
      <trkpt lat="45.20722" lon="3.98848">
        <ele>561.13989257812</ele>
        <time>2022-05-11T02:11:50Z</time>
      </trkpt>
      <trkpt lat="45.20737" lon="3.98859">
        <ele>560.78448486328</ele>
        <time>2022-05-11T02:11:50Z</time>
      </trkpt>
      <trkpt lat="45.20744" lon="3.9886">
        <ele>560.78497314453</ele>
        <time>2022-05-11T02:11:55Z</time>
      </trkpt>
      <trkpt lat="45.20753" lon="3.98858">
        <ele>560.94512939453</ele>
        <time>2022-05-11T02:12:02Z</time>
      </trkpt>
      <trkpt lat="45.2076" lon="3.98852">
        <ele>561.39367675781</ele>
        <time>2022-05-11T02:12:12Z</time>
      </trkpt>
      <trkpt lat="45.20765" lon="3.98842">
        <ele>562.44757080078</ele>
        <time>2022-05-11T02:12:17Z</time>
      </trkpt>
      <trkpt lat="45.20768" lon="3.98831">
        <ele>563.76892089844</ele>
        <time>2022-05-11T02:12:38Z</time>
      </trkpt>
      <trkpt lat="45.20766" lon="3.98812">
        <ele>566.10467529297</ele>
        <time>2022-05-11T02:12:47Z</time>
      </trkpt>
      <trkpt lat="45.20756" lon="3.9879">
        <ele>567.77160644531</ele>
        <time>2022-05-11T02:12:51Z</time>
      </trkpt>
      <trkpt lat="45.20726" lon="3.98753">
        <ele>569.86376953125</ele>
        <time>2022-05-11T02:12:55Z</time>
      </trkpt>
      <trkpt lat="45.20719" lon="3.9874">
        <ele>570.74243164062</ele>
        <time>2022-05-11T02:12:57Z</time>
      </trkpt>
      <trkpt lat="45.20714" lon="3.98707">
        <ele>573.95220947266</ele>
        <time>2022-05-11T02:13:06Z</time>
      </trkpt>
      <trkpt lat="45.20711" lon="3.98673">
        <ele>575.64105224609</ele>
        <time>2022-05-11T02:13:17Z</time>
      </trkpt>
      <trkpt lat="45.20712" lon="3.9863">
        <ele>578.93017578125</ele>
        <time>2022-05-11T02:13:30Z</time>
      </trkpt>
      <trkpt lat="45.20713" lon="3.986">
        <ele>580.12707519531</ele>
        <time>2022-05-11T02:13:34Z</time>
      </trkpt>
      <trkpt lat="45.20711" lon="3.98585">
        <ele>582.56842041016</ele>
        <time>2022-05-11T02:13:38Z</time>
      </trkpt>
      <trkpt lat="45.20705" lon="3.98576">
        <ele>585.72943115234</ele>
        <time>2022-05-11T02:13:42Z</time>
      </trkpt>
      <trkpt lat="45.20695" lon="3.9857">
        <ele>586.88128662109</ele>
        <time>2022-05-11T02:13:46Z</time>
      </trkpt>
      <trkpt lat="45.2069" lon="3.9857">
        <ele>587.02758789062</ele>
        <time>2022-05-11T02:13:48Z</time>
      </trkpt>
      <trkpt lat="45.20656" lon="3.98579">
        <ele>584.12219238281</ele>
        <time>2022-05-11T02:13:50Z</time>
      </trkpt>
      <trkpt lat="45.20621" lon="3.98594">
        <ele>584.20318603516</ele>
        <time>2022-05-11T02:13:52Z</time>
      </trkpt>
      <trkpt lat="45.20609" lon="3.98596">
        <ele>584.90350341797</ele>
        <time>2022-05-11T02:13:54Z</time>
      </trkpt>
      <trkpt lat="45.20593" lon="3.9859">
        <ele>586.44964599609</ele>
        <time>2022-05-11T02:13:57Z</time>
      </trkpt>
      <trkpt lat="45.20586" lon="3.98582">
        <ele>587.47253417969</ele>
        <time>2022-05-11T02:14:01Z</time>
      </trkpt>
      <trkpt lat="45.20575" lon="3.98576">
        <ele>588.86077880859</ele>
        <time>2022-05-11T02:14:04Z</time>
      </trkpt>
      <trkpt lat="45.2055" lon="3.98574">
        <ele>589.91497802734</ele>
        <time>2022-05-11T02:14:16Z</time>
      </trkpt>
      <trkpt lat="45.20545" lon="3.98574">
        <ele>589.62738037109</ele>
        <time>2022-05-11T02:14:28Z</time>
      </trkpt>
      <trkpt lat="45.20529" lon="3.98566">
        <ele>589.67266845703</ele>
        <time>2022-05-11T02:14:33Z</time>
      </trkpt>
      <trkpt lat="45.20516" lon="3.98553">
        <ele>590.30883789062</ele>
        <time>2022-05-11T02:14:36Z</time>
      </trkpt>
      <trkpt lat="45.20501" lon="3.98507">
        <ele>591.79309082031</ele>
        <time>2022-05-11T02:14:39Z</time>
      </trkpt>
      <trkpt lat="45.2049" lon="3.98472">
        <ele>593.10394287109</ele>
        <time>2022-05-11T02:14:40Z</time>
      </trkpt>
      <trkpt lat="45.2048" lon="3.98454">
        <ele>593.84307861328</ele>
        <time>2022-05-11T02:14:43Z</time>
      </trkpt>
      <trkpt lat="45.20467" lon="3.98444">
        <ele>594.59033203125</ele>
        <time>2022-05-11T02:14:49Z</time>
      </trkpt>
      <trkpt lat="45.20452" lon="3.98437">
        <ele>595.01177978516</ele>
        <time>2022-05-11T02:14:54Z</time>
      </trkpt>
      <trkpt lat="45.20445" lon="3.98429">
        <ele>595.29974365234</ele>
        <time>2022-05-11T02:14:59Z</time>
      </trkpt>
      <trkpt lat="45.20437" lon="3.98413">
        <ele>596.01898193359</ele>
        <time>2022-05-11T02:15:01Z</time>
      </trkpt>
      <trkpt lat="45.20431" lon="3.98388">
        <ele>596.99432373047</ele>
        <time>2022-05-11T02:15:09Z</time>
      </trkpt>
      <trkpt lat="45.20423" lon="3.98327">
        <ele>599.6708984375</ele>
        <time>2022-05-11T02:15:11Z</time>
      </trkpt>
      <trkpt lat="45.20424" lon="3.98305">
        <ele>600.93823242188</ele>
        <time>2022-05-11T02:15:15Z</time>
      </trkpt>
      <trkpt lat="45.20428" lon="3.98273">
        <ele>602.84033203125</ele>
        <time>2022-05-11T02:15:19Z</time>
      </trkpt>
      <trkpt lat="45.20433" lon="3.98246">
        <ele>603.76336669922</ele>
        <time>2022-05-11T02:15:22Z</time>
      </trkpt>
      <trkpt lat="45.20433" lon="3.98234">
        <ele>604.11328125</ele>
        <time>2022-05-11T02:15:27Z</time>
      </trkpt>
      <trkpt lat="45.20428" lon="3.98214">
        <ele>604.86663818359</ele>
        <time>2022-05-11T02:15:30Z</time>
      </trkpt>
      <trkpt lat="45.20406" lon="3.9817">
        <ele>606.31964111328</ele>
        <time>2022-05-11T02:15:35Z</time>
      </trkpt>
      <trkpt lat="45.20395" lon="3.98139">
        <ele>607.8681640625</ele>
        <time>2022-05-11T02:15:40Z</time>
      </trkpt>
      <trkpt lat="45.20395" lon="3.98126">
        <ele>608.31372070312</ele>
        <time>2022-05-11T02:15:45Z</time>
      </trkpt>
      <trkpt lat="45.20399" lon="3.98111">
        <ele>608.81085205078</ele>
        <time>2022-05-11T02:15:53Z</time>
      </trkpt>
      <trkpt lat="45.20412" lon="3.98085">
        <ele>610.26556396484</ele>
        <time>2022-05-11T02:15:59Z</time>
      </trkpt>
      <trkpt lat="45.20444" lon="3.98051">
        <ele>613.28729248047</ele>
        <time>2022-05-11T02:16:02Z</time>
      </trkpt>
      <trkpt lat="45.20491" lon="3.98012">
        <ele>617.37603759766</ele>
        <time>2022-05-11T02:16:05Z</time>
      </trkpt>
      <trkpt lat="45.20541" lon="3.97961">
        <ele>621.98681640625</ele>
        <time>2022-05-11T02:16:11Z</time>
      </trkpt>
      <trkpt lat="45.20565" lon="3.9794">
        <ele>622.85852050781</ele>
        <time>2022-05-11T02:16:15Z</time>
      </trkpt>
      <trkpt lat="45.20595" lon="3.97913">
        <ele>624.42291259766</ele>
        <time>2022-05-11T02:16:18Z</time>
      </trkpt>
      <trkpt lat="45.20603" lon="3.97909">
        <ele>625.11224365234</ele>
        <time>2022-05-11T02:16:22Z</time>
      </trkpt>
      <trkpt lat="45.20618" lon="3.97909">
        <ele>626.37591552734</ele>
        <time>2022-05-11T02:16:26Z</time>
      </trkpt>
      <trkpt lat="45.20637" lon="3.97916">
        <ele>628.10900878906</ele>
        <time>2022-05-11T02:16:32Z</time>
      </trkpt>
      <trkpt lat="45.20746" lon="3.97985">
        <ele>631.89593505859</ele>
        <time>2022-05-11T02:16:35Z</time>
      </trkpt>
      <trkpt lat="45.20781" lon="3.98004">
        <ele>636.13421630859</ele>
        <time>2022-05-11T02:16:39Z</time>
      </trkpt>
      <trkpt lat="45.2084" lon="3.98001">
        <ele>640.78985595703</ele>
        <time>2022-05-11T02:16:46Z</time>
      </trkpt>
      <trkpt lat="45.20861" lon="3.97998">
        <ele>641.0634765625</ele>
        <time>2022-05-11T02:16:49Z</time>
      </trkpt>
      <trkpt lat="45.20875" lon="3.97988">
        <ele>640.08990478516</ele>
        <time>2022-05-11T02:16:53Z</time>
      </trkpt>
      <trkpt lat="45.20898" lon="3.97967">
        <ele>641.74560546875</ele>
        <time>2022-05-11T02:17:00Z</time>
      </trkpt>
      <trkpt lat="45.20908" lon="3.97963">
        <ele>642.54138183594</ele>
        <time>2022-05-11T02:17:03Z</time>
      </trkpt>
      <trkpt lat="45.20921" lon="3.97962">
        <ele>643.38177490234</ele>
        <time>2022-05-11T02:17:16Z</time>
      </trkpt>
      <trkpt lat="45.20955" lon="3.97978">
        <ele>645.11273193359</ele>
        <time>2022-05-11T02:17:40Z</time>
      </trkpt>
      <trkpt lat="45.20968" lon="3.97984">
        <ele>646.56481933594</ele>
        <time>2022-05-11T02:17:50Z</time>
      </trkpt>
      <trkpt lat="45.20974" lon="3.97986">
        <ele>647.33843994141</ele>
        <time>2022-05-11T02:17:56Z</time>
      </trkpt>
      <trkpt lat="45.20985" lon="3.97986">
        <ele>647.73706054688</ele>
        <time>2022-05-11T02:18:00Z</time>
      </trkpt>
      <trkpt lat="45.20998" lon="3.97982">
        <ele>648.45892333984</ele>
        <time>2022-05-11T02:18:09Z</time>
      </trkpt>
      <trkpt lat="45.21011" lon="3.97975">
        <ele>649.56866455078</ele>
        <time>2022-05-11T02:18:16Z</time>
      </trkpt>
      <trkpt lat="45.21076" lon="3.97941">
        <ele>654.39685058594</ele>
        <time>2022-05-11T02:18:33Z</time>
      </trkpt>
      <trkpt lat="45.2109" lon="3.97933">
        <ele>655.22436523438</ele>
        <time>2022-05-11T02:18:45Z</time>
      </trkpt>
      <trkpt lat="45.211" lon="3.97924">
        <ele>655.63623046875</ele>
        <time>2022-05-11T02:18:52Z</time>
      </trkpt>
      <trkpt lat="45.21118" lon="3.9789">
        <ele>655.73974609375</ele>
        <time>2022-05-11T02:18:57Z</time>
      </trkpt>
      <trkpt lat="45.21134" lon="3.97849">
        <ele>656.71014404297</ele>
        <time>2022-05-11T02:19:07Z</time>
      </trkpt>
      <trkpt lat="45.21142" lon="3.97821">
        <ele>658.40924072266</ele>
        <time>2022-05-11T02:19:11Z</time>
      </trkpt>
      <trkpt lat="45.21145" lon="3.97777">
        <ele>660.27703857422</ele>
        <time>2022-05-11T02:19:18Z</time>
      </trkpt>
      <trkpt lat="45.2115" lon="3.97742">
        <ele>662.15350341797</ele>
        <time>2022-05-11T02:19:28Z</time>
      </trkpt>
      <trkpt lat="45.21165" lon="3.97706">
        <ele>664.96484375</ele>
        <time>2022-05-11T02:19:33Z</time>
      </trkpt>
      <trkpt lat="45.21175" lon="3.97663">
        <ele>666.63482666016</ele>
        <time>2022-05-11T02:19:38Z</time>
      </trkpt>
      <trkpt lat="45.21176" lon="3.97649">
        <ele>667.78466796875</ele>
        <time>2022-05-11T02:19:42Z</time>
      </trkpt>
      <trkpt lat="45.21172" lon="3.97611">
        <ele>668.84832763672</ele>
        <time>2022-05-11T02:19:55Z</time>
      </trkpt>
      <trkpt lat="45.21165" lon="3.97582">
        <ele>670.48077392578</ele>
        <time>2022-05-11T02:20:01Z</time>
      </trkpt>
      <trkpt lat="45.21137" lon="3.97446">
        <ele>676.90747070312</ele>
        <time>2022-05-11T02:20:14Z</time>
      </trkpt>
      <trkpt lat="45.21112" lon="3.9733">
        <ele>683.59240722656</ele>
        <time>2022-05-11T02:20:20Z</time>
      </trkpt>
      <trkpt lat="45.21113" lon="3.97316">
        <ele>684.13238525391</ele>
        <time>2022-05-11T02:20:25Z</time>
      </trkpt>
      <trkpt lat="45.21117" lon="3.97298">
        <ele>684.81579589844</ele>
        <time>2022-05-11T02:20:29Z</time>
      </trkpt>
      <trkpt lat="45.21131" lon="3.97253">
        <ele>687.18884277344</ele>
        <time>2022-05-11T02:20:34Z</time>
      </trkpt>
      <trkpt lat="45.21134" lon="3.97228">
        <ele>689.05645751953</ele>
        <time>2022-05-11T02:20:40Z</time>
      </trkpt>
      <trkpt lat="45.21138" lon="3.97183">
        <ele>690.55670166016</ele>
        <time>2022-05-11T02:20:46Z</time>
      </trkpt>
      <trkpt lat="45.21138" lon="3.97159">
        <ele>690.87359619141</ele>
        <time>2022-05-11T02:20:52Z</time>
      </trkpt>
      <trkpt lat="45.21133" lon="3.97084">
        <ele>692.33422851562</ele>
        <time>2022-05-11T02:20:59Z</time>
      </trkpt>
      <trkpt lat="45.21132" lon="3.97048">
        <ele>692.54376220703</ele>
        <time>2022-05-11T02:21:03Z</time>
      </trkpt>
      <trkpt lat="45.21134" lon="3.97039">
        <ele>692.28137207031</ele>
        <time>2022-05-11T02:21:14Z</time>
      </trkpt>
      <trkpt lat="45.21138" lon="3.97024">
        <ele>691.82098388672</ele>
        <time>2022-05-11T02:21:20Z</time>
      </trkpt>
      <trkpt lat="45.21154" lon="3.9699">
        <ele>693.26300048828</ele>
        <time>2022-05-11T02:21:25Z</time>
      </trkpt>
      <trkpt lat="45.21175" lon="3.96943">
        <ele>695.82153320312</ele>
        <time>2022-05-11T02:21:28Z</time>
      </trkpt>
      <trkpt lat="45.21183" lon="3.96902">
        <ele>698</ele>
        <time>2022-05-11T02:21:31Z</time>
      </trkpt>
      <trkpt lat="45.21193" lon="3.96838">
        <ele>699.58959960938</ele>
        <time>2022-05-11T02:21:33Z</time>
      </trkpt>
      <trkpt lat="45.21195" lon="3.96817">
        <ele>701.60278320312</ele>
        <time>2022-05-11T02:21:37Z</time>
      </trkpt>
      <trkpt lat="45.21193" lon="3.96796">
        <ele>703.04382324219</ele>
        <time>2022-05-11T02:21:46Z</time>
      </trkpt>
      <trkpt lat="45.21186" lon="3.96776">
        <ele>703.99011230469</ele>
        <time>2022-05-11T02:21:49Z</time>
      </trkpt>
      <trkpt lat="45.21152" lon="3.96696">
        <ele>706.95581054688</ele>
        <time>2022-05-11T02:21:52Z</time>
      </trkpt>
      <trkpt lat="45.21148" lon="3.96675">
        <ele>707.68231201172</ele>
        <time>2022-05-11T02:21:56Z</time>
      </trkpt>
      <trkpt lat="45.21152" lon="3.96652">
        <ele>708.69659423828</ele>
        <time>2022-05-11T02:22:03Z</time>
      </trkpt>
      <trkpt lat="45.21169" lon="3.96586">
        <ele>711.39593505859</ele>
        <time>2022-05-11T02:22:13Z</time>
      </trkpt>
      <trkpt lat="45.21194" lon="3.96515">
        <ele>711.58020019531</ele>
        <time>2022-05-11T02:22:17Z</time>
      </trkpt>
      <trkpt lat="45.21201" lon="3.96499">
        <ele>712.08416748047</ele>
        <time>2022-05-11T02:22:21Z</time>
      </trkpt>
      <trkpt lat="45.21235" lon="3.96428">
        <ele>715.79235839844</ele>
        <time>2022-05-11T02:22:31Z</time>
      </trkpt>
      <trkpt lat="45.21272" lon="3.96348">
        <ele>722.03826904297</ele>
        <time>2022-05-11T02:22:34Z</time>
      </trkpt>
      <trkpt lat="45.21279" lon="3.96294">
        <ele>721.73876953125</ele>
        <time>2022-05-11T02:22:39Z</time>
      </trkpt>
      <trkpt lat="45.21285" lon="3.96237">
        <ele>723.11694335938</ele>
        <time>2022-05-11T02:22:48Z</time>
      </trkpt>
      <trkpt lat="45.21291" lon="3.96208">
        <ele>724.47399902344</ele>
        <time>2022-05-11T02:23:03Z</time>
      </trkpt>
      <trkpt lat="45.21314" lon="3.96139">
        <ele>726.22058105469</ele>
        <time>2022-05-11T02:23:08Z</time>
      </trkpt>
      <trkpt lat="45.21343" lon="3.96045">
        <ele>733.52160644531</ele>
        <time>2022-05-11T02:23:16Z</time>
      </trkpt>
      <trkpt lat="45.21366" lon="3.95981">
        <ele>737.31079101562</ele>
        <time>2022-05-11T02:23:21Z</time>
      </trkpt>
      <trkpt lat="45.21376" lon="3.9596">
        <ele>738.39532470703</ele>
        <time>2022-05-11T02:23:25Z</time>
      </trkpt>
      <trkpt lat="45.21393" lon="3.95929">
        <ele>739.27947998047</ele>
        <time>2022-05-11T02:23:32Z</time>
      </trkpt>
      <trkpt lat="45.21417" lon="3.95896">
        <ele>741.07061767578</ele>
        <time>2022-05-11T02:23:38Z</time>
      </trkpt>
      <trkpt lat="45.21436" lon="3.95887">
        <ele>741.62762451172</ele>
        <time>2022-05-11T02:23:49Z</time>
      </trkpt>
      <trkpt lat="45.21446" lon="3.95887">
        <ele>742.44830322266</ele>
        <time>2022-05-11T02:23:53Z</time>
      </trkpt>
      <trkpt lat="45.21471" lon="3.95893">
        <ele>743.20666503906</ele>
        <time>2022-05-11T02:24:01Z</time>
      </trkpt>
      <trkpt lat="45.21487" lon="3.95899">
        <ele>745.61328125</ele>
        <time>2022-05-11T02:24:05Z</time>
      </trkpt>
      <trkpt lat="45.21497" lon="3.959">
        <ele>746.30651855469</ele>
        <time>2022-05-11T02:24:12Z</time>
      </trkpt>
      <trkpt lat="45.21504" lon="3.95898">
        <ele>746.51605224609</ele>
        <time>2022-05-11T02:24:17Z</time>
      </trkpt>
      <trkpt lat="45.21511" lon="3.95894">
        <ele>747.36297607422</ele>
        <time>2022-05-11T02:24:28Z</time>
      </trkpt>
      <trkpt lat="45.21516" lon="3.95887">
        <ele>748.95794677734</ele>
        <time>2022-05-11T02:24:45Z</time>
      </trkpt>
      <trkpt lat="45.21533" lon="3.95833">
        <ele>753.5595703125</ele>
        <time>2022-05-11T02:25:00Z</time>
      </trkpt>
      <trkpt lat="45.21546" lon="3.95769">
        <ele>756.53167724609</ele>
        <time>2022-05-11T02:25:07Z</time>
      </trkpt>
      <trkpt lat="45.21553" lon="3.95749">
        <ele>756.84490966797</ele>
        <time>2022-05-11T02:25:17Z</time>
      </trkpt>
      <trkpt lat="45.21563" lon="3.95733">
        <ele>758.9560546875</ele>
        <time>2022-05-11T02:25:25Z</time>
      </trkpt>
      <trkpt lat="45.21593" lon="3.95697">
        <ele>768.04803466797</ele>
        <time>2022-05-11T02:25:31Z</time>
      </trkpt>
      <trkpt lat="45.2161" lon="3.95678">
        <ele>773.8515625</ele>
        <time>2022-05-11T02:25:36Z</time>
      </trkpt>
      <trkpt lat="45.21618" lon="3.95667">
        <ele>776.21160888672</ele>
        <time>2022-05-11T02:25:38Z</time>
      </trkpt>
      <trkpt lat="45.21623" lon="3.95654">
        <ele>776.62799072266</ele>
        <time>2022-05-11T02:25:49Z</time>
      </trkpt>
      <trkpt lat="45.21629" lon="3.9563">
        <ele>778.60095214844</ele>
        <time>2022-05-11T02:25:56Z</time>
      </trkpt>
      <trkpt lat="45.21634" lon="3.95595">
        <ele>778.52410888672</ele>
        <time>2022-05-11T02:26:17Z</time>
      </trkpt>
      <trkpt lat="45.21639" lon="3.95544">
        <ele>775.87109375</ele>
        <time>2022-05-11T02:26:23Z</time>
      </trkpt>
      <trkpt lat="45.21645" lon="3.95501">
        <ele>772.78125</ele>
        <time>2022-05-11T02:26:26Z</time>
      </trkpt>
      <trkpt lat="45.21649" lon="3.95481">
        <ele>772.82995605469</ele>
        <time>2022-05-11T02:26:36Z</time>
      </trkpt>
      <trkpt lat="45.21657" lon="3.95462">
        <ele>773.46484375</ele>
        <time>2022-05-11T02:26:45Z</time>
      </trkpt>
      <trkpt lat="45.21685" lon="3.95408">
        <ele>775.83843994141</ele>
        <time>2022-05-11T02:26:58Z</time>
      </trkpt>
      <trkpt lat="45.21726" lon="3.95342">
        <ele>777.39947509766</ele>
        <time>2022-05-11T02:27:12Z</time>
      </trkpt>
      <trkpt lat="45.21749" lon="3.95305">
        <ele>778.68157958984</ele>
        <time>2022-05-11T02:27:29Z</time>
      </trkpt>
      <trkpt lat="45.21757" lon="3.95292">
        <ele>779.18041992188</ele>
        <time>2022-05-11T02:27:35Z</time>
      </trkpt>
      <trkpt lat="45.21763" lon="3.95274">
        <ele>779.86651611328</ele>
        <time>2022-05-11T02:27:46Z</time>
      </trkpt>
      <trkpt lat="45.21764" lon="3.95255">
        <ele>781.59515380859</ele>
        <time>2022-05-11T02:28:03Z</time>
      </trkpt>
      <trkpt lat="45.21758" lon="3.95206">
        <ele>785.42279052734</ele>
        <time>2022-05-11T02:28:06Z</time>
      </trkpt>
      <trkpt lat="45.21756" lon="3.95182">
        <ele>787.10205078125</ele>
        <time>2022-05-11T02:28:10Z</time>
      </trkpt>
      <trkpt lat="45.21757" lon="3.95164">
        <ele>787.08465576172</ele>
        <time>2022-05-11T02:28:17Z</time>
      </trkpt>
      <trkpt lat="45.21762" lon="3.95148">
        <ele>788.26007080078</ele>
        <time>2022-05-11T02:28:24Z</time>
      </trkpt>
      <trkpt lat="45.21788" lon="3.95095">
        <ele>792.27069091797</ele>
        <time>2022-05-11T02:28:28Z</time>
      </trkpt>
      <trkpt lat="45.21805" lon="3.95059">
        <ele>795.62976074219</ele>
        <time>2022-05-11T02:28:32Z</time>
      </trkpt>
      <trkpt lat="45.21818" lon="3.95042">
        <ele>797.77508544922</ele>
        <time>2022-05-11T02:28:42Z</time>
      </trkpt>
      <trkpt lat="45.21847" lon="3.95012">
        <ele>797.40173339844</ele>
        <time>2022-05-11T02:28:52Z</time>
      </trkpt>
      <trkpt lat="45.21863" lon="3.94995">
        <ele>798.33728027344</ele>
        <time>2022-05-11T02:29:09Z</time>
      </trkpt>
      <trkpt lat="45.21882" lon="3.94988">
        <ele>798.16351318359</ele>
        <time>2022-05-11T02:29:17Z</time>
      </trkpt>
      <trkpt lat="45.21901" lon="3.94985">
        <ele>797.11437988281</ele>
        <time>2022-05-11T02:29:29Z</time>
      </trkpt>
      <trkpt lat="45.21905" lon="3.94981">
        <ele>796.75109863281</ele>
        <time>2022-05-11T02:29:42Z</time>
      </trkpt>
      <trkpt lat="45.21907" lon="3.94973">
        <ele>796.31591796875</ele>
        <time>2022-05-11T02:29:48Z</time>
      </trkpt>
      <trkpt lat="45.21908" lon="3.94959">
        <ele>796.68432617188</ele>
        <time>2022-05-11T02:29:50Z</time>
      </trkpt>
      <trkpt lat="45.21904" lon="3.9495">
        <ele>798.94836425781</ele>
        <time>2022-05-11T02:30:04Z</time>
      </trkpt>
      <trkpt lat="45.21897" lon="3.94943">
        <ele>800.31573486328</ele>
        <time>2022-05-11T02:30:23Z</time>
      </trkpt>
      <trkpt lat="45.21883" lon="3.94936">
        <ele>801.13177490234</ele>
        <time>2022-05-11T02:30:32Z</time>
      </trkpt>
      <trkpt lat="45.21862" lon="3.94931">
        <ele>800.42901611328</ele>
        <time>2022-05-11T02:30:37Z</time>
      </trkpt>
      <trkpt lat="45.21852" lon="3.94933">
        <ele>800.01959228516</ele>
        <time>2022-05-11T02:30:43Z</time>
      </trkpt>
      <trkpt lat="45.21817" lon="3.94951">
        <ele>800.95910644531</ele>
        <time>2022-05-11T02:30:48Z</time>
      </trkpt>
      <trkpt lat="45.21809" lon="3.94949">
        <ele>801.92150878906</ele>
        <time>2022-05-11T02:30:55Z</time>
      </trkpt>
      <trkpt lat="45.21805" lon="3.94946">
        <ele>803.24346923828</ele>
        <time>2022-05-11T02:31:03Z</time>
      </trkpt>
      <trkpt lat="45.218" lon="3.94935">
        <ele>804.83264160156</ele>
        <time>2022-05-11T02:31:20Z</time>
      </trkpt>
      <trkpt lat="45.21801" lon="3.94916">
        <ele>806.42041015625</ele>
        <time>2022-05-11T02:31:23Z</time>
      </trkpt>
      <trkpt lat="45.21807" lon="3.94904">
        <ele>808.95849609375</ele>
        <time>2022-05-11T02:31:28Z</time>
      </trkpt>
      <trkpt lat="45.21824" lon="3.94889">
        <ele>811.85888671875</ele>
        <time>2022-05-11T02:31:33Z</time>
      </trkpt>
      <trkpt lat="45.21836" lon="3.94884">
        <ele>813.96215820312</ele>
        <time>2022-05-11T02:31:40Z</time>
      </trkpt>
      <trkpt lat="45.21847" lon="3.94884">
        <ele>814.05114746094</ele>
        <time>2022-05-11T02:31:46Z</time>
      </trkpt>
      <trkpt lat="45.2187" lon="3.94888">
        <ele>811.46643066406</ele>
        <time>2022-05-11T02:31:56Z</time>
      </trkpt>
      <trkpt lat="45.21891" lon="3.94885">
        <ele>812.14886474609</ele>
        <time>2022-05-11T02:32:02Z</time>
      </trkpt>
      <trkpt lat="45.21907" lon="3.94879">
        <ele>812.15032958984</ele>
        <time>2022-05-11T02:32:15Z</time>
      </trkpt>
      <trkpt lat="45.21924" lon="3.94872">
        <ele>810.9248046875</ele>
        <time>2022-05-11T02:32:29Z</time>
      </trkpt>
      <trkpt lat="45.21942" lon="3.94867">
        <ele>811.63836669922</ele>
        <time>2022-05-11T02:32:40Z</time>
      </trkpt>
      <trkpt lat="45.21967" lon="3.94861">
        <ele>815.80041503906</ele>
        <time>2022-05-11T02:32:43Z</time>
      </trkpt>
      <trkpt lat="45.21983" lon="3.9486">
        <ele>817.60821533203</ele>
        <time>2022-05-11T02:32:54Z</time>
      </trkpt>
      <trkpt lat="45.22001" lon="3.94864">
        <ele>819.37365722656</ele>
        <time>2022-05-11T02:33:01Z</time>
      </trkpt>
      <trkpt lat="45.22023" lon="3.94873">
        <ele>820.12066650391</ele>
        <time>2022-05-11T02:33:04Z</time>
      </trkpt>
      <trkpt lat="45.22037" lon="3.94878">
        <ele>820.72308349609</ele>
        <time>2022-05-11T02:33:09Z</time>
      </trkpt>
      <trkpt lat="45.2206" lon="3.94881">
        <ele>821.08386230469</ele>
        <time>2022-05-11T02:33:17Z</time>
      </trkpt>
      <trkpt lat="45.22076" lon="3.94882">
        <ele>822.67169189453</ele>
        <time>2022-05-11T02:33:21Z</time>
      </trkpt>
      <trkpt lat="45.22101" lon="3.9488">
        <ele>824.15795898438</ele>
        <time>2022-05-11T02:33:22Z</time>
      </trkpt>
      <trkpt lat="45.22144" lon="3.94865">
        <ele>825.05834960938</ele>
        <time>2022-05-11T02:33:26Z</time>
      </trkpt>
      <trkpt lat="45.22174" lon="3.9485">
        <ele>826.47216796875</ele>
        <time>2022-05-11T02:33:28Z</time>
      </trkpt>
      <trkpt lat="45.222" lon="3.94837">
        <ele>827.51434326172</ele>
        <time>2022-05-11T02:33:33Z</time>
      </trkpt>
      <trkpt lat="45.2225" lon="3.94807">
        <ele>831.35974121094</ele>
        <time>2022-05-11T02:33:40Z</time>
      </trkpt>
      <trkpt lat="45.22287" lon="3.94795">
        <ele>834.04339599609</ele>
        <time>2022-05-11T02:33:43Z</time>
      </trkpt>
      <trkpt lat="45.22353" lon="3.94778">
        <ele>833.85656738281</ele>
        <time>2022-05-11T02:33:49Z</time>
      </trkpt>
      <trkpt lat="45.22391" lon="3.94764">
        <ele>834.52880859375</ele>
        <time>2022-05-11T02:34:05Z</time>
      </trkpt>
      <trkpt lat="45.22404" lon="3.94747">
        <ele>834.43200683594</ele>
        <time>2022-05-11T02:34:11Z</time>
      </trkpt>
      <trkpt lat="45.22418" lon="3.94716">
        <ele>836.13189697266</ele>
        <time>2022-05-11T02:34:16Z</time>
      </trkpt>
      <trkpt lat="45.22449" lon="3.94645">
        <ele>839.375</ele>
        <time>2022-05-11T02:34:22Z</time>
      </trkpt>
      <trkpt lat="45.2246" lon="3.94617">
        <ele>840.87469482422</ele>
        <time>2022-05-11T02:34:25Z</time>
      </trkpt>
      <trkpt lat="45.22472" lon="3.94577">
        <ele>842.34497070312</ele>
        <time>2022-05-11T02:34:32Z</time>
      </trkpt>
      <trkpt lat="45.22495" lon="3.94476">
        <ele>846.74243164062</ele>
        <time>2022-05-11T02:34:36Z</time>
      </trkpt>
      <trkpt lat="45.225" lon="3.94452">
        <ele>847.92102050781</ele>
        <time>2022-05-11T02:34:40Z</time>
      </trkpt>
      <trkpt lat="45.22503" lon="3.94423">
        <ele>849.81097412109</ele>
        <time>2022-05-11T02:34:45Z</time>
      </trkpt>
      <trkpt lat="45.22501" lon="3.94385">
        <ele>850.94476318359</ele>
        <time>2022-05-11T02:34:50Z</time>
      </trkpt>
      <trkpt lat="45.22496" lon="3.94351">
        <ele>852.65216064453</ele>
        <time>2022-05-11T02:34:52Z</time>
      </trkpt>
      <trkpt lat="45.22485" lon="3.94272">
        <ele>855.27374267578</ele>
        <time>2022-05-11T02:34:55Z</time>
      </trkpt>
      <trkpt lat="45.22475" lon="3.94203">
        <ele>858.01916503906</ele>
        <time>2022-05-11T02:35:04Z</time>
      </trkpt>
      <trkpt lat="45.22464" lon="3.94146">
        <ele>859.72760009766</ele>
        <time>2022-05-11T02:35:13Z</time>
      </trkpt>
      <trkpt lat="45.22457" lon="3.94118">
        <ele>860.42797851562</ele>
        <time>2022-05-11T02:35:23Z</time>
      </trkpt>
      <trkpt lat="45.22421" lon="3.93995">
        <ele>866.28497314453</ele>
        <time>2022-05-11T02:35:28Z</time>
      </trkpt>
      <trkpt lat="45.22408" lon="3.93954">
        <ele>867.44976806641</ele>
        <time>2022-05-11T02:35:31Z</time>
      </trkpt>
      <trkpt lat="45.22399" lon="3.93919">
        <ele>868.12982177734</ele>
        <time>2022-05-11T02:35:38Z</time>
      </trkpt>
      <trkpt lat="45.22384" lon="3.93828">
        <ele>871.17041015625</ele>
        <time>2022-05-11T02:35:38Z</time>
      </trkpt>
      <trkpt lat="45.22374" lon="3.93779">
        <ele>874.14465332031</ele>
        <time>2022-05-11T02:35:56Z</time>
      </trkpt>
      <trkpt lat="45.22428" lon="3.93755">
        <ele>871.953125</ele>
        <time>2022-05-11T02:36:03Z</time>
      </trkpt>
      <trkpt lat="45.22447" lon="3.93748">
        <ele>870.28051757812</ele>
        <time>2022-05-11T02:36:05Z</time>
      </trkpt>
      <trkpt lat="45.22497" lon="3.9373">
        <ele>867.66119384766</ele>
        <time>2022-05-11T02:36:07Z</time>
      </trkpt>
      <trkpt lat="45.22513" lon="3.93728">
        <ele>866.53601074219</ele>
        <time>2022-05-11T02:36:09Z</time>
      </trkpt>
      <trkpt lat="45.22586" lon="3.93745">
        <ele>861.67602539062</ele>
        <time>2022-05-11T02:36:12Z</time>
      </trkpt>
      <trkpt lat="45.22638" lon="3.93758">
        <ele>859.06341552734</ele>
        <time>2022-05-11T02:36:14Z</time>
      </trkpt>
      <trkpt lat="45.22647" lon="3.93763">
        <ele>858.38452148438</ele>
        <time>2022-05-11T02:36:17Z</time>
      </trkpt>
      <trkpt lat="45.2267" lon="3.93777">
        <ele>857.75939941406</ele>
        <time>2022-05-11T02:36:21Z</time>
      </trkpt>
      <trkpt lat="45.22687" lon="3.93792">
        <ele>856.98797607422</ele>
        <time>2022-05-11T02:36:28Z</time>
      </trkpt>
      <trkpt lat="45.22717" lon="3.93821">
        <ele>854.32263183594</ele>
        <time>2022-05-11T02:36:31Z</time>
      </trkpt>
      <trkpt lat="45.22736" lon="3.93846">
        <ele>855.43762207031</ele>
        <time>2022-05-11T02:36:34Z</time>
      </trkpt>
      <trkpt lat="45.22743" lon="3.93861">
        <ele>856.59649658203</ele>
        <time>2022-05-11T02:36:43Z</time>
      </trkpt>
      <trkpt lat="45.22747" lon="3.93882">
        <ele>857.56988525391</ele>
        <time>2022-05-11T02:36:48Z</time>
      </trkpt>
      <trkpt lat="45.22751" lon="3.93907">
        <ele>858.50762939453</ele>
        <time>2022-05-11T02:37:04Z</time>
      </trkpt>
      <trkpt lat="45.22756" lon="3.93926">
        <ele>859.03637695312</ele>
        <time>2022-05-11T02:37:22Z</time>
      </trkpt>
      <trkpt lat="45.22763" lon="3.93941">
        <ele>860.07836914062</ele>
        <time>2022-05-11T02:37:31Z</time>
      </trkpt>
      <trkpt lat="45.22784" lon="3.93965">
        <ele>862.20703125</ele>
        <time>2022-05-11T02:37:34Z</time>
      </trkpt>
      <trkpt lat="45.22864" lon="3.94045">
        <ele>867.85968017578</ele>
        <time>2022-05-11T02:37:36Z</time>
      </trkpt>
      <trkpt lat="45.22882" lon="3.94054">
        <ele>868.95721435547</ele>
        <time>2022-05-11T02:37:38Z</time>
      </trkpt>
      <trkpt lat="45.22942" lon="3.94085">
        <ele>874.48236083984</ele>
        <time>2022-05-11T02:37:41Z</time>
      </trkpt>
      <trkpt lat="45.2296" lon="3.94097">
        <ele>875.49633789062</ele>
        <time>2022-05-11T02:37:43Z</time>
      </trkpt>
      <trkpt lat="45.22972" lon="3.94111">
        <ele>875.6708984375</ele>
        <time>2022-05-11T02:37:45Z</time>
      </trkpt>
      <trkpt lat="45.22995" lon="3.94154">
        <ele>876.56945800781</ele>
        <time>2022-05-11T02:37:48Z</time>
      </trkpt>
      <trkpt lat="45.2301" lon="3.9418">
        <ele>878.50555419922</ele>
        <time>2022-05-11T02:37:53Z</time>
      </trkpt>
      <trkpt lat="45.23036" lon="3.94215">
        <ele>880.93859863281</ele>
        <time>2022-05-11T02:37:59Z</time>
      </trkpt>
      <trkpt lat="45.23051" lon="3.94229">
        <ele>882.09118652344</ele>
        <time>2022-05-11T02:38:04Z</time>
      </trkpt>
      <trkpt lat="45.23073" lon="3.94253">
        <ele>884.67333984375</ele>
        <time>2022-05-11T02:38:11Z</time>
      </trkpt>
      <trkpt lat="45.23099" lon="3.94289">
        <ele>883.13928222656</ele>
        <time>2022-05-11T02:38:14Z</time>
      </trkpt>
      <trkpt lat="45.23104" lon="3.94294">
        <ele>883.09069824219</ele>
        <time>2022-05-11T02:38:19Z</time>
      </trkpt>
      <trkpt lat="45.23124" lon="3.94306">
        <ele>882.67297363281</ele>
        <time>2022-05-11T02:38:21Z</time>
      </trkpt>
      <trkpt lat="45.23164" lon="3.9432">
        <ele>880.94067382812</ele>
        <time>2022-05-11T02:38:24Z</time>
      </trkpt>
      <trkpt lat="45.23185" lon="3.94323">
        <ele>881.42938232422</ele>
        <time>2022-05-11T02:38:34Z</time>
      </trkpt>
      <trkpt lat="45.232" lon="3.94321">
        <ele>882.08532714844</ele>
        <time>2022-05-11T02:38:42Z</time>
      </trkpt>
      <trkpt lat="45.23239" lon="3.94312">
        <ele>880.78100585938</ele>
        <time>2022-05-11T02:38:44Z</time>
      </trkpt>
      <trkpt lat="45.23268" lon="3.94298">
        <ele>879.68621826172</ele>
        <time>2022-05-11T02:38:46Z</time>
      </trkpt>
      <trkpt lat="45.23285" lon="3.94289">
        <ele>879.60064697266</ele>
        <time>2022-05-11T02:38:49Z</time>
      </trkpt>
      <trkpt lat="45.23337" lon="3.94265">
        <ele>880.54766845703</ele>
        <time>2022-05-11T02:38:52Z</time>
      </trkpt>
      <trkpt lat="45.2336" lon="3.94253">
        <ele>882.16046142578</ele>
        <time>2022-05-11T02:38:54Z</time>
      </trkpt>
      <trkpt lat="45.23373" lon="3.94254">
        <ele>882.30889892578</ele>
        <time>2022-05-11T02:38:56Z</time>
      </trkpt>
      <trkpt lat="45.23381" lon="3.94261">
        <ele>881.10974121094</ele>
        <time>2022-05-11T02:39:01Z</time>
      </trkpt>
      <trkpt lat="45.23388" lon="3.94268">
        <ele>880.11743164062</ele>
        <time>2022-05-11T02:39:05Z</time>
      </trkpt>
      <trkpt lat="45.23393" lon="3.94281">
        <ele>880.05804443359</ele>
        <time>2022-05-11T02:39:07Z</time>
      </trkpt>
      <trkpt lat="45.23417" lon="3.94337">
        <ele>875.44427490234</ele>
        <time>2022-05-11T02:39:10Z</time>
      </trkpt>
      <trkpt lat="45.23437" lon="3.94369">
        <ele>871.90802001953</ele>
        <time>2022-05-11T02:39:14Z</time>
      </trkpt>
      <trkpt lat="45.2349" lon="3.94429">
        <ele>866.69750976562</ele>
        <time>2022-05-11T02:39:17Z</time>
      </trkpt>
      <trkpt lat="45.23519" lon="3.9448">
        <ele>864.23767089844</ele>
        <time>2022-05-11T02:39:19Z</time>
      </trkpt>
      <trkpt lat="45.23539" lon="3.94509">
        <ele>863.40887451172</ele>
        <time>2022-05-11T02:39:22Z</time>
      </trkpt>
      <trkpt lat="45.23573" lon="3.94568">
        <ele>860.99206542969</ele>
        <time>2022-05-11T02:39:24Z</time>
      </trkpt>
      <trkpt lat="45.236" lon="3.94631">
        <ele>858.80816650391</ele>
        <time>2022-05-11T02:39:26Z</time>
      </trkpt>
      <trkpt lat="45.23611" lon="3.94684">
        <ele>859.08941650391</ele>
        <time>2022-05-11T02:39:28Z</time>
      </trkpt>
      <trkpt lat="45.23619" lon="3.9473">
        <ele>859.10375976562</ele>
        <time>2022-05-11T02:39:31Z</time>
      </trkpt>
      <trkpt lat="45.23624" lon="3.94742">
        <ele>858.97424316406</ele>
        <time>2022-05-11T02:39:34Z</time>
      </trkpt>
      <trkpt lat="45.23635" lon="3.94761">
        <ele>858.95739746094</ele>
        <time>2022-05-11T02:39:39Z</time>
      </trkpt>
      <trkpt lat="45.23662" lon="3.94792">
        <ele>859.287109375</ele>
        <time>2022-05-11T02:39:42Z</time>
      </trkpt>
      <trkpt lat="45.23672" lon="3.94808">
        <ele>859.65173339844</ele>
        <time>2022-05-11T02:39:48Z</time>
      </trkpt>
      <trkpt lat="45.23697" lon="3.94866">
        <ele>862.48065185547</ele>
        <time>2022-05-11T02:39:50Z</time>
      </trkpt>
      <trkpt lat="45.23718" lon="3.94914">
        <ele>864.38824462891</ele>
        <time>2022-05-11T02:39:51Z</time>
      </trkpt>
      <trkpt lat="45.23744" lon="3.94947">
        <ele>866.61688232422</ele>
        <time>2022-05-11T02:39:53Z</time>
      </trkpt>
      <trkpt lat="45.2376" lon="3.94968">
        <ele>866.85485839844</ele>
        <time>2022-05-11T02:39:56Z</time>
      </trkpt>
      <trkpt lat="45.23788" lon="3.95006">
        <ele>867.61560058594</ele>
        <time>2022-05-11T02:40:01Z</time>
      </trkpt>
      <trkpt lat="45.23802" lon="3.95034">
        <ele>867.93444824219</ele>
        <time>2022-05-11T02:40:10Z</time>
      </trkpt>
      <trkpt lat="45.2381" lon="3.95062">
        <ele>868.54638671875</ele>
        <time>2022-05-11T02:40:12Z</time>
      </trkpt>
      <trkpt lat="45.23832" lon="3.95099">
        <ele>871.28900146484</ele>
        <time>2022-05-11T02:40:14Z</time>
      </trkpt>
      <trkpt lat="45.23846" lon="3.95117">
        <ele>873.36840820312</ele>
        <time>2022-05-11T02:40:15Z</time>
      </trkpt>
      <trkpt lat="45.23858" lon="3.95126">
        <ele>874.63391113281</ele>
        <time>2022-05-11T02:40:21Z</time>
      </trkpt>
      <trkpt lat="45.23869" lon="3.9513">
        <ele>875.86956787109</ele>
        <time>2022-05-11T02:40:24Z</time>
      </trkpt>
      <trkpt lat="45.23879" lon="3.95129">
        <ele>875.9365234375</ele>
        <time>2022-05-11T02:40:26Z</time>
      </trkpt>
      <trkpt lat="45.23916" lon="3.95126">
        <ele>878.66430664062</ele>
        <time>2022-05-11T02:40:29Z</time>
      </trkpt>
      <trkpt lat="45.23949" lon="3.95127">
        <ele>881.93249511719</ele>
        <time>2022-05-11T02:40:39Z</time>
      </trkpt>
      <trkpt lat="45.23971" lon="3.95131">
        <ele>883.22491455078</ele>
        <time>2022-05-11T02:40:43Z</time>
      </trkpt>
      <trkpt lat="45.23986" lon="3.95138">
        <ele>883.98797607422</ele>
        <time>2022-05-11T02:40:46Z</time>
      </trkpt>
      <trkpt lat="45.23995" lon="3.95146">
        <ele>885.01525878906</ele>
        <time>2022-05-11T02:40:49Z</time>
      </trkpt>
      <trkpt lat="45.24003" lon="3.95158">
        <ele>885.91741943359</ele>
        <time>2022-05-11T02:40:54Z</time>
      </trkpt>
      <trkpt lat="45.24012" lon="3.95181">
        <ele>886.86505126953</ele>
        <time>2022-05-11T02:41:01Z</time>
      </trkpt>
      <trkpt lat="45.24019" lon="3.95212">
        <ele>888.01568603516</ele>
        <time>2022-05-11T02:41:04Z</time>
      </trkpt>
      <trkpt lat="45.24017" lon="3.95269">
        <ele>889.93878173828</ele>
        <time>2022-05-11T02:41:08Z</time>
      </trkpt>
      <trkpt lat="45.24019" lon="3.9528">
        <ele>890.21588134766</ele>
        <time>2022-05-11T02:41:18Z</time>
      </trkpt>
      <trkpt lat="45.24028" lon="3.95302">
        <ele>890.59045410156</ele>
        <time>2022-05-11T02:41:23Z</time>
      </trkpt>
      <trkpt lat="45.24004" lon="3.95342">
        <ele>888.34289550781</ele>
        <time>2022-05-11T02:41:28Z</time>
      </trkpt>
      <trkpt lat="45.23978" lon="3.95397">
        <ele>887.45324707031</ele>
        <time>2022-05-11T02:41:37Z</time>
      </trkpt>
      <trkpt lat="45.23961" lon="3.95439">
        <ele>886.40246582031</ele>
        <time>2022-05-11T02:41:40Z</time>
      </trkpt>
      <trkpt lat="45.23945" lon="3.95488">
        <ele>885.17028808594</ele>
        <time>2022-05-11T02:41:43Z</time>
      </trkpt>
      <trkpt lat="45.23927" lon="3.95565">
        <ele>883.57238769531</ele>
        <time>2022-05-11T02:41:46Z</time>
      </trkpt>
      <trkpt lat="45.23902" lon="3.95712">
        <ele>880.90466308594</ele>
        <time>2022-05-11T02:41:49Z</time>
      </trkpt>
      <trkpt lat="45.23898" lon="3.95747">
        <ele>879.57763671875</ele>
        <time>2022-05-11T02:41:52Z</time>
      </trkpt>
      <trkpt lat="45.23897" lon="3.95778">
        <ele>878.97668457031</ele>
        <time>2022-05-11T02:41:58Z</time>
      </trkpt>
      <trkpt lat="45.23907" lon="3.95969">
        <ele>875.44378662109</ele>
        <time>2022-05-11T02:42:02Z</time>
      </trkpt>
      <trkpt lat="45.23912" lon="3.96044">
        <ele>876.560546875</ele>
        <time>2022-05-11T02:42:05Z</time>
      </trkpt>
      <trkpt lat="45.23918" lon="3.96095">
        <ele>877.97906494141</ele>
        <time>2022-05-11T02:42:09Z</time>
      </trkpt>
      <trkpt lat="45.23933" lon="3.96161">
        <ele>882.46826171875</ele>
        <time>2022-05-11T02:42:12Z</time>
      </trkpt>
      <trkpt lat="45.23977" lon="3.96349">
        <ele>892.86578369141</ele>
        <time>2022-05-11T02:42:14Z</time>
      </trkpt>
      <trkpt lat="45.24011" lon="3.96495">
        <ele>895.15985107422</ele>
        <time>2022-05-11T02:42:15Z</time>
      </trkpt>
      <trkpt lat="45.24023" lon="3.9655">
        <ele>892.59875488281</ele>
        <time>2022-05-11T02:42:17Z</time>
      </trkpt>
      <trkpt lat="45.24038" lon="3.96596">
        <ele>891.03448486328</ele>
        <time>2022-05-11T02:42:21Z</time>
      </trkpt>
      <trkpt lat="45.24054" lon="3.96632">
        <ele>889.16735839844</ele>
        <time>2022-05-11T02:42:28Z</time>
      </trkpt>
      <trkpt lat="45.2407" lon="3.96655">
        <ele>887.87255859375</ele>
        <time>2022-05-11T02:42:31Z</time>
      </trkpt>
      <trkpt lat="45.24087" lon="3.96674">
        <ele>887.20483398438</ele>
        <time>2022-05-11T02:42:34Z</time>
      </trkpt>
      <trkpt lat="45.24109" lon="3.96694">
        <ele>886.17041015625</ele>
        <time>2022-05-11T02:42:36Z</time>
      </trkpt>
      <trkpt lat="45.24153" lon="3.96718">
        <ele>883.26770019531</ele>
        <time>2022-05-11T02:42:43Z</time>
      </trkpt>
      <trkpt lat="45.24178" lon="3.96732">
        <ele>880.06420898438</ele>
        <time>2022-05-11T02:42:45Z</time>
      </trkpt>
      <trkpt lat="45.2419" lon="3.96742">
        <ele>877.94116210938</ele>
        <time>2022-05-11T02:42:47Z</time>
      </trkpt>
      <trkpt lat="45.24207" lon="3.96761">
        <ele>874.42504882812</ele>
        <time>2022-05-11T02:42:57Z</time>
      </trkpt>
      <trkpt lat="45.24222" lon="3.96784">
        <ele>873.38159179688</ele>
        <time>2022-05-11T02:43:05Z</time>
      </trkpt>
      <trkpt lat="45.24235" lon="3.96807">
        <ele>873.11462402344</ele>
        <time>2022-05-11T02:43:13Z</time>
      </trkpt>
      <trkpt lat="45.24243" lon="3.96832">
        <ele>872.52874755859</ele>
        <time>2022-05-11T02:43:20Z</time>
      </trkpt>
      <trkpt lat="45.24251" lon="3.96869">
        <ele>869.02087402344</ele>
        <time>2022-05-11T02:43:22Z</time>
      </trkpt>
      <trkpt lat="45.24253" lon="3.96904">
        <ele>867.62921142578</ele>
        <time>2022-05-11T02:43:26Z</time>
      </trkpt>
      <trkpt lat="45.2425" lon="3.96943">
        <ele>865.63916015625</ele>
        <time>2022-05-11T02:43:32Z</time>
      </trkpt>
      <trkpt lat="45.24241" lon="3.96981">
        <ele>863.25482177734</ele>
        <time>2022-05-11T02:43:35Z</time>
      </trkpt>
      <trkpt lat="45.24191" lon="3.97121">
        <ele>854.67059326172</ele>
        <time>2022-05-11T02:43:37Z</time>
      </trkpt>
      <trkpt lat="45.24199" lon="3.97132">
        <ele>855.13775634766</ele>
        <time>2022-05-11T02:43:43Z</time>
      </trkpt>
      <trkpt lat="45.24213" lon="3.97167">
        <ele>856.09295654297</ele>
        <time>2022-05-11T02:43:47Z</time>
      </trkpt>
      <trkpt lat="45.24221" lon="3.97192">
        <ele>856.57891845703</ele>
        <time>2022-05-11T02:43:51Z</time>
      </trkpt>
      <trkpt lat="45.24235" lon="3.97247">
        <ele>855.34655761719</ele>
        <time>2022-05-11T02:43:54Z</time>
      </trkpt>
      <trkpt lat="45.24241" lon="3.97269">
        <ele>854.40521240234</ele>
        <time>2022-05-11T02:43:58Z</time>
      </trkpt>
      <trkpt lat="45.24255" lon="3.97297">
        <ele>852.54608154297</ele>
        <time>2022-05-11T02:44:01Z</time>
      </trkpt>
      <trkpt lat="45.24291" lon="3.97343">
        <ele>848.86041259766</ele>
        <time>2022-05-11T02:44:05Z</time>
      </trkpt>
      <trkpt lat="45.24303" lon="3.97363">
        <ele>848.86431884766</ele>
        <time>2022-05-11T02:44:08Z</time>
      </trkpt>
      <trkpt lat="45.2431" lon="3.97384">
        <ele>849.72027587891</ele>
        <time>2022-05-11T02:44:11Z</time>
      </trkpt>
      <trkpt lat="45.24318" lon="3.97429">
        <ele>852.80218505859</ele>
        <time>2022-05-11T02:44:16Z</time>
      </trkpt>
      <trkpt lat="45.2432" lon="3.97459">
        <ele>854.82873535156</ele>
        <time>2022-05-11T02:44:18Z</time>
      </trkpt>
      <trkpt lat="45.24323" lon="3.97575">
        <ele>855.37347412109</ele>
        <time>2022-05-11T02:44:21Z</time>
      </trkpt>
      <trkpt lat="45.24324" lon="3.97625">
        <ele>856.10540771484</ele>
        <time>2022-05-11T02:44:25Z</time>
      </trkpt>
      <trkpt lat="45.24327" lon="3.9766">
        <ele>856.85632324219</ele>
        <time>2022-05-11T02:44:27Z</time>
      </trkpt>
      <trkpt lat="45.24343" lon="3.97776">
        <ele>854.0302734375</ele>
        <time>2022-05-11T02:44:34Z</time>
      </trkpt>
      <trkpt lat="45.24354" lon="3.97862">
        <ele>853.27612304688</ele>
        <time>2022-05-11T02:44:37Z</time>
      </trkpt>
      <trkpt lat="45.2437" lon="3.97931">
        <ele>855.38684082031</ele>
        <time>2022-05-11T02:44:44Z</time>
      </trkpt>
      <trkpt lat="45.24371" lon="3.9796">
        <ele>855.78979492188</ele>
        <time>2022-05-11T02:44:49Z</time>
      </trkpt>
      <trkpt lat="45.24369" lon="3.97977">
        <ele>855.65155029297</ele>
        <time>2022-05-11T02:44:57Z</time>
      </trkpt>
      <trkpt lat="45.24356" lon="3.98024">
        <ele>851.10491943359</ele>
        <time>2022-05-11T02:45:02Z</time>
      </trkpt>
      <trkpt lat="45.2435" lon="3.98048">
        <ele>849.53729248047</ele>
        <time>2022-05-11T02:45:07Z</time>
      </trkpt>
      <trkpt lat="45.24342" lon="3.98093">
        <ele>846.00457763672</ele>
        <time>2022-05-11T02:45:10Z</time>
      </trkpt>
      <trkpt lat="45.24341" lon="3.98109">
        <ele>845.39587402344</ele>
        <time>2022-05-11T02:45:15Z</time>
      </trkpt>
      <trkpt lat="45.24344" lon="3.98134">
        <ele>842.64886474609</ele>
        <time>2022-05-11T02:45:17Z</time>
      </trkpt>
      <trkpt lat="45.24359" lon="3.9818">
        <ele>838.14434814453</ele>
        <time>2022-05-11T02:45:21Z</time>
      </trkpt>
      <trkpt lat="45.24377" lon="3.98252">
        <ele>833.0185546875</ele>
        <time>2022-05-11T02:45:22Z</time>
      </trkpt>
      <trkpt lat="45.2439" lon="3.98327">
        <ele>828.267578125</ele>
        <time>2022-05-11T02:45:24Z</time>
      </trkpt>
      <trkpt lat="45.24397" lon="3.98377">
        <ele>825.72845458984</ele>
        <time>2022-05-11T02:45:26Z</time>
      </trkpt>
      <trkpt lat="45.24404" lon="3.9847">
        <ele>823.58428955078</ele>
        <time>2022-05-11T02:45:28Z</time>
      </trkpt>
      <trkpt lat="45.24408" lon="3.98499">
        <ele>823.27899169922</ele>
        <time>2022-05-11T02:45:31Z</time>
      </trkpt>
      <trkpt lat="45.24414" lon="3.98522">
        <ele>822.78051757812</ele>
        <time>2022-05-11T02:45:36Z</time>
      </trkpt>
      <trkpt lat="45.24449" lon="3.98616">
        <ele>814.03802490234</ele>
        <time>2022-05-11T02:45:51Z</time>
      </trkpt>
      <trkpt lat="45.2446" lon="3.98667">
        <ele>808.97387695312</ele>
        <time>2022-05-11T02:45:54Z</time>
      </trkpt>
      <trkpt lat="45.24473" lon="3.98745">
        <ele>802.15454101562</ele>
        <time>2022-05-11T02:45:56Z</time>
      </trkpt>
      <trkpt lat="45.24485" lon="3.98799">
        <ele>799.21520996094</ele>
        <time>2022-05-11T02:46:00Z</time>
      </trkpt>
      <trkpt lat="45.24489" lon="3.98821">
        <ele>796.85034179688</ele>
        <time>2022-05-11T02:46:05Z</time>
      </trkpt>
      <trkpt lat="45.24499" lon="3.98843">
        <ele>795.35870361328</ele>
        <time>2022-05-11T02:46:06Z</time>
      </trkpt>
      <trkpt lat="45.2453" lon="3.98895">
        <ele>793.30340576172</ele>
        <time>2022-05-11T02:46:09Z</time>
      </trkpt>
      <trkpt lat="45.24534" lon="3.98908">
        <ele>791.83905029297</ele>
        <time>2022-05-11T02:46:12Z</time>
      </trkpt>
      <trkpt lat="45.24538" lon="3.98926">
        <ele>790.49865722656</ele>
        <time>2022-05-11T02:46:15Z</time>
      </trkpt>
      <trkpt lat="45.24545" lon="3.98922">
        <ele>790.37786865234</ele>
        <time>2022-05-11T02:46:18Z</time>
      </trkpt>
      <trkpt lat="45.24551" lon="3.98917">
        <ele>789.97937011719</ele>
        <time>2022-05-11T02:46:24Z</time>
      </trkpt>
      <trkpt lat="45.24556" lon="3.98908">
        <ele>789.74365234375</ele>
        <time>2022-05-11T02:46:28Z</time>
      </trkpt>
      <trkpt lat="45.2456" lon="3.98893">
        <ele>788.80603027344</ele>
        <time>2022-05-11T02:46:33Z</time>
      </trkpt>
      <trkpt lat="45.24559" lon="3.98877">
        <ele>788.21374511719</ele>
        <time>2022-05-11T02:46:37Z</time>
      </trkpt>
      <trkpt lat="45.24552" lon="3.98854">
        <ele>788.34234619141</ele>
        <time>2022-05-11T02:46:42Z</time>
      </trkpt>
      <trkpt lat="45.24543" lon="3.98824">
        <ele>787.45837402344</ele>
        <time>2022-05-11T02:46:46Z</time>
      </trkpt>
      <trkpt lat="45.24543" lon="3.98806">
        <ele>787.47662353516</ele>
        <time>2022-05-11T02:46:51Z</time>
      </trkpt>
      <trkpt lat="45.24546" lon="3.98795">
        <ele>787.61486816406</ele>
        <time>2022-05-11T02:46:57Z</time>
      </trkpt>
      <trkpt lat="45.24552" lon="3.98784">
        <ele>786.82354736328</ele>
        <time>2022-05-11T02:47:01Z</time>
      </trkpt>
      <trkpt lat="45.24567" lon="3.98758">
        <ele>786.45404052734</ele>
        <time>2022-05-11T02:47:06Z</time>
      </trkpt>
      <trkpt lat="45.24587" lon="3.98732">
        <ele>787.53204345703</ele>
        <time>2022-05-11T02:47:10Z</time>
      </trkpt>
      <trkpt lat="45.24598" lon="3.98716">
        <ele>789.71984863281</ele>
        <time>2022-05-11T02:47:12Z</time>
      </trkpt>
      <trkpt lat="45.24618" lon="3.98699">
        <ele>790.22937011719</ele>
        <time>2022-05-11T02:47:15Z</time>
      </trkpt>
      <trkpt lat="45.2464" lon="3.98688">
        <ele>788.84405517578</ele>
        <time>2022-05-11T02:47:17Z</time>
      </trkpt>
      <trkpt lat="45.2466" lon="3.98675">
        <ele>788.19122314453</ele>
        <time>2022-05-11T02:47:18Z</time>
      </trkpt>
      <trkpt lat="45.24709" lon="3.98623">
        <ele>789.76873779297</ele>
        <time>2022-05-11T02:47:22Z</time>
      </trkpt>
      <trkpt lat="45.24737" lon="3.98588">
        <ele>790.29656982422</ele>
        <time>2022-05-11T02:47:26Z</time>
      </trkpt>
      <trkpt lat="45.24756" lon="3.98553">
        <ele>787.67510986328</ele>
        <time>2022-05-11T02:47:36Z</time>
      </trkpt>
      <trkpt lat="45.24765" lon="3.9853">
        <ele>787.80017089844</ele>
        <time>2022-05-11T02:47:47Z</time>
      </trkpt>
      <trkpt lat="45.2478" lon="3.985">
        <ele>788.3154296875</ele>
        <time>2022-05-11T02:47:54Z</time>
      </trkpt>
      <trkpt lat="45.2479" lon="3.98487">
        <ele>788.41857910156</ele>
        <time>2022-05-11T02:48:01Z</time>
      </trkpt>
      <trkpt lat="45.24809" lon="3.98461">
        <ele>789.81140136719</ele>
        <time>2022-05-11T02:48:15Z</time>
      </trkpt>
      <trkpt lat="45.24816" lon="3.98448">
        <ele>790.13250732422</ele>
        <time>2022-05-11T02:48:18Z</time>
      </trkpt>
      <trkpt lat="45.24828" lon="3.98408">
        <ele>790.84826660156</ele>
        <time>2022-05-11T02:48:24Z</time>
      </trkpt>
      <trkpt lat="45.24836" lon="3.98392">
        <ele>791.67462158203</ele>
        <time>2022-05-11T02:48:39Z</time>
      </trkpt>
      <trkpt lat="45.24862" lon="3.98366">
        <ele>793.90447998047</ele>
        <time>2022-05-11T02:48:52Z</time>
      </trkpt>
      <trkpt lat="45.24873" lon="3.98361">
        <ele>793.478515625</ele>
        <time>2022-05-11T02:49:04Z</time>
      </trkpt>
      <trkpt lat="45.24917" lon="3.98351">
        <ele>797.36608886719</ele>
        <time>2022-05-11T02:49:10Z</time>
      </trkpt>
      <trkpt lat="45.24933" lon="3.98341">
        <ele>796.83392333984</ele>
        <time>2022-05-11T02:49:16Z</time>
      </trkpt>
      <trkpt lat="45.24951" lon="3.98303">
        <ele>796.66839599609</ele>
        <time>2022-05-11T02:49:18Z</time>
      </trkpt>
      <trkpt lat="45.24967" lon="3.98264">
        <ele>797.85339355469</ele>
        <time>2022-05-11T02:49:22Z</time>
      </trkpt>
      <trkpt lat="45.24976" lon="3.98253">
        <ele>797.388671875</ele>
        <time>2022-05-11T02:49:25Z</time>
      </trkpt>
      <trkpt lat="45.24988" lon="3.9825">
        <ele>797.99542236328</ele>
        <time>2022-05-11T02:49:27Z</time>
      </trkpt>
      <trkpt lat="45.25001" lon="3.98257">
        <ele>796.95782470703</ele>
        <time>2022-05-11T02:49:29Z</time>
      </trkpt>
      <trkpt lat="45.25005" lon="3.98263">
        <ele>796.50518798828</ele>
        <time>2022-05-11T02:49:32Z</time>
      </trkpt>
      <trkpt lat="45.25008" lon="3.98277">
        <ele>796.60821533203</ele>
        <time>2022-05-11T02:49:35Z</time>
      </trkpt>
      <trkpt lat="45.25006" lon="3.98296">
        <ele>796.72271728516</ele>
        <time>2022-05-11T02:49:45Z</time>
      </trkpt>
      <trkpt lat="45.25007" lon="3.98318">
        <ele>797.52526855469</ele>
        <time>2022-05-11T02:49:58Z</time>
      </trkpt>
      <trkpt lat="45.25014" lon="3.98333">
        <ele>798.71466064453</ele>
        <time>2022-05-11T02:50:06Z</time>
      </trkpt>
      <trkpt lat="45.2504" lon="3.98368">
        <ele>802.84558105469</ele>
        <time>2022-05-11T02:50:11Z</time>
      </trkpt>
      <trkpt lat="45.25067" lon="3.98403">
        <ele>805.89013671875</ele>
        <time>2022-05-11T02:50:18Z</time>
      </trkpt>
      <trkpt lat="45.25079" lon="3.98414">
        <ele>806.95989990234</ele>
        <time>2022-05-11T02:50:23Z</time>
      </trkpt>
      <trkpt lat="45.25101" lon="3.98422">
        <ele>809.04925537109</ele>
        <time>2022-05-11T02:50:28Z</time>
      </trkpt>
      <trkpt lat="45.25115" lon="3.98433">
        <ele>808.36004638672</ele>
        <time>2022-05-11T02:50:33Z</time>
      </trkpt>
      <trkpt lat="45.25125" lon="3.98449">
        <ele>808.92810058594</ele>
        <time>2022-05-11T02:50:38Z</time>
      </trkpt>
      <trkpt lat="45.25137" lon="3.98482">
        <ele>809.33245849609</ele>
        <time>2022-05-11T02:50:42Z</time>
      </trkpt>
      <trkpt lat="45.25146" lon="3.98494">
        <ele>810.20477294922</ele>
        <time>2022-05-11T02:50:50Z</time>
      </trkpt>
      <trkpt lat="45.25153" lon="3.985">
        <ele>811.11511230469</ele>
        <time>2022-05-11T02:50:57Z</time>
      </trkpt>
      <trkpt lat="45.25163" lon="3.98504">
        <ele>812.14678955078</ele>
        <time>2022-05-11T02:51:01Z</time>
      </trkpt>
      <trkpt lat="45.25193" lon="3.985">
        <ele>814.53033447266</ele>
        <time>2022-05-11T02:51:05Z</time>
      </trkpt>
      <trkpt lat="45.25217" lon="3.98494">
        <ele>815.62310791016</ele>
        <time>2022-05-11T02:51:09Z</time>
      </trkpt>
      <trkpt lat="45.2525" lon="3.98483">
        <ele>817.24035644531</ele>
        <time>2022-05-11T02:51:18Z</time>
      </trkpt>
      <trkpt lat="45.25283" lon="3.98462">
        <ele>818.43225097656</ele>
        <time>2022-05-11T02:51:21Z</time>
      </trkpt>
      <trkpt lat="45.25301" lon="3.98448">
        <ele>819.14251708984</ele>
        <time>2022-05-11T02:51:26Z</time>
      </trkpt>
      <trkpt lat="45.25324" lon="3.98417">
        <ele>820.28442382812</ele>
        <time>2022-05-11T02:51:36Z</time>
      </trkpt>
      <trkpt lat="45.25336" lon="3.9839">
        <ele>821.06420898438</ele>
        <time>2022-05-11T02:51:49Z</time>
      </trkpt>
      <trkpt lat="45.25357" lon="3.98323">
        <ele>822.32391357422</ele>
        <time>2022-05-11T02:51:52Z</time>
      </trkpt>
      <trkpt lat="45.25366" lon="3.98302">
        <ele>823.41320800781</ele>
        <time>2022-05-11T02:52:02Z</time>
      </trkpt>
      <trkpt lat="45.25378" lon="3.98289">
        <ele>822.97027587891</ele>
        <time>2022-05-11T02:52:06Z</time>
      </trkpt>
      <trkpt lat="45.25386" lon="3.98287">
        <ele>822.46618652344</ele>
        <time>2022-05-11T02:52:12Z</time>
      </trkpt>
      <trkpt lat="45.254" lon="3.98284">
        <ele>822.55291748047</ele>
        <time>2022-05-11T02:52:18Z</time>
      </trkpt>
      <trkpt lat="45.25436" lon="3.98283">
        <ele>824.75360107422</ele>
        <time>2022-05-11T02:52:27Z</time>
      </trkpt>
      <trkpt lat="45.2547" lon="3.98282">
        <ele>825.61022949219</ele>
        <time>2022-05-11T02:52:32Z</time>
      </trkpt>
      <trkpt lat="45.25491" lon="3.9828">
        <ele>827.14953613281</ele>
        <time>2022-05-11T02:52:35Z</time>
      </trkpt>
      <trkpt lat="45.25542" lon="3.98262">
        <ele>828.1025390625</ele>
        <time>2022-05-11T02:52:35Z</time>
      </trkpt>
      <trkpt lat="45.25556" lon="3.98259">
        <ele>829.15740966797</ele>
        <time>2022-05-11T02:52:41Z</time>
      </trkpt>
      <trkpt lat="45.25592" lon="3.98264">
        <ele>833.62127685547</ele>
        <time>2022-05-11T02:52:46Z</time>
      </trkpt>
      <trkpt lat="45.25606" lon="3.98267">
        <ele>834.125</ele>
        <time>2022-05-11T02:52:50Z</time>
      </trkpt>
      <trkpt lat="45.25617" lon="3.98273">
        <ele>834.59368896484</ele>
        <time>2022-05-11T02:52:53Z</time>
      </trkpt>
      <trkpt lat="45.25638" lon="3.98292">
        <ele>835.76800537109</ele>
        <time>2022-05-11T02:52:56Z</time>
      </trkpt>
      <trkpt lat="45.25658" lon="3.98315">
        <ele>836.49371337891</ele>
        <time>2022-05-11T02:53:06Z</time>
      </trkpt>
      <trkpt lat="45.25678" lon="3.9834">
        <ele>835.04833984375</ele>
        <time>2022-05-11T02:53:11Z</time>
      </trkpt>
      <trkpt lat="45.25732" lon="3.98408">
        <ele>830.48016357422</ele>
        <time>2022-05-11T02:53:20Z</time>
      </trkpt>
      <trkpt lat="45.25745" lon="3.98425">
        <ele>828.94903564453</ele>
        <time>2022-05-11T02:53:30Z</time>
      </trkpt>
      <trkpt lat="45.25753" lon="3.98437">
        <ele>828.19995117188</ele>
        <time>2022-05-11T02:53:40Z</time>
      </trkpt>
      <trkpt lat="45.25758" lon="3.98452">
        <ele>827.46221923828</ele>
        <time>2022-05-11T02:53:53Z</time>
      </trkpt>
      <trkpt lat="45.25759" lon="3.98472">
        <ele>826.70599365234</ele>
        <time>2022-05-11T02:54:06Z</time>
      </trkpt>
      <trkpt lat="45.25757" lon="3.98488">
        <ele>825.95922851562</ele>
        <time>2022-05-11T02:54:24Z</time>
      </trkpt>
      <trkpt lat="45.2575" lon="3.98505">
        <ele>824.87438964844</ele>
        <time>2022-05-11T02:54:36Z</time>
      </trkpt>
      <trkpt lat="45.25731" lon="3.98531">
        <ele>822.54095458984</ele>
        <time>2022-05-11T02:54:43Z</time>
      </trkpt>
      <trkpt lat="45.25714" lon="3.9855">
        <ele>820.82885742188</ele>
        <time>2022-05-11T02:54:58Z</time>
      </trkpt>
      <trkpt lat="45.25652" lon="3.98621">
        <ele>815.76373291016</ele>
        <time>2022-05-11T02:55:12Z</time>
      </trkpt>
      <trkpt lat="45.25638" lon="3.98637">
        <ele>814.34283447266</ele>
        <time>2022-05-11T02:55:26Z</time>
      </trkpt>
      <trkpt lat="45.25625" lon="3.98657">
        <ele>813.14587402344</ele>
        <time>2022-05-11T02:55:37Z</time>
      </trkpt>
      <trkpt lat="45.25613" lon="3.9868">
        <ele>811.50787353516</ele>
        <time>2022-05-11T02:55:45Z</time>
      </trkpt>
      <trkpt lat="45.25599" lon="3.98719">
        <ele>810.07928466797</ele>
        <time>2022-05-11T02:55:52Z</time>
      </trkpt>
      <trkpt lat="45.25587" lon="3.9875">
        <ele>809.28625488281</ele>
        <time>2022-05-11T02:56:08Z</time>
      </trkpt>
      <trkpt lat="45.25569" lon="3.9879">
        <ele>807.61108398438</ele>
        <time>2022-05-11T02:56:19Z</time>
      </trkpt>
      <trkpt lat="45.25552" lon="3.9882">
        <ele>806.79736328125</ele>
        <time>2022-05-11T02:56:47Z</time>
      </trkpt>
      <trkpt lat="45.25495" lon="3.9889">
        <ele>806.45166015625</ele>
        <time>2022-05-11T02:56:56Z</time>
      </trkpt>
      <trkpt lat="45.25445" lon="3.98943">
        <ele>806.93957519531</ele>
        <time>2022-05-11T02:57:04Z</time>
      </trkpt>
      <trkpt lat="45.2542" lon="3.98976">
        <ele>805.935546875</ele>
        <time>2022-05-11T02:57:19Z</time>
      </trkpt>
      <trkpt lat="45.25411" lon="3.98991">
        <ele>805.88775634766</ele>
        <time>2022-05-11T02:57:44Z</time>
      </trkpt>
      <trkpt lat="45.25394" lon="3.99033">
        <ele>806.443359375</ele>
        <time>2022-05-11T02:58:03Z</time>
      </trkpt>
      <trkpt lat="45.25369" lon="3.99107">
        <ele>806.68359375</ele>
        <time>2022-05-11T02:58:09Z</time>
      </trkpt>
      <trkpt lat="45.25346" lon="3.99167">
        <ele>806.34307861328</ele>
        <time>2022-05-11T02:58:32Z</time>
      </trkpt>
      <trkpt lat="45.25337" lon="3.99189">
        <ele>806.12902832031</ele>
        <time>2022-05-11T02:58:42Z</time>
      </trkpt>
      <trkpt lat="45.25323" lon="3.99211">
        <ele>805.00592041016</ele>
        <time>2022-05-11T02:58:49Z</time>
      </trkpt>
      <trkpt lat="45.25306" lon="3.99246">
        <ele>803.52661132812</ele>
        <time>2022-05-11T02:59:12Z</time>
      </trkpt>
      <trkpt lat="45.25296" lon="3.99286">
        <ele>801.81512451172</ele>
        <time>2022-05-11T02:59:34Z</time>
      </trkpt>
      <trkpt lat="45.25288" lon="3.99365">
        <ele>797.95349121094</ele>
        <time>2022-05-11T02:59:48Z</time>
      </trkpt>
      <trkpt lat="45.25283" lon="3.99408">
        <ele>797.28411865234</ele>
        <time>2022-05-11T03:00:17Z</time>
      </trkpt>
      <trkpt lat="45.25268" lon="3.99488">
        <ele>794.66766357422</ele>
        <time>2022-05-11T03:00:30Z</time>
      </trkpt>
      <trkpt lat="45.25234" lon="3.99644">
        <ele>793.30847167969</ele>
        <time>2022-05-11T03:00:40Z</time>
      </trkpt>
      <trkpt lat="45.25208" lon="3.99772">
        <ele>792.70581054688</ele>
        <time>2022-05-11T03:00:47Z</time>
      </trkpt>
      <trkpt lat="45.25204" lon="3.99788">
        <ele>791.83221435547</ele>
        <time>2022-05-11T03:00:51Z</time>
      </trkpt>
      <trkpt lat="45.25198" lon="3.99796">
        <ele>790.88110351562</ele>
        <time>2022-05-11T03:00:55Z</time>
      </trkpt>
      <trkpt lat="45.2518" lon="3.99802">
        <ele>790.28088378906</ele>
        <time>2022-05-11T03:00:57Z</time>
      </trkpt>
      <trkpt lat="45.25158" lon="3.99807">
        <ele>789.60296630859</ele>
        <time>2022-05-11T03:01:01Z</time>
      </trkpt>
      <trkpt lat="45.25149" lon="3.99806">
        <ele>789.05419921875</ele>
        <time>2022-05-11T03:01:21Z</time>
      </trkpt>
      <trkpt lat="45.25127" lon="3.99807">
        <ele>787.54034423828</ele>
        <time>2022-05-11T03:01:32Z</time>
      </trkpt>
      <trkpt lat="45.25117" lon="3.99813">
        <ele>786.60906982422</ele>
        <time>2022-05-11T03:01:42Z</time>
      </trkpt>
      <trkpt lat="45.25113" lon="3.9982">
        <ele>785.88659667969</ele>
        <time>2022-05-11T03:01:56Z</time>
      </trkpt>
      <trkpt lat="45.25116" lon="3.99839">
        <ele>784.06359863281</ele>
        <time>2022-05-11T03:02:09Z</time>
      </trkpt>
      <trkpt lat="45.25126" lon="3.99851">
        <ele>783.81701660156</ele>
        <time>2022-05-11T03:02:21Z</time>
      </trkpt>
      <trkpt lat="45.25139" lon="3.99854">
        <ele>783.90417480469</ele>
        <time>2022-05-11T03:02:28Z</time>
      </trkpt>
      <trkpt lat="45.2518" lon="3.99853">
        <ele>782.25811767578</ele>
        <time>2022-05-11T03:02:34Z</time>
      </trkpt>
      <trkpt lat="45.25191" lon="3.99855">
        <ele>781.33624267578</ele>
        <time>2022-05-11T03:02:44Z</time>
      </trkpt>
      <trkpt lat="45.25222" lon="3.99868">
        <ele>780.15161132812</ele>
        <time>2022-05-11T03:02:55Z</time>
      </trkpt>
      <trkpt lat="45.25248" lon="3.99884">
        <ele>777.31030273438</ele>
        <time>2022-05-11T03:03:01Z</time>
      </trkpt>
      <trkpt lat="45.2527" lon="3.99906">
        <ele>776.62542724609</ele>
        <time>2022-05-11T03:03:04Z</time>
      </trkpt>
      <trkpt lat="45.25286" lon="3.99931">
        <ele>776.56427001953</ele>
        <time>2022-05-11T03:03:07Z</time>
      </trkpt>
      <trkpt lat="45.253" lon="3.99957">
        <ele>776.35455322266</ele>
        <time>2022-05-11T03:03:11Z</time>
      </trkpt>
      <trkpt lat="45.25304" lon="3.99973">
        <ele>775.65911865234</ele>
        <time>2022-05-11T03:03:14Z</time>
      </trkpt>
      <trkpt lat="45.25306" lon="4.00029">
        <ele>773.33966064453</ele>
        <time>2022-05-11T03:03:21Z</time>
      </trkpt>
      <trkpt lat="45.25304" lon="4.00065">
        <ele>769.59674072266</ele>
        <time>2022-05-11T03:03:27Z</time>
      </trkpt>
      <trkpt lat="45.25299" lon="4.00079">
        <ele>768.23358154297</ele>
        <time>2022-05-11T03:03:36Z</time>
      </trkpt>
      <trkpt lat="45.25287" lon="4.00097">
        <ele>765.03576660156</ele>
        <time>2022-05-11T03:03:52Z</time>
      </trkpt>
      <trkpt lat="45.25283" lon="4.00101">
        <ele>764.28442382812</ele>
        <time>2022-05-11T03:03:58Z</time>
      </trkpt>
      <trkpt lat="45.25272" lon="4.00107">
        <ele>762.94573974609</ele>
        <time>2022-05-11T03:04:12Z</time>
      </trkpt>
      <trkpt lat="45.25263" lon="4.00109">
        <ele>762.4140625</ele>
        <time>2022-05-11T03:04:16Z</time>
      </trkpt>
      <trkpt lat="45.25237" lon="4.00103">
        <ele>761.39831542969</ele>
        <time>2022-05-11T03:04:33Z</time>
      </trkpt>
      <trkpt lat="45.25185" lon="4.00075">
        <ele>755.29986572266</ele>
        <time>2022-05-11T03:04:38Z</time>
      </trkpt>
      <trkpt lat="45.25156" lon="4.00063">
        <ele>753.8173828125</ele>
        <time>2022-05-11T03:04:44Z</time>
      </trkpt>
      <trkpt lat="45.25144" lon="4.00061">
        <ele>753.119140625</ele>
        <time>2022-05-11T03:04:51Z</time>
      </trkpt>
      <trkpt lat="45.25132" lon="4.00061">
        <ele>752.32043457031</ele>
        <time>2022-05-11T03:04:56Z</time>
      </trkpt>
      <trkpt lat="45.251" lon="4.00075">
        <ele>748.43231201172</ele>
        <time>2022-05-11T03:05:07Z</time>
      </trkpt>
      <trkpt lat="45.25071" lon="4.00082">
        <ele>746.2197265625</ele>
        <time>2022-05-11T03:05:13Z</time>
      </trkpt>
      <trkpt lat="45.2501" lon="4.00082">
        <ele>742.35784912109</ele>
        <time>2022-05-11T03:05:18Z</time>
      </trkpt>
      <trkpt lat="45.25001" lon="4.00085">
        <ele>741.38623046875</ele>
        <time>2022-05-11T03:05:21Z</time>
      </trkpt>
      <trkpt lat="45.24994" lon="4.00092">
        <ele>740.13812255859</ele>
        <time>2022-05-11T03:05:41Z</time>
      </trkpt>
      <trkpt lat="45.24987" lon="4.00107">
        <ele>738.25775146484</ele>
        <time>2022-05-11T03:05:41Z</time>
      </trkpt>
      <trkpt lat="45.24985" lon="4.00127">
        <ele>736.12225341797</ele>
        <time>2022-05-11T03:06:04Z</time>
      </trkpt>
      <trkpt lat="45.24989" lon="4.00137">
        <ele>734.84558105469</ele>
        <time>2022-05-11T03:06:14Z</time>
      </trkpt>
      <trkpt lat="45.25003" lon="4.00154">
        <ele>733.50512695312</ele>
        <time>2022-05-11T03:06:17Z</time>
      </trkpt>
      <trkpt lat="45.25026" lon="4.00183">
        <ele>731.11218261719</ele>
        <time>2022-05-11T03:06:21Z</time>
      </trkpt>
      <trkpt lat="45.25032" lon="4.00195">
        <ele>730.27410888672</ele>
        <time>2022-05-11T03:06:26Z</time>
      </trkpt>
      <trkpt lat="45.2504" lon="4.00222">
        <ele>728.64807128906</ele>
        <time>2022-05-11T03:06:33Z</time>
      </trkpt>
      <trkpt lat="45.25049" lon="4.00258">
        <ele>727.41363525391</ele>
        <time>2022-05-11T03:06:46Z</time>
      </trkpt>
      <trkpt lat="45.25054" lon="4.00282">
        <ele>725.58355712891</ele>
        <time>2022-05-11T03:07:02Z</time>
      </trkpt>
      <trkpt lat="45.25056" lon="4.00309">
        <ele>722.63421630859</ele>
        <time>2022-05-11T03:07:08Z</time>
      </trkpt>
      <trkpt lat="45.25055" lon="4.00335">
        <ele>720.50122070312</ele>
        <time>2022-05-11T03:07:13Z</time>
      </trkpt>
      <trkpt lat="45.25053" lon="4.00355">
        <ele>719.85583496094</ele>
        <time>2022-05-11T03:07:17Z</time>
      </trkpt>
      <trkpt lat="45.25049" lon="4.00369">
        <ele>719.75738525391</ele>
        <time>2022-05-11T03:07:23Z</time>
      </trkpt>
      <trkpt lat="45.25022" lon="4.00442">
        <ele>719.05554199219</ele>
        <time>2022-05-11T03:07:28Z</time>
      </trkpt>
      <trkpt lat="45.25015" lon="4.00458">
        <ele>718.98999023438</ele>
        <time>2022-05-11T03:07:37Z</time>
      </trkpt>
      <trkpt lat="45.25006" lon="4.00467">
        <ele>718.70501708984</ele>
        <time>2022-05-11T03:07:44Z</time>
      </trkpt>
      <trkpt lat="45.24989" lon="4.0048">
        <ele>718.80389404297</ele>
        <time>2022-05-11T03:07:48Z</time>
      </trkpt>
      <trkpt lat="45.24966" lon="4.00498">
        <ele>718.80303955078</ele>
        <time>2022-05-11T03:07:52Z</time>
      </trkpt>
      <trkpt lat="45.2496" lon="4.00511">
        <ele>718.05517578125</ele>
        <time>2022-05-11T03:07:56Z</time>
      </trkpt>
      <trkpt lat="45.24956" lon="4.00536">
        <ele>716.87353515625</ele>
        <time>2022-05-11T03:08:21Z</time>
      </trkpt>
      <trkpt lat="45.24961" lon="4.0056">
        <ele>715.74078369141</ele>
        <time>2022-05-11T03:08:48Z</time>
      </trkpt>
      <trkpt lat="45.24968" lon="4.00578">
        <ele>714.4228515625</ele>
        <time>2022-05-11T03:08:56Z</time>
      </trkpt>
      <trkpt lat="45.24977" lon="4.00588">
        <ele>713.3828125</ele>
        <time>2022-05-11T03:08:59Z</time>
      </trkpt>
      <trkpt lat="45.24991" lon="4.00597">
        <ele>712.36669921875</ele>
        <time>2022-05-11T03:09:04Z</time>
      </trkpt>
      <trkpt lat="45.25005" lon="4.00604">
        <ele>711.41815185547</ele>
        <time>2022-05-11T03:09:09Z</time>
      </trkpt>
      <trkpt lat="45.25012" lon="4.00604">
        <ele>711.38250732422</ele>
        <time>2022-05-11T03:09:15Z</time>
      </trkpt>
      <trkpt lat="45.25031" lon="4.00602">
        <ele>710.50671386719</ele>
        <time>2022-05-11T03:09:27Z</time>
      </trkpt>
      <trkpt lat="45.25066" lon="4.00593">
        <ele>707.24078369141</ele>
        <time>2022-05-11T03:09:36Z</time>
      </trkpt>
      <trkpt lat="45.25082" lon="4.00589">
        <ele>705.56768798828</ele>
        <time>2022-05-11T03:09:39Z</time>
      </trkpt>
      <trkpt lat="45.251" lon="4.00589">
        <ele>704.33013916016</ele>
        <time>2022-05-11T03:09:47Z</time>
      </trkpt>
      <trkpt lat="45.2513" lon="4.00597">
        <ele>702.42877197266</ele>
        <time>2022-05-11T03:09:56Z</time>
      </trkpt>
      <trkpt lat="45.25186" lon="4.00589">
        <ele>696.97491455078</ele>
        <time>2022-05-11T03:09:59Z</time>
      </trkpt>
      <trkpt lat="45.25194" lon="4.00586">
        <ele>696.64630126953</ele>
        <time>2022-05-11T03:10:01Z</time>
      </trkpt>
      <trkpt lat="45.25204" lon="4.00581">
        <ele>696.50939941406</ele>
        <time>2022-05-11T03:10:07Z</time>
      </trkpt>
      <trkpt lat="45.25217" lon="4.00569">
        <ele>696.5380859375</ele>
        <time>2022-05-11T03:10:11Z</time>
      </trkpt>
      <trkpt lat="45.25231" lon="4.00557">
        <ele>695.02185058594</ele>
        <time>2022-05-11T03:10:13Z</time>
      </trkpt>
      <trkpt lat="45.25241" lon="4.00551">
        <ele>693.74816894531</ele>
        <time>2022-05-11T03:10:14Z</time>
      </trkpt>
      <trkpt lat="45.25252" lon="4.00549">
        <ele>691.98956298828</ele>
        <time>2022-05-11T03:10:17Z</time>
      </trkpt>
      <trkpt lat="45.25256" lon="4.00548">
        <ele>691.40228271484</ele>
        <time>2022-05-11T03:10:19Z</time>
      </trkpt>
      <trkpt lat="45.25265" lon="4.00553">
        <ele>690.22210693359</ele>
        <time>2022-05-11T03:10:21Z</time>
      </trkpt>
      <trkpt lat="45.25282" lon="4.00573">
        <ele>687.52844238281</ele>
        <time>2022-05-11T03:10:26Z</time>
      </trkpt>
      <trkpt lat="45.25287" lon="4.00584">
        <ele>686.66723632812</ele>
        <time>2022-05-11T03:10:29Z</time>
      </trkpt>
      <trkpt lat="45.25287" lon="4.00604">
        <ele>684.96185302734</ele>
        <time>2022-05-11T03:10:32Z</time>
      </trkpt>
      <trkpt lat="45.25282" lon="4.00619">
        <ele>684.05841064453</ele>
        <time>2022-05-11T03:10:35Z</time>
      </trkpt>
      <trkpt lat="45.25257" lon="4.00663">
        <ele>681.22033691406</ele>
        <time>2022-05-11T03:10:52Z</time>
      </trkpt>
      <trkpt lat="45.25252" lon="4.00681">
        <ele>680.54467773438</ele>
        <time>2022-05-11T03:10:54Z</time>
      </trkpt>
      <trkpt lat="45.25252" lon="4.00707">
        <ele>678.87139892578</ele>
        <time>2022-05-11T03:10:58Z</time>
      </trkpt>
      <trkpt lat="45.25254" lon="4.00726">
        <ele>677.29132080078</ele>
        <time>2022-05-11T03:11:06Z</time>
      </trkpt>
      <trkpt lat="45.25252" lon="4.00748">
        <ele>674.86596679688</ele>
        <time>2022-05-11T03:11:07Z</time>
      </trkpt>
      <trkpt lat="45.25241" lon="4.00765">
        <ele>674.73400878906</ele>
        <time>2022-05-11T03:11:15Z</time>
      </trkpt>
      <trkpt lat="45.25206" lon="4.00796">
        <ele>671.45367431641</ele>
        <time>2022-05-11T03:11:20Z</time>
      </trkpt>
      <trkpt lat="45.25178" lon="4.00811">
        <ele>669.79766845703</ele>
        <time>2022-05-11T03:11:25Z</time>
      </trkpt>
      <trkpt lat="45.25154" lon="4.00816">
        <ele>669.63110351562</ele>
        <time>2022-05-11T03:11:30Z</time>
      </trkpt>
      <trkpt lat="45.25118" lon="4.00822">
        <ele>667.53723144531</ele>
        <time>2022-05-11T03:11:38Z</time>
      </trkpt>
      <trkpt lat="45.25112" lon="4.00826">
        <ele>666.44213867188</ele>
        <time>2022-05-11T03:11:44Z</time>
      </trkpt>
      <trkpt lat="45.25102" lon="4.00849">
        <ele>662.88165283203</ele>
        <time>2022-05-11T03:11:54Z</time>
      </trkpt>
      <trkpt lat="45.25096" lon="4.00859">
        <ele>661.73553466797</ele>
        <time>2022-05-11T03:12:01Z</time>
      </trkpt>
      <trkpt lat="45.25089" lon="4.00865">
        <ele>661.20013427734</ele>
        <time>2022-05-11T03:12:04Z</time>
      </trkpt>
      <trkpt lat="45.2507" lon="4.00867">
        <ele>660.13806152344</ele>
        <time>2022-05-11T03:12:09Z</time>
      </trkpt>
      <trkpt lat="45.25054" lon="4.00866">
        <ele>659.44097900391</ele>
        <time>2022-05-11T03:12:12Z</time>
      </trkpt>
      <trkpt lat="45.25047" lon="4.00868">
        <ele>659.25006103516</ele>
        <time>2022-05-11T03:12:21Z</time>
      </trkpt>
      <trkpt lat="45.2504" lon="4.00873">
        <ele>658.14331054688</ele>
        <time>2022-05-11T03:12:31Z</time>
      </trkpt>
      <trkpt lat="45.25035" lon="4.00881">
        <ele>657.51507568359</ele>
        <time>2022-05-11T03:12:33Z</time>
      </trkpt>
      <trkpt lat="45.25028" lon="4.00906">
        <ele>655.99127197266</ele>
        <time>2022-05-11T03:12:41Z</time>
      </trkpt>
      <trkpt lat="45.25021" lon="4.00956">
        <ele>653.44055175781</ele>
        <time>2022-05-11T03:12:46Z</time>
      </trkpt>
      <trkpt lat="45.25017" lon="4.00973">
        <ele>653.27026367188</ele>
        <time>2022-05-11T03:12:51Z</time>
      </trkpt>
      <trkpt lat="45.24988" lon="4.01001">
        <ele>650.89624023438</ele>
        <time>2022-05-11T03:12:59Z</time>
      </trkpt>
      <trkpt lat="45.24934" lon="4.01048">
        <ele>644.01379394531</ele>
        <time>2022-05-11T03:13:08Z</time>
      </trkpt>
      <trkpt lat="45.24891" lon="4.01072">
        <ele>641.99768066406</ele>
        <time>2022-05-11T03:13:29Z</time>
      </trkpt>
      <trkpt lat="45.24824" lon="4.011">
        <ele>637.81884765625</ele>
        <time>2022-05-11T03:13:51Z</time>
      </trkpt>
      <trkpt lat="45.24751" lon="4.01128">
        <ele>628.91278076172</ele>
        <time>2022-05-11T03:14:04Z</time>
      </trkpt>
      <trkpt lat="45.24739" lon="4.01129">
        <ele>627.71881103516</ele>
        <time>2022-05-11T03:14:09Z</time>
      </trkpt>
      <trkpt lat="45.24716" lon="4.01136">
        <ele>626.57470703125</ele>
        <time>2022-05-11T03:14:20Z</time>
      </trkpt>
      <trkpt lat="45.24681" lon="4.0115">
        <ele>623.51519775391</ele>
        <time>2022-05-11T03:14:29Z</time>
      </trkpt>
      <trkpt lat="45.24656" lon="4.01158">
        <ele>620.04516601562</ele>
        <time>2022-05-11T03:14:49Z</time>
      </trkpt>
      <trkpt lat="45.24631" lon="4.01171">
        <ele>614.89831542969</ele>
        <time>2022-05-11T03:14:53Z</time>
      </trkpt>
      <trkpt lat="45.24598" lon="4.01196">
        <ele>606.54412841797</ele>
        <time>2022-05-11T03:14:57Z</time>
      </trkpt>
      <trkpt lat="45.24555" lon="4.01226">
        <ele>607.85595703125</ele>
        <time>2022-05-11T03:15:02Z</time>
      </trkpt>
      <trkpt lat="45.24536" lon="4.01234">
        <ele>609.07098388672</ele>
        <time>2022-05-11T03:15:07Z</time>
      </trkpt>
      <trkpt lat="45.24512" lon="4.01242">
        <ele>610.47210693359</ele>
        <time>2022-05-11T03:15:11Z</time>
      </trkpt>
      <trkpt lat="45.24501" lon="4.01249">
        <ele>611.0888671875</ele>
        <time>2022-05-11T03:15:17Z</time>
      </trkpt>
      <trkpt lat="45.24486" lon="4.01262">
        <ele>611.93713378906</ele>
        <time>2022-05-11T03:15:20Z</time>
      </trkpt>
      <trkpt lat="45.24462" lon="4.01285">
        <ele>613.51434326172</ele>
        <time>2022-05-11T03:15:26Z</time>
      </trkpt>
      <trkpt lat="45.24447" lon="4.01299">
        <ele>614.10510253906</ele>
        <time>2022-05-11T03:15:31Z</time>
      </trkpt>
      <trkpt lat="45.24436" lon="4.01305">
        <ele>614.17932128906</ele>
        <time>2022-05-11T03:15:52Z</time>
      </trkpt>
      <trkpt lat="45.24419" lon="4.01305">
        <ele>614.94207763672</ele>
        <time>2022-05-11T03:15:55Z</time>
      </trkpt>
      <trkpt lat="45.24401" lon="4.01297">
        <ele>615.90032958984</ele>
        <time>2022-05-11T03:16:00Z</time>
      </trkpt>
      <trkpt lat="45.24383" lon="4.0129">
        <ele>616.67236328125</ele>
        <time>2022-05-11T03:16:03Z</time>
      </trkpt>
      <trkpt lat="45.24357" lon="4.01288">
        <ele>616.70056152344</ele>
        <time>2022-05-11T03:16:05Z</time>
      </trkpt>
      <trkpt lat="45.24276" lon="4.01295">
        <ele>617.93927001953</ele>
        <time>2022-05-11T03:16:10Z</time>
      </trkpt>
      <trkpt lat="45.24258" lon="4.01298">
        <ele>618.88482666016</ele>
        <time>2022-05-11T03:16:25Z</time>
      </trkpt>
      <trkpt lat="45.24241" lon="4.01303">
        <ele>619.33801269531</ele>
        <time>2022-05-11T03:16:29Z</time>
      </trkpt>
      <trkpt lat="45.24202" lon="4.0132">
        <ele>620.61407470703</ele>
        <time>2022-05-11T03:16:33Z</time>
      </trkpt>
      <trkpt lat="45.24088" lon="4.01371">
        <ele>623.43273925781</ele>
        <time>2022-05-11T03:16:37Z</time>
      </trkpt>
      <trkpt lat="45.23985" lon="4.01413">
        <ele>628.09234619141</ele>
        <time>2022-05-11T03:16:44Z</time>
      </trkpt>
      <trkpt lat="45.23919" lon="4.01438">
        <ele>629.45574951172</ele>
        <time>2022-05-11T03:16:55Z</time>
      </trkpt>
      <trkpt lat="45.23864" lon="4.01464">
        <ele>628.41436767578</ele>
        <time>2022-05-11T03:17:16Z</time>
      </trkpt>
      <trkpt lat="45.23842" lon="4.01475">
        <ele>628.76239013672</ele>
        <time>2022-05-11T03:17:22Z</time>
      </trkpt>
      <trkpt lat="45.23816" lon="4.01485">
        <ele>627.32647705078</ele>
        <time>2022-05-11T03:17:51Z</time>
      </trkpt>
      <trkpt lat="45.23796" lon="4.01485">
        <ele>626.00299072266</ele>
        <time>2022-05-11T03:17:57Z</time>
      </trkpt>
      <trkpt lat="45.23776" lon="4.01481">
        <ele>625.24273681641</ele>
        <time>2022-05-11T03:18:09Z</time>
      </trkpt>
      <trkpt lat="45.23751" lon="4.01475">
        <ele>624.626953125</ele>
        <time>2022-05-11T03:18:23Z</time>
      </trkpt>
      <trkpt lat="45.23738" lon="4.01475">
        <ele>624.19226074219</ele>
        <time>2022-05-11T03:18:47Z</time>
      </trkpt>
      <trkpt lat="45.23726" lon="4.0148">
        <ele>624.13159179688</ele>
        <time>2022-05-11T03:19:07Z</time>
      </trkpt>
      <trkpt lat="45.23674" lon="4.01511">
        <ele>628.5517578125</ele>
        <time>2022-05-11T03:19:17Z</time>
      </trkpt>
      <trkpt lat="45.23642" lon="4.01533">
        <ele>630.29278564453</ele>
        <time>2022-05-11T03:19:19Z</time>
      </trkpt>
      <trkpt lat="45.23594" lon="4.01561">
        <ele>631.52978515625</ele>
        <time>2022-05-11T03:19:24Z</time>
      </trkpt>
      <trkpt lat="45.23567" lon="4.0158">
        <ele>632.56561279297</ele>
        <time>2022-05-11T03:19:29Z</time>
      </trkpt>
      <trkpt lat="45.23482" lon="4.01647">
        <ele>634.47784423828</ele>
        <time>2022-05-11T03:19:39Z</time>
      </trkpt>
      <trkpt lat="45.2347" lon="4.01656">
        <ele>634.12164306641</ele>
        <time>2022-05-11T03:20:00Z</time>
      </trkpt>
      <trkpt lat="45.2344" lon="4.01669">
        <ele>633.28704833984</ele>
        <time>2022-05-11T03:20:04Z</time>
      </trkpt>
      <trkpt lat="45.23378" lon="4.017">
        <ele>633.23358154297</ele>
        <time>2022-05-11T03:20:12Z</time>
      </trkpt>
      <trkpt lat="45.23327" lon="4.01728">
        <ele>634.46820068359</ele>
        <time>2022-05-11T03:20:16Z</time>
      </trkpt>
      <trkpt lat="45.23312" lon="4.01739">
        <ele>634.48309326172</ele>
        <time>2022-05-11T03:20:20Z</time>
      </trkpt>
      <trkpt lat="45.23263" lon="4.01782">
        <ele>634.84136962891</ele>
        <time>2022-05-11T03:20:34Z</time>
      </trkpt>
      <trkpt lat="45.23243" lon="4.01806">
        <ele>634.39739990234</ele>
        <time>2022-05-11T03:20:39Z</time>
      </trkpt>
      <trkpt lat="45.23224" lon="4.01829">
        <ele>635.68310546875</ele>
        <time>2022-05-11T03:20:48Z</time>
      </trkpt>
      <trkpt lat="45.23206" lon="4.01845">
        <ele>636.94213867188</ele>
        <time>2022-05-11T03:20:53Z</time>
      </trkpt>
      <trkpt lat="45.23196" lon="4.01854">
        <ele>636.79852294922</ele>
        <time>2022-05-11T03:20:57Z</time>
      </trkpt>
      <trkpt lat="45.23206" lon="4.01865">
        <ele>636.67095947266</ele>
        <time>2022-05-11T03:21:03Z</time>
      </trkpt>
      <trkpt lat="45.23229" lon="4.01886">
        <ele>635.63580322266</ele>
        <time>2022-05-11T03:21:08Z</time>
      </trkpt>
      <trkpt lat="45.23241" lon="4.01893">
        <ele>634.86999511719</ele>
        <time>2022-05-11T03:21:17Z</time>
      </trkpt>
      <trkpt lat="45.23286" lon="4.01909">
        <ele>635.69793701172</ele>
        <time>2022-05-11T03:21:25Z</time>
      </trkpt>
      <trkpt lat="45.23304" lon="4.01916">
        <ele>636.66009521484</ele>
        <time>2022-05-11T03:21:32Z</time>
      </trkpt>
      <trkpt lat="45.23315" lon="4.01926">
        <ele>636.41473388672</ele>
        <time>2022-05-11T03:21:38Z</time>
      </trkpt>
      <trkpt lat="45.23325" lon="4.01951">
        <ele>636.50207519531</ele>
        <time>2022-05-11T03:21:45Z</time>
      </trkpt>
      <trkpt lat="45.23329" lon="4.01963">
        <ele>636.55035400391</ele>
        <time>2022-05-11T03:21:55Z</time>
      </trkpt>
      <trkpt lat="45.23342" lon="4.01987">
        <ele>636.58422851562</ele>
        <time>2022-05-11T03:22:03Z</time>
      </trkpt>
      <trkpt lat="45.23359" lon="4.02011">
        <ele>636.27276611328</ele>
        <time>2022-05-11T03:22:08Z</time>
      </trkpt>
      <trkpt lat="45.23397" lon="4.02055">
        <ele>635.77465820312</ele>
        <time>2022-05-11T03:22:13Z</time>
      </trkpt>
      <trkpt lat="45.2343" lon="4.02087">
        <ele>634.22863769531</ele>
        <time>2022-05-11T03:22:21Z</time>
      </trkpt>
      <trkpt lat="45.23473" lon="4.02128">
        <ele>631.59228515625</ele>
        <time>2022-05-11T03:22:32Z</time>
      </trkpt>
      <trkpt lat="45.23492" lon="4.02144">
        <ele>629.36596679688</ele>
        <time>2022-05-11T03:22:35Z</time>
      </trkpt>
      <trkpt lat="45.23512" lon="4.02156">
        <ele>627.16003417969</ele>
        <time>2022-05-11T03:22:39Z</time>
      </trkpt>
      <trkpt lat="45.23534" lon="4.02163">
        <ele>625.01702880859</ele>
        <time>2022-05-11T03:22:45Z</time>
      </trkpt>
      <trkpt lat="45.23547" lon="4.02164">
        <ele>623.55767822266</ele>
        <time>2022-05-11T03:22:52Z</time>
      </trkpt>
      <trkpt lat="45.23593" lon="4.02161">
        <ele>617.96063232422</ele>
        <time>2022-05-11T03:22:57Z</time>
      </trkpt>
      <trkpt lat="45.23615" lon="4.02164">
        <ele>615.57269287109</ele>
        <time>2022-05-11T03:23:02Z</time>
      </trkpt>
      <trkpt lat="45.23633" lon="4.02168">
        <ele>614.56237792969</ele>
        <time>2022-05-11T03:23:04Z</time>
      </trkpt>
      <trkpt lat="45.23686" lon="4.02183">
        <ele>611.3466796875</ele>
        <time>2022-05-11T03:23:16Z</time>
      </trkpt>
      <trkpt lat="45.23721" lon="4.02195">
        <ele>610.51574707031</ele>
        <time>2022-05-11T03:23:42Z</time>
      </trkpt>
      <trkpt lat="45.23773" lon="4.02216">
        <ele>607.93914794922</ele>
        <time>2022-05-11T03:23:49Z</time>
      </trkpt>
      <trkpt lat="45.23826" lon="4.02255">
        <ele>607.75207519531</ele>
        <time>2022-05-11T03:24:02Z</time>
      </trkpt>
      <trkpt lat="45.23881" lon="4.02299">
        <ele>605.96899414062</ele>
        <time>2022-05-11T03:24:06Z</time>
      </trkpt>
      <trkpt lat="45.23924" lon="4.02331">
        <ele>602.70355224609</ele>
        <time>2022-05-11T03:24:11Z</time>
      </trkpt>
      <trkpt lat="45.23988" lon="4.02361">
        <ele>601.69110107422</ele>
        <time>2022-05-11T03:24:30Z</time>
      </trkpt>
      <trkpt lat="45.24068" lon="4.02394">
        <ele>600.72198486328</ele>
        <time>2022-05-11T03:24:38Z</time>
      </trkpt>
      <trkpt lat="45.24136" lon="4.02419">
        <ele>598.77416992188</ele>
        <time>2022-05-11T03:24:42Z</time>
      </trkpt>
      <trkpt lat="45.24182" lon="4.02439">
        <ele>598.00787353516</ele>
        <time>2022-05-11T03:24:51Z</time>
      </trkpt>
      <trkpt lat="45.24222" lon="4.02446">
        <ele>596.27032470703</ele>
        <time>2022-05-11T03:25:19Z</time>
      </trkpt>
      <trkpt lat="45.24269" lon="4.0245">
        <ele>594.01055908203</ele>
        <time>2022-05-11T03:25:23Z</time>
      </trkpt>
      <trkpt lat="45.24367" lon="4.02451">
        <ele>594.92156982422</ele>
        <time>2022-05-11T03:25:29Z</time>
      </trkpt>
      <trkpt lat="45.24406" lon="4.0246">
        <ele>593.51477050781</ele>
        <time>2022-05-11T03:25:40Z</time>
      </trkpt>
      <trkpt lat="45.24435" lon="4.02469">
        <ele>593.02581787109</ele>
        <time>2022-05-11T03:25:58Z</time>
      </trkpt>
      <trkpt lat="45.24452" lon="4.02478">
        <ele>592.43176269531</ele>
        <time>2022-05-11T03:26:04Z</time>
      </trkpt>
      <trkpt lat="45.24463" lon="4.02487">
        <ele>592.31384277344</ele>
        <time>2022-05-11T03:26:12Z</time>
      </trkpt>
      <trkpt lat="45.24474" lon="4.025">
        <ele>592.50463867188</ele>
        <time>2022-05-11T03:26:22Z</time>
      </trkpt>
      <trkpt lat="45.24478" lon="4.02517">
        <ele>594.19018554688</ele>
        <time>2022-05-11T03:26:29Z</time>
      </trkpt>
      <trkpt lat="45.24478" lon="4.02525">
        <ele>594.88537597656</ele>
        <time>2022-05-11T03:26:31Z</time>
      </trkpt>
      <trkpt lat="45.24478" lon="4.02555">
        <ele>597.50164794922</ele>
        <time>2022-05-11T03:26:31Z</time>
      </trkpt>
      <trkpt lat="45.24481" lon="4.02569">
        <ele>597.90124511719</ele>
        <time>2022-05-11T03:26:53Z</time>
      </trkpt>
      <trkpt lat="45.24486" lon="4.0258">
        <ele>597.92785644531</ele>
        <time>2022-05-11T03:27:00Z</time>
      </trkpt>
      <trkpt lat="45.24498" lon="4.02596">
        <ele>598.95220947266</ele>
        <time>2022-05-11T03:27:05Z</time>
      </trkpt>
      <trkpt lat="45.24533" lon="4.02616">
        <ele>602.59558105469</ele>
        <time>2022-05-11T03:27:19Z</time>
      </trkpt>
      <trkpt lat="45.24551" lon="4.02629">
        <ele>604.2607421875</ele>
        <time>2022-05-11T03:27:25Z</time>
      </trkpt>
      <trkpt lat="45.24556" lon="4.02637">
        <ele>604.78533935547</ele>
        <time>2022-05-11T03:27:28Z</time>
      </trkpt>
      <trkpt lat="45.2458" lon="4.02681">
        <ele>608.88610839844</ele>
        <time>2022-05-11T03:27:31Z</time>
      </trkpt>
      <trkpt lat="45.24592" lon="4.027">
        <ele>610.1787109375</ele>
        <time>2022-05-11T03:27:33Z</time>
      </trkpt>
      <trkpt lat="45.2462" lon="4.0273">
        <ele>610.65539550781</ele>
        <time>2022-05-11T03:27:38Z</time>
      </trkpt>
      <trkpt lat="45.24649" lon="4.02768">
        <ele>611.65490722656</ele>
        <time>2022-05-11T03:27:43Z</time>
      </trkpt>
      <trkpt lat="45.24688" lon="4.02848">
        <ele>612.84020996094</ele>
        <time>2022-05-11T03:28:05Z</time>
      </trkpt>
      <trkpt lat="45.247" lon="4.02881">
        <ele>613.65960693359</ele>
        <time>2022-05-11T03:28:10Z</time>
      </trkpt>
      <trkpt lat="45.24706" lon="4.02901">
        <ele>614.91223144531</ele>
        <time>2022-05-11T03:28:17Z</time>
      </trkpt>
      <trkpt lat="45.24718" lon="4.02958">
        <ele>617.55090332031</ele>
        <time>2022-05-11T03:28:25Z</time>
      </trkpt>
      <trkpt lat="45.24722" lon="4.02986">
        <ele>619.25860595703</ele>
        <time>2022-05-11T03:28:29Z</time>
      </trkpt>
      <trkpt lat="45.24721" lon="4.03008">
        <ele>620.29693603516</ele>
        <time>2022-05-11T03:28:35Z</time>
      </trkpt>
      <trkpt lat="45.24718" lon="4.03042">
        <ele>622.83880615234</ele>
        <time>2022-05-11T03:28:45Z</time>
      </trkpt>
      <trkpt lat="45.24719" lon="4.0308">
        <ele>624.15228271484</ele>
        <time>2022-05-11T03:28:51Z</time>
      </trkpt>
      <trkpt lat="45.24724" lon="4.03102">
        <ele>625.86608886719</ele>
        <time>2022-05-11T03:28:55Z</time>
      </trkpt>
      <trkpt lat="45.24738" lon="4.03124">
        <ele>627.05480957031</ele>
        <time>2022-05-11T03:29:03Z</time>
      </trkpt>
      <trkpt lat="45.24768" lon="4.03151">
        <ele>629.02697753906</ele>
        <time>2022-05-11T03:29:14Z</time>
      </trkpt>
      <trkpt lat="45.24775" lon="4.03159">
        <ele>629.78161621094</ele>
        <time>2022-05-11T03:29:18Z</time>
      </trkpt>
      <trkpt lat="45.24781" lon="4.03173">
        <ele>630.42687988281</ele>
        <time>2022-05-11T03:29:21Z</time>
      </trkpt>
      <trkpt lat="45.24792" lon="4.03195">
        <ele>631.27813720703</ele>
        <time>2022-05-11T03:29:35Z</time>
      </trkpt>
      <trkpt lat="45.24798" lon="4.03202">
        <ele>631.81408691406</ele>
        <time>2022-05-11T03:29:44Z</time>
      </trkpt>
      <trkpt lat="45.2483" lon="4.03224">
        <ele>634.67541503906</ele>
        <time>2022-05-11T03:29:51Z</time>
      </trkpt>
      <trkpt lat="45.24838" lon="4.03233">
        <ele>635.52716064453</ele>
        <time>2022-05-11T03:29:56Z</time>
      </trkpt>
      <trkpt lat="45.24842" lon="4.03242">
        <ele>636.65325927734</ele>
        <time>2022-05-11T03:30:04Z</time>
      </trkpt>
      <trkpt lat="45.24855" lon="4.03293">
        <ele>640.35375976562</ele>
        <time>2022-05-11T03:30:07Z</time>
      </trkpt>
      <trkpt lat="45.24862" lon="4.03319">
        <ele>641.90447998047</ele>
        <time>2022-05-11T03:30:09Z</time>
      </trkpt>
      <trkpt lat="45.24872" lon="4.03362">
        <ele>643.28216552734</ele>
        <time>2022-05-11T03:30:19Z</time>
      </trkpt>
      <trkpt lat="45.24876" lon="4.03407">
        <ele>645.28466796875</ele>
        <time>2022-05-11T03:30:23Z</time>
      </trkpt>
      <trkpt lat="45.24884" lon="4.03432">
        <ele>646.841796875</ele>
        <time>2022-05-11T03:30:25Z</time>
      </trkpt>
      <trkpt lat="45.24891" lon="4.03447">
        <ele>647.83642578125</ele>
        <time>2022-05-11T03:30:38Z</time>
      </trkpt>
      <trkpt lat="45.24901" lon="4.0346">
        <ele>649.32794189453</ele>
        <time>2022-05-11T03:30:43Z</time>
      </trkpt>
      <trkpt lat="45.24914" lon="4.03469">
        <ele>649.62890625</ele>
        <time>2022-05-11T03:30:48Z</time>
      </trkpt>
      <trkpt lat="45.24928" lon="4.03475">
        <ele>650.18414306641</ele>
        <time>2022-05-11T03:31:03Z</time>
      </trkpt>
      <trkpt lat="45.24942" lon="4.03472">
        <ele>651.22387695312</ele>
        <time>2022-05-11T03:31:08Z</time>
      </trkpt>
      <trkpt lat="45.24946" lon="4.03468">
        <ele>651.87255859375</ele>
        <time>2022-05-11T03:31:12Z</time>
      </trkpt>
      <trkpt lat="45.24955" lon="4.0349">
        <ele>651.16766357422</ele>
        <time>2022-05-11T03:31:15Z</time>
      </trkpt>
      <trkpt lat="45.24962" lon="4.03502">
        <ele>651.35241699219</ele>
        <time>2022-05-11T03:31:18Z</time>
      </trkpt>
      <trkpt lat="45.24969" lon="4.03512">
        <ele>651.24853515625</ele>
        <time>2022-05-11T03:31:22Z</time>
      </trkpt>
      <trkpt lat="45.24983" lon="4.03522">
        <ele>650.70123291016</ele>
        <time>2022-05-11T03:31:27Z</time>
      </trkpt>
      <trkpt lat="45.25" lon="4.03529">
        <ele>649.50347900391</ele>
        <time>2022-05-11T03:31:32Z</time>
      </trkpt>
      <trkpt lat="45.2501" lon="4.03536">
        <ele>649.25061035156</ele>
        <time>2022-05-11T03:31:35Z</time>
      </trkpt>
      <trkpt lat="45.25017" lon="4.03543">
        <ele>649.23571777344</ele>
        <time>2022-05-11T03:31:38Z</time>
      </trkpt>
      <trkpt lat="45.25022" lon="4.03563">
        <ele>648.83117675781</ele>
        <time>2022-05-11T03:31:43Z</time>
      </trkpt>
      <trkpt lat="45.25024" lon="4.03577">
        <ele>649.23950195312</ele>
        <time>2022-05-11T03:31:48Z</time>
      </trkpt>
      <trkpt lat="45.25025" lon="4.03609">
        <ele>649.84234619141</ele>
        <time>2022-05-11T03:31:53Z</time>
      </trkpt>
      <trkpt lat="45.25033" lon="4.03656">
        <ele>652.84698486328</ele>
        <time>2022-05-11T03:32:01Z</time>
      </trkpt>
      <trkpt lat="45.2504" lon="4.03678">
        <ele>654.53887939453</ele>
        <time>2022-05-11T03:32:04Z</time>
      </trkpt>
      <trkpt lat="45.2505" lon="4.03699">
        <ele>655.80859375</ele>
        <time>2022-05-11T03:32:08Z</time>
      </trkpt>
      <trkpt lat="45.25083" lon="4.0376">
        <ele>660.37457275391</ele>
        <time>2022-05-11T03:32:19Z</time>
      </trkpt>
      <trkpt lat="45.25098" lon="4.03783">
        <ele>663.04876708984</ele>
        <time>2022-05-11T03:32:26Z</time>
      </trkpt>
      <trkpt lat="45.25123" lon="4.03814">
        <ele>666.62390136719</ele>
        <time>2022-05-11T03:32:38Z</time>
      </trkpt>
      <trkpt lat="45.25148" lon="4.03844">
        <ele>667.83068847656</ele>
        <time>2022-05-11T03:32:46Z</time>
      </trkpt>
      <trkpt lat="45.25153" lon="4.03856">
        <ele>668.72241210938</ele>
        <time>2022-05-11T03:32:53Z</time>
      </trkpt>
      <trkpt lat="45.25164" lon="4.03887">
        <ele>670.97998046875</ele>
        <time>2022-05-11T03:32:57Z</time>
      </trkpt>
      <trkpt lat="45.25169" lon="4.03898">
        <ele>671.34783935547</ele>
        <time>2022-05-11T03:33:04Z</time>
      </trkpt>
      <trkpt lat="45.25182" lon="4.03915">
        <ele>671.26031494141</ele>
        <time>2022-05-11T03:33:13Z</time>
      </trkpt>
      <trkpt lat="45.25195" lon="4.03933">
        <ele>672.08862304688</ele>
        <time>2022-05-11T03:33:31Z</time>
      </trkpt>
      <trkpt lat="45.25208" lon="4.03955">
        <ele>673.82147216797</ele>
        <time>2022-05-11T03:33:40Z</time>
      </trkpt>
      <trkpt lat="45.25221" lon="4.03986">
        <ele>675.37298583984</ele>
        <time>2022-05-11T03:33:46Z</time>
      </trkpt>
      <trkpt lat="45.25228" lon="4.04019">
        <ele>677.53607177734</ele>
        <time>2022-05-11T03:33:50Z</time>
      </trkpt>
      <trkpt lat="45.25233" lon="4.04062">
        <ele>678.71844482422</ele>
        <time>2022-05-11T03:33:54Z</time>
      </trkpt>
      <trkpt lat="45.25242" lon="4.04119">
        <ele>680.9658203125</ele>
        <time>2022-05-11T03:34:02Z</time>
      </trkpt>
      <trkpt lat="45.25245" lon="4.04161">
        <ele>681.05725097656</ele>
        <time>2022-05-11T03:34:13Z</time>
      </trkpt>
      <trkpt lat="45.25257" lon="4.04199">
        <ele>681.93292236328</ele>
        <time>2022-05-11T03:34:24Z</time>
      </trkpt>
      <trkpt lat="45.25269" lon="4.04223">
        <ele>682.68634033203</ele>
        <time>2022-05-11T03:34:26Z</time>
      </trkpt>
      <trkpt lat="45.25274" lon="4.04242">
        <ele>682.87182617188</ele>
        <time>2022-05-11T03:34:28Z</time>
      </trkpt>
      <trkpt lat="45.25287" lon="4.04279">
        <ele>683.97766113281</ele>
        <time>2022-05-11T03:34:38Z</time>
      </trkpt>
      <trkpt lat="45.253" lon="4.04305">
        <ele>684.62152099609</ele>
        <time>2022-05-11T03:34:45Z</time>
      </trkpt>
      <trkpt lat="45.25316" lon="4.04324">
        <ele>684.02764892578</ele>
        <time>2022-05-11T03:34:50Z</time>
      </trkpt>
      <trkpt lat="45.2533" lon="4.0434">
        <ele>685.44573974609</ele>
        <time>2022-05-11T03:34:53Z</time>
      </trkpt>
      <trkpt lat="45.25346" lon="4.04356">
        <ele>687.1552734375</ele>
        <time>2022-05-11T03:34:55Z</time>
      </trkpt>
      <trkpt lat="45.25367" lon="4.04373">
        <ele>688.47900390625</ele>
        <time>2022-05-11T03:34:58Z</time>
      </trkpt>
      <trkpt lat="45.25393" lon="4.04389">
        <ele>689.87591552734</ele>
        <time>2022-05-11T03:35:03Z</time>
      </trkpt>
      <trkpt lat="45.25412" lon="4.04397">
        <ele>691.04913330078</ele>
        <time>2022-05-11T03:35:06Z</time>
      </trkpt>
      <trkpt lat="45.25468" lon="4.04412">
        <ele>693.48687744141</ele>
        <time>2022-05-11T03:35:09Z</time>
      </trkpt>
      <trkpt lat="45.25496" lon="4.04427">
        <ele>694.36407470703</ele>
        <time>2022-05-11T03:35:12Z</time>
      </trkpt>
      <trkpt lat="45.25521" lon="4.04442">
        <ele>695.68316650391</ele>
        <time>2022-05-11T03:35:15Z</time>
      </trkpt>
      <trkpt lat="45.2557" lon="4.04481">
        <ele>699.80987548828</ele>
        <time>2022-05-11T03:35:24Z</time>
      </trkpt>
      <trkpt lat="45.25598" lon="4.04508">
        <ele>700.55450439453</ele>
        <time>2022-05-11T03:35:33Z</time>
      </trkpt>
      <trkpt lat="45.25618" lon="4.04535">
        <ele>700.39227294922</ele>
        <time>2022-05-11T03:35:40Z</time>
      </trkpt>
      <trkpt lat="45.25647" lon="4.04581">
        <ele>699.61334228516</ele>
        <time>2022-05-11T03:35:46Z</time>
      </trkpt>
      <trkpt lat="45.25656" lon="4.04609">
        <ele>698.84539794922</ele>
        <time>2022-05-11T03:35:57Z</time>
      </trkpt>
      <trkpt lat="45.25659" lon="4.04626">
        <ele>698.40991210938</ele>
        <time>2022-05-11T03:36:11Z</time>
      </trkpt>
      <trkpt lat="45.2566" lon="4.04668">
        <ele>698.5380859375</ele>
        <time>2022-05-11T03:36:17Z</time>
      </trkpt>
      <trkpt lat="45.25657" lon="4.04703">
        <ele>699.72332763672</ele>
        <time>2022-05-11T03:36:21Z</time>
      </trkpt>
      <trkpt lat="45.25653" lon="4.04729">
        <ele>703.21978759766</ele>
        <time>2022-05-11T03:36:30Z</time>
      </trkpt>
      <trkpt lat="45.25656" lon="4.04744">
        <ele>702.64343261719</ele>
        <time>2022-05-11T03:36:41Z</time>
      </trkpt>
      <trkpt lat="45.2566" lon="4.04751">
        <ele>700.45330810547</ele>
        <time>2022-05-11T03:36:50Z</time>
      </trkpt>
      <trkpt lat="45.25673" lon="4.04759">
        <ele>699.16217041016</ele>
        <time>2022-05-11T03:36:54Z</time>
      </trkpt>
      <trkpt lat="45.25684" lon="4.04763">
        <ele>699.59191894531</ele>
        <time>2022-05-11T03:37:21Z</time>
      </trkpt>
      <trkpt lat="45.25713" lon="4.04784">
        <ele>698.00103759766</ele>
        <time>2022-05-11T03:37:23Z</time>
      </trkpt>
      <trkpt lat="45.25752" lon="4.04808">
        <ele>699.830078125</ele>
        <time>2022-05-11T03:37:25Z</time>
      </trkpt>
      <trkpt lat="45.25761" lon="4.04811">
        <ele>700.75134277344</ele>
        <time>2022-05-11T03:37:29Z</time>
      </trkpt>
      <trkpt lat="45.25773" lon="4.0481">
        <ele>700.18072509766</ele>
        <time>2022-05-11T03:37:42Z</time>
      </trkpt>
      <trkpt lat="45.25801" lon="4.04805">
        <ele>698.02301025391</ele>
        <time>2022-05-11T03:38:05Z</time>
      </trkpt>
      <trkpt lat="45.25805" lon="4.04805">
        <ele>697.82287597656</ele>
        <time>2022-05-11T03:38:07Z</time>
      </trkpt>
      <trkpt lat="45.25815" lon="4.0481">
        <ele>698.06842041016</ele>
        <time>2022-05-11T03:38:13Z</time>
      </trkpt>
      <trkpt lat="45.25822" lon="4.0482">
        <ele>699.43139648438</ele>
        <time>2022-05-11T03:38:26Z</time>
      </trkpt>
      <trkpt lat="45.25848" lon="4.04848">
        <ele>696.69940185547</ele>
        <time>2022-05-11T03:38:41Z</time>
      </trkpt>
      <trkpt lat="45.25877" lon="4.04869">
        <ele>697.97113037109</ele>
        <time>2022-05-11T03:38:48Z</time>
      </trkpt>
      <trkpt lat="45.259" lon="4.04872">
        <ele>696.68737792969</ele>
        <time>2022-05-11T03:38:58Z</time>
      </trkpt>
      <trkpt lat="45.25923" lon="4.0488">
        <ele>694.86358642578</ele>
        <time>2022-05-11T03:39:05Z</time>
      </trkpt>
      <trkpt lat="45.25937" lon="4.04887">
        <ele>692.20556640625</ele>
        <time>2022-05-11T03:39:08Z</time>
      </trkpt>
      <trkpt lat="45.25984" lon="4.04908">
        <ele>689.38592529297</ele>
        <time>2022-05-11T03:39:12Z</time>
      </trkpt>
      <trkpt lat="45.26012" lon="4.04922">
        <ele>688.44104003906</ele>
        <time>2022-05-11T03:39:16Z</time>
      </trkpt>
      <trkpt lat="45.2602" lon="4.04922">
        <ele>688.04211425781</ele>
        <time>2022-05-11T03:39:24Z</time>
      </trkpt>
      <trkpt lat="45.26054" lon="4.0492">
        <ele>688.30987548828</ele>
        <time>2022-05-11T03:39:35Z</time>
      </trkpt>
      <trkpt lat="45.26092" lon="4.04919">
        <ele>688.81127929688</ele>
        <time>2022-05-11T03:39:40Z</time>
      </trkpt>
      <trkpt lat="45.26107" lon="4.04921">
        <ele>688.85980224609</ele>
        <time>2022-05-11T03:39:46Z</time>
      </trkpt>
      <trkpt lat="45.26119" lon="4.04926">
        <ele>689.27923583984</ele>
        <time>2022-05-11T03:39:50Z</time>
      </trkpt>
      <trkpt lat="45.26131" lon="4.04935">
        <ele>689.5419921875</ele>
        <time>2022-05-11T03:40:10Z</time>
      </trkpt>
      <trkpt lat="45.2614" lon="4.04945">
        <ele>689.49353027344</ele>
        <time>2022-05-11T03:40:29Z</time>
      </trkpt>
      <trkpt lat="45.26154" lon="4.04965">
        <ele>688.75579833984</ele>
        <time>2022-05-11T03:40:56Z</time>
      </trkpt>
      <trkpt lat="45.2616" lon="4.04978">
        <ele>688.54614257812</ele>
        <time>2022-05-11T03:41:04Z</time>
      </trkpt>
      <trkpt lat="45.26169" lon="4.05008">
        <ele>688.26373291016</ele>
        <time>2022-05-11T03:41:09Z</time>
      </trkpt>
      <trkpt lat="45.26174" lon="4.05032">
        <ele>688.63763427734</ele>
        <time>2022-05-11T03:41:16Z</time>
      </trkpt>
      <trkpt lat="45.26189" lon="4.05106">
        <ele>689.67077636719</ele>
        <time>2022-05-11T03:41:32Z</time>
      </trkpt>
      <trkpt lat="45.26198" lon="4.05146">
        <ele>690.98736572266</ele>
        <time>2022-05-11T03:41:41Z</time>
      </trkpt>
      <trkpt lat="45.26198" lon="4.05166">
        <ele>691.85614013672</ele>
        <time>2022-05-11T03:41:48Z</time>
      </trkpt>
      <trkpt lat="45.26194" lon="4.05185">
        <ele>692.42120361328</ele>
        <time>2022-05-11T03:41:51Z</time>
      </trkpt>
      <trkpt lat="45.26186" lon="4.0521">
        <ele>692.77850341797</ele>
        <time>2022-05-11T03:41:58Z</time>
      </trkpt>
      <trkpt lat="45.26173" lon="4.05256">
        <ele>692.04467773438</ele>
        <time>2022-05-11T03:42:09Z</time>
      </trkpt>
      <trkpt lat="45.26167" lon="4.05299">
        <ele>693.09631347656</ele>
        <time>2022-05-11T03:42:15Z</time>
      </trkpt>
      <trkpt lat="45.26167" lon="4.05336">
        <ele>694.24536132812</ele>
        <time>2022-05-11T03:42:24Z</time>
      </trkpt>
      <trkpt lat="45.26171" lon="4.05348">
        <ele>694.51721191406</ele>
        <time>2022-05-11T03:42:34Z</time>
      </trkpt>
      <trkpt lat="45.26175" lon="4.05354">
        <ele>694.64105224609</ele>
        <time>2022-05-11T03:42:36Z</time>
      </trkpt>
      <trkpt lat="45.26181" lon="4.05358">
        <ele>694.80157470703</ele>
        <time>2022-05-11T03:42:39Z</time>
      </trkpt>
      <trkpt lat="45.26196" lon="4.05365">
        <ele>695.27490234375</ele>
        <time>2022-05-11T03:42:43Z</time>
      </trkpt>
      <trkpt lat="45.26209" lon="4.05379">
        <ele>695.89312744141</ele>
        <time>2022-05-11T03:42:45Z</time>
      </trkpt>
      <trkpt lat="45.26215" lon="4.05391">
        <ele>696.43231201172</ele>
        <time>2022-05-11T03:42:48Z</time>
      </trkpt>
      <trkpt lat="45.26222" lon="4.05423">
        <ele>698.68109130859</ele>
        <time>2022-05-11T03:42:51Z</time>
      </trkpt>
      <trkpt lat="45.26232" lon="4.05514">
        <ele>701.66656494141</ele>
        <time>2022-05-11T03:42:58Z</time>
      </trkpt>
      <trkpt lat="45.26238" lon="4.05544">
        <ele>703.17633056641</ele>
        <time>2022-05-11T03:43:03Z</time>
      </trkpt>
      <trkpt lat="45.26246" lon="4.05564">
        <ele>704.15283203125</ele>
        <time>2022-05-11T03:43:06Z</time>
      </trkpt>
      <trkpt lat="45.26254" lon="4.05614">
        <ele>706.90753173828</ele>
        <time>2022-05-11T03:43:13Z</time>
      </trkpt>
      <trkpt lat="45.26266" lon="4.05662">
        <ele>706.92456054688</ele>
        <time>2022-05-11T03:43:18Z</time>
      </trkpt>
      <trkpt lat="45.26287" lon="4.05732">
        <ele>708.96417236328</ele>
        <time>2022-05-11T03:43:22Z</time>
      </trkpt>
      <trkpt lat="45.2631" lon="4.05823">
        <ele>709.96038818359</ele>
        <time>2022-05-11T03:43:28Z</time>
      </trkpt>
      <trkpt lat="45.26327" lon="4.05895">
        <ele>713.46441650391</ele>
        <time>2022-05-11T03:43:32Z</time>
      </trkpt>
      <trkpt lat="45.26333" lon="4.05925">
        <ele>716.39025878906</ele>
        <time>2022-05-11T03:43:38Z</time>
      </trkpt>
      <trkpt lat="45.2633" lon="4.05951">
        <ele>717.03234863281</ele>
        <time>2022-05-11T03:43:41Z</time>
      </trkpt>
      <trkpt lat="45.26324" lon="4.05995">
        <ele>714.73333740234</ele>
        <time>2022-05-11T03:43:45Z</time>
      </trkpt>
      <trkpt lat="45.2631" lon="4.06082">
        <ele>708.32897949219</ele>
        <time>2022-05-11T03:43:54Z</time>
      </trkpt>
      <trkpt lat="45.26307" lon="4.06113">
        <ele>707.99334716797</ele>
        <time>2022-05-11T03:43:56Z</time>
      </trkpt>
      <trkpt lat="45.26306" lon="4.06169">
        <ele>703.56207275391</ele>
        <time>2022-05-11T03:44:03Z</time>
      </trkpt>
      <trkpt lat="45.2631" lon="4.06218">
        <ele>701.58911132812</ele>
        <time>2022-05-11T03:44:12Z</time>
      </trkpt>
      <trkpt lat="45.26309" lon="4.06238">
        <ele>700.75775146484</ele>
        <time>2022-05-11T03:44:19Z</time>
      </trkpt>
      <trkpt lat="45.26305" lon="4.06255">
        <ele>699.89562988281</ele>
        <time>2022-05-11T03:44:33Z</time>
      </trkpt>
      <trkpt lat="45.26297" lon="4.06275">
        <ele>699.31195068359</ele>
        <time>2022-05-11T03:44:38Z</time>
      </trkpt>
      <trkpt lat="45.2626" lon="4.06357">
        <ele>698.83227539062</ele>
        <time>2022-05-11T03:44:43Z</time>
      </trkpt>
      <trkpt lat="45.2625" lon="4.06386">
        <ele>697.42083740234</ele>
        <time>2022-05-11T03:44:45Z</time>
      </trkpt>
      <trkpt lat="45.26246" lon="4.06402">
        <ele>696.36920166016</ele>
        <time>2022-05-11T03:44:52Z</time>
      </trkpt>
      <trkpt lat="45.26245" lon="4.06418">
        <ele>695.91674804688</ele>
        <time>2022-05-11T03:44:58Z</time>
      </trkpt>
      <trkpt lat="45.26251" lon="4.06444">
        <ele>697.25207519531</ele>
        <time>2022-05-11T03:45:13Z</time>
      </trkpt>
      <trkpt lat="45.26257" lon="4.06453">
        <ele>697.72766113281</ele>
        <time>2022-05-11T03:45:19Z</time>
      </trkpt>
      <trkpt lat="45.26266" lon="4.0646">
        <ele>697.37591552734</ele>
        <time>2022-05-11T03:45:21Z</time>
      </trkpt>
      <trkpt lat="45.2628" lon="4.06464">
        <ele>695.75231933594</ele>
        <time>2022-05-11T03:45:23Z</time>
      </trkpt>
      <trkpt lat="45.263" lon="4.06468">
        <ele>694.38165283203</ele>
        <time>2022-05-11T03:45:33Z</time>
      </trkpt>
      <trkpt lat="45.26357" lon="4.06482">
        <ele>691.01501464844</ele>
        <time>2022-05-11T03:45:38Z</time>
      </trkpt>
      <trkpt lat="45.26374" lon="4.06485">
        <ele>690.49438476562</ele>
        <time>2022-05-11T03:45:43Z</time>
      </trkpt>
      <trkpt lat="45.2641" lon="4.06495">
        <ele>690.44281005859</ele>
        <time>2022-05-11T03:45:48Z</time>
      </trkpt>
      <trkpt lat="45.26426" lon="4.06504">
        <ele>690.88488769531</ele>
        <time>2022-05-11T03:45:52Z</time>
      </trkpt>
      <trkpt lat="45.26443" lon="4.06519">
        <ele>691.39288330078</ele>
        <time>2022-05-11T03:46:00Z</time>
      </trkpt>
      <trkpt lat="45.26504" lon="4.06603">
        <ele>692.76647949219</ele>
        <time>2022-05-11T03:46:05Z</time>
      </trkpt>
      <trkpt lat="45.26515" lon="4.06621">
        <ele>691.56280517578</ele>
        <time>2022-05-11T03:46:24Z</time>
      </trkpt>
      <trkpt lat="45.2652" lon="4.06638">
        <ele>691.78179931641</ele>
        <time>2022-05-11T03:46:35Z</time>
      </trkpt>
      <trkpt lat="45.26527" lon="4.067">
        <ele>690.15509033203</ele>
        <time>2022-05-11T03:46:41Z</time>
      </trkpt>
      <trkpt lat="45.26529" lon="4.06767">
        <ele>689.04718017578</ele>
        <time>2022-05-11T03:46:46Z</time>
      </trkpt>
      <trkpt lat="45.26524" lon="4.06846">
        <ele>687.48834228516</ele>
        <time>2022-05-11T03:46:54Z</time>
      </trkpt>
      <trkpt lat="45.26515" lon="4.06911">
        <ele>685.44110107422</ele>
        <time>2022-05-11T03:47:12Z</time>
      </trkpt>
      <trkpt lat="45.26504" lon="4.0696">
        <ele>683.61248779297</ele>
        <time>2022-05-11T03:47:18Z</time>
      </trkpt>
      <trkpt lat="45.26495" lon="4.06982">
        <ele>681.93841552734</ele>
        <time>2022-05-11T03:47:21Z</time>
      </trkpt>
      <trkpt lat="45.26459" lon="4.07071">
        <ele>682.39599609375</ele>
        <time>2022-05-11T03:47:25Z</time>
      </trkpt>
      <trkpt lat="45.26444" lon="4.07117">
        <ele>679.28100585938</ele>
        <time>2022-05-11T03:47:29Z</time>
      </trkpt>
      <trkpt lat="45.26434" lon="4.07155">
        <ele>677.03472900391</ele>
        <time>2022-05-11T03:47:34Z</time>
      </trkpt>
      <trkpt lat="45.26425" lon="4.07196">
        <ele>678.28137207031</ele>
        <time>2022-05-11T03:47:41Z</time>
      </trkpt>
      <trkpt lat="45.26416" lon="4.07222">
        <ele>677.36328125</ele>
        <time>2022-05-11T03:47:45Z</time>
      </trkpt>
      <trkpt lat="45.26401" lon="4.07281">
        <ele>674.77496337891</ele>
        <time>2022-05-11T03:47:47Z</time>
      </trkpt>
      <trkpt lat="45.26398" lon="4.07328">
        <ele>670.39581298828</ele>
        <time>2022-05-11T03:48:01Z</time>
      </trkpt>
      <trkpt lat="45.26396" lon="4.07347">
        <ele>669.04162597656</ele>
        <time>2022-05-11T03:48:05Z</time>
      </trkpt>
      <trkpt lat="45.26386" lon="4.07383">
        <ele>666.52941894531</ele>
        <time>2022-05-11T03:48:09Z</time>
      </trkpt>
      <trkpt lat="45.26376" lon="4.07405">
        <ele>664.87908935547</ele>
        <time>2022-05-11T03:48:25Z</time>
      </trkpt>
      <trkpt lat="45.26355" lon="4.07444">
        <ele>662.16882324219</ele>
        <time>2022-05-11T03:48:30Z</time>
      </trkpt>
      <trkpt lat="45.2635" lon="4.07456">
        <ele>661.06408691406</ele>
        <time>2022-05-11T03:48:41Z</time>
      </trkpt>
      <trkpt lat="45.26346" lon="4.07473">
        <ele>662.30108642578</ele>
        <time>2022-05-11T03:48:54Z</time>
      </trkpt>
      <trkpt lat="45.26345" lon="4.07508">
        <ele>661.79241943359</ele>
        <time>2022-05-11T03:49:06Z</time>
      </trkpt>
      <trkpt lat="45.26346" lon="4.07533">
        <ele>663.25274658203</ele>
        <time>2022-05-11T03:49:19Z</time>
      </trkpt>
      <trkpt lat="45.26351" lon="4.07546">
        <ele>660.83642578125</ele>
        <time>2022-05-11T03:49:27Z</time>
      </trkpt>
      <trkpt lat="45.26362" lon="4.0756">
        <ele>661.83941650391</ele>
        <time>2022-05-11T03:49:31Z</time>
      </trkpt>
      <trkpt lat="45.26375" lon="4.07577">
        <ele>662.529296875</ele>
        <time>2022-05-11T03:49:36Z</time>
      </trkpt>
      <trkpt lat="45.26384" lon="4.07596">
        <ele>661.83996582031</ele>
        <time>2022-05-11T03:49:50Z</time>
      </trkpt>
      <trkpt lat="45.26385" lon="4.0763">
        <ele>661.10430908203</ele>
        <time>2022-05-11T03:50:00Z</time>
      </trkpt>
      <trkpt lat="45.26384" lon="4.07649">
        <ele>660.9775390625</ele>
        <time>2022-05-11T03:50:03Z</time>
      </trkpt>
      <trkpt lat="45.26383" lon="4.07684">
        <ele>661.13104248047</ele>
        <time>2022-05-11T03:50:03Z</time>
      </trkpt>
      <trkpt lat="45.26387" lon="4.07725">
        <ele>660.22454833984</ele>
        <time>2022-05-11T03:50:15Z</time>
      </trkpt>
      <trkpt lat="45.26391" lon="4.0775">
        <ele>659.61743164062</ele>
        <time>2022-05-11T03:50:27Z</time>
      </trkpt>
      <trkpt lat="45.26399" lon="4.07798">
        <ele>657.93029785156</ele>
        <time>2022-05-11T03:50:36Z</time>
      </trkpt>
      <trkpt lat="45.2645" lon="4.07824">
        <ele>654.17395019531</ele>
        <time>2022-05-11T03:50:41Z</time>
      </trkpt>
      <trkpt lat="45.26505" lon="4.07854">
        <ele>651.53399658203</ele>
        <time>2022-05-11T03:50:50Z</time>
      </trkpt>
      <trkpt lat="45.26538" lon="4.07874">
        <ele>651.05364990234</ele>
        <time>2022-05-11T03:50:58Z</time>
      </trkpt>
      <trkpt lat="45.26551" lon="4.07884">
        <ele>651.02563476562</ele>
        <time>2022-05-11T03:51:02Z</time>
      </trkpt>
      <trkpt lat="45.26555" lon="4.07892">
        <ele>651.00421142578</ele>
        <time>2022-05-11T03:51:07Z</time>
      </trkpt>
      <trkpt lat="45.26578" lon="4.07955">
        <ele>650.52886962891</ele>
        <time>2022-05-11T03:51:21Z</time>
      </trkpt>
      <trkpt lat="45.26595" lon="4.08">
        <ele>648.50653076172</ele>
        <time>2022-05-11T03:51:31Z</time>
      </trkpt>
      <trkpt lat="45.26603" lon="4.08018">
        <ele>646.56475830078</ele>
        <time>2022-05-11T03:51:40Z</time>
      </trkpt>
      <trkpt lat="45.26615" lon="4.08036">
        <ele>645.82940673828</ele>
        <time>2022-05-11T03:51:50Z</time>
      </trkpt>
      <trkpt lat="45.26636" lon="4.08066">
        <ele>643.140625</ele>
        <time>2022-05-11T03:52:06Z</time>
      </trkpt>
      <trkpt lat="45.26663" lon="4.08113">
        <ele>642.40405273438</ele>
        <time>2022-05-11T03:52:15Z</time>
      </trkpt>
      <trkpt lat="45.26679" lon="4.08133">
        <ele>642.24188232422</ele>
        <time>2022-05-11T03:52:24Z</time>
      </trkpt>
      <trkpt lat="45.26694" lon="4.08146">
        <ele>642.12542724609</ele>
        <time>2022-05-11T03:52:29Z</time>
      </trkpt>
      <trkpt lat="45.26722" lon="4.08167">
        <ele>643.12298583984</ele>
        <time>2022-05-11T03:52:29Z</time>
      </trkpt>
      <trkpt lat="45.26757" lon="4.08196">
        <ele>643.55358886719</ele>
        <time>2022-05-11T03:52:39Z</time>
      </trkpt>
      <trkpt lat="45.26767" lon="4.08207">
        <ele>643.47729492188</ele>
        <time>2022-05-11T03:52:51Z</time>
      </trkpt>
      <trkpt lat="45.26781" lon="4.08228">
        <ele>643.96740722656</ele>
        <time>2022-05-11T03:53:03Z</time>
      </trkpt>
      <trkpt lat="45.26788" lon="4.08245">
        <ele>644.00738525391</ele>
        <time>2022-05-11T03:53:12Z</time>
      </trkpt>
      <trkpt lat="45.26793" lon="4.08263">
        <ele>643.82275390625</ele>
        <time>2022-05-11T03:53:15Z</time>
      </trkpt>
      <trkpt lat="45.26795" lon="4.08283">
        <ele>643.69354248047</ele>
        <time>2022-05-11T03:53:19Z</time>
      </trkpt>
      <trkpt lat="45.26796" lon="4.08307">
        <ele>643.33544921875</ele>
        <time>2022-05-11T03:53:22Z</time>
      </trkpt>
      <trkpt lat="45.26794" lon="4.08334">
        <ele>642.22808837891</ele>
        <time>2022-05-11T03:53:28Z</time>
      </trkpt>
      <trkpt lat="45.26788" lon="4.08362">
        <ele>641.09069824219</ele>
        <time>2022-05-11T03:53:32Z</time>
      </trkpt>
      <trkpt lat="45.26781" lon="4.08383">
        <ele>640.72100830078</ele>
        <time>2022-05-11T03:53:40Z</time>
      </trkpt>
      <trkpt lat="45.26773" lon="4.08398">
        <ele>639.59649658203</ele>
        <time>2022-05-11T03:53:57Z</time>
      </trkpt>
      <trkpt lat="45.2676" lon="4.08411">
        <ele>638.31512451172</ele>
        <time>2022-05-11T03:54:22Z</time>
      </trkpt>
      <trkpt lat="45.26745" lon="4.0842">
        <ele>637.55169677734</ele>
        <time>2022-05-11T03:54:31Z</time>
      </trkpt>
      <trkpt lat="45.26728" lon="4.08424">
        <ele>638.01062011719</ele>
        <time>2022-05-11T03:54:33Z</time>
      </trkpt>
      <trkpt lat="45.26711" lon="4.08423">
        <ele>637.5712890625</ele>
        <time>2022-05-11T03:54:33Z</time>
      </trkpt>
      <trkpt lat="45.26689" lon="4.08425">
        <ele>634.83306884766</ele>
        <time>2022-05-11T03:54:43Z</time>
      </trkpt>
      <trkpt lat="45.26638" lon="4.08443">
        <ele>633.19049072266</ele>
        <time>2022-05-11T03:54:51Z</time>
      </trkpt>
      <trkpt lat="45.26618" lon="4.08462">
        <ele>630.58520507812</ele>
        <time>2022-05-11T03:54:57Z</time>
      </trkpt>
      <trkpt lat="45.26573" lon="4.08514">
        <ele>624.42376708984</ele>
        <time>2022-05-11T03:55:21Z</time>
      </trkpt>
      <trkpt lat="45.2656" lon="4.08532">
        <ele>621.98309326172</ele>
        <time>2022-05-11T03:55:26Z</time>
      </trkpt>
      <trkpt lat="45.26538" lon="4.08572">
        <ele>618.28192138672</ele>
        <time>2022-05-11T03:55:42Z</time>
      </trkpt>
      <trkpt lat="45.26509" lon="4.08632">
        <ele>612.69097900391</ele>
        <time>2022-05-11T03:55:50Z</time>
      </trkpt>
      <trkpt lat="45.26471" lon="4.08708">
        <ele>606.99682617188</ele>
        <time>2022-05-11T03:55:56Z</time>
      </trkpt>
      <trkpt lat="45.26425" lon="4.08797">
        <ele>599.31408691406</ele>
        <time>2022-05-11T03:56:00Z</time>
      </trkpt>
      <trkpt lat="45.26403" lon="4.08838">
        <ele>595.86578369141</ele>
        <time>2022-05-11T03:56:04Z</time>
      </trkpt>
      <trkpt lat="45.26372" lon="4.08875">
        <ele>591.35552978516</ele>
        <time>2022-05-11T03:56:11Z</time>
      </trkpt>
      <trkpt lat="45.26349" lon="4.08902">
        <ele>590.74139404297</ele>
        <time>2022-05-11T03:56:17Z</time>
      </trkpt>
      <trkpt lat="45.26351" lon="4.08918">
        <ele>590.10162353516</ele>
        <time>2022-05-11T03:56:25Z</time>
      </trkpt>
      <trkpt lat="45.2635" lon="4.08939">
        <ele>589.95709228516</ele>
        <time>2022-05-11T03:56:42Z</time>
      </trkpt>
      <trkpt lat="45.26348" lon="4.08964">
        <ele>588.92974853516</ele>
        <time>2022-05-11T03:56:48Z</time>
      </trkpt>
      <trkpt lat="45.26345" lon="4.0899">
        <ele>587.83532714844</ele>
        <time>2022-05-11T03:56:54Z</time>
      </trkpt>
      <trkpt lat="45.26329" lon="4.09097">
        <ele>580.98291015625</ele>
        <time>2022-05-11T03:57:00Z</time>
      </trkpt>
      <trkpt lat="45.26324" lon="4.09157">
        <ele>577.96252441406</ele>
        <time>2022-05-11T03:57:04Z</time>
      </trkpt>
      <trkpt lat="45.26318" lon="4.09186">
        <ele>576.20550537109</ele>
        <time>2022-05-11T03:57:10Z</time>
      </trkpt>
      <trkpt lat="45.26304" lon="4.09216">
        <ele>574.57806396484</ele>
        <time>2022-05-11T03:57:19Z</time>
      </trkpt>
      <trkpt lat="45.26286" lon="4.09259">
        <ele>574.46960449219</ele>
        <time>2022-05-11T03:57:34Z</time>
      </trkpt>
      <trkpt lat="45.26264" lon="4.09295">
        <ele>573.00653076172</ele>
        <time>2022-05-11T03:57:47Z</time>
      </trkpt>
      <trkpt lat="45.26227" lon="4.0935">
        <ele>572.20269775391</ele>
        <time>2022-05-11T03:57:49Z</time>
      </trkpt>
      <trkpt lat="45.26223" lon="4.09371">
        <ele>571.37683105469</ele>
        <time>2022-05-11T03:57:54Z</time>
      </trkpt>
      <trkpt lat="45.26222" lon="4.09387">
        <ele>570.86712646484</ele>
        <time>2022-05-11T03:58:01Z</time>
      </trkpt>
      <trkpt lat="45.26225" lon="4.09433">
        <ele>570.13232421875</ele>
        <time>2022-05-11T03:58:04Z</time>
      </trkpt>
      <trkpt lat="45.26225" lon="4.09468">
        <ele>569.83996582031</ele>
        <time>2022-05-11T03:58:06Z</time>
      </trkpt>
      <trkpt lat="45.26211" lon="4.09506">
        <ele>569.18206787109</ele>
        <time>2022-05-11T03:58:08Z</time>
      </trkpt>
      <trkpt lat="45.26202" lon="4.09542">
        <ele>567.9970703125</ele>
        <time>2022-05-11T03:58:12Z</time>
      </trkpt>
      <trkpt lat="45.26177" lon="4.09617">
        <ele>564.74554443359</ele>
        <time>2022-05-11T03:58:16Z</time>
      </trkpt>
      <trkpt lat="45.26159" lon="4.09655">
        <ele>563.77349853516</ele>
        <time>2022-05-11T03:58:19Z</time>
      </trkpt>
      <trkpt lat="45.26148" lon="4.09671">
        <ele>563.80810546875</ele>
        <time>2022-05-11T03:58:23Z</time>
      </trkpt>
      <trkpt lat="45.26099" lon="4.09731">
        <ele>563.16473388672</ele>
        <time>2022-05-11T03:58:26Z</time>
      </trkpt>
      <trkpt lat="45.26072" lon="4.09764">
        <ele>559.81787109375</ele>
        <time>2022-05-11T03:58:28Z</time>
      </trkpt>
      <trkpt lat="45.26061" lon="4.09775">
        <ele>558.91583251953</ele>
        <time>2022-05-11T03:58:31Z</time>
      </trkpt>
      <trkpt lat="45.26044" lon="4.09786">
        <ele>557.67437744141</ele>
        <time>2022-05-11T03:58:35Z</time>
      </trkpt>
      <trkpt lat="45.26037" lon="4.0979">
        <ele>555.83361816406</ele>
        <time>2022-05-11T03:58:41Z</time>
      </trkpt>
      <trkpt lat="45.26027" lon="4.09799">
        <ele>553.57110595703</ele>
        <time>2022-05-11T03:58:46Z</time>
      </trkpt>
      <trkpt lat="45.26012" lon="4.09823">
        <ele>552.65972900391</ele>
        <time>2022-05-11T03:59:00Z</time>
      </trkpt>
      <trkpt lat="45.25998" lon="4.09842">
        <ele>552.93853759766</ele>
        <time>2022-05-11T03:59:09Z</time>
      </trkpt>
      <trkpt lat="45.25994" lon="4.09849">
        <ele>552.71209716797</ele>
        <time>2022-05-11T03:59:19Z</time>
      </trkpt>
      <trkpt lat="45.25974" lon="4.09836">
        <ele>552.90338134766</ele>
        <time>2022-05-11T03:59:36Z</time>
      </trkpt>
      <trkpt lat="45.25968" lon="4.09833">
        <ele>553.21429443359</ele>
        <time>2022-05-11T03:59:44Z</time>
      </trkpt>
      <trkpt lat="45.25964" lon="4.0984">
        <ele>552.93933105469</ele>
        <time>2022-05-11T03:59:47Z</time>
      </trkpt>
      <trkpt lat="45.25957" lon="4.09852">
        <ele>553.23809814453</ele>
        <time>2022-05-11T03:59:51Z</time>
      </trkpt>
      <trkpt lat="45.25943" lon="4.09898">
        <ele>553.5078125</ele>
        <time>2022-05-11T03:59:55Z</time>
      </trkpt>
      <trkpt lat="45.25941" lon="4.09906">
        <ele>553.39801025391</ele>
        <time>2022-05-11T03:59:58Z</time>
      </trkpt>
      <trkpt lat="45.25931" lon="4.09941">
        <ele>552.96356201172</ele>
        <time>2022-05-11T04:00:01Z</time>
      </trkpt>
      <trkpt lat="45.2595" lon="4.09959">
        <ele>552.10070800781</ele>
        <time>2022-05-11T04:00:06Z</time>
      </trkpt>
      <trkpt lat="45.25954" lon="4.09964">
        <ele>551.86053466797</ele>
        <time>2022-05-11T04:00:11Z</time>
      </trkpt>
      <trkpt lat="45.25956" lon="4.09968">
        <ele>551.68212890625</ele>
        <time>2022-05-11T04:00:22Z</time>
      </trkpt>
      <trkpt lat="45.25958" lon="4.09982">
        <ele>551.14428710938</ele>
        <time>2022-05-11T04:00:30Z</time>
      </trkpt>
      <trkpt lat="45.25955" lon="4.09985">
        <ele>550.83099365234</ele>
        <time>2022-05-11T04:00:34Z</time>
      </trkpt>
      <trkpt lat="45.2595" lon="4.09995">
        <ele>550.07330322266</ele>
        <time>2022-05-11T04:00:39Z</time>
      </trkpt>
      <trkpt lat="45.25944" lon="4.10014">
        <ele>549.7431640625</ele>
        <time>2022-05-11T04:00:44Z</time>
      </trkpt>
      <trkpt lat="45.25941" lon="4.10032">
        <ele>550.91735839844</ele>
        <time>2022-05-11T04:00:48Z</time>
      </trkpt>
      <trkpt lat="45.2594" lon="4.10037">
        <ele>551.18395996094</ele>
        <time>2022-05-11T04:00:53Z</time>
      </trkpt>
      <trkpt lat="45.25933" lon="4.10091">
        <ele>553.12493896484</ele>
        <time>2022-05-11T04:01:02Z</time>
      </trkpt>
      <trkpt lat="45.25935" lon="4.10174">
        <ele>553.06066894531</ele>
        <time>2022-05-11T04:01:07Z</time>
      </trkpt>
      <trkpt lat="45.25933" lon="4.10177">
        <ele>553.13537597656</ele>
        <time>2022-05-11T04:01:16Z</time>
      </trkpt>
      <trkpt lat="45.25933" lon="4.10181">
        <ele>553.3427734375</ele>
        <time>2022-05-11T04:01:20Z</time>
      </trkpt>
      <trkpt lat="45.25933" lon="4.10183">
        <ele>553.44647216797</ele>
        <time>2022-05-11T04:01:25Z</time>
      </trkpt>
      <trkpt lat="45.25933" lon="4.1021">
        <ele>555.44958496094</ele>
        <time>2022-05-11T04:01:30Z</time>
      </trkpt>
      <trkpt lat="45.25935" lon="4.10365">
        <ele>558.25994873047</ele>
        <time>2022-05-11T04:02:08Z</time>
      </trkpt>
      <trkpt lat="45.25928" lon="4.10407">
        <ele>558.142578125</ele>
        <time>2022-05-11T04:02:39Z</time>
      </trkpt>
      <trkpt lat="45.25922" lon="4.10426">
        <ele>558.14892578125</ele>
        <time>2022-05-11T04:03:11Z</time>
      </trkpt>
      <trkpt lat="45.25914" lon="4.10442">
        <ele>558.39709472656</ele>
        <time>2022-05-11T04:03:13Z</time>
      </trkpt>
      <trkpt lat="45.25908" lon="4.10451">
        <ele>559.11804199219</ele>
        <time>2022-05-11T04:03:20Z</time>
      </trkpt>
      <trkpt lat="45.259" lon="4.1045">
        <ele>559.2099609375</ele>
        <time>2022-05-11T04:03:35Z</time>
      </trkpt>
      <trkpt lat="45.25877" lon="4.10442">
        <ele>558.64056396484</ele>
        <time>2022-05-11T04:03:43Z</time>
      </trkpt>
      <trkpt lat="45.25861" lon="4.10433">
        <ele>559.30596923828</ele>
        <time>2022-05-11T04:03:48Z</time>
        <extensions>
          <visugpx:TrkExtension xmlns:visugpx="https://www.visugpx.com/editgpx/">
            <visugpx:node>1</visugpx:node>
            </visugpx:TrkExtension>
        </extensions>
      </trkpt>
    </trkseg>
  </trk>
</gpx>